<?xml version="1.0" encoding="UTF-8" standalone="no" ?>
<gpx xmlns="http://www.topografix.com/GPX/1/1" xmlns:xsi="http://www.w3.org/2001/XMLSchema-instance" xsi:schemaLocation="http://www.topografix.com/GPX/1/1 http://www.topografix.com/GPX/1/1/gpx.xsd" version="1.1" creator="VisuGPX - https://www.visugpx.com">
  <metadata>
    <name>Repérage TSVB 1ère Partie</name>
    <desc><![CDATA[Groupe de 12 au départ, belle \"ballade\" dans des conditions optimales : beau temps, frais, etc... Et paysages magnifiques avec les couleurs d\'automne et le Mercantour déjà bien enneigé.]]></desc>
  </metadata>
  <trk>
    <name><![CDATA[67]]></name>
    <trkseg>
      <trkpt lat="44.07106" lon="7.22181">
        <ele>1510</ele>
        <time>2010-11-06T07:19:51Z</time>
      </trkpt>
      <trkpt lat="44.07106" lon="7.22182">
        <ele>1510</ele>
        <time>2010-11-06T07:19:54Z</time>
      </trkpt>
      <trkpt lat="44.07107" lon="7.22186">
        <ele>1510</ele>
        <time>2010-11-06T07:19:56Z</time>
      </trkpt>
      <trkpt lat="44.07103" lon="7.22195">
        <ele>1509</ele>
        <time>2010-11-06T07:20:00Z</time>
      </trkpt>
      <trkpt lat="44.07094" lon="7.222">
        <ele>1509</ele>
        <time>2010-11-06T07:20:04Z</time>
      </trkpt>
      <trkpt lat="44.07082" lon="7.2221">
        <ele>1520</ele>
        <time>2010-11-06T07:20:11Z</time>
      </trkpt>
      <trkpt lat="44.07074" lon="7.22205">
        <ele>1521</ele>
        <time>2010-11-06T07:20:16Z</time>
      </trkpt>
      <trkpt lat="44.07072" lon="7.22192">
        <ele>1521</ele>
        <time>2010-11-06T07:20:21Z</time>
      </trkpt>
      <trkpt lat="44.07072" lon="7.22181">
        <ele>1519</ele>
        <time>2010-11-06T07:20:25Z</time>
      </trkpt>
      <trkpt lat="44.07075" lon="7.22155">
        <ele>1522</ele>
        <time>2010-11-06T07:20:34Z</time>
      </trkpt>
      <trkpt lat="44.07078" lon="7.22135">
        <ele>1527</ele>
        <time>2010-11-06T07:20:41Z</time>
      </trkpt>
      <trkpt lat="44.07081" lon="7.22114">
        <ele>1528</ele>
        <time>2010-11-06T07:20:48Z</time>
      </trkpt>
      <trkpt lat="44.07081" lon="7.2209">
        <ele>1522</ele>
        <time>2010-11-06T07:20:56Z</time>
      </trkpt>
      <trkpt lat="44.0708" lon="7.22075">
        <ele>1525</ele>
        <time>2010-11-06T07:21:01Z</time>
      </trkpt>
      <trkpt lat="44.0708" lon="7.22053">
        <ele>1533</ele>
        <time>2010-11-06T07:21:09Z</time>
      </trkpt>
      <trkpt lat="44.0708" lon="7.2204">
        <ele>1534</ele>
        <time>2010-11-06T07:21:15Z</time>
      </trkpt>
      <trkpt lat="44.07079" lon="7.22024">
        <ele>1532</ele>
        <time>2010-11-06T07:21:22Z</time>
      </trkpt>
      <trkpt lat="44.07076" lon="7.22006">
        <ele>1527</ele>
        <time>2010-11-06T07:21:29Z</time>
      </trkpt>
      <trkpt lat="44.07072" lon="7.21986">
        <ele>1528</ele>
        <time>2010-11-06T07:21:37Z</time>
      </trkpt>
      <trkpt lat="44.07068" lon="7.21965">
        <ele>1530</ele>
        <time>2010-11-06T07:21:46Z</time>
      </trkpt>
      <trkpt lat="44.07062" lon="7.2195">
        <ele>1530</ele>
        <time>2010-11-06T07:21:53Z</time>
      </trkpt>
      <trkpt lat="44.07053" lon="7.21937">
        <ele>1530</ele>
        <time>2010-11-06T07:22:00Z</time>
      </trkpt>
      <trkpt lat="44.07043" lon="7.21926">
        <ele>1533</ele>
        <time>2010-11-06T07:22:07Z</time>
      </trkpt>
      <trkpt lat="44.07032" lon="7.21915">
        <ele>1523</ele>
        <time>2010-11-06T07:22:15Z</time>
      </trkpt>
      <trkpt lat="44.07024" lon="7.21904">
        <ele>1525</ele>
        <time>2010-11-06T07:22:22Z</time>
      </trkpt>
      <trkpt lat="44.07016" lon="7.21893">
        <ele>1525</ele>
        <time>2010-11-06T07:22:29Z</time>
      </trkpt>
      <trkpt lat="44.07008" lon="7.21882">
        <ele>1522</ele>
        <time>2010-11-06T07:22:36Z</time>
      </trkpt>
      <trkpt lat="44.06999" lon="7.21875">
        <ele>1542</ele>
        <time>2010-11-06T07:22:42Z</time>
      </trkpt>
      <trkpt lat="44.0699" lon="7.21868">
        <ele>1541</ele>
        <time>2010-11-06T07:22:49Z</time>
      </trkpt>
      <trkpt lat="44.06977" lon="7.2186">
        <ele>1540</ele>
        <time>2010-11-06T07:22:58Z</time>
      </trkpt>
      <trkpt lat="44.06966" lon="7.21856">
        <ele>1542</ele>
        <time>2010-11-06T07:23:05Z</time>
      </trkpt>
      <trkpt lat="44.06958" lon="7.21852">
        <ele>1543</ele>
        <time>2010-11-06T07:23:11Z</time>
      </trkpt>
      <trkpt lat="44.06951" lon="7.21852">
        <ele>1544</ele>
        <time>2010-11-06T07:23:17Z</time>
      </trkpt>
      <trkpt lat="44.06948" lon="7.21847">
        <ele>1544</ele>
        <time>2010-11-06T07:23:26Z</time>
      </trkpt>
      <trkpt lat="44.0694" lon="7.21845">
        <ele>1544</ele>
        <time>2010-11-06T07:23:30Z</time>
      </trkpt>
      <trkpt lat="44.06923" lon="7.21843">
        <ele>1544</ele>
        <time>2010-11-06T07:23:38Z</time>
      </trkpt>
      <trkpt lat="44.06905" lon="7.2184">
        <ele>1551</ele>
        <time>2010-11-06T07:23:46Z</time>
      </trkpt>
      <trkpt lat="44.06887" lon="7.21839">
        <ele>1556</ele>
        <time>2010-11-06T07:23:54Z</time>
      </trkpt>
      <trkpt lat="44.06871" lon="7.21842">
        <ele>1558</ele>
        <time>2010-11-06T07:24:01Z</time>
      </trkpt>
      <trkpt lat="44.06854" lon="7.21845">
        <ele>1558</ele>
        <time>2010-11-06T07:24:09Z</time>
      </trkpt>
      <trkpt lat="44.06833" lon="7.21845">
        <ele>1555</ele>
        <time>2010-11-06T07:24:18Z</time>
      </trkpt>
      <trkpt lat="44.06815" lon="7.21848">
        <ele>1556</ele>
        <time>2010-11-06T07:24:26Z</time>
      </trkpt>
      <trkpt lat="44.06797" lon="7.21849">
        <ele>1556</ele>
        <time>2010-11-06T07:24:34Z</time>
      </trkpt>
      <trkpt lat="44.06787" lon="7.21853">
        <ele>1556</ele>
        <time>2010-11-06T07:24:39Z</time>
      </trkpt>
      <trkpt lat="44.06769" lon="7.21866">
        <ele>1557</ele>
        <time>2010-11-06T07:24:48Z</time>
      </trkpt>
      <trkpt lat="44.06753" lon="7.21881">
        <ele>1560</ele>
        <time>2010-11-06T07:24:57Z</time>
      </trkpt>
      <trkpt lat="44.06745" lon="7.2189">
        <ele>1553</ele>
        <time>2010-11-06T07:25:03Z</time>
      </trkpt>
      <trkpt lat="44.06744" lon="7.21892">
        <ele>1553</ele>
        <time>2010-11-06T07:25:04Z</time>
      </trkpt>
      <trkpt lat="44.06734" lon="7.21903">
        <ele>1556</ele>
        <time>2010-11-06T07:25:10Z</time>
      </trkpt>
      <trkpt lat="44.06719" lon="7.21921">
        <ele>1573</ele>
        <time>2010-11-06T07:25:20Z</time>
      </trkpt>
      <trkpt lat="44.06707" lon="7.21939">
        <ele>1573</ele>
        <time>2010-11-06T07:25:29Z</time>
      </trkpt>
      <trkpt lat="44.06698" lon="7.21948">
        <ele>1574</ele>
        <time>2010-11-06T07:25:35Z</time>
      </trkpt>
      <trkpt lat="44.06688" lon="7.21955">
        <ele>1574</ele>
        <time>2010-11-06T07:25:41Z</time>
      </trkpt>
      <trkpt lat="44.06673" lon="7.21963">
        <ele>1575</ele>
        <time>2010-11-06T07:25:49Z</time>
      </trkpt>
      <trkpt lat="44.06657" lon="7.21975">
        <ele>1566</ele>
        <time>2010-11-06T07:25:58Z</time>
      </trkpt>
      <trkpt lat="44.06645" lon="7.21986">
        <ele>1567</ele>
        <time>2010-11-06T07:26:05Z</time>
      </trkpt>
      <trkpt lat="44.06637" lon="7.21997">
        <ele>1566</ele>
        <time>2010-11-06T07:26:11Z</time>
      </trkpt>
      <trkpt lat="44.06625" lon="7.22009">
        <ele>1583</ele>
        <time>2010-11-06T07:26:18Z</time>
      </trkpt>
      <trkpt lat="44.06611" lon="7.22023">
        <ele>1583</ele>
        <time>2010-11-06T07:26:26Z</time>
      </trkpt>
      <trkpt lat="44.06601" lon="7.22033">
        <ele>1584</ele>
        <time>2010-11-06T07:26:32Z</time>
      </trkpt>
      <trkpt lat="44.06589" lon="7.22046">
        <ele>1586</ele>
        <time>2010-11-06T07:26:39Z</time>
      </trkpt>
      <trkpt lat="44.06576" lon="7.22058">
        <ele>1583</ele>
        <time>2010-11-06T07:26:46Z</time>
      </trkpt>
      <trkpt lat="44.06565" lon="7.22067">
        <ele>1584</ele>
        <time>2010-11-06T07:26:52Z</time>
      </trkpt>
      <trkpt lat="44.06549" lon="7.22084">
        <ele>1591</ele>
        <time>2010-11-06T07:27:01Z</time>
      </trkpt>
      <trkpt lat="44.06536" lon="7.22087">
        <ele>1590</ele>
        <time>2010-11-06T07:27:07Z</time>
      </trkpt>
      <trkpt lat="44.06518" lon="7.22088">
        <ele>1588</ele>
        <time>2010-11-06T07:27:15Z</time>
      </trkpt>
      <trkpt lat="44.06505" lon="7.22091">
        <ele>1587</ele>
        <time>2010-11-06T07:27:21Z</time>
      </trkpt>
      <trkpt lat="44.06487" lon="7.22094">
        <ele>1581</ele>
        <time>2010-11-06T07:27:30Z</time>
      </trkpt>
      <trkpt lat="44.06482" lon="7.22093">
        <ele>1580</ele>
        <time>2010-11-06T07:27:35Z</time>
      </trkpt>
      <trkpt lat="44.06483" lon="7.22093">
        <ele>1580</ele>
        <time>2010-11-06T07:27:43Z</time>
      </trkpt>
      <trkpt lat="44.06483" lon="7.22095">
        <ele>1580</ele>
        <time>2010-11-06T07:28:36Z</time>
      </trkpt>
      <trkpt lat="44.06484" lon="7.22096">
        <ele>1580</ele>
        <time>2010-11-06T07:29:25Z</time>
      </trkpt>
      <trkpt lat="44.06484" lon="7.22096">
        <ele>1580</ele>
        <time>2010-11-06T07:29:36Z</time>
      </trkpt>
      <trkpt lat="44.06484" lon="7.22095">
        <ele>1580</ele>
        <time>2010-11-06T07:29:48Z</time>
      </trkpt>
      <trkpt lat="44.06485" lon="7.22096">
        <ele>1580</ele>
        <time>2010-11-06T07:30:12Z</time>
      </trkpt>
      <trkpt lat="44.06485" lon="7.22097">
        <ele>1580</ele>
        <time>2010-11-06T07:30:24Z</time>
      </trkpt>
      <trkpt lat="44.06484" lon="7.22098">
        <ele>1580</ele>
        <time>2010-11-06T07:30:25Z</time>
      </trkpt>
      <trkpt lat="44.06477" lon="7.22102">
        <ele>1578</ele>
        <time>2010-11-06T07:30:29Z</time>
      </trkpt>
      <trkpt lat="44.06449" lon="7.22108">
        <ele>1575</ele>
        <time>2010-11-06T07:30:34Z</time>
      </trkpt>
      <trkpt lat="44.06426" lon="7.221">
        <ele>1573</ele>
        <time>2010-11-06T07:30:37Z</time>
      </trkpt>
      <trkpt lat="44.06399" lon="7.22079">
        <ele>1573</ele>
        <time>2010-11-06T07:30:41Z</time>
      </trkpt>
      <trkpt lat="44.06364" lon="7.2205">
        <ele>1573</ele>
        <time>2010-11-06T07:30:46Z</time>
      </trkpt>
      <trkpt lat="44.06354" lon="7.22043">
        <ele>1574</ele>
        <time>2010-11-06T07:30:48Z</time>
      </trkpt>
      <trkpt lat="44.06337" lon="7.22044">
        <ele>1572</ele>
        <time>2010-11-06T07:30:51Z</time>
      </trkpt>
      <trkpt lat="44.06324" lon="7.22066">
        <ele>1569</ele>
        <time>2010-11-06T07:30:55Z</time>
      </trkpt>
      <trkpt lat="44.06321" lon="7.22076">
        <ele>1567</ele>
        <time>2010-11-06T07:30:57Z</time>
      </trkpt>
      <trkpt lat="44.06317" lon="7.22086">
        <ele>1562</ele>
        <time>2010-11-06T07:31:00Z</time>
      </trkpt>
      <trkpt lat="44.06308" lon="7.22096">
        <ele>1564</ele>
        <time>2010-11-06T07:31:07Z</time>
      </trkpt>
      <trkpt lat="44.06301" lon="7.22107">
        <ele>1565</ele>
        <time>2010-11-06T07:31:14Z</time>
      </trkpt>
      <trkpt lat="44.06294" lon="7.22115">
        <ele>1566</ele>
        <time>2010-11-06T07:31:20Z</time>
      </trkpt>
      <trkpt lat="44.06286" lon="7.22127">
        <ele>1567</ele>
        <time>2010-11-06T07:31:28Z</time>
      </trkpt>
      <trkpt lat="44.06279" lon="7.22138">
        <ele>1567</ele>
        <time>2010-11-06T07:31:35Z</time>
      </trkpt>
      <trkpt lat="44.06274" lon="7.22149">
        <ele>1569</ele>
        <time>2010-11-06T07:31:42Z</time>
      </trkpt>
      <trkpt lat="44.06269" lon="7.22159">
        <ele>1570</ele>
        <time>2010-11-06T07:31:48Z</time>
      </trkpt>
      <trkpt lat="44.06263" lon="7.22169">
        <ele>1570</ele>
        <time>2010-11-06T07:31:55Z</time>
      </trkpt>
      <trkpt lat="44.06258" lon="7.22177">
        <ele>1571</ele>
        <time>2010-11-06T07:32:01Z</time>
      </trkpt>
      <trkpt lat="44.06253" lon="7.22186">
        <ele>1569</ele>
        <time>2010-11-06T07:32:07Z</time>
      </trkpt>
      <trkpt lat="44.06246" lon="7.22195">
        <ele>1585</ele>
        <time>2010-11-06T07:32:14Z</time>
      </trkpt>
      <trkpt lat="44.06239" lon="7.22207">
        <ele>1586</ele>
        <time>2010-11-06T07:32:23Z</time>
      </trkpt>
      <trkpt lat="44.06233" lon="7.22216">
        <ele>1586</ele>
        <time>2010-11-06T07:32:30Z</time>
      </trkpt>
      <trkpt lat="44.06225" lon="7.22226">
        <ele>1587</ele>
        <time>2010-11-06T07:32:38Z</time>
      </trkpt>
      <trkpt lat="44.06217" lon="7.22235">
        <ele>1588</ele>
        <time>2010-11-06T07:32:46Z</time>
      </trkpt>
      <trkpt lat="44.06209" lon="7.22243">
        <ele>1589</ele>
        <time>2010-11-06T07:32:53Z</time>
      </trkpt>
      <trkpt lat="44.06201" lon="7.22252">
        <ele>1583</ele>
        <time>2010-11-06T07:33:01Z</time>
      </trkpt>
      <trkpt lat="44.06192" lon="7.22258">
        <ele>1585</ele>
        <time>2010-11-06T07:33:08Z</time>
      </trkpt>
      <trkpt lat="44.06183" lon="7.22262">
        <ele>1587</ele>
        <time>2010-11-06T07:33:15Z</time>
      </trkpt>
      <trkpt lat="44.06172" lon="7.22267">
        <ele>1588</ele>
        <time>2010-11-06T07:33:23Z</time>
      </trkpt>
      <trkpt lat="44.06162" lon="7.22271">
        <ele>1599</ele>
        <time>2010-11-06T07:33:30Z</time>
      </trkpt>
      <trkpt lat="44.06153" lon="7.22274">
        <ele>1599</ele>
        <time>2010-11-06T07:33:36Z</time>
      </trkpt>
      <trkpt lat="44.06143" lon="7.22276">
        <ele>1600</ele>
        <time>2010-11-06T07:33:43Z</time>
      </trkpt>
      <trkpt lat="44.06135" lon="7.2228">
        <ele>1601</ele>
        <time>2010-11-06T07:33:50Z</time>
      </trkpt>
      <trkpt lat="44.06125" lon="7.22285">
        <ele>1602</ele>
        <time>2010-11-06T07:33:58Z</time>
      </trkpt>
      <trkpt lat="44.06116" lon="7.22291">
        <ele>1602</ele>
        <time>2010-11-06T07:34:06Z</time>
      </trkpt>
      <trkpt lat="44.06107" lon="7.223">
        <ele>1603</ele>
        <time>2010-11-06T07:34:14Z</time>
      </trkpt>
      <trkpt lat="44.06103" lon="7.22309">
        <ele>1602</ele>
        <time>2010-11-06T07:34:20Z</time>
      </trkpt>
      <trkpt lat="44.06096" lon="7.2232">
        <ele>1603</ele>
        <time>2010-11-06T07:34:27Z</time>
      </trkpt>
      <trkpt lat="44.0609" lon="7.22334">
        <ele>1601</ele>
        <time>2010-11-06T07:34:35Z</time>
      </trkpt>
      <trkpt lat="44.06086" lon="7.2235">
        <ele>1597</ele>
        <time>2010-11-06T07:34:43Z</time>
      </trkpt>
      <trkpt lat="44.06083" lon="7.22364">
        <ele>1613</ele>
        <time>2010-11-06T07:34:50Z</time>
      </trkpt>
      <trkpt lat="44.0608" lon="7.22378">
        <ele>1614</ele>
        <time>2010-11-06T07:34:57Z</time>
      </trkpt>
      <trkpt lat="44.06078" lon="7.22389">
        <ele>1613</ele>
        <time>2010-11-06T07:35:03Z</time>
      </trkpt>
      <trkpt lat="44.06076" lon="7.22404">
        <ele>1611</ele>
        <time>2010-11-06T07:35:11Z</time>
      </trkpt>
      <trkpt lat="44.06073" lon="7.22415">
        <ele>1609</ele>
        <time>2010-11-06T07:35:17Z</time>
      </trkpt>
      <trkpt lat="44.06071" lon="7.22423">
        <ele>1610</ele>
        <time>2010-11-06T07:35:21Z</time>
      </trkpt>
      <trkpt lat="44.0607" lon="7.22427">
        <ele>1611</ele>
        <time>2010-11-06T07:35:23Z</time>
      </trkpt>
      <trkpt lat="44.06066" lon="7.2244">
        <ele>1614</ele>
        <time>2010-11-06T07:35:30Z</time>
      </trkpt>
      <trkpt lat="44.06064" lon="7.22452">
        <ele>1615</ele>
        <time>2010-11-06T07:35:36Z</time>
      </trkpt>
      <trkpt lat="44.0606" lon="7.22467">
        <ele>1616</ele>
        <time>2010-11-06T07:35:44Z</time>
      </trkpt>
      <trkpt lat="44.06057" lon="7.22481">
        <ele>1616</ele>
        <time>2010-11-06T07:35:51Z</time>
      </trkpt>
      <trkpt lat="44.06055" lon="7.22497">
        <ele>1616</ele>
        <time>2010-11-06T07:35:59Z</time>
      </trkpt>
      <trkpt lat="44.06054" lon="7.22514">
        <ele>1618</ele>
        <time>2010-11-06T07:36:07Z</time>
      </trkpt>
      <trkpt lat="44.06052" lon="7.22528">
        <ele>1619</ele>
        <time>2010-11-06T07:36:13Z</time>
      </trkpt>
      <trkpt lat="44.0605" lon="7.22545">
        <ele>1620</ele>
        <time>2010-11-06T07:36:21Z</time>
      </trkpt>
      <trkpt lat="44.0605" lon="7.2256">
        <ele>1620</ele>
        <time>2010-11-06T07:36:29Z</time>
      </trkpt>
      <trkpt lat="44.0605" lon="7.22572">
        <ele>1620</ele>
        <time>2010-11-06T07:36:35Z</time>
      </trkpt>
      <trkpt lat="44.06049" lon="7.22584">
        <ele>1624</ele>
        <time>2010-11-06T07:36:41Z</time>
      </trkpt>
      <trkpt lat="44.06049" lon="7.22599">
        <ele>1625</ele>
        <time>2010-11-06T07:36:49Z</time>
      </trkpt>
      <trkpt lat="44.06048" lon="7.22609">
        <ele>1625</ele>
        <time>2010-11-06T07:36:54Z</time>
      </trkpt>
      <trkpt lat="44.06048" lon="7.22625">
        <ele>1627</ele>
        <time>2010-11-06T07:37:02Z</time>
      </trkpt>
      <trkpt lat="44.06048" lon="7.2264">
        <ele>1627</ele>
        <time>2010-11-06T07:37:10Z</time>
      </trkpt>
      <trkpt lat="44.06048" lon="7.22655">
        <ele>1628</ele>
        <time>2010-11-06T07:37:17Z</time>
      </trkpt>
      <trkpt lat="44.06048" lon="7.22671">
        <ele>1633</ele>
        <time>2010-11-06T07:37:25Z</time>
      </trkpt>
      <trkpt lat="44.06048" lon="7.22677">
        <ele>1633</ele>
        <time>2010-11-06T07:37:28Z</time>
      </trkpt>
      <trkpt lat="44.06048" lon="7.22692">
        <ele>1634</ele>
        <time>2010-11-06T07:37:35Z</time>
      </trkpt>
      <trkpt lat="44.06048" lon="7.22706">
        <ele>1634</ele>
        <time>2010-11-06T07:37:42Z</time>
      </trkpt>
      <trkpt lat="44.06048" lon="7.22723">
        <ele>1635</ele>
        <time>2010-11-06T07:37:51Z</time>
      </trkpt>
      <trkpt lat="44.06049" lon="7.22737">
        <ele>1635</ele>
        <time>2010-11-06T07:37:58Z</time>
      </trkpt>
      <trkpt lat="44.06049" lon="7.22755">
        <ele>1637</ele>
        <time>2010-11-06T07:38:07Z</time>
      </trkpt>
      <trkpt lat="44.06049" lon="7.22767">
        <ele>1638</ele>
        <time>2010-11-06T07:38:13Z</time>
      </trkpt>
      <trkpt lat="44.0605" lon="7.22782">
        <ele>1638</ele>
        <time>2010-11-06T07:38:20Z</time>
      </trkpt>
      <trkpt lat="44.06051" lon="7.22799">
        <ele>1639</ele>
        <time>2010-11-06T07:38:28Z</time>
      </trkpt>
      <trkpt lat="44.06053" lon="7.22816">
        <ele>1639</ele>
        <time>2010-11-06T07:38:36Z</time>
      </trkpt>
      <trkpt lat="44.0605" lon="7.22828">
        <ele>1639</ele>
        <time>2010-11-06T07:38:42Z</time>
      </trkpt>
      <trkpt lat="44.06042" lon="7.2284">
        <ele>1638</ele>
        <time>2010-11-06T07:38:50Z</time>
      </trkpt>
      <trkpt lat="44.06038" lon="7.22848">
        <ele>1637</ele>
        <time>2010-11-06T07:38:56Z</time>
      </trkpt>
      <trkpt lat="44.06035" lon="7.22849">
        <ele>1637</ele>
        <time>2010-11-06T07:39:02Z</time>
      </trkpt>
      <trkpt lat="44.06035" lon="7.22849">
        <ele>1637</ele>
        <time>2010-11-06T07:39:15Z</time>
      </trkpt>
      <trkpt lat="44.06035" lon="7.22849">
        <ele>1637</ele>
        <time>2010-11-06T07:40:01Z</time>
      </trkpt>
      <trkpt lat="44.06034" lon="7.22851">
        <ele>1637</ele>
        <time>2010-11-06T07:40:15Z</time>
      </trkpt>
      <trkpt lat="44.06032" lon="7.22853">
        <ele>1637</ele>
        <time>2010-11-06T07:40:21Z</time>
      </trkpt>
      <trkpt lat="44.06031" lon="7.22856">
        <ele>1637</ele>
        <time>2010-11-06T07:40:28Z</time>
      </trkpt>
      <trkpt lat="44.0603" lon="7.22856">
        <ele>1637</ele>
        <time>2010-11-06T07:40:35Z</time>
      </trkpt>
      <trkpt lat="44.06031" lon="7.22856">
        <ele>1637</ele>
        <time>2010-11-06T07:40:45Z</time>
      </trkpt>
      <trkpt lat="44.0603" lon="7.22856">
        <ele>1637</ele>
        <time>2010-11-06T07:40:47Z</time>
      </trkpt>
      <trkpt lat="44.06015" lon="7.22851">
        <ele>1637</ele>
        <time>2010-11-06T07:40:54Z</time>
      </trkpt>
      <trkpt lat="44.06001" lon="7.22845">
        <ele>1637</ele>
        <time>2010-11-06T07:40:58Z</time>
      </trkpt>
      <trkpt lat="44.0598" lon="7.22832">
        <ele>1636</ele>
        <time>2010-11-06T07:41:02Z</time>
      </trkpt>
      <trkpt lat="44.05964" lon="7.22823">
        <ele>1634</ele>
        <time>2010-11-06T07:41:05Z</time>
      </trkpt>
      <trkpt lat="44.05953" lon="7.22818">
        <ele>1632</ele>
        <time>2010-11-06T07:41:07Z</time>
      </trkpt>
      <trkpt lat="44.05937" lon="7.2281">
        <ele>1631</ele>
        <time>2010-11-06T07:41:10Z</time>
      </trkpt>
      <trkpt lat="44.05923" lon="7.22803">
        <ele>1631</ele>
        <time>2010-11-06T07:41:13Z</time>
      </trkpt>
      <trkpt lat="44.05911" lon="7.22793">
        <ele>1622</ele>
        <time>2010-11-06T07:41:16Z</time>
      </trkpt>
      <trkpt lat="44.05892" lon="7.22776">
        <ele>1624</ele>
        <time>2010-11-06T07:41:22Z</time>
      </trkpt>
      <trkpt lat="44.0588" lon="7.22768">
        <ele>1623</ele>
        <time>2010-11-06T07:41:26Z</time>
      </trkpt>
      <trkpt lat="44.05864" lon="7.22755">
        <ele>1621</ele>
        <time>2010-11-06T07:41:32Z</time>
      </trkpt>
      <trkpt lat="44.05851" lon="7.22747">
        <ele>1632</ele>
        <time>2010-11-06T07:41:37Z</time>
      </trkpt>
      <trkpt lat="44.05834" lon="7.22734">
        <ele>1631</ele>
        <time>2010-11-06T07:41:42Z</time>
      </trkpt>
      <trkpt lat="44.05814" lon="7.22724">
        <ele>1621</ele>
        <time>2010-11-06T07:41:47Z</time>
      </trkpt>
      <trkpt lat="44.0581" lon="7.22721">
        <ele>1622</ele>
        <time>2010-11-06T07:41:48Z</time>
      </trkpt>
      <trkpt lat="44.05798" lon="7.22714">
        <ele>1621</ele>
        <time>2010-11-06T07:41:53Z</time>
      </trkpt>
      <trkpt lat="44.05795" lon="7.22712">
        <ele>1621</ele>
        <time>2010-11-06T07:41:59Z</time>
      </trkpt>
      <trkpt lat="44.05794" lon="7.22712">
        <ele>1621</ele>
        <time>2010-11-06T07:42:05Z</time>
      </trkpt>
      <trkpt lat="44.0579" lon="7.22711">
        <ele>1621</ele>
        <time>2010-11-06T07:42:09Z</time>
      </trkpt>
      <trkpt lat="44.05787" lon="7.22709">
        <ele>1620</ele>
        <time>2010-11-06T07:42:14Z</time>
      </trkpt>
      <trkpt lat="44.05782" lon="7.22709">
        <ele>1620</ele>
        <time>2010-11-06T07:42:20Z</time>
      </trkpt>
      <trkpt lat="44.05777" lon="7.22709">
        <ele>1619</ele>
        <time>2010-11-06T07:42:23Z</time>
      </trkpt>
      <trkpt lat="44.05771" lon="7.22704">
        <ele>1619</ele>
        <time>2010-11-06T07:42:30Z</time>
      </trkpt>
      <trkpt lat="44.05762" lon="7.22698">
        <ele>1620</ele>
        <time>2010-11-06T07:42:34Z</time>
      </trkpt>
      <trkpt lat="44.05761" lon="7.22696">
        <ele>1620</ele>
        <time>2010-11-06T07:42:36Z</time>
      </trkpt>
      <trkpt lat="44.05755" lon="7.22693">
        <ele>1620</ele>
        <time>2010-11-06T07:42:41Z</time>
      </trkpt>
      <trkpt lat="44.05739" lon="7.22683">
        <ele>1612</ele>
        <time>2010-11-06T07:42:47Z</time>
      </trkpt>
      <trkpt lat="44.0572" lon="7.22673">
        <ele>1609</ele>
        <time>2010-11-06T07:42:52Z</time>
      </trkpt>
      <trkpt lat="44.05699" lon="7.22665">
        <ele>1621</ele>
        <time>2010-11-06T07:42:57Z</time>
      </trkpt>
      <trkpt lat="44.05682" lon="7.22661">
        <ele>1617</ele>
        <time>2010-11-06T07:43:02Z</time>
      </trkpt>
      <trkpt lat="44.05675" lon="7.22658">
        <ele>1615</ele>
        <time>2010-11-06T07:43:04Z</time>
      </trkpt>
      <trkpt lat="44.05658" lon="7.2265">
        <ele>1608</ele>
        <time>2010-11-06T07:43:10Z</time>
      </trkpt>
      <trkpt lat="44.05644" lon="7.22646">
        <ele>1607</ele>
        <time>2010-11-06T07:43:15Z</time>
      </trkpt>
      <trkpt lat="44.05632" lon="7.22645">
        <ele>1605</ele>
        <time>2010-11-06T07:43:19Z</time>
      </trkpt>
      <trkpt lat="44.05622" lon="7.22644">
        <ele>1604</ele>
        <time>2010-11-06T07:43:23Z</time>
      </trkpt>
      <trkpt lat="44.0562" lon="7.22642">
        <ele>1604</ele>
        <time>2010-11-06T07:43:27Z</time>
      </trkpt>
      <trkpt lat="44.0562" lon="7.22642">
        <ele>1604</ele>
        <time>2010-11-06T07:43:33Z</time>
      </trkpt>
      <trkpt lat="44.0562" lon="7.22642">
        <ele>1604</ele>
        <time>2010-11-06T07:43:42Z</time>
      </trkpt>
      <trkpt lat="44.05622" lon="7.22643">
        <ele>1604</ele>
        <time>2010-11-06T07:44:00Z</time>
      </trkpt>
      <trkpt lat="44.0562" lon="7.22643">
        <ele>1604</ele>
        <time>2010-11-06T07:45:04Z</time>
      </trkpt>
      <trkpt lat="44.05619" lon="7.22638">
        <ele>1604</ele>
        <time>2010-11-06T07:45:14Z</time>
      </trkpt>
      <trkpt lat="44.05618" lon="7.22629">
        <ele>1605</ele>
        <time>2010-11-06T07:45:18Z</time>
      </trkpt>
      <trkpt lat="44.05619" lon="7.22625">
        <ele>1605</ele>
        <time>2010-11-06T07:45:21Z</time>
      </trkpt>
      <trkpt lat="44.05618" lon="7.22619">
        <ele>1606</ele>
        <time>2010-11-06T07:45:27Z</time>
      </trkpt>
      <trkpt lat="44.05619" lon="7.22615">
        <ele>1606</ele>
        <time>2010-11-06T07:45:37Z</time>
      </trkpt>
      <trkpt lat="44.0562" lon="7.22613">
        <ele>1607</ele>
        <time>2010-11-06T07:45:50Z</time>
      </trkpt>
      <trkpt lat="44.0562" lon="7.22608">
        <ele>1607</ele>
        <time>2010-11-06T07:45:55Z</time>
      </trkpt>
      <trkpt lat="44.0562" lon="7.226">
        <ele>1608</ele>
        <time>2010-11-06T07:46:03Z</time>
      </trkpt>
      <trkpt lat="44.0562" lon="7.22594">
        <ele>1608</ele>
        <time>2010-11-06T07:46:08Z</time>
      </trkpt>
      <trkpt lat="44.05619" lon="7.22587">
        <ele>1608</ele>
        <time>2010-11-06T07:46:15Z</time>
      </trkpt>
      <trkpt lat="44.05619" lon="7.22578">
        <ele>1621</ele>
        <time>2010-11-06T07:46:23Z</time>
      </trkpt>
      <trkpt lat="44.05616" lon="7.22571">
        <ele>1621</ele>
        <time>2010-11-06T07:46:30Z</time>
      </trkpt>
      <trkpt lat="44.05615" lon="7.22569">
        <ele>1621</ele>
        <time>2010-11-06T07:46:36Z</time>
      </trkpt>
      <trkpt lat="44.05614" lon="7.22564">
        <ele>1622</ele>
        <time>2010-11-06T07:46:42Z</time>
      </trkpt>
      <trkpt lat="44.05613" lon="7.22562">
        <ele>1622</ele>
        <time>2010-11-06T07:46:46Z</time>
      </trkpt>
      <trkpt lat="44.05607" lon="7.2255">
        <ele>1623</ele>
        <time>2010-11-06T07:46:53Z</time>
      </trkpt>
      <trkpt lat="44.05604" lon="7.22545">
        <ele>1624</ele>
        <time>2010-11-06T07:46:59Z</time>
      </trkpt>
      <trkpt lat="44.05601" lon="7.22542">
        <ele>1624</ele>
        <time>2010-11-06T07:47:04Z</time>
      </trkpt>
      <trkpt lat="44.05597" lon="7.22536">
        <ele>1625</ele>
        <time>2010-11-06T07:47:09Z</time>
      </trkpt>
      <trkpt lat="44.05596" lon="7.22531">
        <ele>1625</ele>
        <time>2010-11-06T07:47:13Z</time>
      </trkpt>
      <trkpt lat="44.05588" lon="7.2252">
        <ele>1626</ele>
        <time>2010-11-06T07:47:23Z</time>
      </trkpt>
      <trkpt lat="44.05582" lon="7.22512">
        <ele>1622</ele>
        <time>2010-11-06T07:47:30Z</time>
      </trkpt>
      <trkpt lat="44.05578" lon="7.22503">
        <ele>1625</ele>
        <time>2010-11-06T07:47:37Z</time>
      </trkpt>
      <trkpt lat="44.05574" lon="7.22496">
        <ele>1632</ele>
        <time>2010-11-06T07:47:45Z</time>
      </trkpt>
      <trkpt lat="44.05569" lon="7.2249">
        <ele>1633</ele>
        <time>2010-11-06T07:47:53Z</time>
      </trkpt>
      <trkpt lat="44.05566" lon="7.22488">
        <ele>1634</ele>
        <time>2010-11-06T07:47:58Z</time>
      </trkpt>
      <trkpt lat="44.05558" lon="7.2248">
        <ele>1635</ele>
        <time>2010-11-06T07:48:04Z</time>
      </trkpt>
      <trkpt lat="44.05553" lon="7.22475">
        <ele>1636</ele>
        <time>2010-11-06T07:48:08Z</time>
      </trkpt>
      <trkpt lat="44.05546" lon="7.22472">
        <ele>1636</ele>
        <time>2010-11-06T07:48:13Z</time>
      </trkpt>
      <trkpt lat="44.05542" lon="7.2247">
        <ele>1636</ele>
        <time>2010-11-06T07:48:19Z</time>
      </trkpt>
      <trkpt lat="44.05535" lon="7.22467">
        <ele>1637</ele>
        <time>2010-11-06T07:48:27Z</time>
      </trkpt>
      <trkpt lat="44.0553" lon="7.22462">
        <ele>1637</ele>
        <time>2010-11-06T07:48:35Z</time>
      </trkpt>
      <trkpt lat="44.05525" lon="7.2246">
        <ele>1637</ele>
        <time>2010-11-06T07:48:41Z</time>
      </trkpt>
      <trkpt lat="44.05519" lon="7.22459">
        <ele>1637</ele>
        <time>2010-11-06T07:48:48Z</time>
      </trkpt>
      <trkpt lat="44.05513" lon="7.22461">
        <ele>1636</ele>
        <time>2010-11-06T07:48:58Z</time>
      </trkpt>
      <trkpt lat="44.05509" lon="7.22462">
        <ele>1636</ele>
        <time>2010-11-06T07:49:03Z</time>
      </trkpt>
      <trkpt lat="44.05502" lon="7.22466">
        <ele>1635</ele>
        <time>2010-11-06T07:49:12Z</time>
      </trkpt>
      <trkpt lat="44.05494" lon="7.22468">
        <ele>1625</ele>
        <time>2010-11-06T07:49:20Z</time>
      </trkpt>
      <trkpt lat="44.05492" lon="7.22469">
        <ele>1625</ele>
        <time>2010-11-06T07:49:22Z</time>
      </trkpt>
      <trkpt lat="44.05484" lon="7.22474">
        <ele>1624</ele>
        <time>2010-11-06T07:49:29Z</time>
      </trkpt>
      <trkpt lat="44.05483" lon="7.22474">
        <ele>1624</ele>
        <time>2010-11-06T07:49:30Z</time>
      </trkpt>
      <trkpt lat="44.05473" lon="7.22479">
        <ele>1623</ele>
        <time>2010-11-06T07:49:39Z</time>
      </trkpt>
      <trkpt lat="44.0547" lon="7.22479">
        <ele>1623</ele>
        <time>2010-11-06T07:49:46Z</time>
      </trkpt>
      <trkpt lat="44.05467" lon="7.22475">
        <ele>1623</ele>
        <time>2010-11-06T07:49:52Z</time>
      </trkpt>
      <trkpt lat="44.05463" lon="7.22469">
        <ele>1623</ele>
        <time>2010-11-06T07:49:59Z</time>
      </trkpt>
      <trkpt lat="44.05465" lon="7.22462">
        <ele>1624</ele>
        <time>2010-11-06T07:50:07Z</time>
      </trkpt>
      <trkpt lat="44.05467" lon="7.22456">
        <ele>1624</ele>
        <time>2010-11-06T07:50:14Z</time>
      </trkpt>
      <trkpt lat="44.0547" lon="7.22451">
        <ele>1625</ele>
        <time>2010-11-06T07:50:21Z</time>
      </trkpt>
      <trkpt lat="44.05469" lon="7.22445">
        <ele>1626</ele>
        <time>2010-11-06T07:50:27Z</time>
      </trkpt>
      <trkpt lat="44.05468" lon="7.22443">
        <ele>1626</ele>
        <time>2010-11-06T07:50:33Z</time>
      </trkpt>
      <trkpt lat="44.05468" lon="7.2244">
        <ele>1626</ele>
        <time>2010-11-06T07:50:38Z</time>
      </trkpt>
      <trkpt lat="44.05468" lon="7.2244">
        <ele>1626</ele>
        <time>2010-11-06T07:50:43Z</time>
      </trkpt>
      <trkpt lat="44.05467" lon="7.22441">
        <ele>1626</ele>
        <time>2010-11-06T07:50:50Z</time>
      </trkpt>
      <trkpt lat="44.05467" lon="7.22441">
        <ele>1626</ele>
        <time>2010-11-06T07:50:54Z</time>
      </trkpt>
      <trkpt lat="44.05467" lon="7.22441">
        <ele>1626</ele>
        <time>2010-11-06T07:50:59Z</time>
      </trkpt>
      <trkpt lat="44.05466" lon="7.22442">
        <ele>1626</ele>
        <time>2010-11-06T07:51:07Z</time>
      </trkpt>
      <trkpt lat="44.05467" lon="7.22441">
        <ele>1626</ele>
        <time>2010-11-06T07:51:16Z</time>
      </trkpt>
      <trkpt lat="44.05467" lon="7.22442">
        <ele>1626</ele>
        <time>2010-11-06T07:51:22Z</time>
      </trkpt>
      <trkpt lat="44.05467" lon="7.22442">
        <ele>1626</ele>
        <time>2010-11-06T07:51:32Z</time>
      </trkpt>
      <trkpt lat="44.05467" lon="7.22441">
        <ele>1626</ele>
        <time>2010-11-06T07:51:42Z</time>
      </trkpt>
      <trkpt lat="44.05466" lon="7.22441">
        <ele>1626</ele>
        <time>2010-11-06T07:51:55Z</time>
      </trkpt>
      <trkpt lat="44.05466" lon="7.2244">
        <ele>1626</ele>
        <time>2010-11-06T07:52:13Z</time>
      </trkpt>
      <trkpt lat="44.05467" lon="7.22439">
        <ele>1626</ele>
        <time>2010-11-06T07:52:37Z</time>
      </trkpt>
      <trkpt lat="44.05467" lon="7.2244">
        <ele>1626</ele>
        <time>2010-11-06T07:52:45Z</time>
      </trkpt>
      <trkpt lat="44.05466" lon="7.22439">
        <ele>1626</ele>
        <time>2010-11-06T07:52:49Z</time>
      </trkpt>
      <trkpt lat="44.05466" lon="7.2244">
        <ele>1626</ele>
        <time>2010-11-06T07:52:59Z</time>
      </trkpt>
      <trkpt lat="44.05465" lon="7.22439">
        <ele>1626</ele>
        <time>2010-11-06T07:53:08Z</time>
      </trkpt>
      <trkpt lat="44.05465" lon="7.2244">
        <ele>1626</ele>
        <time>2010-11-06T07:53:20Z</time>
      </trkpt>
      <trkpt lat="44.05466" lon="7.2244">
        <ele>1626</ele>
        <time>2010-11-06T07:53:33Z</time>
      </trkpt>
      <trkpt lat="44.05467" lon="7.22438">
        <ele>1626</ele>
        <time>2010-11-06T07:53:40Z</time>
      </trkpt>
      <trkpt lat="44.05468" lon="7.22432">
        <ele>1627</ele>
        <time>2010-11-06T07:53:48Z</time>
      </trkpt>
      <trkpt lat="44.05469" lon="7.22431">
        <ele>1627</ele>
        <time>2010-11-06T07:53:49Z</time>
      </trkpt>
      <trkpt lat="44.05471" lon="7.22425">
        <ele>1628</ele>
        <time>2010-11-06T07:53:55Z</time>
      </trkpt>
      <trkpt lat="44.05473" lon="7.22419">
        <ele>1629</ele>
        <time>2010-11-06T07:54:01Z</time>
      </trkpt>
      <trkpt lat="44.05474" lon="7.22416">
        <ele>1631</ele>
        <time>2010-11-06T07:54:03Z</time>
      </trkpt>
      <trkpt lat="44.05476" lon="7.22411">
        <ele>1632</ele>
        <time>2010-11-06T07:54:10Z</time>
      </trkpt>
      <trkpt lat="44.05479" lon="7.22404">
        <ele>1632</ele>
        <time>2010-11-06T07:54:15Z</time>
      </trkpt>
      <trkpt lat="44.0548" lon="7.224">
        <ele>1632</ele>
        <time>2010-11-06T07:54:18Z</time>
      </trkpt>
      <trkpt lat="44.05485" lon="7.22395">
        <ele>1632</ele>
        <time>2010-11-06T07:54:24Z</time>
      </trkpt>
      <trkpt lat="44.05487" lon="7.22391">
        <ele>1632</ele>
        <time>2010-11-06T07:54:31Z</time>
      </trkpt>
      <trkpt lat="44.0549" lon="7.22382">
        <ele>1632</ele>
        <time>2010-11-06T07:54:35Z</time>
      </trkpt>
      <trkpt lat="44.05496" lon="7.22366">
        <ele>1633</ele>
        <time>2010-11-06T07:54:41Z</time>
      </trkpt>
      <trkpt lat="44.05503" lon="7.22351">
        <ele>1650</ele>
        <time>2010-11-06T07:54:48Z</time>
      </trkpt>
      <trkpt lat="44.05509" lon="7.22335">
        <ele>1648</ele>
        <time>2010-11-06T07:54:55Z</time>
      </trkpt>
      <trkpt lat="44.05518" lon="7.22319">
        <ele>1654</ele>
        <time>2010-11-06T07:55:03Z</time>
      </trkpt>
      <trkpt lat="44.05525" lon="7.22306">
        <ele>1657</ele>
        <time>2010-11-06T07:55:10Z</time>
      </trkpt>
      <trkpt lat="44.05531" lon="7.22288">
        <ele>1658</ele>
        <time>2010-11-06T07:55:19Z</time>
      </trkpt>
      <trkpt lat="44.05536" lon="7.22271">
        <ele>1658</ele>
        <time>2010-11-06T07:55:26Z</time>
      </trkpt>
      <trkpt lat="44.05541" lon="7.22261">
        <ele>1659</ele>
        <time>2010-11-06T07:55:32Z</time>
      </trkpt>
      <trkpt lat="44.05543" lon="7.22259">
        <ele>1660</ele>
        <time>2010-11-06T07:55:36Z</time>
      </trkpt>
      <trkpt lat="44.05543" lon="7.22256">
        <ele>1660</ele>
        <time>2010-11-06T07:55:38Z</time>
      </trkpt>
      <trkpt lat="44.05545" lon="7.22251">
        <ele>1661</ele>
        <time>2010-11-06T07:55:43Z</time>
      </trkpt>
      <trkpt lat="44.05545" lon="7.2225">
        <ele>1657</ele>
        <time>2010-11-06T07:55:48Z</time>
      </trkpt>
      <trkpt lat="44.05551" lon="7.22237">
        <ele>1658</ele>
        <time>2010-11-06T07:55:54Z</time>
      </trkpt>
      <trkpt lat="44.05558" lon="7.22227">
        <ele>1660</ele>
        <time>2010-11-06T07:56:00Z</time>
      </trkpt>
      <trkpt lat="44.05563" lon="7.22217">
        <ele>1660</ele>
        <time>2010-11-06T07:56:05Z</time>
      </trkpt>
      <trkpt lat="44.05569" lon="7.22204">
        <ele>1660</ele>
        <time>2010-11-06T07:56:11Z</time>
      </trkpt>
      <trkpt lat="44.05572" lon="7.22199">
        <ele>1660</ele>
        <time>2010-11-06T07:56:16Z</time>
      </trkpt>
      <trkpt lat="44.05576" lon="7.22196">
        <ele>1661</ele>
        <time>2010-11-06T07:56:22Z</time>
      </trkpt>
      <trkpt lat="44.05579" lon="7.22194">
        <ele>1661</ele>
        <time>2010-11-06T07:56:28Z</time>
      </trkpt>
      <trkpt lat="44.0558" lon="7.22197">
        <ele>1661</ele>
        <time>2010-11-06T07:56:33Z</time>
      </trkpt>
      <trkpt lat="44.05579" lon="7.22197">
        <ele>1661</ele>
        <time>2010-11-06T07:56:52Z</time>
      </trkpt>
      <trkpt lat="44.05579" lon="7.22197">
        <ele>1661</ele>
        <time>2010-11-06T07:56:59Z</time>
      </trkpt>
      <trkpt lat="44.05578" lon="7.222">
        <ele>1661</ele>
        <time>2010-11-06T07:57:04Z</time>
      </trkpt>
      <trkpt lat="44.05577" lon="7.22202">
        <ele>1661</ele>
        <time>2010-11-06T07:57:07Z</time>
      </trkpt>
      <trkpt lat="44.05574" lon="7.22212">
        <ele>1661</ele>
        <time>2010-11-06T07:57:14Z</time>
      </trkpt>
      <trkpt lat="44.05571" lon="7.22223">
        <ele>1663</ele>
        <time>2010-11-06T07:57:20Z</time>
      </trkpt>
      <trkpt lat="44.05569" lon="7.22237">
        <ele>1666</ele>
        <time>2010-11-06T07:57:27Z</time>
      </trkpt>
      <trkpt lat="44.05568" lon="7.22251">
        <ele>1670</ele>
        <time>2010-11-06T07:57:32Z</time>
      </trkpt>
      <trkpt lat="44.05568" lon="7.22267">
        <ele>1668</ele>
        <time>2010-11-06T07:57:38Z</time>
      </trkpt>
      <trkpt lat="44.05567" lon="7.22282">
        <ele>1666</ele>
        <time>2010-11-06T07:57:45Z</time>
      </trkpt>
      <trkpt lat="44.05566" lon="7.22296">
        <ele>1666</ele>
        <time>2010-11-06T07:57:51Z</time>
      </trkpt>
      <trkpt lat="44.05564" lon="7.22314">
        <ele>1668</ele>
        <time>2010-11-06T07:57:58Z</time>
      </trkpt>
      <trkpt lat="44.05565" lon="7.22325">
        <ele>1670</ele>
        <time>2010-11-06T07:58:03Z</time>
      </trkpt>
      <trkpt lat="44.05567" lon="7.22328">
        <ele>1671</ele>
        <time>2010-11-06T07:58:05Z</time>
      </trkpt>
      <trkpt lat="44.05574" lon="7.22323">
        <ele>1673</ele>
        <time>2010-11-06T07:58:10Z</time>
      </trkpt>
      <trkpt lat="44.05574" lon="7.22319">
        <ele>1671</ele>
        <time>2010-11-06T07:58:12Z</time>
      </trkpt>
      <trkpt lat="44.05574" lon="7.22299">
        <ele>1668</ele>
        <time>2010-11-06T07:58:20Z</time>
      </trkpt>
      <trkpt lat="44.0558" lon="7.22277">
        <ele>1669</ele>
        <time>2010-11-06T07:58:28Z</time>
      </trkpt>
      <trkpt lat="44.05586" lon="7.22255">
        <ele>1683</ele>
        <time>2010-11-06T07:58:36Z</time>
      </trkpt>
      <trkpt lat="44.05593" lon="7.22235">
        <ele>1687</ele>
        <time>2010-11-06T07:58:44Z</time>
      </trkpt>
      <trkpt lat="44.05602" lon="7.22214">
        <ele>1691</ele>
        <time>2010-11-06T07:58:53Z</time>
      </trkpt>
      <trkpt lat="44.05607" lon="7.22198">
        <ele>1691</ele>
        <time>2010-11-06T07:59:00Z</time>
      </trkpt>
      <trkpt lat="44.05614" lon="7.22174">
        <ele>1690</ele>
        <time>2010-11-06T07:59:09Z</time>
      </trkpt>
      <trkpt lat="44.05622" lon="7.22156">
        <ele>1690</ele>
        <time>2010-11-06T07:59:17Z</time>
      </trkpt>
      <trkpt lat="44.05633" lon="7.22139">
        <ele>1694</ele>
        <time>2010-11-06T07:59:26Z</time>
      </trkpt>
      <trkpt lat="44.05642" lon="7.22121">
        <ele>1696</ele>
        <time>2010-11-06T07:59:34Z</time>
      </trkpt>
      <trkpt lat="44.05651" lon="7.22102">
        <ele>1700</ele>
        <time>2010-11-06T07:59:42Z</time>
      </trkpt>
      <trkpt lat="44.05657" lon="7.22082">
        <ele>1705</ele>
        <time>2010-11-06T07:59:50Z</time>
      </trkpt>
      <trkpt lat="44.05663" lon="7.22062">
        <ele>1696</ele>
        <time>2010-11-06T07:59:58Z</time>
      </trkpt>
      <trkpt lat="44.05673" lon="7.22043">
        <ele>1721</ele>
        <time>2010-11-06T08:00:06Z</time>
      </trkpt>
      <trkpt lat="44.0568" lon="7.2203">
        <ele>1720</ele>
        <time>2010-11-06T08:00:12Z</time>
      </trkpt>
      <trkpt lat="44.05689" lon="7.22016">
        <ele>1719</ele>
        <time>2010-11-06T08:00:18Z</time>
      </trkpt>
      <trkpt lat="44.05696" lon="7.22002">
        <ele>1721</ele>
        <time>2010-11-06T08:00:24Z</time>
      </trkpt>
      <trkpt lat="44.05706" lon="7.21986">
        <ele>1722</ele>
        <time>2010-11-06T08:00:31Z</time>
      </trkpt>
      <trkpt lat="44.05714" lon="7.21965">
        <ele>1724</ele>
        <time>2010-11-06T08:00:39Z</time>
      </trkpt>
      <trkpt lat="44.05721" lon="7.21942">
        <ele>1726</ele>
        <time>2010-11-06T08:00:47Z</time>
      </trkpt>
      <trkpt lat="44.05725" lon="7.21922">
        <ele>1729</ele>
        <time>2010-11-06T08:00:54Z</time>
      </trkpt>
      <trkpt lat="44.05723" lon="7.21898">
        <ele>1732</ele>
        <time>2010-11-06T08:01:02Z</time>
      </trkpt>
      <trkpt lat="44.05716" lon="7.21884">
        <ele>1730</ele>
        <time>2010-11-06T08:01:08Z</time>
      </trkpt>
      <trkpt lat="44.05704" lon="7.21872">
        <ele>1728</ele>
        <time>2010-11-06T08:01:15Z</time>
      </trkpt>
      <trkpt lat="44.05696" lon="7.21855">
        <ele>1727</ele>
        <time>2010-11-06T08:01:22Z</time>
      </trkpt>
      <trkpt lat="44.05693" lon="7.21831">
        <ele>1735</ele>
        <time>2010-11-06T08:01:31Z</time>
      </trkpt>
      <trkpt lat="44.05693" lon="7.21813">
        <ele>1738</ele>
        <time>2010-11-06T08:01:38Z</time>
      </trkpt>
      <trkpt lat="44.05688" lon="7.21798">
        <ele>1739</ele>
        <time>2010-11-06T08:01:44Z</time>
      </trkpt>
      <trkpt lat="44.05678" lon="7.21788">
        <ele>1739</ele>
        <time>2010-11-06T08:01:51Z</time>
      </trkpt>
      <trkpt lat="44.0567" lon="7.21783">
        <ele>1739</ele>
        <time>2010-11-06T08:01:56Z</time>
      </trkpt>
      <trkpt lat="44.05658" lon="7.21775">
        <ele>1724</ele>
        <time>2010-11-06T08:02:02Z</time>
      </trkpt>
      <trkpt lat="44.05649" lon="7.21759">
        <ele>1726</ele>
        <time>2010-11-06T08:02:09Z</time>
      </trkpt>
      <trkpt lat="44.05643" lon="7.21738">
        <ele>1733</ele>
        <time>2010-11-06T08:02:17Z</time>
      </trkpt>
      <trkpt lat="44.05642" lon="7.21711">
        <ele>1732</ele>
        <time>2010-11-06T08:02:27Z</time>
      </trkpt>
      <trkpt lat="44.05641" lon="7.21691">
        <ele>1733</ele>
        <time>2010-11-06T08:02:35Z</time>
      </trkpt>
      <trkpt lat="44.05635" lon="7.21669">
        <ele>1734</ele>
        <time>2010-11-06T08:02:44Z</time>
      </trkpt>
      <trkpt lat="44.05627" lon="7.21654">
        <ele>1736</ele>
        <time>2010-11-06T08:02:51Z</time>
      </trkpt>
      <trkpt lat="44.05615" lon="7.21642">
        <ele>1736</ele>
        <time>2010-11-06T08:02:59Z</time>
      </trkpt>
      <trkpt lat="44.05607" lon="7.21637">
        <ele>1736</ele>
        <time>2010-11-06T08:03:05Z</time>
      </trkpt>
      <trkpt lat="44.05599" lon="7.21632">
        <ele>1736</ele>
        <time>2010-11-06T08:03:12Z</time>
      </trkpt>
      <trkpt lat="44.05591" lon="7.21628">
        <ele>1736</ele>
        <time>2010-11-06T08:03:17Z</time>
      </trkpt>
      <trkpt lat="44.05584" lon="7.21625">
        <ele>1737</ele>
        <time>2010-11-06T08:03:23Z</time>
      </trkpt>
      <trkpt lat="44.05574" lon="7.21622">
        <ele>1735</ele>
        <time>2010-11-06T08:03:29Z</time>
      </trkpt>
      <trkpt lat="44.05561" lon="7.21616">
        <ele>1735</ele>
        <time>2010-11-06T08:03:35Z</time>
      </trkpt>
      <trkpt lat="44.05542" lon="7.21613">
        <ele>1734</ele>
        <time>2010-11-06T08:03:39Z</time>
      </trkpt>
      <trkpt lat="44.05511" lon="7.21607">
        <ele>1735</ele>
        <time>2010-11-06T08:03:44Z</time>
      </trkpt>
      <trkpt lat="44.0549" lon="7.21604">
        <ele>1729</ele>
        <time>2010-11-06T08:03:48Z</time>
      </trkpt>
      <trkpt lat="44.05475" lon="7.21603">
        <ele>1727</ele>
        <time>2010-11-06T08:03:52Z</time>
      </trkpt>
      <trkpt lat="44.05453" lon="7.216">
        <ele>1725</ele>
        <time>2010-11-06T08:03:57Z</time>
      </trkpt>
      <trkpt lat="44.05421" lon="7.21596">
        <ele>1725</ele>
        <time>2010-11-06T08:04:02Z</time>
      </trkpt>
      <trkpt lat="44.05398" lon="7.21584">
        <ele>1717</ele>
        <time>2010-11-06T08:04:06Z</time>
      </trkpt>
      <trkpt lat="44.05376" lon="7.21566">
        <ele>1720</ele>
        <time>2010-11-06T08:04:11Z</time>
      </trkpt>
      <trkpt lat="44.05367" lon="7.21561">
        <ele>1718</ele>
        <time>2010-11-06T08:04:13Z</time>
      </trkpt>
      <trkpt lat="44.05347" lon="7.21532">
        <ele>1717</ele>
        <time>2010-11-06T08:04:19Z</time>
      </trkpt>
      <trkpt lat="44.05338" lon="7.21513">
        <ele>1715</ele>
        <time>2010-11-06T08:04:22Z</time>
      </trkpt>
      <trkpt lat="44.05331" lon="7.21501">
        <ele>1708</ele>
        <time>2010-11-06T08:04:24Z</time>
      </trkpt>
      <trkpt lat="44.05322" lon="7.21481">
        <ele>1702</ele>
        <time>2010-11-06T08:04:27Z</time>
      </trkpt>
      <trkpt lat="44.05313" lon="7.21454">
        <ele>1700</ele>
        <time>2010-11-06T08:04:32Z</time>
      </trkpt>
      <trkpt lat="44.05314" lon="7.21446">
        <ele>1701</ele>
        <time>2010-11-06T08:04:34Z</time>
      </trkpt>
      <trkpt lat="44.05315" lon="7.21419">
        <ele>1705</ele>
        <time>2010-11-06T08:04:41Z</time>
      </trkpt>
      <trkpt lat="44.05307" lon="7.21391">
        <ele>1706</ele>
        <time>2010-11-06T08:04:48Z</time>
      </trkpt>
      <trkpt lat="44.05304" lon="7.21362">
        <ele>1707</ele>
        <time>2010-11-06T08:04:55Z</time>
      </trkpt>
      <trkpt lat="44.053" lon="7.21339">
        <ele>1708</ele>
        <time>2010-11-06T08:05:01Z</time>
      </trkpt>
      <trkpt lat="44.05298" lon="7.21319">
        <ele>1712</ele>
        <time>2010-11-06T08:05:06Z</time>
      </trkpt>
      <trkpt lat="44.05292" lon="7.213">
        <ele>1711</ele>
        <time>2010-11-06T08:05:11Z</time>
      </trkpt>
      <trkpt lat="44.05288" lon="7.2128">
        <ele>1711</ele>
        <time>2010-11-06T08:05:17Z</time>
      </trkpt>
      <trkpt lat="44.05288" lon="7.21278">
        <ele>1711</ele>
        <time>2010-11-06T08:05:18Z</time>
      </trkpt>
      <trkpt lat="44.05286" lon="7.21277">
        <ele>1711</ele>
        <time>2010-11-06T08:05:23Z</time>
      </trkpt>
      <trkpt lat="44.05285" lon="7.21277">
        <ele>1711</ele>
        <time>2010-11-06T08:05:31Z</time>
      </trkpt>
      <trkpt lat="44.05286" lon="7.21278">
        <ele>1711</ele>
        <time>2010-11-06T08:05:37Z</time>
      </trkpt>
      <trkpt lat="44.05287" lon="7.2128">
        <ele>1711</ele>
        <time>2010-11-06T08:05:46Z</time>
      </trkpt>
      <trkpt lat="44.05289" lon="7.21281">
        <ele>1711</ele>
        <time>2010-11-06T08:06:02Z</time>
      </trkpt>
      <trkpt lat="44.05288" lon="7.2128">
        <ele>1711</ele>
        <time>2010-11-06T08:06:14Z</time>
      </trkpt>
      <trkpt lat="44.05288" lon="7.2128">
        <ele>1711</ele>
        <time>2010-11-06T08:06:26Z</time>
      </trkpt>
      <trkpt lat="44.05288" lon="7.21278">
        <ele>1711</ele>
        <time>2010-11-06T08:06:29Z</time>
      </trkpt>
      <trkpt lat="44.05286" lon="7.21272">
        <ele>1711</ele>
        <time>2010-11-06T08:06:37Z</time>
      </trkpt>
      <trkpt lat="44.05284" lon="7.21274">
        <ele>1711</ele>
        <time>2010-11-06T08:07:21Z</time>
      </trkpt>
      <trkpt lat="44.05288" lon="7.21276">
        <ele>1711</ele>
        <time>2010-11-06T08:07:26Z</time>
      </trkpt>
      <trkpt lat="44.05288" lon="7.21277">
        <ele>1711</ele>
        <time>2010-11-06T08:07:34Z</time>
      </trkpt>
      <trkpt lat="44.05289" lon="7.21277">
        <ele>1712</ele>
        <time>2010-11-06T08:07:47Z</time>
      </trkpt>
      <trkpt lat="44.05289" lon="7.21277">
        <ele>1712</ele>
        <time>2010-11-06T08:07:51Z</time>
      </trkpt>
      <trkpt lat="44.05287" lon="7.21276">
        <ele>1711</ele>
        <time>2010-11-06T08:08:03Z</time>
      </trkpt>
      <trkpt lat="44.05287" lon="7.21277">
        <ele>1711</ele>
        <time>2010-11-06T08:08:08Z</time>
      </trkpt>
      <trkpt lat="44.05287" lon="7.21277">
        <ele>1711</ele>
        <time>2010-11-06T08:08:13Z</time>
      </trkpt>
      <trkpt lat="44.05288" lon="7.21279">
        <ele>1711</ele>
        <time>2010-11-06T08:08:20Z</time>
      </trkpt>
      <trkpt lat="44.05289" lon="7.21282">
        <ele>1711</ele>
        <time>2010-11-06T08:08:26Z</time>
      </trkpt>
      <trkpt lat="44.05289" lon="7.21282">
        <ele>1711</ele>
        <time>2010-11-06T08:08:30Z</time>
      </trkpt>
      <trkpt lat="44.05288" lon="7.21281">
        <ele>1711</ele>
        <time>2010-11-06T08:08:34Z</time>
      </trkpt>
      <trkpt lat="44.05289" lon="7.21281">
        <ele>1711</ele>
        <time>2010-11-06T08:08:44Z</time>
      </trkpt>
      <trkpt lat="44.05289" lon="7.21282">
        <ele>1711</ele>
        <time>2010-11-06T08:08:49Z</time>
      </trkpt>
      <trkpt lat="44.05289" lon="7.2128">
        <ele>1711</ele>
        <time>2010-11-06T08:08:53Z</time>
      </trkpt>
      <trkpt lat="44.05288" lon="7.21279">
        <ele>1711</ele>
        <time>2010-11-06T08:08:58Z</time>
      </trkpt>
      <trkpt lat="44.05283" lon="7.21277">
        <ele>1711</ele>
        <time>2010-11-06T08:09:04Z</time>
      </trkpt>
      <trkpt lat="44.05282" lon="7.21276">
        <ele>1711</ele>
        <time>2010-11-06T08:09:05Z</time>
      </trkpt>
      <trkpt lat="44.05272" lon="7.21263">
        <ele>1711</ele>
        <time>2010-11-06T08:09:10Z</time>
      </trkpt>
      <trkpt lat="44.05262" lon="7.21248">
        <ele>1709</ele>
        <time>2010-11-06T08:09:15Z</time>
      </trkpt>
      <trkpt lat="44.05253" lon="7.21231">
        <ele>1708</ele>
        <time>2010-11-06T08:09:20Z</time>
      </trkpt>
      <trkpt lat="44.0524" lon="7.21215">
        <ele>1708</ele>
        <time>2010-11-06T08:09:26Z</time>
      </trkpt>
      <trkpt lat="44.05228" lon="7.21201">
        <ele>1707</ele>
        <time>2010-11-06T08:09:32Z</time>
      </trkpt>
      <trkpt lat="44.05218" lon="7.21187">
        <ele>1708</ele>
        <time>2010-11-06T08:09:38Z</time>
      </trkpt>
      <trkpt lat="44.0521" lon="7.21175">
        <ele>1708</ele>
        <time>2010-11-06T08:09:44Z</time>
      </trkpt>
      <trkpt lat="44.05202" lon="7.21171">
        <ele>1710</ele>
        <time>2010-11-06T08:09:49Z</time>
      </trkpt>
      <trkpt lat="44.05191" lon="7.21162">
        <ele>1714</ele>
        <time>2010-11-06T08:09:56Z</time>
      </trkpt>
      <trkpt lat="44.05182" lon="7.21155">
        <ele>1715</ele>
        <time>2010-11-06T08:10:00Z</time>
      </trkpt>
      <trkpt lat="44.05172" lon="7.21144">
        <ele>1716</ele>
        <time>2010-11-06T08:10:06Z</time>
      </trkpt>
      <trkpt lat="44.05166" lon="7.21138">
        <ele>1725</ele>
        <time>2010-11-06T08:10:10Z</time>
      </trkpt>
      <trkpt lat="44.05153" lon="7.21133">
        <ele>1726</ele>
        <time>2010-11-06T08:10:18Z</time>
      </trkpt>
      <trkpt lat="44.05151" lon="7.21131">
        <ele>1726</ele>
        <time>2010-11-06T08:10:20Z</time>
      </trkpt>
      <trkpt lat="44.0514" lon="7.21127">
        <ele>1726</ele>
        <time>2010-11-06T08:10:28Z</time>
      </trkpt>
      <trkpt lat="44.05137" lon="7.21128">
        <ele>1726</ele>
        <time>2010-11-06T08:10:33Z</time>
      </trkpt>
      <trkpt lat="44.05136" lon="7.21128">
        <ele>1726</ele>
        <time>2010-11-06T08:10:41Z</time>
      </trkpt>
      <trkpt lat="44.05134" lon="7.21127">
        <ele>1726</ele>
        <time>2010-11-06T08:10:47Z</time>
      </trkpt>
      <trkpt lat="44.05137" lon="7.21125">
        <ele>1727</ele>
        <time>2010-11-06T08:10:52Z</time>
      </trkpt>
      <trkpt lat="44.0514" lon="7.2112">
        <ele>1727</ele>
        <time>2010-11-06T08:10:59Z</time>
      </trkpt>
      <trkpt lat="44.05144" lon="7.21112">
        <ele>1728</ele>
        <time>2010-11-06T08:11:07Z</time>
      </trkpt>
      <trkpt lat="44.05146" lon="7.21104">
        <ele>1728</ele>
        <time>2010-11-06T08:11:14Z</time>
      </trkpt>
      <trkpt lat="44.05145" lon="7.21098">
        <ele>1729</ele>
        <time>2010-11-06T08:11:20Z</time>
      </trkpt>
      <trkpt lat="44.05143" lon="7.21094">
        <ele>1729</ele>
        <time>2010-11-06T08:11:26Z</time>
      </trkpt>
      <trkpt lat="44.05141" lon="7.21094">
        <ele>1729</ele>
        <time>2010-11-06T08:11:32Z</time>
      </trkpt>
      <trkpt lat="44.05137" lon="7.21097">
        <ele>1729</ele>
        <time>2010-11-06T08:11:38Z</time>
      </trkpt>
      <trkpt lat="44.05133" lon="7.21099">
        <ele>1729</ele>
        <time>2010-11-06T08:11:46Z</time>
      </trkpt>
      <trkpt lat="44.05132" lon="7.21098">
        <ele>1729</ele>
        <time>2010-11-06T08:11:50Z</time>
      </trkpt>
      <trkpt lat="44.05125" lon="7.21099">
        <ele>1729</ele>
        <time>2010-11-06T08:11:55Z</time>
      </trkpt>
      <trkpt lat="44.05114" lon="7.21099">
        <ele>1730</ele>
        <time>2010-11-06T08:12:02Z</time>
      </trkpt>
      <trkpt lat="44.05115" lon="7.21096">
        <ele>1730</ele>
        <time>2010-11-06T08:12:07Z</time>
      </trkpt>
      <trkpt lat="44.05117" lon="7.21095">
        <ele>1730</ele>
        <time>2010-11-06T08:12:09Z</time>
      </trkpt>
      <trkpt lat="44.05121" lon="7.21085">
        <ele>1731</ele>
        <time>2010-11-06T08:12:16Z</time>
      </trkpt>
      <trkpt lat="44.05122" lon="7.21083">
        <ele>1743</ele>
        <time>2010-11-06T08:12:21Z</time>
      </trkpt>
      <trkpt lat="44.05123" lon="7.21079">
        <ele>1744</ele>
        <time>2010-11-06T08:12:26Z</time>
      </trkpt>
      <trkpt lat="44.05122" lon="7.21076">
        <ele>1744</ele>
        <time>2010-11-06T08:12:33Z</time>
      </trkpt>
      <trkpt lat="44.05119" lon="7.21071">
        <ele>1745</ele>
        <time>2010-11-06T08:12:41Z</time>
      </trkpt>
      <trkpt lat="44.05116" lon="7.21069">
        <ele>1745</ele>
        <time>2010-11-06T08:12:47Z</time>
      </trkpt>
      <trkpt lat="44.05111" lon="7.21063">
        <ele>1746</ele>
        <time>2010-11-06T08:12:53Z</time>
      </trkpt>
      <trkpt lat="44.05109" lon="7.2106">
        <ele>1746</ele>
        <time>2010-11-06T08:12:58Z</time>
      </trkpt>
      <trkpt lat="44.05108" lon="7.21057">
        <ele>1747</ele>
        <time>2010-11-06T08:13:03Z</time>
      </trkpt>
      <trkpt lat="44.05107" lon="7.21055">
        <ele>1747</ele>
        <time>2010-11-06T08:13:07Z</time>
      </trkpt>
      <trkpt lat="44.05106" lon="7.21047">
        <ele>1749</ele>
        <time>2010-11-06T08:13:11Z</time>
      </trkpt>
      <trkpt lat="44.05106" lon="7.21039">
        <ele>1751</ele>
        <time>2010-11-06T08:13:14Z</time>
      </trkpt>
      <trkpt lat="44.05108" lon="7.21025">
        <ele>1754</ele>
        <time>2010-11-06T08:13:21Z</time>
      </trkpt>
      <trkpt lat="44.0511" lon="7.21013">
        <ele>1756</ele>
        <time>2010-11-06T08:13:26Z</time>
      </trkpt>
      <trkpt lat="44.05112" lon="7.20998">
        <ele>1769</ele>
        <time>2010-11-06T08:13:33Z</time>
      </trkpt>
      <trkpt lat="44.05113" lon="7.2098">
        <ele>1769</ele>
        <time>2010-11-06T08:13:41Z</time>
      </trkpt>
      <trkpt lat="44.05114" lon="7.20977">
        <ele>1769</ele>
        <time>2010-11-06T08:13:43Z</time>
      </trkpt>
      <trkpt lat="44.05117" lon="7.20962">
        <ele>1770</ele>
        <time>2010-11-06T08:13:49Z</time>
      </trkpt>
      <trkpt lat="44.05118" lon="7.20957">
        <ele>1770</ele>
        <time>2010-11-06T08:13:51Z</time>
      </trkpt>
      <trkpt lat="44.05118" lon="7.20949">
        <ele>1771</ele>
        <time>2010-11-06T08:13:55Z</time>
      </trkpt>
      <trkpt lat="44.05117" lon="7.20938">
        <ele>1773</ele>
        <time>2010-11-06T08:13:59Z</time>
      </trkpt>
      <trkpt lat="44.05121" lon="7.20924">
        <ele>1773</ele>
        <time>2010-11-06T08:14:03Z</time>
      </trkpt>
      <trkpt lat="44.0513" lon="7.20908">
        <ele>1780</ele>
        <time>2010-11-06T08:14:09Z</time>
      </trkpt>
      <trkpt lat="44.0513" lon="7.20889">
        <ele>1782</ele>
        <time>2010-11-06T08:14:15Z</time>
      </trkpt>
      <trkpt lat="44.05136" lon="7.20877">
        <ele>1782</ele>
        <time>2010-11-06T08:14:21Z</time>
      </trkpt>
      <trkpt lat="44.05137" lon="7.20874">
        <ele>1782</ele>
        <time>2010-11-06T08:14:23Z</time>
      </trkpt>
      <trkpt lat="44.05143" lon="7.20857">
        <ele>1781</ele>
        <time>2010-11-06T08:14:29Z</time>
      </trkpt>
      <trkpt lat="44.05147" lon="7.20849">
        <ele>1779</ele>
        <time>2010-11-06T08:14:32Z</time>
      </trkpt>
      <trkpt lat="44.05158" lon="7.20827">
        <ele>1776</ele>
        <time>2010-11-06T08:14:39Z</time>
      </trkpt>
      <trkpt lat="44.0516" lon="7.2082">
        <ele>1778</ele>
        <time>2010-11-06T08:14:43Z</time>
      </trkpt>
      <trkpt lat="44.05162" lon="7.20814">
        <ele>1781</ele>
        <time>2010-11-06T08:14:48Z</time>
      </trkpt>
      <trkpt lat="44.05165" lon="7.20802">
        <ele>1785</ele>
        <time>2010-11-06T08:14:55Z</time>
      </trkpt>
      <trkpt lat="44.05166" lon="7.20795">
        <ele>1786</ele>
        <time>2010-11-06T08:15:01Z</time>
      </trkpt>
      <trkpt lat="44.05167" lon="7.20788">
        <ele>1753</ele>
        <time>2010-11-06T08:15:08Z</time>
      </trkpt>
      <trkpt lat="44.05165" lon="7.20777">
        <ele>1786</ele>
        <time>2010-11-06T08:15:13Z</time>
      </trkpt>
      <trkpt lat="44.05159" lon="7.20761">
        <ele>1782</ele>
        <time>2010-11-06T08:15:20Z</time>
      </trkpt>
      <trkpt lat="44.05155" lon="7.20754">
        <ele>1782</ele>
        <time>2010-11-06T08:15:24Z</time>
      </trkpt>
      <trkpt lat="44.05151" lon="7.20746">
        <ele>1782</ele>
        <time>2010-11-06T08:15:28Z</time>
      </trkpt>
      <trkpt lat="44.05145" lon="7.20731">
        <ele>1786</ele>
        <time>2010-11-06T08:15:34Z</time>
      </trkpt>
      <trkpt lat="44.05139" lon="7.20719">
        <ele>1788</ele>
        <time>2010-11-06T08:15:40Z</time>
      </trkpt>
      <trkpt lat="44.05131" lon="7.20707">
        <ele>1789</ele>
        <time>2010-11-06T08:15:47Z</time>
      </trkpt>
      <trkpt lat="44.05131" lon="7.20705">
        <ele>1789</ele>
        <time>2010-11-06T08:15:48Z</time>
      </trkpt>
      <trkpt lat="44.05124" lon="7.20691">
        <ele>1789</ele>
        <time>2010-11-06T08:15:55Z</time>
      </trkpt>
      <trkpt lat="44.05122" lon="7.20688">
        <ele>1790</ele>
        <time>2010-11-06T08:15:57Z</time>
      </trkpt>
      <trkpt lat="44.05118" lon="7.20684">
        <ele>1791</ele>
        <time>2010-11-06T08:16:00Z</time>
      </trkpt>
      <trkpt lat="44.05109" lon="7.20673">
        <ele>1793</ele>
        <time>2010-11-06T08:16:08Z</time>
      </trkpt>
      <trkpt lat="44.05101" lon="7.20665">
        <ele>1785</ele>
        <time>2010-11-06T08:16:15Z</time>
      </trkpt>
      <trkpt lat="44.05095" lon="7.20659">
        <ele>1788</ele>
        <time>2010-11-06T08:16:22Z</time>
      </trkpt>
      <trkpt lat="44.05091" lon="7.20656">
        <ele>1789</ele>
        <time>2010-11-06T08:16:27Z</time>
      </trkpt>
      <trkpt lat="44.05084" lon="7.2065">
        <ele>1786</ele>
        <time>2010-11-06T08:16:36Z</time>
      </trkpt>
      <trkpt lat="44.05081" lon="7.20644">
        <ele>1804</ele>
        <time>2010-11-06T08:16:43Z</time>
      </trkpt>
      <trkpt lat="44.05077" lon="7.20638">
        <ele>1803</ele>
        <time>2010-11-06T08:16:49Z</time>
      </trkpt>
      <trkpt lat="44.05073" lon="7.20636">
        <ele>1803</ele>
        <time>2010-11-06T08:16:53Z</time>
      </trkpt>
      <trkpt lat="44.05066" lon="7.20637">
        <ele>1805</ele>
        <time>2010-11-06T08:16:59Z</time>
      </trkpt>
      <trkpt lat="44.05065" lon="7.20636">
        <ele>1805</ele>
        <time>2010-11-06T08:17:00Z</time>
      </trkpt>
      <trkpt lat="44.05058" lon="7.20632">
        <ele>1805</ele>
        <time>2010-11-06T08:17:09Z</time>
      </trkpt>
      <trkpt lat="44.05052" lon="7.2063">
        <ele>1806</ele>
        <time>2010-11-06T08:17:16Z</time>
      </trkpt>
      <trkpt lat="44.05048" lon="7.20628">
        <ele>1807</ele>
        <time>2010-11-06T08:17:22Z</time>
      </trkpt>
      <trkpt lat="44.05043" lon="7.20625">
        <ele>1807</ele>
        <time>2010-11-06T08:17:29Z</time>
      </trkpt>
      <trkpt lat="44.05039" lon="7.20621">
        <ele>1807</ele>
        <time>2010-11-06T08:17:37Z</time>
      </trkpt>
      <trkpt lat="44.05039" lon="7.2062">
        <ele>1807</ele>
        <time>2010-11-06T08:17:40Z</time>
      </trkpt>
      <trkpt lat="44.05034" lon="7.20616">
        <ele>1808</ele>
        <time>2010-11-06T08:17:44Z</time>
      </trkpt>
      <trkpt lat="44.05026" lon="7.20605">
        <ele>1808</ele>
        <time>2010-11-06T08:17:51Z</time>
      </trkpt>
      <trkpt lat="44.05017" lon="7.20594">
        <ele>1808</ele>
        <time>2010-11-06T08:17:58Z</time>
      </trkpt>
      <trkpt lat="44.05009" lon="7.20587">
        <ele>1809</ele>
        <time>2010-11-06T08:18:04Z</time>
      </trkpt>
      <trkpt lat="44.05001" lon="7.20578">
        <ele>1804</ele>
        <time>2010-11-06T08:18:11Z</time>
      </trkpt>
      <trkpt lat="44.04996" lon="7.20574">
        <ele>1815</ele>
        <time>2010-11-06T08:18:15Z</time>
      </trkpt>
      <trkpt lat="44.04993" lon="7.20568">
        <ele>1817</ele>
        <time>2010-11-06T08:18:20Z</time>
      </trkpt>
      <trkpt lat="44.04991" lon="7.20564">
        <ele>1818</ele>
        <time>2010-11-06T08:18:27Z</time>
      </trkpt>
      <trkpt lat="44.04985" lon="7.20559">
        <ele>1820</ele>
        <time>2010-11-06T08:18:35Z</time>
      </trkpt>
      <trkpt lat="44.04983" lon="7.20556">
        <ele>1820</ele>
        <time>2010-11-06T08:18:36Z</time>
      </trkpt>
      <trkpt lat="44.04979" lon="7.20548">
        <ele>1821</ele>
        <time>2010-11-06T08:18:41Z</time>
      </trkpt>
      <trkpt lat="44.04978" lon="7.20542">
        <ele>1820</ele>
        <time>2010-11-06T08:18:48Z</time>
      </trkpt>
      <trkpt lat="44.04977" lon="7.20537">
        <ele>1819</ele>
        <time>2010-11-06T08:18:54Z</time>
      </trkpt>
      <trkpt lat="44.04975" lon="7.20532">
        <ele>1819</ele>
        <time>2010-11-06T08:18:57Z</time>
      </trkpt>
      <trkpt lat="44.04968" lon="7.20523">
        <ele>1819</ele>
        <time>2010-11-06T08:19:05Z</time>
      </trkpt>
      <trkpt lat="44.04968" lon="7.20522">
        <ele>1820</ele>
        <time>2010-11-06T08:19:06Z</time>
      </trkpt>
      <trkpt lat="44.04967" lon="7.2052">
        <ele>1820</ele>
        <time>2010-11-06T08:19:13Z</time>
      </trkpt>
      <trkpt lat="44.04964" lon="7.20513">
        <ele>1820</ele>
        <time>2010-11-06T08:19:17Z</time>
      </trkpt>
      <trkpt lat="44.04958" lon="7.20505">
        <ele>1822</ele>
        <time>2010-11-06T08:19:22Z</time>
      </trkpt>
      <trkpt lat="44.04951" lon="7.20488">
        <ele>1810</ele>
        <time>2010-11-06T08:19:30Z</time>
      </trkpt>
      <trkpt lat="44.04944" lon="7.20477">
        <ele>1811</ele>
        <time>2010-11-06T08:19:37Z</time>
      </trkpt>
      <trkpt lat="44.04938" lon="7.20464">
        <ele>1810</ele>
        <time>2010-11-06T08:19:44Z</time>
      </trkpt>
      <trkpt lat="44.04936" lon="7.20461">
        <ele>1810</ele>
        <time>2010-11-06T08:19:46Z</time>
      </trkpt>
      <trkpt lat="44.0493" lon="7.20449">
        <ele>1810</ele>
        <time>2010-11-06T08:19:53Z</time>
      </trkpt>
      <trkpt lat="44.04924" lon="7.20439">
        <ele>1811</ele>
        <time>2010-11-06T08:20:00Z</time>
      </trkpt>
      <trkpt lat="44.04921" lon="7.20434">
        <ele>1812</ele>
        <time>2010-11-06T08:20:06Z</time>
      </trkpt>
      <trkpt lat="44.04918" lon="7.20432">
        <ele>1813</ele>
        <time>2010-11-06T08:20:13Z</time>
      </trkpt>
      <trkpt lat="44.04916" lon="7.20425">
        <ele>1832</ele>
        <time>2010-11-06T08:20:19Z</time>
      </trkpt>
      <trkpt lat="44.04912" lon="7.20417">
        <ele>1827</ele>
        <time>2010-11-06T08:20:26Z</time>
      </trkpt>
      <trkpt lat="44.04908" lon="7.2041">
        <ele>1830</ele>
        <time>2010-11-06T08:20:32Z</time>
      </trkpt>
      <trkpt lat="44.04905" lon="7.20401">
        <ele>1835</ele>
        <time>2010-11-06T08:20:40Z</time>
      </trkpt>
      <trkpt lat="44.04902" lon="7.20398">
        <ele>1836</ele>
        <time>2010-11-06T08:20:45Z</time>
      </trkpt>
      <trkpt lat="44.04899" lon="7.20397">
        <ele>1838</ele>
        <time>2010-11-06T08:20:50Z</time>
      </trkpt>
      <trkpt lat="44.04897" lon="7.20395">
        <ele>1839</ele>
        <time>2010-11-06T08:20:56Z</time>
      </trkpt>
      <trkpt lat="44.04892" lon="7.20393">
        <ele>1841</ele>
        <time>2010-11-06T08:21:02Z</time>
      </trkpt>
      <trkpt lat="44.04891" lon="7.2039">
        <ele>1842</ele>
        <time>2010-11-06T08:21:07Z</time>
      </trkpt>
      <trkpt lat="44.04891" lon="7.20381">
        <ele>1842</ele>
        <time>2010-11-06T08:21:14Z</time>
      </trkpt>
      <trkpt lat="44.04888" lon="7.20374">
        <ele>1843</ele>
        <time>2010-11-06T08:21:20Z</time>
      </trkpt>
      <trkpt lat="44.04886" lon="7.20365">
        <ele>1842</ele>
        <time>2010-11-06T08:21:28Z</time>
      </trkpt>
      <trkpt lat="44.04882" lon="7.20357">
        <ele>1843</ele>
        <time>2010-11-06T08:21:38Z</time>
      </trkpt>
      <trkpt lat="44.04878" lon="7.20355">
        <ele>1844</ele>
        <time>2010-11-06T08:21:44Z</time>
      </trkpt>
      <trkpt lat="44.04876" lon="7.20349">
        <ele>1845</ele>
        <time>2010-11-06T08:21:50Z</time>
      </trkpt>
      <trkpt lat="44.04873" lon="7.20345">
        <ele>1846</ele>
        <time>2010-11-06T08:21:58Z</time>
      </trkpt>
      <trkpt lat="44.04874" lon="7.20346">
        <ele>1846</ele>
        <time>2010-11-06T08:22:08Z</time>
      </trkpt>
      <trkpt lat="44.04873" lon="7.20345">
        <ele>1846</ele>
        <time>2010-11-06T08:22:09Z</time>
      </trkpt>
      <trkpt lat="44.04867" lon="7.20337">
        <ele>1849</ele>
        <time>2010-11-06T08:22:16Z</time>
      </trkpt>
      <trkpt lat="44.04862" lon="7.20332">
        <ele>1842</ele>
        <time>2010-11-06T08:22:23Z</time>
      </trkpt>
      <trkpt lat="44.04861" lon="7.20326">
        <ele>1842</ele>
        <time>2010-11-06T08:22:30Z</time>
      </trkpt>
      <trkpt lat="44.04861" lon="7.20321">
        <ele>1841</ele>
        <time>2010-11-06T08:22:37Z</time>
      </trkpt>
      <trkpt lat="44.0486" lon="7.20317">
        <ele>1841</ele>
        <time>2010-11-06T08:22:42Z</time>
      </trkpt>
      <trkpt lat="44.04859" lon="7.20315">
        <ele>1840</ele>
        <time>2010-11-06T08:22:43Z</time>
      </trkpt>
      <trkpt lat="44.04852" lon="7.20298">
        <ele>1839</ele>
        <time>2010-11-06T08:22:50Z</time>
      </trkpt>
      <trkpt lat="44.04851" lon="7.20294">
        <ele>1839</ele>
        <time>2010-11-06T08:22:51Z</time>
      </trkpt>
      <trkpt lat="44.04843" lon="7.2027">
        <ele>1840</ele>
        <time>2010-11-06T08:22:59Z</time>
      </trkpt>
      <trkpt lat="44.04835" lon="7.2025">
        <ele>1847</ele>
        <time>2010-11-06T08:23:05Z</time>
      </trkpt>
      <trkpt lat="44.04829" lon="7.20231">
        <ele>1857</ele>
        <time>2010-11-06T08:23:10Z</time>
      </trkpt>
      <trkpt lat="44.04823" lon="7.20226">
        <ele>1859</ele>
        <time>2010-11-06T08:23:16Z</time>
      </trkpt>
      <trkpt lat="44.0482" lon="7.20223">
        <ele>1859</ele>
        <time>2010-11-06T08:23:22Z</time>
      </trkpt>
      <trkpt lat="44.04817" lon="7.20219">
        <ele>1860</ele>
        <time>2010-11-06T08:23:28Z</time>
      </trkpt>
      <trkpt lat="44.04815" lon="7.20213">
        <ele>1860</ele>
        <time>2010-11-06T08:23:32Z</time>
      </trkpt>
      <trkpt lat="44.04811" lon="7.20211">
        <ele>1861</ele>
        <time>2010-11-06T08:23:37Z</time>
      </trkpt>
      <trkpt lat="44.04809" lon="7.20212">
        <ele>1862</ele>
        <time>2010-11-06T08:23:44Z</time>
      </trkpt>
      <trkpt lat="44.04805" lon="7.20204">
        <ele>1862</ele>
        <time>2010-11-06T08:23:51Z</time>
      </trkpt>
      <trkpt lat="44.04802" lon="7.20201">
        <ele>1863</ele>
        <time>2010-11-06T08:23:56Z</time>
      </trkpt>
      <trkpt lat="44.04801" lon="7.202">
        <ele>1863</ele>
        <time>2010-11-06T08:23:57Z</time>
      </trkpt>
      <trkpt lat="44.04798" lon="7.20191">
        <ele>1863</ele>
        <time>2010-11-06T08:24:04Z</time>
      </trkpt>
      <trkpt lat="44.04798" lon="7.2019">
        <ele>1863</ele>
        <time>2010-11-06T08:24:05Z</time>
      </trkpt>
      <trkpt lat="44.04794" lon="7.20185">
        <ele>1864</ele>
        <time>2010-11-06T08:24:14Z</time>
      </trkpt>
      <trkpt lat="44.04789" lon="7.20183">
        <ele>1866</ele>
        <time>2010-11-06T08:24:23Z</time>
      </trkpt>
      <trkpt lat="44.04787" lon="7.20181">
        <ele>1867</ele>
        <time>2010-11-06T08:24:29Z</time>
      </trkpt>
      <trkpt lat="44.04783" lon="7.20182">
        <ele>1868</ele>
        <time>2010-11-06T08:24:32Z</time>
      </trkpt>
      <trkpt lat="44.04779" lon="7.20179">
        <ele>1870</ele>
        <time>2010-11-06T08:24:40Z</time>
      </trkpt>
      <trkpt lat="44.04779" lon="7.20173">
        <ele>1870</ele>
        <time>2010-11-06T08:24:46Z</time>
      </trkpt>
      <trkpt lat="44.04779" lon="7.20167">
        <ele>1870</ele>
        <time>2010-11-06T08:24:53Z</time>
      </trkpt>
      <trkpt lat="44.04774" lon="7.20173">
        <ele>1872</ele>
        <time>2010-11-06T08:25:03Z</time>
      </trkpt>
      <trkpt lat="44.04773" lon="7.20178">
        <ele>1873</ele>
        <time>2010-11-06T08:25:08Z</time>
      </trkpt>
      <trkpt lat="44.04771" lon="7.2018">
        <ele>1874</ele>
        <time>2010-11-06T08:25:10Z</time>
      </trkpt>
      <trkpt lat="44.04769" lon="7.20191">
        <ele>1873</ele>
        <time>2010-11-06T08:25:20Z</time>
      </trkpt>
      <trkpt lat="44.0477" lon="7.20196">
        <ele>1873</ele>
        <time>2010-11-06T08:25:25Z</time>
      </trkpt>
      <trkpt lat="44.04767" lon="7.20204">
        <ele>1874</ele>
        <time>2010-11-06T08:25:33Z</time>
      </trkpt>
      <trkpt lat="44.04763" lon="7.20209">
        <ele>1875</ele>
        <time>2010-11-06T08:25:40Z</time>
      </trkpt>
      <trkpt lat="44.04762" lon="7.20207">
        <ele>1875</ele>
        <time>2010-11-06T08:25:45Z</time>
      </trkpt>
      <trkpt lat="44.04761" lon="7.20202">
        <ele>1875</ele>
        <time>2010-11-06T08:25:50Z</time>
      </trkpt>
      <trkpt lat="44.04759" lon="7.20196">
        <ele>1876</ele>
        <time>2010-11-06T08:26:00Z</time>
      </trkpt>
      <trkpt lat="44.04757" lon="7.20193">
        <ele>1876</ele>
        <time>2010-11-06T08:26:06Z</time>
      </trkpt>
      <trkpt lat="44.04758" lon="7.20183">
        <ele>1878</ele>
        <time>2010-11-06T08:26:13Z</time>
      </trkpt>
      <trkpt lat="44.04758" lon="7.20176">
        <ele>1880</ele>
        <time>2010-11-06T08:26:20Z</time>
      </trkpt>
      <trkpt lat="44.0476" lon="7.20172">
        <ele>1880</ele>
        <time>2010-11-06T08:26:25Z</time>
      </trkpt>
      <trkpt lat="44.04759" lon="7.20166">
        <ele>1880</ele>
        <time>2010-11-06T08:26:32Z</time>
      </trkpt>
      <trkpt lat="44.04754" lon="7.20167">
        <ele>1885</ele>
        <time>2010-11-06T08:26:38Z</time>
      </trkpt>
      <trkpt lat="44.04752" lon="7.20169">
        <ele>1885</ele>
        <time>2010-11-06T08:26:44Z</time>
      </trkpt>
      <trkpt lat="44.04749" lon="7.20176">
        <ele>1893</ele>
        <time>2010-11-06T08:26:52Z</time>
      </trkpt>
      <trkpt lat="44.04747" lon="7.20182">
        <ele>1895</ele>
        <time>2010-11-06T08:26:58Z</time>
      </trkpt>
      <trkpt lat="44.04742" lon="7.20187">
        <ele>1897</ele>
        <time>2010-11-06T08:27:05Z</time>
      </trkpt>
      <trkpt lat="44.04743" lon="7.20191">
        <ele>1898</ele>
        <time>2010-11-06T08:27:12Z</time>
      </trkpt>
      <trkpt lat="44.04739" lon="7.20195">
        <ele>1899</ele>
        <time>2010-11-06T08:27:19Z</time>
      </trkpt>
      <trkpt lat="44.04738" lon="7.20197">
        <ele>1899</ele>
        <time>2010-11-06T08:27:25Z</time>
      </trkpt>
      <trkpt lat="44.04739" lon="7.20202">
        <ele>1900</ele>
        <time>2010-11-06T08:27:30Z</time>
      </trkpt>
      <trkpt lat="44.04737" lon="7.20211">
        <ele>1901</ele>
        <time>2010-11-06T08:27:37Z</time>
      </trkpt>
      <trkpt lat="44.04739" lon="7.20219">
        <ele>1902</ele>
        <time>2010-11-06T08:27:44Z</time>
      </trkpt>
      <trkpt lat="44.04741" lon="7.20226">
        <ele>1902</ele>
        <time>2010-11-06T08:27:51Z</time>
      </trkpt>
      <trkpt lat="44.04739" lon="7.20226">
        <ele>1902</ele>
        <time>2010-11-06T08:27:56Z</time>
      </trkpt>
      <trkpt lat="44.04735" lon="7.20222">
        <ele>1902</ele>
        <time>2010-11-06T08:28:04Z</time>
      </trkpt>
      <trkpt lat="44.04732" lon="7.20216">
        <ele>1902</ele>
        <time>2010-11-06T08:28:11Z</time>
      </trkpt>
      <trkpt lat="44.04728" lon="7.20209">
        <ele>1902</ele>
        <time>2010-11-06T08:28:18Z</time>
      </trkpt>
      <trkpt lat="44.04725" lon="7.20201">
        <ele>1901</ele>
        <time>2010-11-06T08:28:26Z</time>
      </trkpt>
      <trkpt lat="44.04724" lon="7.20194">
        <ele>1900</ele>
        <time>2010-11-06T08:28:32Z</time>
      </trkpt>
      <trkpt lat="44.04723" lon="7.20186">
        <ele>1899</ele>
        <time>2010-11-06T08:28:40Z</time>
      </trkpt>
      <trkpt lat="44.04722" lon="7.20179">
        <ele>1899</ele>
        <time>2010-11-06T08:28:47Z</time>
      </trkpt>
      <trkpt lat="44.04723" lon="7.20175">
        <ele>1898</ele>
        <time>2010-11-06T08:28:52Z</time>
      </trkpt>
      <trkpt lat="44.04722" lon="7.20171">
        <ele>1898</ele>
        <time>2010-11-06T08:28:58Z</time>
      </trkpt>
      <trkpt lat="44.04723" lon="7.20167">
        <ele>1892</ele>
        <time>2010-11-06T08:29:03Z</time>
      </trkpt>
      <trkpt lat="44.04722" lon="7.2016">
        <ele>1892</ele>
        <time>2010-11-06T08:29:10Z</time>
      </trkpt>
      <trkpt lat="44.04724" lon="7.20152">
        <ele>1892</ele>
        <time>2010-11-06T08:29:19Z</time>
      </trkpt>
      <trkpt lat="44.04723" lon="7.20145">
        <ele>1892</ele>
        <time>2010-11-06T08:29:25Z</time>
      </trkpt>
      <trkpt lat="44.04722" lon="7.20139">
        <ele>1892</ele>
        <time>2010-11-06T08:29:31Z</time>
      </trkpt>
      <trkpt lat="44.0472" lon="7.20137">
        <ele>1892</ele>
        <time>2010-11-06T08:29:36Z</time>
      </trkpt>
      <trkpt lat="44.04718" lon="7.20142">
        <ele>1892</ele>
        <time>2010-11-06T08:29:41Z</time>
      </trkpt>
      <trkpt lat="44.04716" lon="7.20146">
        <ele>1892</ele>
        <time>2010-11-06T08:29:46Z</time>
      </trkpt>
      <trkpt lat="44.04714" lon="7.2015">
        <ele>1892</ele>
        <time>2010-11-06T08:29:52Z</time>
      </trkpt>
      <trkpt lat="44.04711" lon="7.20155">
        <ele>1893</ele>
        <time>2010-11-06T08:29:59Z</time>
      </trkpt>
      <trkpt lat="44.04707" lon="7.20163">
        <ele>1893</ele>
        <time>2010-11-06T08:30:07Z</time>
      </trkpt>
      <trkpt lat="44.04702" lon="7.20168">
        <ele>1900</ele>
        <time>2010-11-06T08:30:16Z</time>
      </trkpt>
      <trkpt lat="44.04699" lon="7.20167">
        <ele>1901</ele>
        <time>2010-11-06T08:30:23Z</time>
      </trkpt>
      <trkpt lat="44.04697" lon="7.20168">
        <ele>1901</ele>
        <time>2010-11-06T08:30:29Z</time>
      </trkpt>
      <trkpt lat="44.04698" lon="7.20171">
        <ele>1901</ele>
        <time>2010-11-06T08:30:34Z</time>
      </trkpt>
      <trkpt lat="44.04699" lon="7.20171">
        <ele>1901</ele>
        <time>2010-11-06T08:30:41Z</time>
      </trkpt>
      <trkpt lat="44.04698" lon="7.20172">
        <ele>1901</ele>
        <time>2010-11-06T08:30:51Z</time>
      </trkpt>
      <trkpt lat="44.04698" lon="7.20173">
        <ele>1901</ele>
        <time>2010-11-06T08:31:04Z</time>
      </trkpt>
      <trkpt lat="44.04698" lon="7.20172">
        <ele>1901</ele>
        <time>2010-11-06T08:31:25Z</time>
      </trkpt>
      <trkpt lat="44.04698" lon="7.20172">
        <ele>1901</ele>
        <time>2010-11-06T08:31:44Z</time>
      </trkpt>
      <trkpt lat="44.04699" lon="7.20173">
        <ele>1901</ele>
        <time>2010-11-06T08:32:07Z</time>
      </trkpt>
      <trkpt lat="44.04699" lon="7.20173">
        <ele>1901</ele>
        <time>2010-11-06T08:32:17Z</time>
      </trkpt>
      <trkpt lat="44.047" lon="7.20173">
        <ele>1901</ele>
        <time>2010-11-06T08:32:30Z</time>
      </trkpt>
      <trkpt lat="44.04699" lon="7.20172">
        <ele>1901</ele>
        <time>2010-11-06T08:32:36Z</time>
      </trkpt>
      <trkpt lat="44.04698" lon="7.20172">
        <ele>1901</ele>
        <time>2010-11-06T08:32:41Z</time>
      </trkpt>
      <trkpt lat="44.04699" lon="7.20172">
        <ele>1901</ele>
        <time>2010-11-06T08:32:49Z</time>
      </trkpt>
      <trkpt lat="44.04698" lon="7.20171">
        <ele>1901</ele>
        <time>2010-11-06T08:32:59Z</time>
      </trkpt>
      <trkpt lat="44.04699" lon="7.20168">
        <ele>1901</ele>
        <time>2010-11-06T08:33:04Z</time>
      </trkpt>
      <trkpt lat="44.04701" lon="7.20169">
        <ele>1900</ele>
        <time>2010-11-06T08:33:11Z</time>
      </trkpt>
      <trkpt lat="44.04699" lon="7.20167">
        <ele>1901</ele>
        <time>2010-11-06T08:33:17Z</time>
      </trkpt>
      <trkpt lat="44.04699" lon="7.20168">
        <ele>1901</ele>
        <time>2010-11-06T08:33:29Z</time>
      </trkpt>
      <trkpt lat="44.04699" lon="7.20168">
        <ele>1901</ele>
        <time>2010-11-06T08:33:39Z</time>
      </trkpt>
      <trkpt lat="44.04701" lon="7.2017">
        <ele>1900</ele>
        <time>2010-11-06T08:33:45Z</time>
      </trkpt>
      <trkpt lat="44.047" lon="7.20167">
        <ele>1900</ele>
        <time>2010-11-06T08:33:57Z</time>
      </trkpt>
      <trkpt lat="44.04699" lon="7.20167">
        <ele>1900</ele>
        <time>2010-11-06T08:34:04Z</time>
      </trkpt>
      <trkpt lat="44.04699" lon="7.20167">
        <ele>1900</ele>
        <time>2010-11-06T08:34:08Z</time>
      </trkpt>
      <trkpt lat="44.047" lon="7.20167">
        <ele>1894</ele>
        <time>2010-11-06T08:34:11Z</time>
      </trkpt>
      <trkpt lat="44.047" lon="7.20167">
        <ele>1894</ele>
        <time>2010-11-06T08:34:20Z</time>
      </trkpt>
      <trkpt lat="44.04701" lon="7.20165">
        <ele>1894</ele>
        <time>2010-11-06T08:34:26Z</time>
      </trkpt>
      <trkpt lat="44.047" lon="7.20166">
        <ele>1894</ele>
        <time>2010-11-06T08:34:50Z</time>
      </trkpt>
      <trkpt lat="44.047" lon="7.20163">
        <ele>1894</ele>
        <time>2010-11-06T08:35:26Z</time>
      </trkpt>
      <trkpt lat="44.04699" lon="7.20164">
        <ele>1894</ele>
        <time>2010-11-06T08:35:33Z</time>
      </trkpt>
      <trkpt lat="44.04699" lon="7.20164">
        <ele>1894</ele>
        <time>2010-11-06T08:35:50Z</time>
      </trkpt>
      <trkpt lat="44.04699" lon="7.20164">
        <ele>1894</ele>
        <time>2010-11-06T08:36:02Z</time>
      </trkpt>
      <trkpt lat="44.04698" lon="7.2017">
        <ele>1901</ele>
        <time>2010-11-06T08:36:31Z</time>
      </trkpt>
      <trkpt lat="44.04698" lon="7.2017">
        <ele>1901</ele>
        <time>2010-11-06T08:36:41Z</time>
      </trkpt>
      <trkpt lat="44.04699" lon="7.20169">
        <ele>1901</ele>
        <time>2010-11-06T08:36:53Z</time>
      </trkpt>
      <trkpt lat="44.04697" lon="7.2017">
        <ele>1901</ele>
        <time>2010-11-06T08:36:59Z</time>
      </trkpt>
      <trkpt lat="44.04697" lon="7.20173">
        <ele>1901</ele>
        <time>2010-11-06T08:37:04Z</time>
      </trkpt>
      <trkpt lat="44.04697" lon="7.20173">
        <ele>1901</ele>
        <time>2010-11-06T08:37:09Z</time>
      </trkpt>
      <trkpt lat="44.04698" lon="7.20173">
        <ele>1901</ele>
        <time>2010-11-06T08:37:18Z</time>
      </trkpt>
      <trkpt lat="44.04698" lon="7.2017">
        <ele>1901</ele>
        <time>2010-11-06T08:37:30Z</time>
      </trkpt>
      <trkpt lat="44.04698" lon="7.20169">
        <ele>1901</ele>
        <time>2010-11-06T08:37:35Z</time>
      </trkpt>
      <trkpt lat="44.04698" lon="7.20169">
        <ele>1901</ele>
        <time>2010-11-06T08:37:40Z</time>
      </trkpt>
      <trkpt lat="44.04698" lon="7.20169">
        <ele>1901</ele>
        <time>2010-11-06T08:37:50Z</time>
      </trkpt>
      <trkpt lat="44.04699" lon="7.20169">
        <ele>1901</ele>
        <time>2010-11-06T08:37:57Z</time>
      </trkpt>
      <trkpt lat="44.04699" lon="7.2017">
        <ele>1901</ele>
        <time>2010-11-06T08:38:05Z</time>
      </trkpt>
      <trkpt lat="44.047" lon="7.20168">
        <ele>1901</ele>
        <time>2010-11-06T08:38:11Z</time>
      </trkpt>
      <trkpt lat="44.047" lon="7.20169">
        <ele>1901</ele>
        <time>2010-11-06T08:38:17Z</time>
      </trkpt>
      <trkpt lat="44.047" lon="7.20169">
        <ele>1901</ele>
        <time>2010-11-06T08:38:22Z</time>
      </trkpt>
      <trkpt lat="44.04699" lon="7.20169">
        <ele>1901</ele>
        <time>2010-11-06T08:38:31Z</time>
      </trkpt>
      <trkpt lat="44.04699" lon="7.20169">
        <ele>1901</ele>
        <time>2010-11-06T08:38:40Z</time>
      </trkpt>
      <trkpt lat="44.047" lon="7.20169">
        <ele>1901</ele>
        <time>2010-11-06T08:38:53Z</time>
      </trkpt>
      <trkpt lat="44.047" lon="7.20168">
        <ele>1900</ele>
        <time>2010-11-06T08:39:02Z</time>
      </trkpt>
      <trkpt lat="44.047" lon="7.20166">
        <ele>1894</ele>
        <time>2010-11-06T08:39:06Z</time>
      </trkpt>
      <trkpt lat="44.04699" lon="7.20166">
        <ele>1894</ele>
        <time>2010-11-06T08:39:16Z</time>
      </trkpt>
      <trkpt lat="44.04698" lon="7.20165">
        <ele>1894</ele>
        <time>2010-11-06T08:39:17Z</time>
      </trkpt>
      <trkpt lat="44.04682" lon="7.20167">
        <ele>1901</ele>
        <time>2010-11-06T08:39:22Z</time>
      </trkpt>
      <trkpt lat="44.04678" lon="7.20168">
        <ele>1901</ele>
        <time>2010-11-06T08:39:23Z</time>
      </trkpt>
      <trkpt lat="44.04654" lon="7.20172">
        <ele>1899</ele>
        <time>2010-11-06T08:39:28Z</time>
      </trkpt>
      <trkpt lat="44.0465" lon="7.20174">
        <ele>1899</ele>
        <time>2010-11-06T08:39:29Z</time>
      </trkpt>
      <trkpt lat="44.04634" lon="7.20175">
        <ele>1896</ele>
        <time>2010-11-06T08:39:32Z</time>
      </trkpt>
      <trkpt lat="44.04619" lon="7.20181">
        <ele>1894</ele>
        <time>2010-11-06T08:39:36Z</time>
      </trkpt>
      <trkpt lat="44.04614" lon="7.20185">
        <ele>1893</ele>
        <time>2010-11-06T08:39:41Z</time>
      </trkpt>
      <trkpt lat="44.04614" lon="7.20186">
        <ele>1893</ele>
        <time>2010-11-06T08:39:47Z</time>
      </trkpt>
      <trkpt lat="44.0461" lon="7.20189">
        <ele>1893</ele>
        <time>2010-11-06T08:40:01Z</time>
      </trkpt>
      <trkpt lat="44.04608" lon="7.20192">
        <ele>1893</ele>
        <time>2010-11-06T08:40:07Z</time>
      </trkpt>
      <trkpt lat="44.04606" lon="7.20193">
        <ele>1893</ele>
        <time>2010-11-06T08:40:09Z</time>
      </trkpt>
      <trkpt lat="44.04595" lon="7.20198">
        <ele>1892</ele>
        <time>2010-11-06T08:40:14Z</time>
      </trkpt>
      <trkpt lat="44.04591" lon="7.20201">
        <ele>1893</ele>
        <time>2010-11-06T08:40:16Z</time>
      </trkpt>
      <trkpt lat="44.04578" lon="7.20211">
        <ele>1878</ele>
        <time>2010-11-06T08:40:22Z</time>
      </trkpt>
      <trkpt lat="44.04565" lon="7.2022">
        <ele>1879</ele>
        <time>2010-11-06T08:40:26Z</time>
      </trkpt>
      <trkpt lat="44.04547" lon="7.20232">
        <ele>1878</ele>
        <time>2010-11-06T08:40:31Z</time>
      </trkpt>
      <trkpt lat="44.0454" lon="7.20236">
        <ele>1876</ele>
        <time>2010-11-06T08:40:33Z</time>
      </trkpt>
      <trkpt lat="44.04511" lon="7.20263">
        <ele>1889</ele>
        <time>2010-11-06T08:40:39Z</time>
      </trkpt>
      <trkpt lat="44.04492" lon="7.20291">
        <ele>1873</ele>
        <time>2010-11-06T08:40:44Z</time>
      </trkpt>
      <trkpt lat="44.04484" lon="7.20313">
        <ele>1879</ele>
        <time>2010-11-06T08:40:48Z</time>
      </trkpt>
      <trkpt lat="44.04484" lon="7.20318">
        <ele>1881</ele>
        <time>2010-11-06T08:40:50Z</time>
      </trkpt>
      <trkpt lat="44.04482" lon="7.20321">
        <ele>1881</ele>
        <time>2010-11-06T08:40:55Z</time>
      </trkpt>
      <trkpt lat="44.04478" lon="7.20328">
        <ele>1881</ele>
        <time>2010-11-06T08:41:00Z</time>
      </trkpt>
      <trkpt lat="44.04471" lon="7.20337">
        <ele>1897</ele>
        <time>2010-11-06T08:41:05Z</time>
      </trkpt>
      <trkpt lat="44.04466" lon="7.20347">
        <ele>1897</ele>
        <time>2010-11-06T08:41:10Z</time>
      </trkpt>
      <trkpt lat="44.04459" lon="7.20354">
        <ele>1896</ele>
        <time>2010-11-06T08:41:14Z</time>
      </trkpt>
      <trkpt lat="44.04451" lon="7.20362">
        <ele>1895</ele>
        <time>2010-11-06T08:41:20Z</time>
      </trkpt>
      <trkpt lat="44.0445" lon="7.20364">
        <ele>1895</ele>
        <time>2010-11-06T08:41:21Z</time>
      </trkpt>
      <trkpt lat="44.04439" lon="7.20374">
        <ele>1895</ele>
        <time>2010-11-06T08:41:29Z</time>
      </trkpt>
      <trkpt lat="44.04427" lon="7.20387">
        <ele>1897</ele>
        <time>2010-11-06T08:41:38Z</time>
      </trkpt>
      <trkpt lat="44.04411" lon="7.20401">
        <ele>1886</ele>
        <time>2010-11-06T08:41:46Z</time>
      </trkpt>
      <trkpt lat="44.04394" lon="7.20412">
        <ele>1883</ele>
        <time>2010-11-06T08:41:51Z</time>
      </trkpt>
      <trkpt lat="44.04376" lon="7.20423">
        <ele>1900</ele>
        <time>2010-11-06T08:41:59Z</time>
      </trkpt>
      <trkpt lat="44.04363" lon="7.20431">
        <ele>1898</ele>
        <time>2010-11-06T08:42:05Z</time>
      </trkpt>
      <trkpt lat="44.04353" lon="7.20439">
        <ele>1898</ele>
        <time>2010-11-06T08:42:11Z</time>
      </trkpt>
      <trkpt lat="44.04343" lon="7.20442">
        <ele>1897</ele>
        <time>2010-11-06T08:42:17Z</time>
      </trkpt>
      <trkpt lat="44.04338" lon="7.20445">
        <ele>1897</ele>
        <time>2010-11-06T08:42:20Z</time>
      </trkpt>
      <trkpt lat="44.04327" lon="7.2045">
        <ele>1893</ele>
        <time>2010-11-06T08:42:27Z</time>
      </trkpt>
      <trkpt lat="44.04315" lon="7.20455">
        <ele>1895</ele>
        <time>2010-11-06T08:42:35Z</time>
      </trkpt>
      <trkpt lat="44.04308" lon="7.2046">
        <ele>1897</ele>
        <time>2010-11-06T08:42:40Z</time>
      </trkpt>
      <trkpt lat="44.04299" lon="7.20466">
        <ele>1898</ele>
        <time>2010-11-06T08:42:46Z</time>
      </trkpt>
      <trkpt lat="44.04288" lon="7.20474">
        <ele>1900</ele>
        <time>2010-11-06T08:42:54Z</time>
      </trkpt>
      <trkpt lat="44.04278" lon="7.20479">
        <ele>1902</ele>
        <time>2010-11-06T08:43:01Z</time>
      </trkpt>
      <trkpt lat="44.04268" lon="7.20481">
        <ele>1904</ele>
        <time>2010-11-06T08:43:08Z</time>
      </trkpt>
      <trkpt lat="44.04258" lon="7.20481">
        <ele>1905</ele>
        <time>2010-11-06T08:43:14Z</time>
      </trkpt>
      <trkpt lat="44.04243" lon="7.20478">
        <ele>1907</ele>
        <time>2010-11-06T08:43:24Z</time>
      </trkpt>
      <trkpt lat="44.04234" lon="7.20475">
        <ele>1906</ele>
        <time>2010-11-06T08:43:30Z</time>
      </trkpt>
      <trkpt lat="44.04223" lon="7.20471">
        <ele>1904</ele>
        <time>2010-11-06T08:43:37Z</time>
      </trkpt>
      <trkpt lat="44.04209" lon="7.20468">
        <ele>1904</ele>
        <time>2010-11-06T08:43:44Z</time>
      </trkpt>
      <trkpt lat="44.04189" lon="7.2047">
        <ele>1905</ele>
        <time>2010-11-06T08:43:53Z</time>
      </trkpt>
      <trkpt lat="44.04176" lon="7.20475">
        <ele>1908</ele>
        <time>2010-11-06T08:44:00Z</time>
      </trkpt>
      <trkpt lat="44.04161" lon="7.20479">
        <ele>1916</ele>
        <time>2010-11-06T08:44:09Z</time>
      </trkpt>
      <trkpt lat="44.04149" lon="7.20484">
        <ele>1917</ele>
        <time>2010-11-06T08:44:16Z</time>
      </trkpt>
      <trkpt lat="44.04139" lon="7.20481">
        <ele>1916</ele>
        <time>2010-11-06T08:44:23Z</time>
      </trkpt>
      <trkpt lat="44.04128" lon="7.20477">
        <ele>1916</ele>
        <time>2010-11-06T08:44:30Z</time>
      </trkpt>
      <trkpt lat="44.04116" lon="7.20478">
        <ele>1918</ele>
        <time>2010-11-06T08:44:38Z</time>
      </trkpt>
      <trkpt lat="44.04101" lon="7.20479">
        <ele>1921</ele>
        <time>2010-11-06T08:44:46Z</time>
      </trkpt>
      <trkpt lat="44.04089" lon="7.20481">
        <ele>1925</ele>
        <time>2010-11-06T08:44:53Z</time>
      </trkpt>
      <trkpt lat="44.0408" lon="7.20473">
        <ele>1934</ele>
        <time>2010-11-06T08:44:59Z</time>
      </trkpt>
      <trkpt lat="44.04069" lon="7.20461">
        <ele>1931</ele>
        <time>2010-11-06T08:45:07Z</time>
      </trkpt>
      <trkpt lat="44.04061" lon="7.20456">
        <ele>1931</ele>
        <time>2010-11-06T08:45:14Z</time>
      </trkpt>
      <trkpt lat="44.04055" lon="7.20456">
        <ele>1932</ele>
        <time>2010-11-06T08:45:20Z</time>
      </trkpt>
      <trkpt lat="44.04054" lon="7.20458">
        <ele>1932</ele>
        <time>2010-11-06T08:45:41Z</time>
      </trkpt>
      <trkpt lat="44.04051" lon="7.20456">
        <ele>1933</ele>
        <time>2010-11-06T08:45:46Z</time>
      </trkpt>
      <trkpt lat="44.04045" lon="7.20453">
        <ele>1933</ele>
        <time>2010-11-06T08:45:54Z</time>
      </trkpt>
      <trkpt lat="44.04038" lon="7.20451">
        <ele>1934</ele>
        <time>2010-11-06T08:46:03Z</time>
      </trkpt>
      <trkpt lat="44.04033" lon="7.20448">
        <ele>1934</ele>
        <time>2010-11-06T08:46:10Z</time>
      </trkpt>
      <trkpt lat="44.04028" lon="7.20446">
        <ele>1935</ele>
        <time>2010-11-06T08:46:17Z</time>
      </trkpt>
      <trkpt lat="44.04023" lon="7.20445">
        <ele>1935</ele>
        <time>2010-11-06T08:46:24Z</time>
      </trkpt>
      <trkpt lat="44.04016" lon="7.20441">
        <ele>1936</ele>
        <time>2010-11-06T08:46:33Z</time>
      </trkpt>
      <trkpt lat="44.04009" lon="7.20438">
        <ele>1936</ele>
        <time>2010-11-06T08:46:41Z</time>
      </trkpt>
      <trkpt lat="44.04007" lon="7.20438">
        <ele>1936</ele>
        <time>2010-11-06T08:46:45Z</time>
      </trkpt>
      <trkpt lat="44.04006" lon="7.20439">
        <ele>1936</ele>
        <time>2010-11-06T08:46:49Z</time>
      </trkpt>
      <trkpt lat="44.04003" lon="7.20438">
        <ele>1936</ele>
        <time>2010-11-06T08:46:54Z</time>
      </trkpt>
      <trkpt lat="44.03997" lon="7.20435">
        <ele>1943</ele>
        <time>2010-11-06T08:47:02Z</time>
      </trkpt>
      <trkpt lat="44.03991" lon="7.20432">
        <ele>1943</ele>
        <time>2010-11-06T08:47:10Z</time>
      </trkpt>
      <trkpt lat="44.03987" lon="7.20429">
        <ele>1943</ele>
        <time>2010-11-06T08:47:18Z</time>
      </trkpt>
      <trkpt lat="44.03982" lon="7.20427">
        <ele>1943</ele>
        <time>2010-11-06T08:47:25Z</time>
      </trkpt>
      <trkpt lat="44.03976" lon="7.20424">
        <ele>1944</ele>
        <time>2010-11-06T08:47:33Z</time>
      </trkpt>
      <trkpt lat="44.03971" lon="7.20422">
        <ele>1944</ele>
        <time>2010-11-06T08:47:40Z</time>
      </trkpt>
      <trkpt lat="44.03964" lon="7.20418">
        <ele>1945</ele>
        <time>2010-11-06T08:47:48Z</time>
      </trkpt>
      <trkpt lat="44.03957" lon="7.20415">
        <ele>1931</ele>
        <time>2010-11-06T08:47:56Z</time>
      </trkpt>
      <trkpt lat="44.03951" lon="7.20411">
        <ele>1931</ele>
        <time>2010-11-06T08:48:03Z</time>
      </trkpt>
      <trkpt lat="44.03948" lon="7.20411">
        <ele>1931</ele>
        <time>2010-11-06T08:48:08Z</time>
      </trkpt>
      <trkpt lat="44.03943" lon="7.20412">
        <ele>1932</ele>
        <time>2010-11-06T08:48:16Z</time>
      </trkpt>
      <trkpt lat="44.03941" lon="7.20413">
        <ele>1933</ele>
        <time>2010-11-06T08:48:22Z</time>
      </trkpt>
      <trkpt lat="44.03937" lon="7.20416">
        <ele>1934</ele>
        <time>2010-11-06T08:48:28Z</time>
      </trkpt>
      <trkpt lat="44.03937" lon="7.20415">
        <ele>1934</ele>
        <time>2010-11-06T08:48:34Z</time>
      </trkpt>
      <trkpt lat="44.03937" lon="7.20415">
        <ele>1934</ele>
        <time>2010-11-06T08:48:46Z</time>
      </trkpt>
      <trkpt lat="44.03937" lon="7.20416">
        <ele>1934</ele>
        <time>2010-11-06T08:48:55Z</time>
      </trkpt>
      <trkpt lat="44.03936" lon="7.20416">
        <ele>1934</ele>
        <time>2010-11-06T08:49:09Z</time>
      </trkpt>
      <trkpt lat="44.03935" lon="7.20418">
        <ele>1945</ele>
        <time>2010-11-06T08:49:34Z</time>
      </trkpt>
      <trkpt lat="44.03936" lon="7.20419">
        <ele>1945</ele>
        <time>2010-11-06T08:50:01Z</time>
      </trkpt>
      <trkpt lat="44.03935" lon="7.20422">
        <ele>1945</ele>
        <time>2010-11-06T08:50:07Z</time>
      </trkpt>
      <trkpt lat="44.03935" lon="7.20423">
        <ele>1945</ele>
        <time>2010-11-06T08:50:09Z</time>
      </trkpt>
      <trkpt lat="44.03932" lon="7.20432">
        <ele>1946</ele>
        <time>2010-11-06T08:50:14Z</time>
      </trkpt>
      <trkpt lat="44.0393" lon="7.20451">
        <ele>1948</ele>
        <time>2010-11-06T08:50:22Z</time>
      </trkpt>
      <trkpt lat="44.03928" lon="7.20474">
        <ele>1951</ele>
        <time>2010-11-06T08:50:30Z</time>
      </trkpt>
      <trkpt lat="44.03927" lon="7.20498">
        <ele>1954</ele>
        <time>2010-11-06T08:50:36Z</time>
      </trkpt>
      <trkpt lat="44.03922" lon="7.20513">
        <ele>1962</ele>
        <time>2010-11-06T08:50:40Z</time>
      </trkpt>
      <trkpt lat="44.0391" lon="7.20538">
        <ele>1950</ele>
        <time>2010-11-06T08:50:46Z</time>
      </trkpt>
      <trkpt lat="44.03891" lon="7.20573">
        <ele>1952</ele>
        <time>2010-11-06T08:50:54Z</time>
      </trkpt>
      <trkpt lat="44.0388" lon="7.20592">
        <ele>1959</ele>
        <time>2010-11-06T08:50:59Z</time>
      </trkpt>
      <trkpt lat="44.03876" lon="7.20606">
        <ele>1959</ele>
        <time>2010-11-06T08:51:03Z</time>
      </trkpt>
      <trkpt lat="44.03876" lon="7.2061">
        <ele>1959</ele>
        <time>2010-11-06T08:51:08Z</time>
      </trkpt>
      <trkpt lat="44.03874" lon="7.20612">
        <ele>1959</ele>
        <time>2010-11-06T08:51:14Z</time>
      </trkpt>
      <trkpt lat="44.03868" lon="7.20624">
        <ele>1958</ele>
        <time>2010-11-06T08:51:21Z</time>
      </trkpt>
      <trkpt lat="44.03862" lon="7.20639">
        <ele>1958</ele>
        <time>2010-11-06T08:51:28Z</time>
      </trkpt>
      <trkpt lat="44.03858" lon="7.20648">
        <ele>1958</ele>
        <time>2010-11-06T08:51:34Z</time>
      </trkpt>
      <trkpt lat="44.03857" lon="7.20656">
        <ele>1958</ele>
        <time>2010-11-06T08:51:42Z</time>
      </trkpt>
      <trkpt lat="44.03856" lon="7.20662">
        <ele>1957</ele>
        <time>2010-11-06T08:51:48Z</time>
      </trkpt>
      <trkpt lat="44.03854" lon="7.2067">
        <ele>1966</ele>
        <time>2010-11-06T08:51:55Z</time>
      </trkpt>
      <trkpt lat="44.03851" lon="7.20676">
        <ele>1966</ele>
        <time>2010-11-06T08:52:01Z</time>
      </trkpt>
      <trkpt lat="44.03849" lon="7.2068">
        <ele>1966</ele>
        <time>2010-11-06T08:52:07Z</time>
      </trkpt>
      <trkpt lat="44.03847" lon="7.20683">
        <ele>1966</ele>
        <time>2010-11-06T08:52:20Z</time>
      </trkpt>
      <trkpt lat="44.03842" lon="7.20698">
        <ele>1970</ele>
        <time>2010-11-06T08:52:28Z</time>
      </trkpt>
      <trkpt lat="44.03839" lon="7.20705">
        <ele>1971</ele>
        <time>2010-11-06T08:52:33Z</time>
      </trkpt>
      <trkpt lat="44.0384" lon="7.20708">
        <ele>1972</ele>
        <time>2010-11-06T08:52:37Z</time>
      </trkpt>
      <trkpt lat="44.03836" lon="7.20719">
        <ele>1973</ele>
        <time>2010-11-06T08:52:45Z</time>
      </trkpt>
      <trkpt lat="44.03835" lon="7.20727">
        <ele>1974</ele>
        <time>2010-11-06T08:52:51Z</time>
      </trkpt>
      <trkpt lat="44.03834" lon="7.20732">
        <ele>1974</ele>
        <time>2010-11-06T08:52:57Z</time>
      </trkpt>
      <trkpt lat="44.03832" lon="7.20737">
        <ele>1959</ele>
        <time>2010-11-06T08:53:05Z</time>
      </trkpt>
      <trkpt lat="44.03828" lon="7.20754">
        <ele>1969</ele>
        <time>2010-11-06T08:53:13Z</time>
      </trkpt>
      <trkpt lat="44.03822" lon="7.20766">
        <ele>1967</ele>
        <time>2010-11-06T08:53:20Z</time>
      </trkpt>
      <trkpt lat="44.03817" lon="7.20779">
        <ele>1967</ele>
        <time>2010-11-06T08:53:27Z</time>
      </trkpt>
      <trkpt lat="44.03808" lon="7.20796">
        <ele>1968</ele>
        <time>2010-11-06T08:53:35Z</time>
      </trkpt>
      <trkpt lat="44.038" lon="7.2081">
        <ele>1969</ele>
        <time>2010-11-06T08:53:42Z</time>
      </trkpt>
      <trkpt lat="44.03792" lon="7.20823">
        <ele>1968</ele>
        <time>2010-11-06T08:53:49Z</time>
      </trkpt>
      <trkpt lat="44.03783" lon="7.20837">
        <ele>1985</ele>
        <time>2010-11-06T08:53:56Z</time>
      </trkpt>
      <trkpt lat="44.03776" lon="7.20851">
        <ele>1985</ele>
        <time>2010-11-06T08:54:03Z</time>
      </trkpt>
      <trkpt lat="44.03769" lon="7.20862">
        <ele>1987</ele>
        <time>2010-11-06T08:54:10Z</time>
      </trkpt>
      <trkpt lat="44.03765" lon="7.20869">
        <ele>1988</ele>
        <time>2010-11-06T08:54:15Z</time>
      </trkpt>
      <trkpt lat="44.03764" lon="7.20869">
        <ele>1988</ele>
        <time>2010-11-06T08:54:25Z</time>
      </trkpt>
      <trkpt lat="44.03763" lon="7.2087">
        <ele>1988</ele>
        <time>2010-11-06T08:54:26Z</time>
      </trkpt>
      <trkpt lat="44.03751" lon="7.2088">
        <ele>1991</ele>
        <time>2010-11-06T08:54:35Z</time>
      </trkpt>
      <trkpt lat="44.03743" lon="7.20886">
        <ele>1978</ele>
        <time>2010-11-06T08:54:41Z</time>
      </trkpt>
      <trkpt lat="44.03736" lon="7.20888">
        <ele>1978</ele>
        <time>2010-11-06T08:54:46Z</time>
      </trkpt>
      <trkpt lat="44.03726" lon="7.20888">
        <ele>1975</ele>
        <time>2010-11-06T08:54:52Z</time>
      </trkpt>
      <trkpt lat="44.03711" lon="7.20883">
        <ele>1972</ele>
        <time>2010-11-06T08:54:59Z</time>
      </trkpt>
      <trkpt lat="44.037" lon="7.20885">
        <ele>1971</ele>
        <time>2010-11-06T08:55:05Z</time>
      </trkpt>
      <trkpt lat="44.0369" lon="7.20892">
        <ele>1972</ele>
        <time>2010-11-06T08:55:10Z</time>
      </trkpt>
      <trkpt lat="44.03675" lon="7.209">
        <ele>1974</ele>
        <time>2010-11-06T08:55:15Z</time>
      </trkpt>
      <trkpt lat="44.03653" lon="7.20903">
        <ele>1960</ele>
        <time>2010-11-06T08:55:21Z</time>
      </trkpt>
      <trkpt lat="44.03638" lon="7.20907">
        <ele>1954</ele>
        <time>2010-11-06T08:55:27Z</time>
      </trkpt>
      <trkpt lat="44.03634" lon="7.20911">
        <ele>1954</ele>
        <time>2010-11-06T08:55:29Z</time>
      </trkpt>
      <trkpt lat="44.03629" lon="7.20912">
        <ele>1952</ele>
        <time>2010-11-06T08:55:34Z</time>
      </trkpt>
      <trkpt lat="44.03624" lon="7.20914">
        <ele>1950</ele>
        <time>2010-11-06T08:55:37Z</time>
      </trkpt>
      <trkpt lat="44.03613" lon="7.20922">
        <ele>1974</ele>
        <time>2010-11-06T08:55:41Z</time>
      </trkpt>
      <trkpt lat="44.03609" lon="7.20932">
        <ele>1975</ele>
        <time>2010-11-06T08:55:45Z</time>
      </trkpt>
      <trkpt lat="44.03607" lon="7.20946">
        <ele>1978</ele>
        <time>2010-11-06T08:55:51Z</time>
      </trkpt>
      <trkpt lat="44.03604" lon="7.2095">
        <ele>1979</ele>
        <time>2010-11-06T08:55:55Z</time>
      </trkpt>
      <trkpt lat="44.03604" lon="7.20958">
        <ele>1982</ele>
        <time>2010-11-06T08:56:05Z</time>
      </trkpt>
      <trkpt lat="44.03604" lon="7.20964">
        <ele>1984</ele>
        <time>2010-11-06T08:56:07Z</time>
      </trkpt>
      <trkpt lat="44.03597" lon="7.20975">
        <ele>1986</ele>
        <time>2010-11-06T08:56:13Z</time>
      </trkpt>
      <trkpt lat="44.03589" lon="7.20982">
        <ele>1988</ele>
        <time>2010-11-06T08:56:18Z</time>
      </trkpt>
      <trkpt lat="44.03583" lon="7.20991">
        <ele>1980</ele>
        <time>2010-11-06T08:56:24Z</time>
      </trkpt>
      <trkpt lat="44.03581" lon="7.20994">
        <ele>1983</ele>
        <time>2010-11-06T08:56:26Z</time>
      </trkpt>
      <trkpt lat="44.03575" lon="7.20997">
        <ele>1980</ele>
        <time>2010-11-06T08:56:32Z</time>
      </trkpt>
      <trkpt lat="44.03572" lon="7.20998">
        <ele>1978</ele>
        <time>2010-11-06T08:56:38Z</time>
      </trkpt>
      <trkpt lat="44.03567" lon="7.20999">
        <ele>1974</ele>
        <time>2010-11-06T08:56:45Z</time>
      </trkpt>
      <trkpt lat="44.03565" lon="7.21">
        <ele>1972</ele>
        <time>2010-11-06T08:56:53Z</time>
      </trkpt>
      <trkpt lat="44.03561" lon="7.21007">
        <ele>1995</ele>
        <time>2010-11-06T08:57:25Z</time>
      </trkpt>
      <trkpt lat="44.03552" lon="7.21018">
        <ele>1996</ele>
        <time>2010-11-06T08:57:31Z</time>
      </trkpt>
      <trkpt lat="44.03541" lon="7.21025">
        <ele>1995</ele>
        <time>2010-11-06T08:57:37Z</time>
      </trkpt>
      <trkpt lat="44.0353" lon="7.21028">
        <ele>1994</ele>
        <time>2010-11-06T08:57:43Z</time>
      </trkpt>
      <trkpt lat="44.0352" lon="7.21032">
        <ele>1993</ele>
        <time>2010-11-06T08:57:49Z</time>
      </trkpt>
      <trkpt lat="44.03517" lon="7.21035">
        <ele>1994</ele>
        <time>2010-11-06T08:57:51Z</time>
      </trkpt>
      <trkpt lat="44.0351" lon="7.21039">
        <ele>1995</ele>
        <time>2010-11-06T08:57:57Z</time>
      </trkpt>
      <trkpt lat="44.03498" lon="7.21044">
        <ele>1983</ele>
        <time>2010-11-06T08:58:03Z</time>
      </trkpt>
      <trkpt lat="44.0349" lon="7.2105">
        <ele>1986</ele>
        <time>2010-11-06T08:58:09Z</time>
      </trkpt>
      <trkpt lat="44.03481" lon="7.21054">
        <ele>1986</ele>
        <time>2010-11-06T08:58:15Z</time>
      </trkpt>
      <trkpt lat="44.03473" lon="7.21057">
        <ele>1986</ele>
        <time>2010-11-06T08:58:21Z</time>
      </trkpt>
      <trkpt lat="44.03469" lon="7.2106">
        <ele>1986</ele>
        <time>2010-11-06T08:58:24Z</time>
      </trkpt>
      <trkpt lat="44.03463" lon="7.21063">
        <ele>1986</ele>
        <time>2010-11-06T08:58:31Z</time>
      </trkpt>
      <trkpt lat="44.0346" lon="7.21064">
        <ele>1985</ele>
        <time>2010-11-06T08:58:39Z</time>
      </trkpt>
      <trkpt lat="44.03458" lon="7.21065">
        <ele>1985</ele>
        <time>2010-11-06T08:58:44Z</time>
      </trkpt>
      <trkpt lat="44.03454" lon="7.21068">
        <ele>1986</ele>
        <time>2010-11-06T08:58:50Z</time>
      </trkpt>
      <trkpt lat="44.03448" lon="7.2107">
        <ele>1986</ele>
        <time>2010-11-06T08:58:57Z</time>
      </trkpt>
      <trkpt lat="44.03445" lon="7.21074">
        <ele>1986</ele>
        <time>2010-11-06T08:59:03Z</time>
      </trkpt>
      <trkpt lat="44.03444" lon="7.21075">
        <ele>1987</ele>
        <time>2010-11-06T08:59:08Z</time>
      </trkpt>
      <trkpt lat="44.03441" lon="7.21078">
        <ele>1987</ele>
        <time>2010-11-06T08:59:12Z</time>
      </trkpt>
      <trkpt lat="44.03439" lon="7.2108">
        <ele>1988</ele>
        <time>2010-11-06T08:59:17Z</time>
      </trkpt>
      <trkpt lat="44.03431" lon="7.21086">
        <ele>2012</ele>
        <time>2010-11-06T08:59:23Z</time>
      </trkpt>
      <trkpt lat="44.03429" lon="7.21087">
        <ele>2011</ele>
        <time>2010-11-06T08:59:25Z</time>
      </trkpt>
      <trkpt lat="44.03428" lon="7.21088">
        <ele>2010</ele>
        <time>2010-11-06T08:59:27Z</time>
      </trkpt>
      <trkpt lat="44.0342" lon="7.21091">
        <ele>2007</ele>
        <time>2010-11-06T08:59:34Z</time>
      </trkpt>
      <trkpt lat="44.03419" lon="7.21091">
        <ele>2007</ele>
        <time>2010-11-06T08:59:35Z</time>
      </trkpt>
      <trkpt lat="44.03409" lon="7.21094">
        <ele>2007</ele>
        <time>2010-11-06T08:59:42Z</time>
      </trkpt>
      <trkpt lat="44.03405" lon="7.21095">
        <ele>2009</ele>
        <time>2010-11-06T08:59:45Z</time>
      </trkpt>
      <trkpt lat="44.03405" lon="7.21096">
        <ele>2010</ele>
        <time>2010-11-06T08:59:55Z</time>
      </trkpt>
      <trkpt lat="44.03401" lon="7.21098">
        <ele>2012</ele>
        <time>2010-11-06T09:00:00Z</time>
      </trkpt>
      <trkpt lat="44.03395" lon="7.21102">
        <ele>2014</ele>
        <time>2010-11-06T09:00:06Z</time>
      </trkpt>
      <trkpt lat="44.03393" lon="7.21103">
        <ele>2015</ele>
        <time>2010-11-06T09:00:08Z</time>
      </trkpt>
      <trkpt lat="44.03387" lon="7.21107">
        <ele>2017</ele>
        <time>2010-11-06T09:00:15Z</time>
      </trkpt>
      <trkpt lat="44.03383" lon="7.21112">
        <ele>2018</ele>
        <time>2010-11-06T09:00:23Z</time>
      </trkpt>
      <trkpt lat="44.03381" lon="7.21113">
        <ele>2019</ele>
        <time>2010-11-06T09:00:29Z</time>
      </trkpt>
      <trkpt lat="44.03378" lon="7.21115">
        <ele>2019</ele>
        <time>2010-11-06T09:00:36Z</time>
      </trkpt>
      <trkpt lat="44.0337" lon="7.21119">
        <ele>2020</ele>
        <time>2010-11-06T09:00:41Z</time>
      </trkpt>
      <trkpt lat="44.03362" lon="7.2112">
        <ele>2020</ele>
        <time>2010-11-06T09:00:46Z</time>
      </trkpt>
      <trkpt lat="44.0335" lon="7.21119">
        <ele>2019</ele>
        <time>2010-11-06T09:00:53Z</time>
      </trkpt>
      <trkpt lat="44.0334" lon="7.21116">
        <ele>2016</ele>
        <time>2010-11-06T09:00:59Z</time>
      </trkpt>
      <trkpt lat="44.0333" lon="7.21109">
        <ele>2004</ele>
        <time>2010-11-06T09:01:05Z</time>
      </trkpt>
      <trkpt lat="44.03327" lon="7.21107">
        <ele>2003</ele>
        <time>2010-11-06T09:01:07Z</time>
      </trkpt>
      <trkpt lat="44.0332" lon="7.21098">
        <ele>2001</ele>
        <time>2010-11-06T09:01:13Z</time>
      </trkpt>
      <trkpt lat="44.03318" lon="7.21098">
        <ele>2001</ele>
        <time>2010-11-06T09:01:14Z</time>
      </trkpt>
      <trkpt lat="44.03302" lon="7.21097">
        <ele>2002</ele>
        <time>2010-11-06T09:01:20Z</time>
      </trkpt>
      <trkpt lat="44.0329" lon="7.211">
        <ele>2001</ele>
        <time>2010-11-06T09:01:25Z</time>
      </trkpt>
      <trkpt lat="44.03276" lon="7.21109">
        <ele>2001</ele>
        <time>2010-11-06T09:01:29Z</time>
      </trkpt>
      <trkpt lat="44.03264" lon="7.21115">
        <ele>2001</ele>
        <time>2010-11-06T09:01:33Z</time>
      </trkpt>
      <trkpt lat="44.03257" lon="7.21121">
        <ele>2002</ele>
        <time>2010-11-06T09:01:38Z</time>
      </trkpt>
      <trkpt lat="44.03255" lon="7.21123">
        <ele>2003</ele>
        <time>2010-11-06T09:01:39Z</time>
      </trkpt>
      <trkpt lat="44.0325" lon="7.21131">
        <ele>2005</ele>
        <time>2010-11-06T09:01:44Z</time>
      </trkpt>
      <trkpt lat="44.03249" lon="7.21131">
        <ele>1986</ele>
        <time>2010-11-06T09:01:53Z</time>
      </trkpt>
      <trkpt lat="44.03251" lon="7.21133">
        <ele>2005</ele>
        <time>2010-11-06T09:01:58Z</time>
      </trkpt>
      <trkpt lat="44.03249" lon="7.21134">
        <ele>1987</ele>
        <time>2010-11-06T09:02:02Z</time>
      </trkpt>
      <trkpt lat="44.0325" lon="7.21134">
        <ele>1987</ele>
        <time>2010-11-06T09:02:10Z</time>
      </trkpt>
      <trkpt lat="44.03251" lon="7.21135">
        <ele>2006</ele>
        <time>2010-11-06T09:02:16Z</time>
      </trkpt>
      <trkpt lat="44.03249" lon="7.21136">
        <ele>1988</ele>
        <time>2010-11-06T09:02:28Z</time>
      </trkpt>
      <trkpt lat="44.0325" lon="7.21137">
        <ele>2006</ele>
        <time>2010-11-06T09:02:32Z</time>
      </trkpt>
      <trkpt lat="44.0325" lon="7.21137">
        <ele>1988</ele>
        <time>2010-11-06T09:02:38Z</time>
      </trkpt>
      <trkpt lat="44.0325" lon="7.21136">
        <ele>1988</ele>
        <time>2010-11-06T09:02:48Z</time>
      </trkpt>
      <trkpt lat="44.0325" lon="7.21135">
        <ele>2006</ele>
        <time>2010-11-06T09:03:00Z</time>
      </trkpt>
      <trkpt lat="44.03249" lon="7.21134">
        <ele>1987</ele>
        <time>2010-11-06T09:03:26Z</time>
      </trkpt>
      <trkpt lat="44.0325" lon="7.21133">
        <ele>1987</ele>
        <time>2010-11-06T09:03:37Z</time>
      </trkpt>
      <trkpt lat="44.0325" lon="7.21133">
        <ele>1987</ele>
        <time>2010-11-06T09:03:44Z</time>
      </trkpt>
      <trkpt lat="44.0325" lon="7.21133">
        <ele>2005</ele>
        <time>2010-11-06T09:03:55Z</time>
      </trkpt>
      <trkpt lat="44.0325" lon="7.21135">
        <ele>2006</ele>
        <time>2010-11-06T09:04:02Z</time>
      </trkpt>
      <trkpt lat="44.0325" lon="7.21134">
        <ele>2006</ele>
        <time>2010-11-06T09:04:12Z</time>
      </trkpt>
      <trkpt lat="44.03251" lon="7.21138">
        <ele>2006</ele>
        <time>2010-11-06T09:04:36Z</time>
      </trkpt>
      <trkpt lat="44.03251" lon="7.21139">
        <ele>2007</ele>
        <time>2010-11-06T09:04:57Z</time>
      </trkpt>
      <trkpt lat="44.03249" lon="7.21137">
        <ele>1988</ele>
        <time>2010-11-06T09:05:27Z</time>
      </trkpt>
      <trkpt lat="44.03249" lon="7.21138">
        <ele>1989</ele>
        <time>2010-11-06T09:06:04Z</time>
      </trkpt>
      <trkpt lat="44.0325" lon="7.21139">
        <ele>1989</ele>
        <time>2010-11-06T09:06:35Z</time>
      </trkpt>
      <trkpt lat="44.0325" lon="7.21137">
        <ele>1988</ele>
        <time>2010-11-06T09:06:41Z</time>
      </trkpt>
      <trkpt lat="44.0325" lon="7.21137">
        <ele>2006</ele>
        <time>2010-11-06T09:06:54Z</time>
      </trkpt>
      <trkpt lat="44.0325" lon="7.21138">
        <ele>2006</ele>
        <time>2010-11-06T09:07:09Z</time>
      </trkpt>
      <trkpt lat="44.0325" lon="7.21138">
        <ele>1988</ele>
        <time>2010-11-06T09:07:34Z</time>
      </trkpt>
      <trkpt lat="44.0325" lon="7.21138">
        <ele>1988</ele>
        <time>2010-11-06T09:08:12Z</time>
      </trkpt>
      <trkpt lat="44.0325" lon="7.21138">
        <ele>1988</ele>
        <time>2010-11-06T09:08:28Z</time>
      </trkpt>
      <trkpt lat="44.03251" lon="7.21138">
        <ele>2007</ele>
        <time>2010-11-06T09:08:58Z</time>
      </trkpt>
      <trkpt lat="44.03251" lon="7.21139">
        <ele>2007</ele>
        <time>2010-11-06T09:09:18Z</time>
      </trkpt>
      <trkpt lat="44.03249" lon="7.21138">
        <ele>1989</ele>
        <time>2010-11-06T09:09:57Z</time>
      </trkpt>
      <trkpt lat="44.0325" lon="7.21138">
        <ele>1989</ele>
        <time>2010-11-06T09:10:05Z</time>
      </trkpt>
      <trkpt lat="44.03248" lon="7.21141">
        <ele>1990</ele>
        <time>2010-11-06T09:10:24Z</time>
      </trkpt>
      <trkpt lat="44.03246" lon="7.21142">
        <ele>1990</ele>
        <time>2010-11-06T09:10:27Z</time>
      </trkpt>
      <trkpt lat="44.03247" lon="7.21142">
        <ele>1990</ele>
        <time>2010-11-06T09:10:32Z</time>
      </trkpt>
      <trkpt lat="44.03248" lon="7.21141">
        <ele>1990</ele>
        <time>2010-11-06T09:10:36Z</time>
      </trkpt>
      <trkpt lat="44.03248" lon="7.21142">
        <ele>1990</ele>
        <time>2010-11-06T09:10:39Z</time>
      </trkpt>
      <trkpt lat="44.03247" lon="7.21142">
        <ele>1990</ele>
        <time>2010-11-06T09:10:49Z</time>
      </trkpt>
      <trkpt lat="44.03248" lon="7.21141">
        <ele>1990</ele>
        <time>2010-11-06T09:10:54Z</time>
      </trkpt>
      <trkpt lat="44.03247" lon="7.21142">
        <ele>1990</ele>
        <time>2010-11-06T09:11:05Z</time>
      </trkpt>
      <trkpt lat="44.03246" lon="7.21142">
        <ele>1990</ele>
        <time>2010-11-06T09:11:11Z</time>
      </trkpt>
      <trkpt lat="44.03246" lon="7.21141">
        <ele>1989</ele>
        <time>2010-11-06T09:11:20Z</time>
      </trkpt>
      <trkpt lat="44.03246" lon="7.21142">
        <ele>1990</ele>
        <time>2010-11-06T09:11:27Z</time>
      </trkpt>
      <trkpt lat="44.03245" lon="7.21142">
        <ele>1990</ele>
        <time>2010-11-06T09:11:35Z</time>
      </trkpt>
      <trkpt lat="44.03244" lon="7.21141">
        <ele>1989</ele>
        <time>2010-11-06T09:11:47Z</time>
      </trkpt>
      <trkpt lat="44.03244" lon="7.21141">
        <ele>1989</ele>
        <time>2010-11-06T09:11:57Z</time>
      </trkpt>
      <trkpt lat="44.03243" lon="7.21142">
        <ele>1989</ele>
        <time>2010-11-06T09:12:02Z</time>
      </trkpt>
      <trkpt lat="44.03244" lon="7.21141">
        <ele>1989</ele>
        <time>2010-11-06T09:12:10Z</time>
      </trkpt>
      <trkpt lat="44.03244" lon="7.2114">
        <ele>1989</ele>
        <time>2010-11-06T09:12:30Z</time>
      </trkpt>
      <trkpt lat="44.03245" lon="7.21142">
        <ele>1990</ele>
        <time>2010-11-06T09:12:40Z</time>
      </trkpt>
      <trkpt lat="44.03245" lon="7.21142">
        <ele>1989</ele>
        <time>2010-11-06T09:12:48Z</time>
      </trkpt>
      <trkpt lat="44.03246" lon="7.21141">
        <ele>1989</ele>
        <time>2010-11-06T09:12:53Z</time>
      </trkpt>
      <trkpt lat="44.03248" lon="7.2114">
        <ele>1989</ele>
        <time>2010-11-06T09:12:59Z</time>
      </trkpt>
      <trkpt lat="44.03249" lon="7.21137">
        <ele>1988</ele>
        <time>2010-11-06T09:13:06Z</time>
      </trkpt>
      <trkpt lat="44.03249" lon="7.21136">
        <ele>1988</ele>
        <time>2010-11-06T09:13:12Z</time>
      </trkpt>
      <trkpt lat="44.03248" lon="7.21137">
        <ele>1988</ele>
        <time>2010-11-06T09:13:17Z</time>
      </trkpt>
      <trkpt lat="44.03247" lon="7.21136">
        <ele>1987</ele>
        <time>2010-11-06T09:13:25Z</time>
      </trkpt>
      <trkpt lat="44.03247" lon="7.21135">
        <ele>1987</ele>
        <time>2010-11-06T09:13:29Z</time>
      </trkpt>
      <trkpt lat="44.03247" lon="7.21136">
        <ele>1987</ele>
        <time>2010-11-06T09:13:36Z</time>
      </trkpt>
      <trkpt lat="44.03247" lon="7.21136">
        <ele>1988</ele>
        <time>2010-11-06T09:13:43Z</time>
      </trkpt>
      <trkpt lat="44.03247" lon="7.21137">
        <ele>1988</ele>
        <time>2010-11-06T09:13:51Z</time>
      </trkpt>
      <trkpt lat="44.03247" lon="7.21137">
        <ele>1988</ele>
        <time>2010-11-06T09:13:58Z</time>
      </trkpt>
      <trkpt lat="44.03248" lon="7.21137">
        <ele>1988</ele>
        <time>2010-11-06T09:14:14Z</time>
      </trkpt>
      <trkpt lat="44.03247" lon="7.21137">
        <ele>1988</ele>
        <time>2010-11-06T09:14:20Z</time>
      </trkpt>
      <trkpt lat="44.03247" lon="7.21137">
        <ele>1988</ele>
        <time>2010-11-06T09:14:29Z</time>
      </trkpt>
      <trkpt lat="44.03247" lon="7.21138">
        <ele>1988</ele>
        <time>2010-11-06T09:14:35Z</time>
      </trkpt>
      <trkpt lat="44.03248" lon="7.21135">
        <ele>1987</ele>
        <time>2010-11-06T09:14:43Z</time>
      </trkpt>
      <trkpt lat="44.03248" lon="7.21135">
        <ele>1987</ele>
        <time>2010-11-06T09:14:48Z</time>
      </trkpt>
      <trkpt lat="44.03248" lon="7.21135">
        <ele>1987</ele>
        <time>2010-11-06T09:14:54Z</time>
      </trkpt>
      <trkpt lat="44.03247" lon="7.21135">
        <ele>1987</ele>
        <time>2010-11-06T09:15:26Z</time>
      </trkpt>
      <trkpt lat="44.03246" lon="7.21137">
        <ele>1987</ele>
        <time>2010-11-06T09:15:34Z</time>
      </trkpt>
      <trkpt lat="44.03246" lon="7.21137">
        <ele>1988</ele>
        <time>2010-11-06T09:15:43Z</time>
      </trkpt>
      <trkpt lat="44.03243" lon="7.21142">
        <ele>1989</ele>
        <time>2010-11-06T09:15:49Z</time>
      </trkpt>
      <trkpt lat="44.03235" lon="7.21155">
        <ele>1993</ele>
        <time>2010-11-06T09:15:54Z</time>
      </trkpt>
      <trkpt lat="44.03226" lon="7.2117">
        <ele>1995</ele>
        <time>2010-11-06T09:15:58Z</time>
      </trkpt>
      <trkpt lat="44.03212" lon="7.21197">
        <ele>1989</ele>
        <time>2010-11-06T09:16:03Z</time>
      </trkpt>
      <trkpt lat="44.03207" lon="7.21207">
        <ele>1988</ele>
        <time>2010-11-06T09:16:05Z</time>
      </trkpt>
      <trkpt lat="44.03204" lon="7.21235">
        <ele>1987</ele>
        <time>2010-11-06T09:16:09Z</time>
      </trkpt>
      <trkpt lat="44.03208" lon="7.21263">
        <ele>1987</ele>
        <time>2010-11-06T09:16:14Z</time>
      </trkpt>
      <trkpt lat="44.03211" lon="7.21285">
        <ele>1987</ele>
        <time>2010-11-06T09:16:18Z</time>
      </trkpt>
      <trkpt lat="44.03213" lon="7.21311">
        <ele>1987</ele>
        <time>2010-11-06T09:16:24Z</time>
      </trkpt>
      <trkpt lat="44.03215" lon="7.21343">
        <ele>1978</ele>
        <time>2010-11-06T09:16:29Z</time>
      </trkpt>
      <trkpt lat="44.03215" lon="7.21367">
        <ele>1975</ele>
        <time>2010-11-06T09:16:33Z</time>
      </trkpt>
      <trkpt lat="44.03215" lon="7.21372">
        <ele>1974</ele>
        <time>2010-11-06T09:16:34Z</time>
      </trkpt>
      <trkpt lat="44.03214" lon="7.21387">
        <ele>1972</ele>
        <time>2010-11-06T09:16:37Z</time>
      </trkpt>
      <trkpt lat="44.03211" lon="7.21419">
        <ele>1958</ele>
        <time>2010-11-06T09:16:43Z</time>
      </trkpt>
      <trkpt lat="44.0321" lon="7.21437">
        <ele>1956</ele>
        <time>2010-11-06T09:16:47Z</time>
      </trkpt>
      <trkpt lat="44.03214" lon="7.21473">
        <ele>1953</ele>
        <time>2010-11-06T09:16:53Z</time>
      </trkpt>
      <trkpt lat="44.03215" lon="7.2148">
        <ele>1953</ele>
        <time>2010-11-06T09:16:54Z</time>
      </trkpt>
      <trkpt lat="44.03202" lon="7.21506">
        <ele>1942</ele>
        <time>2010-11-06T09:16:58Z</time>
      </trkpt>
      <trkpt lat="44.03194" lon="7.21516">
        <ele>1941</ele>
        <time>2010-11-06T09:17:01Z</time>
      </trkpt>
      <trkpt lat="44.03187" lon="7.21533">
        <ele>1941</ele>
        <time>2010-11-06T09:17:05Z</time>
      </trkpt>
      <trkpt lat="44.03178" lon="7.21549">
        <ele>1942</ele>
        <time>2010-11-06T09:17:09Z</time>
      </trkpt>
      <trkpt lat="44.03159" lon="7.21569">
        <ele>1938</ele>
        <time>2010-11-06T09:17:16Z</time>
      </trkpt>
      <trkpt lat="44.03157" lon="7.21573">
        <ele>1939</ele>
        <time>2010-11-06T09:17:19Z</time>
      </trkpt>
      <trkpt lat="44.03152" lon="7.21576">
        <ele>1938</ele>
        <time>2010-11-06T09:17:23Z</time>
      </trkpt>
      <trkpt lat="44.03141" lon="7.21584">
        <ele>1947</ele>
        <time>2010-11-06T09:17:28Z</time>
      </trkpt>
      <trkpt lat="44.03129" lon="7.21594">
        <ele>1945</ele>
        <time>2010-11-06T09:17:32Z</time>
      </trkpt>
      <trkpt lat="44.03105" lon="7.21616">
        <ele>1945</ele>
        <time>2010-11-06T09:17:38Z</time>
      </trkpt>
      <trkpt lat="44.03099" lon="7.21624">
        <ele>1946</ele>
        <time>2010-11-06T09:17:40Z</time>
      </trkpt>
      <trkpt lat="44.03077" lon="7.21641">
        <ele>1934</ele>
        <time>2010-11-06T09:17:45Z</time>
      </trkpt>
      <trkpt lat="44.03063" lon="7.21644">
        <ele>1931</ele>
        <time>2010-11-06T09:17:48Z</time>
      </trkpt>
      <trkpt lat="44.03049" lon="7.21647">
        <ele>1926</ele>
        <time>2010-11-06T09:17:51Z</time>
      </trkpt>
      <trkpt lat="44.03033" lon="7.2166">
        <ele>1923</ele>
        <time>2010-11-06T09:17:56Z</time>
      </trkpt>
      <trkpt lat="44.03028" lon="7.21667">
        <ele>1946</ele>
        <time>2010-11-06T09:17:58Z</time>
      </trkpt>
      <trkpt lat="44.03022" lon="7.21688">
        <ele>1948</ele>
        <time>2010-11-06T09:18:03Z</time>
      </trkpt>
      <trkpt lat="44.03017" lon="7.21698">
        <ele>1951</ele>
        <time>2010-11-06T09:18:07Z</time>
      </trkpt>
      <trkpt lat="44.03016" lon="7.21699">
        <ele>1951</ele>
        <time>2010-11-06T09:18:08Z</time>
      </trkpt>
      <trkpt lat="44.0301" lon="7.21707">
        <ele>1953</ele>
        <time>2010-11-06T09:18:13Z</time>
      </trkpt>
      <trkpt lat="44.03006" lon="7.2171">
        <ele>1953</ele>
        <time>2010-11-06T09:18:19Z</time>
      </trkpt>
      <trkpt lat="44.03001" lon="7.21716">
        <ele>1955</ele>
        <time>2010-11-06T09:18:26Z</time>
      </trkpt>
      <trkpt lat="44.02997" lon="7.2172">
        <ele>1936</ele>
        <time>2010-11-06T09:18:32Z</time>
      </trkpt>
      <trkpt lat="44.02989" lon="7.21717">
        <ele>1933</ele>
        <time>2010-11-06T09:18:38Z</time>
      </trkpt>
      <trkpt lat="44.02987" lon="7.21716">
        <ele>1933</ele>
        <time>2010-11-06T09:18:40Z</time>
      </trkpt>
      <trkpt lat="44.02982" lon="7.21713">
        <ele>1931</ele>
        <time>2010-11-06T09:18:46Z</time>
      </trkpt>
      <trkpt lat="44.0298" lon="7.21714">
        <ele>1931</ele>
        <time>2010-11-06T09:18:52Z</time>
      </trkpt>
      <trkpt lat="44.02976" lon="7.21717">
        <ele>1931</ele>
        <time>2010-11-06T09:18:56Z</time>
      </trkpt>
      <trkpt lat="44.02973" lon="7.21721">
        <ele>1931</ele>
        <time>2010-11-06T09:19:00Z</time>
      </trkpt>
      <trkpt lat="44.0297" lon="7.21723">
        <ele>1932</ele>
        <time>2010-11-06T09:19:06Z</time>
      </trkpt>
      <trkpt lat="44.02966" lon="7.21728">
        <ele>1932</ele>
        <time>2010-11-06T09:19:09Z</time>
      </trkpt>
      <trkpt lat="44.02956" lon="7.21738">
        <ele>1932</ele>
        <time>2010-11-06T09:19:12Z</time>
      </trkpt>
      <trkpt lat="44.02939" lon="7.21748">
        <ele>1931</ele>
        <time>2010-11-06T09:19:16Z</time>
      </trkpt>
      <trkpt lat="44.02923" lon="7.21749">
        <ele>1931</ele>
        <time>2010-11-06T09:19:19Z</time>
      </trkpt>
      <trkpt lat="44.02916" lon="7.21749">
        <ele>1931</ele>
        <time>2010-11-06T09:19:23Z</time>
      </trkpt>
      <trkpt lat="44.02911" lon="7.21749">
        <ele>1923</ele>
        <time>2010-11-06T09:19:30Z</time>
      </trkpt>
      <trkpt lat="44.02909" lon="7.21748">
        <ele>1920</ele>
        <time>2010-11-06T09:19:36Z</time>
      </trkpt>
      <trkpt lat="44.02902" lon="7.21749">
        <ele>1913</ele>
        <time>2010-11-06T09:19:43Z</time>
      </trkpt>
      <trkpt lat="44.02899" lon="7.21751">
        <ele>1927</ele>
        <time>2010-11-06T09:19:47Z</time>
      </trkpt>
      <trkpt lat="44.02893" lon="7.21768">
        <ele>1925</ele>
        <time>2010-11-06T09:19:53Z</time>
      </trkpt>
      <trkpt lat="44.02892" lon="7.21776">
        <ele>1925</ele>
        <time>2010-11-06T09:19:58Z</time>
      </trkpt>
      <trkpt lat="44.02892" lon="7.21784">
        <ele>1926</ele>
        <time>2010-11-06T09:20:04Z</time>
      </trkpt>
      <trkpt lat="44.02892" lon="7.21792">
        <ele>1927</ele>
        <time>2010-11-06T09:20:07Z</time>
      </trkpt>
      <trkpt lat="44.02893" lon="7.21797">
        <ele>1929</ele>
        <time>2010-11-06T09:20:11Z</time>
      </trkpt>
      <trkpt lat="44.02894" lon="7.21802">
        <ele>1930</ele>
        <time>2010-11-06T09:20:17Z</time>
      </trkpt>
      <trkpt lat="44.02893" lon="7.21804">
        <ele>1930</ele>
        <time>2010-11-06T09:20:19Z</time>
      </trkpt>
      <trkpt lat="44.02884" lon="7.21821">
        <ele>1931</ele>
        <time>2010-11-06T09:20:24Z</time>
      </trkpt>
      <trkpt lat="44.02864" lon="7.21841">
        <ele>1941</ele>
        <time>2010-11-06T09:20:29Z</time>
      </trkpt>
      <trkpt lat="44.02856" lon="7.21846">
        <ele>1938</ele>
        <time>2010-11-06T09:20:32Z</time>
      </trkpt>
      <trkpt lat="44.02855" lon="7.21848">
        <ele>1938</ele>
        <time>2010-11-06T09:20:34Z</time>
      </trkpt>
      <trkpt lat="44.0285" lon="7.2185">
        <ele>1936</ele>
        <time>2010-11-06T09:20:39Z</time>
      </trkpt>
      <trkpt lat="44.02838" lon="7.21855">
        <ele>1935</ele>
        <time>2010-11-06T09:20:45Z</time>
      </trkpt>
      <trkpt lat="44.02825" lon="7.21865">
        <ele>1912</ele>
        <time>2010-11-06T09:20:50Z</time>
      </trkpt>
      <trkpt lat="44.02818" lon="7.2188">
        <ele>1913</ele>
        <time>2010-11-06T09:20:54Z</time>
      </trkpt>
      <trkpt lat="44.02812" lon="7.21894">
        <ele>1916</ele>
        <time>2010-11-06T09:20:58Z</time>
      </trkpt>
      <trkpt lat="44.02805" lon="7.21918">
        <ele>1930</ele>
        <time>2010-11-06T09:21:03Z</time>
      </trkpt>
      <trkpt lat="44.02794" lon="7.21942">
        <ele>1927</ele>
        <time>2010-11-06T09:21:08Z</time>
      </trkpt>
      <trkpt lat="44.02788" lon="7.21954">
        <ele>1927</ele>
        <time>2010-11-06T09:21:10Z</time>
      </trkpt>
      <trkpt lat="44.02774" lon="7.21975">
        <ele>1926</ele>
        <time>2010-11-06T09:21:14Z</time>
      </trkpt>
      <trkpt lat="44.02753" lon="7.22002">
        <ele>1924</ele>
        <time>2010-11-06T09:21:18Z</time>
      </trkpt>
      <trkpt lat="44.02722" lon="7.22038">
        <ele>1916</ele>
        <time>2010-11-06T09:21:24Z</time>
      </trkpt>
      <trkpt lat="44.02708" lon="7.22055">
        <ele>1915</ele>
        <time>2010-11-06T09:21:27Z</time>
      </trkpt>
      <trkpt lat="44.02695" lon="7.22087">
        <ele>1917</ele>
        <time>2010-11-06T09:21:31Z</time>
      </trkpt>
      <trkpt lat="44.02694" lon="7.22104">
        <ele>1917</ele>
        <time>2010-11-06T09:21:33Z</time>
      </trkpt>
      <trkpt lat="44.02687" lon="7.22143">
        <ele>1916</ele>
        <time>2010-11-06T09:21:37Z</time>
      </trkpt>
      <trkpt lat="44.02682" lon="7.2216">
        <ele>1913</ele>
        <time>2010-11-06T09:21:39Z</time>
      </trkpt>
      <trkpt lat="44.02684" lon="7.22195">
        <ele>1909</ele>
        <time>2010-11-06T09:21:43Z</time>
      </trkpt>
      <trkpt lat="44.02684" lon="7.22242">
        <ele>1907</ele>
        <time>2010-11-06T09:21:48Z</time>
      </trkpt>
      <trkpt lat="44.02666" lon="7.22281">
        <ele>1907</ele>
        <time>2010-11-06T09:21:54Z</time>
      </trkpt>
      <trkpt lat="44.02661" lon="7.2229">
        <ele>1908</ele>
        <time>2010-11-06T09:21:56Z</time>
      </trkpt>
      <trkpt lat="44.02657" lon="7.22298">
        <ele>1909</ele>
        <time>2010-11-06T09:21:58Z</time>
      </trkpt>
      <trkpt lat="44.02654" lon="7.22305">
        <ele>1909</ele>
        <time>2010-11-06T09:22:00Z</time>
      </trkpt>
      <trkpt lat="44.02637" lon="7.22326">
        <ele>1911</ele>
        <time>2010-11-06T09:22:09Z</time>
      </trkpt>
      <trkpt lat="44.0263" lon="7.22333">
        <ele>1911</ele>
        <time>2010-11-06T09:22:14Z</time>
      </trkpt>
      <trkpt lat="44.02625" lon="7.22328">
        <ele>1910</ele>
        <time>2010-11-06T09:22:31Z</time>
      </trkpt>
      <trkpt lat="44.02625" lon="7.22328">
        <ele>1910</ele>
        <time>2010-11-06T09:22:32Z</time>
      </trkpt>
      <trkpt lat="44.02615" lon="7.22335">
        <ele>1924</ele>
        <time>2010-11-06T09:22:38Z</time>
      </trkpt>
      <trkpt lat="44.02614" lon="7.22336">
        <ele>1924</ele>
        <time>2010-11-06T09:22:39Z</time>
      </trkpt>
      <trkpt lat="44.02607" lon="7.22341">
        <ele>1924</ele>
        <time>2010-11-06T09:22:43Z</time>
      </trkpt>
      <trkpt lat="44.02597" lon="7.22343">
        <ele>1923</ele>
        <time>2010-11-06T09:22:48Z</time>
      </trkpt>
      <trkpt lat="44.02594" lon="7.22346">
        <ele>1923</ele>
        <time>2010-11-06T09:22:50Z</time>
      </trkpt>
      <trkpt lat="44.02587" lon="7.2235">
        <ele>1923</ele>
        <time>2010-11-06T09:22:55Z</time>
      </trkpt>
      <trkpt lat="44.02581" lon="7.22357">
        <ele>1922</ele>
        <time>2010-11-06T09:23:01Z</time>
      </trkpt>
      <trkpt lat="44.02577" lon="7.22361">
        <ele>1923</ele>
        <time>2010-11-06T09:23:06Z</time>
      </trkpt>
      <trkpt lat="44.02571" lon="7.22367">
        <ele>1924</ele>
        <time>2010-11-06T09:23:10Z</time>
      </trkpt>
      <trkpt lat="44.0257" lon="7.22367">
        <ele>1924</ele>
        <time>2010-11-06T09:23:12Z</time>
      </trkpt>
      <trkpt lat="44.02569" lon="7.22371">
        <ele>1924</ele>
        <time>2010-11-06T09:23:15Z</time>
      </trkpt>
      <trkpt lat="44.02564" lon="7.22376">
        <ele>1925</ele>
        <time>2010-11-06T09:23:21Z</time>
      </trkpt>
      <trkpt lat="44.0256" lon="7.22381">
        <ele>1925</ele>
        <time>2010-11-06T09:23:26Z</time>
      </trkpt>
      <trkpt lat="44.02552" lon="7.22385">
        <ele>1925</ele>
        <time>2010-11-06T09:23:32Z</time>
      </trkpt>
      <trkpt lat="44.02545" lon="7.22386">
        <ele>1924</ele>
        <time>2010-11-06T09:23:37Z</time>
      </trkpt>
      <trkpt lat="44.0254" lon="7.22388">
        <ele>1924</ele>
        <time>2010-11-06T09:23:41Z</time>
      </trkpt>
      <trkpt lat="44.02536" lon="7.22391">
        <ele>1924</ele>
        <time>2010-11-06T09:23:48Z</time>
      </trkpt>
      <trkpt lat="44.02533" lon="7.22397">
        <ele>1924</ele>
        <time>2010-11-06T09:23:54Z</time>
      </trkpt>
      <trkpt lat="44.02529" lon="7.224">
        <ele>1924</ele>
        <time>2010-11-06T09:23:58Z</time>
      </trkpt>
      <trkpt lat="44.02521" lon="7.22408">
        <ele>1924</ele>
        <time>2010-11-06T09:24:06Z</time>
      </trkpt>
      <trkpt lat="44.02519" lon="7.2241">
        <ele>1924</ele>
        <time>2010-11-06T09:24:09Z</time>
      </trkpt>
      <trkpt lat="44.02514" lon="7.2242">
        <ele>1930</ele>
        <time>2010-11-06T09:24:18Z</time>
      </trkpt>
      <trkpt lat="44.0251" lon="7.22429">
        <ele>1931</ele>
        <time>2010-11-06T09:24:25Z</time>
      </trkpt>
      <trkpt lat="44.02507" lon="7.22438">
        <ele>1932</ele>
        <time>2010-11-06T09:24:32Z</time>
      </trkpt>
      <trkpt lat="44.02506" lon="7.22444">
        <ele>1933</ele>
        <time>2010-11-06T09:24:39Z</time>
      </trkpt>
      <trkpt lat="44.02506" lon="7.22447">
        <ele>1934</ele>
        <time>2010-11-06T09:24:45Z</time>
      </trkpt>
      <trkpt lat="44.02506" lon="7.22451">
        <ele>1934</ele>
        <time>2010-11-06T09:24:48Z</time>
      </trkpt>
      <trkpt lat="44.02505" lon="7.22462">
        <ele>1936</ele>
        <time>2010-11-06T09:24:53Z</time>
      </trkpt>
      <trkpt lat="44.02505" lon="7.22468">
        <ele>1936</ele>
        <time>2010-11-06T09:24:55Z</time>
      </trkpt>
      <trkpt lat="44.02506" lon="7.22491">
        <ele>1935</ele>
        <time>2010-11-06T09:25:04Z</time>
      </trkpt>
      <trkpt lat="44.02505" lon="7.22512">
        <ele>1938</ele>
        <time>2010-11-06T09:25:12Z</time>
      </trkpt>
      <trkpt lat="44.02505" lon="7.22528">
        <ele>1941</ele>
        <time>2010-11-06T09:25:18Z</time>
      </trkpt>
      <trkpt lat="44.02503" lon="7.22547">
        <ele>1942</ele>
        <time>2010-11-06T09:25:25Z</time>
      </trkpt>
      <trkpt lat="44.02502" lon="7.22561">
        <ele>1943</ele>
        <time>2010-11-06T09:25:32Z</time>
      </trkpt>
      <trkpt lat="44.025" lon="7.22574">
        <ele>1934</ele>
        <time>2010-11-06T09:25:38Z</time>
      </trkpt>
      <trkpt lat="44.025" lon="7.22575">
        <ele>1935</ele>
        <time>2010-11-06T09:25:39Z</time>
      </trkpt>
      <trkpt lat="44.02497" lon="7.22592">
        <ele>1937</ele>
        <time>2010-11-06T09:25:47Z</time>
      </trkpt>
      <trkpt lat="44.02491" lon="7.22604">
        <ele>1933</ele>
        <time>2010-11-06T09:25:54Z</time>
      </trkpt>
      <trkpt lat="44.02487" lon="7.22616">
        <ele>1931</ele>
        <time>2010-11-06T09:26:00Z</time>
      </trkpt>
      <trkpt lat="44.02482" lon="7.22629">
        <ele>1930</ele>
        <time>2010-11-06T09:26:07Z</time>
      </trkpt>
      <trkpt lat="44.02479" lon="7.22645">
        <ele>1931</ele>
        <time>2010-11-06T09:26:14Z</time>
      </trkpt>
      <trkpt lat="44.02476" lon="7.22663">
        <ele>1932</ele>
        <time>2010-11-06T09:26:21Z</time>
      </trkpt>
      <trkpt lat="44.02472" lon="7.2268">
        <ele>1931</ele>
        <time>2010-11-06T09:26:27Z</time>
      </trkpt>
      <trkpt lat="44.02468" lon="7.22699">
        <ele>1929</ele>
        <time>2010-11-06T09:26:34Z</time>
      </trkpt>
      <trkpt lat="44.0246" lon="7.22717">
        <ele>1929</ele>
        <time>2010-11-06T09:26:40Z</time>
      </trkpt>
      <trkpt lat="44.02448" lon="7.22739">
        <ele>1929</ele>
        <time>2010-11-06T09:26:44Z</time>
      </trkpt>
      <trkpt lat="44.02441" lon="7.2275">
        <ele>1929</ele>
        <time>2010-11-06T09:26:46Z</time>
      </trkpt>
      <trkpt lat="44.02426" lon="7.22772">
        <ele>1930</ele>
        <time>2010-11-06T09:26:50Z</time>
      </trkpt>
      <trkpt lat="44.02415" lon="7.22784">
        <ele>1927</ele>
        <time>2010-11-06T09:26:54Z</time>
      </trkpt>
      <trkpt lat="44.02401" lon="7.228">
        <ele>1927</ele>
        <time>2010-11-06T09:26:59Z</time>
      </trkpt>
      <trkpt lat="44.024" lon="7.22804">
        <ele>1928</ele>
        <time>2010-11-06T09:27:01Z</time>
      </trkpt>
      <trkpt lat="44.02398" lon="7.22818">
        <ele>1930</ele>
        <time>2010-11-06T09:27:07Z</time>
      </trkpt>
      <trkpt lat="44.02397" lon="7.2283">
        <ele>1931</ele>
        <time>2010-11-06T09:27:12Z</time>
      </trkpt>
      <trkpt lat="44.02396" lon="7.22843">
        <ele>1937</ele>
        <time>2010-11-06T09:27:17Z</time>
      </trkpt>
      <trkpt lat="44.02391" lon="7.22861">
        <ele>1935</ele>
        <time>2010-11-06T09:27:24Z</time>
      </trkpt>
      <trkpt lat="44.02386" lon="7.22871">
        <ele>1934</ele>
        <time>2010-11-06T09:27:28Z</time>
      </trkpt>
      <trkpt lat="44.02374" lon="7.22889">
        <ele>1934</ele>
        <time>2010-11-06T09:27:35Z</time>
      </trkpt>
      <trkpt lat="44.02359" lon="7.22905">
        <ele>1936</ele>
        <time>2010-11-06T09:27:43Z</time>
      </trkpt>
      <trkpt lat="44.02349" lon="7.22913">
        <ele>1937</ele>
        <time>2010-11-06T09:27:48Z</time>
      </trkpt>
      <trkpt lat="44.0234" lon="7.22929">
        <ele>1937</ele>
        <time>2010-11-06T09:27:53Z</time>
      </trkpt>
      <trkpt lat="44.02326" lon="7.2294">
        <ele>1933</ele>
        <time>2010-11-06T09:27:58Z</time>
      </trkpt>
      <trkpt lat="44.02308" lon="7.22959">
        <ele>1931</ele>
        <time>2010-11-06T09:28:04Z</time>
      </trkpt>
      <trkpt lat="44.02305" lon="7.22972">
        <ele>1931</ele>
        <time>2010-11-06T09:28:06Z</time>
      </trkpt>
      <trkpt lat="44.02293" lon="7.23011">
        <ele>1929</ele>
        <time>2010-11-06T09:28:12Z</time>
      </trkpt>
      <trkpt lat="44.02291" lon="7.23017">
        <ele>1929</ele>
        <time>2010-11-06T09:28:13Z</time>
      </trkpt>
      <trkpt lat="44.02272" lon="7.23044">
        <ele>1928</ele>
        <time>2010-11-06T09:28:18Z</time>
      </trkpt>
      <trkpt lat="44.02265" lon="7.23052">
        <ele>1929</ele>
        <time>2010-11-06T09:28:20Z</time>
      </trkpt>
      <trkpt lat="44.02248" lon="7.23062">
        <ele>1930</ele>
        <time>2010-11-06T09:28:25Z</time>
      </trkpt>
      <trkpt lat="44.0224" lon="7.23068">
        <ele>1930</ele>
        <time>2010-11-06T09:28:29Z</time>
      </trkpt>
      <trkpt lat="44.02225" lon="7.23074">
        <ele>1928</ele>
        <time>2010-11-06T09:28:33Z</time>
      </trkpt>
      <trkpt lat="44.0221" lon="7.23084">
        <ele>1928</ele>
        <time>2010-11-06T09:28:35Z</time>
      </trkpt>
      <trkpt lat="44.02197" lon="7.2309">
        <ele>1928</ele>
        <time>2010-11-06T09:28:37Z</time>
      </trkpt>
      <trkpt lat="44.02178" lon="7.23092">
        <ele>1928</ele>
        <time>2010-11-06T09:28:41Z</time>
      </trkpt>
      <trkpt lat="44.02157" lon="7.23101">
        <ele>1928</ele>
        <time>2010-11-06T09:28:46Z</time>
      </trkpt>
      <trkpt lat="44.02141" lon="7.23109">
        <ele>1927</ele>
        <time>2010-11-06T09:28:50Z</time>
      </trkpt>
      <trkpt lat="44.0213" lon="7.23111">
        <ele>1927</ele>
        <time>2010-11-06T09:28:52Z</time>
      </trkpt>
      <trkpt lat="44.02109" lon="7.23115">
        <ele>1926</ele>
        <time>2010-11-06T09:28:56Z</time>
      </trkpt>
      <trkpt lat="44.02105" lon="7.23119">
        <ele>1926</ele>
        <time>2010-11-06T09:28:57Z</time>
      </trkpt>
      <trkpt lat="44.02087" lon="7.2313">
        <ele>1928</ele>
        <time>2010-11-06T09:29:02Z</time>
      </trkpt>
      <trkpt lat="44.0207" lon="7.23133">
        <ele>1924</ele>
        <time>2010-11-06T09:29:06Z</time>
      </trkpt>
      <trkpt lat="44.02043" lon="7.2315">
        <ele>1924</ele>
        <time>2010-11-06T09:29:12Z</time>
      </trkpt>
      <trkpt lat="44.02022" lon="7.23165">
        <ele>1926</ele>
        <time>2010-11-06T09:29:17Z</time>
      </trkpt>
      <trkpt lat="44.02022" lon="7.23168">
        <ele>1934</ele>
        <time>2010-11-06T09:29:19Z</time>
      </trkpt>
      <trkpt lat="44.02019" lon="7.23169">
        <ele>1934</ele>
        <time>2010-11-06T09:29:27Z</time>
      </trkpt>
      <trkpt lat="44.02022" lon="7.2317">
        <ele>1934</ele>
        <time>2010-11-06T09:30:19Z</time>
      </trkpt>
      <trkpt lat="44.0202" lon="7.23169">
        <ele>1934</ele>
        <time>2010-11-06T09:30:39Z</time>
      </trkpt>
      <trkpt lat="44.02021" lon="7.23171">
        <ele>1934</ele>
        <time>2010-11-06T09:30:51Z</time>
      </trkpt>
      <trkpt lat="44.02017" lon="7.23174">
        <ele>1934</ele>
        <time>2010-11-06T09:31:11Z</time>
      </trkpt>
      <trkpt lat="44.02012" lon="7.23176">
        <ele>1934</ele>
        <time>2010-11-06T09:31:15Z</time>
      </trkpt>
      <trkpt lat="44.02002" lon="7.23174">
        <ele>1933</ele>
        <time>2010-11-06T09:31:30Z</time>
      </trkpt>
      <trkpt lat="44.01992" lon="7.23174">
        <ele>1936</ele>
        <time>2010-11-06T09:31:35Z</time>
      </trkpt>
      <trkpt lat="44.01977" lon="7.23166">
        <ele>1920</ele>
        <time>2010-11-06T09:31:40Z</time>
      </trkpt>
      <trkpt lat="44.01962" lon="7.23159">
        <ele>1917</ele>
        <time>2010-11-06T09:31:45Z</time>
      </trkpt>
      <trkpt lat="44.01954" lon="7.23151">
        <ele>1916</ele>
        <time>2010-11-06T09:31:49Z</time>
      </trkpt>
      <trkpt lat="44.01943" lon="7.23146">
        <ele>1915</ele>
        <time>2010-11-06T09:31:53Z</time>
      </trkpt>
      <trkpt lat="44.01931" lon="7.23137">
        <ele>1914</ele>
        <time>2010-11-06T09:31:57Z</time>
      </trkpt>
      <trkpt lat="44.01925" lon="7.23132">
        <ele>1912</ele>
        <time>2010-11-06T09:32:01Z</time>
      </trkpt>
      <trkpt lat="44.0192" lon="7.23128">
        <ele>1910</ele>
        <time>2010-11-06T09:32:03Z</time>
      </trkpt>
      <trkpt lat="44.01903" lon="7.2312">
        <ele>1908</ele>
        <time>2010-11-06T09:32:08Z</time>
      </trkpt>
      <trkpt lat="44.01901" lon="7.23117">
        <ele>1907</ele>
        <time>2010-11-06T09:32:09Z</time>
      </trkpt>
      <trkpt lat="44.0188" lon="7.23094">
        <ele>1903</ele>
        <time>2010-11-06T09:32:15Z</time>
      </trkpt>
      <trkpt lat="44.01867" lon="7.23089">
        <ele>1904</ele>
        <time>2010-11-06T09:32:19Z</time>
      </trkpt>
      <trkpt lat="44.01851" lon="7.23086">
        <ele>1902</ele>
        <time>2010-11-06T09:32:23Z</time>
      </trkpt>
      <trkpt lat="44.01837" lon="7.23076">
        <ele>1886</ele>
        <time>2010-11-06T09:32:28Z</time>
      </trkpt>
      <trkpt lat="44.01827" lon="7.23073">
        <ele>1887</ele>
        <time>2010-11-06T09:32:32Z</time>
      </trkpt>
      <trkpt lat="44.01824" lon="7.23063">
        <ele>1882</ele>
        <time>2010-11-06T09:32:36Z</time>
      </trkpt>
      <trkpt lat="44.01814" lon="7.23048">
        <ele>1877</ele>
        <time>2010-11-06T09:32:41Z</time>
      </trkpt>
      <trkpt lat="44.01802" lon="7.2303">
        <ele>1872</ele>
        <time>2010-11-06T09:32:46Z</time>
      </trkpt>
      <trkpt lat="44.01786" lon="7.23009">
        <ele>1869</ele>
        <time>2010-11-06T09:32:51Z</time>
      </trkpt>
      <trkpt lat="44.01764" lon="7.23">
        <ele>1853</ele>
        <time>2010-11-06T09:32:56Z</time>
      </trkpt>
      <trkpt lat="44.01746" lon="7.23003">
        <ele>1866</ele>
        <time>2010-11-06T09:33:02Z</time>
      </trkpt>
      <trkpt lat="44.0173" lon="7.22999">
        <ele>1858</ele>
        <time>2010-11-06T09:33:07Z</time>
      </trkpt>
      <trkpt lat="44.01724" lon="7.22998">
        <ele>1858</ele>
        <time>2010-11-06T09:33:11Z</time>
      </trkpt>
      <trkpt lat="44.01717" lon="7.23002">
        <ele>1878</ele>
        <time>2010-11-06T09:33:25Z</time>
      </trkpt>
      <trkpt lat="44.01717" lon="7.23002">
        <ele>1878</ele>
        <time>2010-11-06T09:33:26Z</time>
      </trkpt>
      <trkpt lat="44.01715" lon="7.23004">
        <ele>1878</ele>
        <time>2010-11-06T09:33:32Z</time>
      </trkpt>
      <trkpt lat="44.0171" lon="7.23009">
        <ele>1879</ele>
        <time>2010-11-06T09:33:39Z</time>
      </trkpt>
      <trkpt lat="44.01707" lon="7.23014">
        <ele>1880</ele>
        <time>2010-11-06T09:33:43Z</time>
      </trkpt>
      <trkpt lat="44.01703" lon="7.23013">
        <ele>1880</ele>
        <time>2010-11-06T09:33:46Z</time>
      </trkpt>
      <trkpt lat="44.01696" lon="7.23008">
        <ele>1880</ele>
        <time>2010-11-06T09:33:52Z</time>
      </trkpt>
      <trkpt lat="44.01693" lon="7.23016">
        <ele>1881</ele>
        <time>2010-11-06T09:33:56Z</time>
      </trkpt>
      <trkpt lat="44.01687" lon="7.23021">
        <ele>1882</ele>
        <time>2010-11-06T09:34:01Z</time>
      </trkpt>
      <trkpt lat="44.01685" lon="7.23024">
        <ele>1882</ele>
        <time>2010-11-06T09:34:03Z</time>
      </trkpt>
      <trkpt lat="44.01679" lon="7.2303">
        <ele>1884</ele>
        <time>2010-11-06T09:34:10Z</time>
      </trkpt>
      <trkpt lat="44.01677" lon="7.23026">
        <ele>1883</ele>
        <time>2010-11-06T09:34:13Z</time>
      </trkpt>
      <trkpt lat="44.01675" lon="7.23022">
        <ele>1881</ele>
        <time>2010-11-06T09:34:18Z</time>
      </trkpt>
      <trkpt lat="44.01671" lon="7.23025">
        <ele>1882</ele>
        <time>2010-11-06T09:34:29Z</time>
      </trkpt>
      <trkpt lat="44.01672" lon="7.23022">
        <ele>1882</ele>
        <time>2010-11-06T09:34:34Z</time>
      </trkpt>
      <trkpt lat="44.01676" lon="7.23017">
        <ele>1880</ele>
        <time>2010-11-06T09:34:40Z</time>
      </trkpt>
      <trkpt lat="44.01673" lon="7.23012">
        <ele>1878</ele>
        <time>2010-11-06T09:34:44Z</time>
      </trkpt>
      <trkpt lat="44.0167" lon="7.23008">
        <ele>1877</ele>
        <time>2010-11-06T09:34:49Z</time>
      </trkpt>
      <trkpt lat="44.01668" lon="7.23007">
        <ele>1876</ele>
        <time>2010-11-06T09:34:50Z</time>
      </trkpt>
      <trkpt lat="44.01662" lon="7.23003">
        <ele>1881</ele>
        <time>2010-11-06T09:34:57Z</time>
      </trkpt>
      <trkpt lat="44.01654" lon="7.23">
        <ele>1877</ele>
        <time>2010-11-06T09:35:04Z</time>
      </trkpt>
      <trkpt lat="44.01652" lon="7.22997">
        <ele>1877</ele>
        <time>2010-11-06T09:35:06Z</time>
      </trkpt>
      <trkpt lat="44.0165" lon="7.22997">
        <ele>1878</ele>
        <time>2010-11-06T09:35:11Z</time>
      </trkpt>
      <trkpt lat="44.01648" lon="7.22999">
        <ele>1878</ele>
        <time>2010-11-06T09:35:16Z</time>
      </trkpt>
      <trkpt lat="44.01644" lon="7.22999">
        <ele>1879</ele>
        <time>2010-11-06T09:35:21Z</time>
      </trkpt>
      <trkpt lat="44.01639" lon="7.22994">
        <ele>1881</ele>
        <time>2010-11-06T09:35:27Z</time>
      </trkpt>
      <trkpt lat="44.0163" lon="7.2299">
        <ele>1883</ele>
        <time>2010-11-06T09:35:33Z</time>
      </trkpt>
      <trkpt lat="44.01629" lon="7.22983">
        <ele>1883</ele>
        <time>2010-11-06T09:35:38Z</time>
      </trkpt>
      <trkpt lat="44.01625" lon="7.22979">
        <ele>1883</ele>
        <time>2010-11-06T09:35:43Z</time>
      </trkpt>
      <trkpt lat="44.01622" lon="7.22975">
        <ele>1884</ele>
        <time>2010-11-06T09:35:47Z</time>
      </trkpt>
      <trkpt lat="44.01616" lon="7.22968">
        <ele>1884</ele>
        <time>2010-11-06T09:35:54Z</time>
      </trkpt>
      <trkpt lat="44.01615" lon="7.22966">
        <ele>1884</ele>
        <time>2010-11-06T09:35:56Z</time>
      </trkpt>
      <trkpt lat="44.01614" lon="7.22958">
        <ele>1883</ele>
        <time>2010-11-06T09:36:03Z</time>
      </trkpt>
      <trkpt lat="44.01614" lon="7.22957">
        <ele>1883</ele>
        <time>2010-11-06T09:36:07Z</time>
      </trkpt>
      <trkpt lat="44.01612" lon="7.22954">
        <ele>1882</ele>
        <time>2010-11-06T09:36:12Z</time>
      </trkpt>
      <trkpt lat="44.0161" lon="7.2295">
        <ele>1882</ele>
        <time>2010-11-06T09:36:19Z</time>
      </trkpt>
      <trkpt lat="44.01609" lon="7.22946">
        <ele>1882</ele>
        <time>2010-11-06T09:36:25Z</time>
      </trkpt>
      <trkpt lat="44.01609" lon="7.22942">
        <ele>1881</ele>
        <time>2010-11-06T09:36:27Z</time>
      </trkpt>
      <trkpt lat="44.01595" lon="7.2293">
        <ele>1882</ele>
        <time>2010-11-06T09:36:35Z</time>
      </trkpt>
      <trkpt lat="44.01586" lon="7.22928">
        <ele>1883</ele>
        <time>2010-11-06T09:36:40Z</time>
      </trkpt>
      <trkpt lat="44.01579" lon="7.22925">
        <ele>1895</ele>
        <time>2010-11-06T09:36:46Z</time>
      </trkpt>
      <trkpt lat="44.01574" lon="7.22924">
        <ele>1898</ele>
        <time>2010-11-06T09:36:55Z</time>
      </trkpt>
      <trkpt lat="44.0157" lon="7.22924">
        <ele>1901</ele>
        <time>2010-11-06T09:36:59Z</time>
      </trkpt>
      <trkpt lat="44.01565" lon="7.22922">
        <ele>1903</ele>
        <time>2010-11-06T09:37:03Z</time>
      </trkpt>
      <trkpt lat="44.01557" lon="7.22915">
        <ele>1888</ele>
        <time>2010-11-06T09:37:13Z</time>
      </trkpt>
      <trkpt lat="44.01555" lon="7.22914">
        <ele>1888</ele>
        <time>2010-11-06T09:37:15Z</time>
      </trkpt>
      <trkpt lat="44.01548" lon="7.22912">
        <ele>1890</ele>
        <time>2010-11-06T09:37:22Z</time>
      </trkpt>
      <trkpt lat="44.01545" lon="7.22912">
        <ele>1891</ele>
        <time>2010-11-06T09:37:26Z</time>
      </trkpt>
      <trkpt lat="44.0154" lon="7.22913">
        <ele>1893</ele>
        <time>2010-11-06T09:37:33Z</time>
      </trkpt>
      <trkpt lat="44.01535" lon="7.22913">
        <ele>1895</ele>
        <time>2010-11-06T09:37:39Z</time>
      </trkpt>
      <trkpt lat="44.01531" lon="7.22911">
        <ele>1896</ele>
        <time>2010-11-06T09:37:45Z</time>
      </trkpt>
      <trkpt lat="44.01528" lon="7.22912">
        <ele>1898</ele>
        <time>2010-11-06T09:37:49Z</time>
      </trkpt>
      <trkpt lat="44.01528" lon="7.22912">
        <ele>1898</ele>
        <time>2010-11-06T09:37:52Z</time>
      </trkpt>
      <trkpt lat="44.01524" lon="7.22911">
        <ele>1900</ele>
        <time>2010-11-06T09:37:57Z</time>
      </trkpt>
      <trkpt lat="44.01522" lon="7.22912">
        <ele>1901</ele>
        <time>2010-11-06T09:38:03Z</time>
      </trkpt>
      <trkpt lat="44.01521" lon="7.22913">
        <ele>1902</ele>
        <time>2010-11-06T09:38:09Z</time>
      </trkpt>
      <trkpt lat="44.0152" lon="7.2291">
        <ele>1902</ele>
        <time>2010-11-06T09:38:16Z</time>
      </trkpt>
      <trkpt lat="44.01521" lon="7.2291">
        <ele>1901</ele>
        <time>2010-11-06T09:38:20Z</time>
      </trkpt>
      <trkpt lat="44.01515" lon="7.22909">
        <ele>1905</ele>
        <time>2010-11-06T09:38:25Z</time>
      </trkpt>
      <trkpt lat="44.01512" lon="7.22908">
        <ele>1906</ele>
        <time>2010-11-06T09:38:29Z</time>
      </trkpt>
      <trkpt lat="44.01495" lon="7.22906">
        <ele>1924</ele>
        <time>2010-11-06T09:38:51Z</time>
      </trkpt>
      <trkpt lat="44.01497" lon="7.22906">
        <ele>1924</ele>
        <time>2010-11-06T09:38:52Z</time>
      </trkpt>
      <trkpt lat="44.01501" lon="7.22904">
        <ele>1908</ele>
        <time>2010-11-06T09:38:54Z</time>
      </trkpt>
      <trkpt lat="44.01503" lon="7.229">
        <ele>1905</ele>
        <time>2010-11-06T09:39:01Z</time>
      </trkpt>
      <trkpt lat="44.01508" lon="7.22896">
        <ele>1901</ele>
        <time>2010-11-06T09:39:08Z</time>
      </trkpt>
      <trkpt lat="44.01512" lon="7.22887">
        <ele>1896</ele>
        <time>2010-11-06T09:39:12Z</time>
      </trkpt>
      <trkpt lat="44.01512" lon="7.22872">
        <ele>1892</ele>
        <time>2010-11-06T09:39:17Z</time>
      </trkpt>
      <trkpt lat="44.01511" lon="7.22856">
        <ele>1890</ele>
        <time>2010-11-06T09:39:21Z</time>
      </trkpt>
      <trkpt lat="44.01509" lon="7.2283">
        <ele>1883</ele>
        <time>2010-11-06T09:39:25Z</time>
      </trkpt>
      <trkpt lat="44.01509" lon="7.22812">
        <ele>1873</ele>
        <time>2010-11-06T09:39:28Z</time>
      </trkpt>
      <trkpt lat="44.01507" lon="7.22802">
        <ele>1869</ele>
        <time>2010-11-06T09:39:30Z</time>
      </trkpt>
      <trkpt lat="44.01503" lon="7.22791">
        <ele>1867</ele>
        <time>2010-11-06T09:39:34Z</time>
      </trkpt>
      <trkpt lat="44.01499" lon="7.22775">
        <ele>1883</ele>
        <time>2010-11-06T09:39:38Z</time>
      </trkpt>
      <trkpt lat="44.01493" lon="7.22761">
        <ele>1878</ele>
        <time>2010-11-06T09:39:42Z</time>
      </trkpt>
      <trkpt lat="44.0149" lon="7.22757">
        <ele>1877</ele>
        <time>2010-11-06T09:39:48Z</time>
      </trkpt>
      <trkpt lat="44.01487" lon="7.22755">
        <ele>1878</ele>
        <time>2010-11-06T09:40:02Z</time>
      </trkpt>
      <trkpt lat="44.01486" lon="7.22755">
        <ele>1879</ele>
        <time>2010-11-06T09:40:03Z</time>
      </trkpt>
      <trkpt lat="44.01483" lon="7.22751">
        <ele>1880</ele>
        <time>2010-11-06T09:40:06Z</time>
      </trkpt>
      <trkpt lat="44.01483" lon="7.22747">
        <ele>1861</ele>
        <time>2010-11-06T09:40:11Z</time>
      </trkpt>
      <trkpt lat="44.01487" lon="7.22748">
        <ele>1862</ele>
        <time>2010-11-06T09:40:17Z</time>
      </trkpt>
      <trkpt lat="44.01486" lon="7.22747">
        <ele>1862</ele>
        <time>2010-11-06T09:40:27Z</time>
      </trkpt>
      <trkpt lat="44.01491" lon="7.22746">
        <ele>1863</ele>
        <time>2010-11-06T09:41:47Z</time>
      </trkpt>
      <trkpt lat="44.01483" lon="7.22736">
        <ele>1859</ele>
        <time>2010-11-06T09:42:26Z</time>
      </trkpt>
      <trkpt lat="44.0149" lon="7.22741">
        <ele>1862</ele>
        <time>2010-11-06T09:42:33Z</time>
      </trkpt>
      <trkpt lat="44.01504" lon="7.22746">
        <ele>1862</ele>
        <time>2010-11-06T09:42:38Z</time>
      </trkpt>
      <trkpt lat="44.01511" lon="7.22754">
        <ele>1865</ele>
        <time>2010-11-06T09:42:42Z</time>
      </trkpt>
      <trkpt lat="44.01512" lon="7.22755">
        <ele>1864</ele>
        <time>2010-11-06T09:42:43Z</time>
      </trkpt>
      <trkpt lat="44.01527" lon="7.2277">
        <ele>1861</ele>
        <time>2010-11-06T09:42:48Z</time>
      </trkpt>
      <trkpt lat="44.01535" lon="7.22787">
        <ele>1860</ele>
        <time>2010-11-06T09:42:52Z</time>
      </trkpt>
      <trkpt lat="44.01547" lon="7.22799">
        <ele>1858</ele>
        <time>2010-11-06T09:42:55Z</time>
      </trkpt>
      <trkpt lat="44.01555" lon="7.22811">
        <ele>1857</ele>
        <time>2010-11-06T09:43:00Z</time>
      </trkpt>
      <trkpt lat="44.01556" lon="7.22815">
        <ele>1856</ele>
        <time>2010-11-06T09:43:01Z</time>
      </trkpt>
      <trkpt lat="44.01572" lon="7.22837">
        <ele>1860</ele>
        <time>2010-11-06T09:43:07Z</time>
      </trkpt>
      <trkpt lat="44.01577" lon="7.22845">
        <ele>1862</ele>
        <time>2010-11-06T09:43:13Z</time>
      </trkpt>
      <trkpt lat="44.01577" lon="7.22846">
        <ele>1862</ele>
        <time>2010-11-06T09:43:18Z</time>
      </trkpt>
      <trkpt lat="44.01577" lon="7.22838">
        <ele>1855</ele>
        <time>2010-11-06T09:43:24Z</time>
      </trkpt>
      <trkpt lat="44.01588" lon="7.22832">
        <ele>1840</ele>
        <time>2010-11-06T09:43:30Z</time>
      </trkpt>
      <trkpt lat="44.01597" lon="7.22834">
        <ele>1846</ele>
        <time>2010-11-06T09:43:34Z</time>
      </trkpt>
      <trkpt lat="44.01603" lon="7.22835">
        <ele>1846</ele>
        <time>2010-11-06T09:43:36Z</time>
      </trkpt>
      <trkpt lat="44.01623" lon="7.22836">
        <ele>1845</ele>
        <time>2010-11-06T09:43:41Z</time>
      </trkpt>
      <trkpt lat="44.01638" lon="7.2284">
        <ele>1841</ele>
        <time>2010-11-06T09:43:47Z</time>
      </trkpt>
      <trkpt lat="44.0164" lon="7.22839">
        <ele>1841</ele>
        <time>2010-11-06T09:44:01Z</time>
      </trkpt>
      <trkpt lat="44.01639" lon="7.22839">
        <ele>1841</ele>
        <time>2010-11-06T09:44:03Z</time>
      </trkpt>
      <trkpt lat="44.01627" lon="7.22828">
        <ele>1824</ele>
        <time>2010-11-06T09:44:11Z</time>
      </trkpt>
      <trkpt lat="44.0162" lon="7.22823">
        <ele>1825</ele>
        <time>2010-11-06T09:44:15Z</time>
      </trkpt>
      <trkpt lat="44.01613" lon="7.22819">
        <ele>1826</ele>
        <time>2010-11-06T09:44:18Z</time>
      </trkpt>
      <trkpt lat="44.01606" lon="7.22801">
        <ele>1824</ele>
        <time>2010-11-06T09:44:23Z</time>
      </trkpt>
      <trkpt lat="44.01601" lon="7.22797">
        <ele>1824</ele>
        <time>2010-11-06T09:44:26Z</time>
      </trkpt>
      <trkpt lat="44.01597" lon="7.22789">
        <ele>1824</ele>
        <time>2010-11-06T09:44:31Z</time>
      </trkpt>
      <trkpt lat="44.01603" lon="7.22768">
        <ele>1821</ele>
        <time>2010-11-06T09:44:36Z</time>
      </trkpt>
      <trkpt lat="44.01603" lon="7.22751">
        <ele>1821</ele>
        <time>2010-11-06T09:44:40Z</time>
      </trkpt>
      <trkpt lat="44.01602" lon="7.22732">
        <ele>1806</ele>
        <time>2010-11-06T09:44:44Z</time>
      </trkpt>
      <trkpt lat="44.01602" lon="7.22721">
        <ele>1803</ele>
        <time>2010-11-06T09:44:46Z</time>
      </trkpt>
      <trkpt lat="44.016" lon="7.22695">
        <ele>1800</ele>
        <time>2010-11-06T09:44:51Z</time>
      </trkpt>
      <trkpt lat="44.01593" lon="7.22679">
        <ele>1802</ele>
        <time>2010-11-06T09:44:55Z</time>
      </trkpt>
      <trkpt lat="44.01584" lon="7.22659">
        <ele>1798</ele>
        <time>2010-11-06T09:44:59Z</time>
      </trkpt>
      <trkpt lat="44.01567" lon="7.2264">
        <ele>1801</ele>
        <time>2010-11-06T09:45:03Z</time>
      </trkpt>
      <trkpt lat="44.01552" lon="7.22628">
        <ele>1799</ele>
        <time>2010-11-06T09:45:07Z</time>
      </trkpt>
      <trkpt lat="44.01529" lon="7.22615">
        <ele>1797</ele>
        <time>2010-11-06T09:45:12Z</time>
      </trkpt>
      <trkpt lat="44.01525" lon="7.22614">
        <ele>1797</ele>
        <time>2010-11-06T09:45:13Z</time>
      </trkpt>
      <trkpt lat="44.01517" lon="7.22612">
        <ele>1796</ele>
        <time>2010-11-06T09:45:15Z</time>
      </trkpt>
      <trkpt lat="44.015" lon="7.2261">
        <ele>1795</ele>
        <time>2010-11-06T09:45:19Z</time>
      </trkpt>
      <trkpt lat="44.01485" lon="7.22609">
        <ele>1795</ele>
        <time>2010-11-06T09:45:24Z</time>
      </trkpt>
      <trkpt lat="44.01467" lon="7.22607">
        <ele>1794</ele>
        <time>2010-11-06T09:45:28Z</time>
      </trkpt>
      <trkpt lat="44.01451" lon="7.22599">
        <ele>1791</ele>
        <time>2010-11-06T09:45:32Z</time>
      </trkpt>
      <trkpt lat="44.01447" lon="7.22597">
        <ele>1789</ele>
        <time>2010-11-06T09:45:33Z</time>
      </trkpt>
      <trkpt lat="44.01436" lon="7.22595">
        <ele>1785</ele>
        <time>2010-11-06T09:45:36Z</time>
      </trkpt>
      <trkpt lat="44.01412" lon="7.22586">
        <ele>1770</ele>
        <time>2010-11-06T09:45:41Z</time>
      </trkpt>
      <trkpt lat="44.01403" lon="7.22586">
        <ele>1775</ele>
        <time>2010-11-06T09:45:43Z</time>
      </trkpt>
      <trkpt lat="44.01378" lon="7.22591">
        <ele>1781</ele>
        <time>2010-11-06T09:45:48Z</time>
      </trkpt>
      <trkpt lat="44.01367" lon="7.22597">
        <ele>1782</ele>
        <time>2010-11-06T09:45:51Z</time>
      </trkpt>
      <trkpt lat="44.01353" lon="7.22601">
        <ele>1781</ele>
        <time>2010-11-06T09:45:57Z</time>
      </trkpt>
      <trkpt lat="44.01351" lon="7.22602">
        <ele>1780</ele>
        <time>2010-11-06T09:45:58Z</time>
      </trkpt>
      <trkpt lat="44.01339" lon="7.22608">
        <ele>1781</ele>
        <time>2010-11-06T09:46:03Z</time>
      </trkpt>
      <trkpt lat="44.01332" lon="7.22607">
        <ele>1786</ele>
        <time>2010-11-06T09:46:07Z</time>
      </trkpt>
      <trkpt lat="44.01334" lon="7.22603">
        <ele>1778</ele>
        <time>2010-11-06T09:46:12Z</time>
      </trkpt>
      <trkpt lat="44.01337" lon="7.22596">
        <ele>1774</ele>
        <time>2010-11-06T09:46:18Z</time>
      </trkpt>
      <trkpt lat="44.01333" lon="7.22593">
        <ele>1774</ele>
        <time>2010-11-06T09:46:23Z</time>
      </trkpt>
      <trkpt lat="44.01334" lon="7.2259">
        <ele>1768</ele>
        <time>2010-11-06T09:46:30Z</time>
      </trkpt>
      <trkpt lat="44.01332" lon="7.22587">
        <ele>1767</ele>
        <time>2010-11-06T09:46:32Z</time>
      </trkpt>
      <trkpt lat="44.01316" lon="7.22582">
        <ele>1761</ele>
        <time>2010-11-06T09:46:37Z</time>
      </trkpt>
      <trkpt lat="44.01304" lon="7.22577">
        <ele>1761</ele>
        <time>2010-11-06T09:46:42Z</time>
      </trkpt>
      <trkpt lat="44.01306" lon="7.22574">
        <ele>1761</ele>
        <time>2010-11-06T09:46:46Z</time>
      </trkpt>
      <trkpt lat="44.0132" lon="7.22574">
        <ele>1760</ele>
        <time>2010-11-06T09:47:05Z</time>
      </trkpt>
      <trkpt lat="44.01326" lon="7.22573">
        <ele>1760</ele>
        <time>2010-11-06T09:47:15Z</time>
      </trkpt>
      <trkpt lat="44.01328" lon="7.22572">
        <ele>1760</ele>
        <time>2010-11-06T09:47:35Z</time>
      </trkpt>
      <trkpt lat="44.01328" lon="7.22571">
        <ele>1759</ele>
        <time>2010-11-06T09:47:49Z</time>
      </trkpt>
      <trkpt lat="44.01327" lon="7.2257">
        <ele>1759</ele>
        <time>2010-11-06T09:47:50Z</time>
      </trkpt>
      <trkpt lat="44.01312" lon="7.22553">
        <ele>1757</ele>
        <time>2010-11-06T09:47:56Z</time>
      </trkpt>
      <trkpt lat="44.013" lon="7.22534">
        <ele>1754</ele>
        <time>2010-11-06T09:48:01Z</time>
      </trkpt>
      <trkpt lat="44.01295" lon="7.2253">
        <ele>1754</ele>
        <time>2010-11-06T09:48:05Z</time>
      </trkpt>
      <trkpt lat="44.01284" lon="7.22517">
        <ele>1753</ele>
        <time>2010-11-06T09:48:10Z</time>
      </trkpt>
      <trkpt lat="44.01268" lon="7.22507">
        <ele>1755</ele>
        <time>2010-11-06T09:48:14Z</time>
      </trkpt>
      <trkpt lat="44.01252" lon="7.22508">
        <ele>1755</ele>
        <time>2010-11-06T09:48:18Z</time>
      </trkpt>
      <trkpt lat="44.01244" lon="7.22509">
        <ele>1765</ele>
        <time>2010-11-06T09:48:20Z</time>
      </trkpt>
      <trkpt lat="44.01229" lon="7.22504">
        <ele>1772</ele>
        <time>2010-11-06T09:48:25Z</time>
      </trkpt>
      <trkpt lat="44.01219" lon="7.22481">
        <ele>1748</ele>
        <time>2010-11-06T09:48:29Z</time>
      </trkpt>
      <trkpt lat="44.01211" lon="7.22464">
        <ele>1745</ele>
        <time>2010-11-06T09:48:32Z</time>
      </trkpt>
      <trkpt lat="44.01205" lon="7.22456">
        <ele>1744</ele>
        <time>2010-11-06T09:48:34Z</time>
      </trkpt>
      <trkpt lat="44.01197" lon="7.22448">
        <ele>1743</ele>
        <time>2010-11-06T09:48:37Z</time>
      </trkpt>
      <trkpt lat="44.0119" lon="7.22441">
        <ele>1743</ele>
        <time>2010-11-06T09:48:39Z</time>
      </trkpt>
      <trkpt lat="44.01175" lon="7.22428">
        <ele>1740</ele>
        <time>2010-11-06T09:48:44Z</time>
      </trkpt>
      <trkpt lat="44.0116" lon="7.22425">
        <ele>1752</ele>
        <time>2010-11-06T09:48:48Z</time>
      </trkpt>
      <trkpt lat="44.01159" lon="7.22423">
        <ele>1751</ele>
        <time>2010-11-06T09:48:49Z</time>
      </trkpt>
      <trkpt lat="44.01157" lon="7.22418">
        <ele>1750</ele>
        <time>2010-11-06T09:48:53Z</time>
      </trkpt>
      <trkpt lat="44.01157" lon="7.22415">
        <ele>1740</ele>
        <time>2010-11-06T09:48:56Z</time>
      </trkpt>
      <trkpt lat="44.01156" lon="7.22401">
        <ele>1741</ele>
        <time>2010-11-06T09:49:03Z</time>
      </trkpt>
      <trkpt lat="44.01156" lon="7.22394">
        <ele>1741</ele>
        <time>2010-11-06T09:49:07Z</time>
      </trkpt>
      <trkpt lat="44.01162" lon="7.22387">
        <ele>1739</ele>
        <time>2010-11-06T09:49:11Z</time>
      </trkpt>
      <trkpt lat="44.01166" lon="7.22367">
        <ele>1734</ele>
        <time>2010-11-06T09:49:15Z</time>
      </trkpt>
      <trkpt lat="44.0116" lon="7.22347">
        <ele>1723</ele>
        <time>2010-11-06T09:49:19Z</time>
      </trkpt>
      <trkpt lat="44.01143" lon="7.22327">
        <ele>1714</ele>
        <time>2010-11-06T09:49:23Z</time>
      </trkpt>
      <trkpt lat="44.01133" lon="7.22315">
        <ele>1717</ele>
        <time>2010-11-06T09:49:25Z</time>
      </trkpt>
      <trkpt lat="44.01125" lon="7.22304">
        <ele>1719</ele>
        <time>2010-11-06T09:49:27Z</time>
      </trkpt>
      <trkpt lat="44.01117" lon="7.22282">
        <ele>1718</ele>
        <time>2010-11-06T09:49:31Z</time>
      </trkpt>
      <trkpt lat="44.01115" lon="7.22277">
        <ele>1718</ele>
        <time>2010-11-06T09:49:32Z</time>
      </trkpt>
      <trkpt lat="44.01114" lon="7.22255">
        <ele>1716</ele>
        <time>2010-11-06T09:49:37Z</time>
      </trkpt>
      <trkpt lat="44.01109" lon="7.22229">
        <ele>1700</ele>
        <time>2010-11-06T09:49:42Z</time>
      </trkpt>
      <trkpt lat="44.01093" lon="7.22201">
        <ele>1698</ele>
        <time>2010-11-06T09:49:46Z</time>
      </trkpt>
      <trkpt lat="44.01089" lon="7.22194">
        <ele>1698</ele>
        <time>2010-11-06T09:49:47Z</time>
      </trkpt>
      <trkpt lat="44.0108" lon="7.22175">
        <ele>1709</ele>
        <time>2010-11-06T09:49:50Z</time>
      </trkpt>
      <trkpt lat="44.01072" lon="7.22138">
        <ele>1698</ele>
        <time>2010-11-06T09:49:55Z</time>
      </trkpt>
      <trkpt lat="44.01058" lon="7.22118">
        <ele>1695</ele>
        <time>2010-11-06T09:50:00Z</time>
      </trkpt>
      <trkpt lat="44.0105" lon="7.22123">
        <ele>1696</ele>
        <time>2010-11-06T09:50:04Z</time>
      </trkpt>
      <trkpt lat="44.01044" lon="7.22129">
        <ele>1696</ele>
        <time>2010-11-06T09:50:06Z</time>
      </trkpt>
      <trkpt lat="44.0103" lon="7.22135">
        <ele>1698</ele>
        <time>2010-11-06T09:50:11Z</time>
      </trkpt>
      <trkpt lat="44.01029" lon="7.22135">
        <ele>1698</ele>
        <time>2010-11-06T09:50:16Z</time>
      </trkpt>
      <trkpt lat="44.0103" lon="7.22134">
        <ele>1698</ele>
        <time>2010-11-06T09:50:22Z</time>
      </trkpt>
      <trkpt lat="44.01032" lon="7.22137">
        <ele>1698</ele>
        <time>2010-11-06T09:50:41Z</time>
      </trkpt>
      <trkpt lat="44.01033" lon="7.22138">
        <ele>1698</ele>
        <time>2010-11-06T09:51:08Z</time>
      </trkpt>
      <trkpt lat="44.0103" lon="7.22135">
        <ele>1698</ele>
        <time>2010-11-06T09:51:19Z</time>
      </trkpt>
      <trkpt lat="44.01027" lon="7.22141">
        <ele>1699</ele>
        <time>2010-11-06T09:51:36Z</time>
      </trkpt>
      <trkpt lat="44.01017" lon="7.22151">
        <ele>1701</ele>
        <time>2010-11-06T09:51:42Z</time>
      </trkpt>
      <trkpt lat="44.01005" lon="7.22165">
        <ele>1706</ele>
        <time>2010-11-06T09:51:48Z</time>
      </trkpt>
      <trkpt lat="44.00992" lon="7.22181">
        <ele>1713</ele>
        <time>2010-11-06T09:51:54Z</time>
      </trkpt>
      <trkpt lat="44.00982" lon="7.22192">
        <ele>1715</ele>
        <time>2010-11-06T09:51:59Z</time>
      </trkpt>
      <trkpt lat="44.00972" lon="7.22198">
        <ele>1716</ele>
        <time>2010-11-06T09:52:03Z</time>
      </trkpt>
      <trkpt lat="44.00957" lon="7.22202">
        <ele>1715</ele>
        <time>2010-11-06T09:52:09Z</time>
      </trkpt>
      <trkpt lat="44.00941" lon="7.22208">
        <ele>1715</ele>
        <time>2010-11-06T09:52:15Z</time>
      </trkpt>
      <trkpt lat="44.0093" lon="7.22217">
        <ele>1716</ele>
        <time>2010-11-06T09:52:20Z</time>
      </trkpt>
      <trkpt lat="44.00918" lon="7.22226">
        <ele>1719</ele>
        <time>2010-11-06T09:52:25Z</time>
      </trkpt>
      <trkpt lat="44.00903" lon="7.22234">
        <ele>1711</ele>
        <time>2010-11-06T09:52:31Z</time>
      </trkpt>
      <trkpt lat="44.00884" lon="7.2224">
        <ele>1707</ele>
        <time>2010-11-06T09:52:37Z</time>
      </trkpt>
      <trkpt lat="44.00876" lon="7.22249">
        <ele>1707</ele>
        <time>2010-11-06T09:52:41Z</time>
      </trkpt>
      <trkpt lat="44.00864" lon="7.22264">
        <ele>1732</ele>
        <time>2010-11-06T09:52:47Z</time>
      </trkpt>
      <trkpt lat="44.00852" lon="7.22264">
        <ele>1729</ele>
        <time>2010-11-06T09:52:51Z</time>
      </trkpt>
      <trkpt lat="44.00834" lon="7.22259">
        <ele>1721</ele>
        <time>2010-11-06T09:52:57Z</time>
      </trkpt>
      <trkpt lat="44.0082" lon="7.22264">
        <ele>1722</ele>
        <time>2010-11-06T09:53:02Z</time>
      </trkpt>
      <trkpt lat="44.00796" lon="7.22274">
        <ele>1725</ele>
        <time>2010-11-06T09:53:11Z</time>
      </trkpt>
      <trkpt lat="44.0078" lon="7.22284">
        <ele>1727</ele>
        <time>2010-11-06T09:53:18Z</time>
      </trkpt>
      <trkpt lat="44.00762" lon="7.22295">
        <ele>1730</ele>
        <time>2010-11-06T09:53:25Z</time>
      </trkpt>
      <trkpt lat="44.00745" lon="7.223">
        <ele>1738</ele>
        <time>2010-11-06T09:53:31Z</time>
      </trkpt>
      <trkpt lat="44.00734" lon="7.22291">
        <ele>1735</ele>
        <time>2010-11-06T09:53:36Z</time>
      </trkpt>
      <trkpt lat="44.00717" lon="7.22271">
        <ele>1731</ele>
        <time>2010-11-06T09:53:44Z</time>
      </trkpt>
      <trkpt lat="44.00698" lon="7.22256">
        <ele>1731</ele>
        <time>2010-11-06T09:53:51Z</time>
      </trkpt>
      <trkpt lat="44.00684" lon="7.22257">
        <ele>1730</ele>
        <time>2010-11-06T09:53:56Z</time>
      </trkpt>
      <trkpt lat="44.00667" lon="7.22262">
        <ele>1730</ele>
        <time>2010-11-06T09:54:03Z</time>
      </trkpt>
      <trkpt lat="44.00657" lon="7.22262">
        <ele>1741</ele>
        <time>2010-11-06T09:54:09Z</time>
      </trkpt>
      <trkpt lat="44.00655" lon="7.22262">
        <ele>1742</ele>
        <time>2010-11-06T09:54:14Z</time>
      </trkpt>
      <trkpt lat="44.00654" lon="7.22262">
        <ele>1742</ele>
        <time>2010-11-06T09:54:19Z</time>
      </trkpt>
      <trkpt lat="44.00644" lon="7.22252">
        <ele>1744</ele>
        <time>2010-11-06T09:54:25Z</time>
      </trkpt>
      <trkpt lat="44.00625" lon="7.22245">
        <ele>1719</ele>
        <time>2010-11-06T09:54:33Z</time>
      </trkpt>
      <trkpt lat="44.00611" lon="7.22235">
        <ele>1720</ele>
        <time>2010-11-06T09:54:40Z</time>
      </trkpt>
      <trkpt lat="44.00595" lon="7.22232">
        <ele>1724</ele>
        <time>2010-11-06T09:54:47Z</time>
      </trkpt>
      <trkpt lat="44.00583" lon="7.22232">
        <ele>1741</ele>
        <time>2010-11-06T09:54:52Z</time>
      </trkpt>
      <trkpt lat="44.00574" lon="7.22221">
        <ele>1741</ele>
        <time>2010-11-06T09:54:57Z</time>
      </trkpt>
      <trkpt lat="44.00563" lon="7.22204">
        <ele>1739</ele>
        <time>2010-11-06T09:55:04Z</time>
      </trkpt>
      <trkpt lat="44.00555" lon="7.22185">
        <ele>1736</ele>
        <time>2010-11-06T09:55:11Z</time>
      </trkpt>
      <trkpt lat="44.00543" lon="7.22161">
        <ele>1717</ele>
        <time>2010-11-06T09:55:20Z</time>
      </trkpt>
      <trkpt lat="44.00538" lon="7.22153">
        <ele>1718</ele>
        <time>2010-11-06T09:55:23Z</time>
      </trkpt>
      <trkpt lat="44.00528" lon="7.22149">
        <ele>1722</ele>
        <time>2010-11-06T09:55:27Z</time>
      </trkpt>
      <trkpt lat="44.00509" lon="7.22136">
        <ele>1723</ele>
        <time>2010-11-06T09:55:35Z</time>
      </trkpt>
      <trkpt lat="44.00494" lon="7.22119">
        <ele>1743</ele>
        <time>2010-11-06T09:55:42Z</time>
      </trkpt>
      <trkpt lat="44.00484" lon="7.22093">
        <ele>1734</ele>
        <time>2010-11-06T09:55:49Z</time>
      </trkpt>
      <trkpt lat="44.0047" lon="7.22079">
        <ele>1720</ele>
        <time>2010-11-06T09:55:55Z</time>
      </trkpt>
      <trkpt lat="44.00453" lon="7.22069">
        <ele>1724</ele>
        <time>2010-11-06T09:56:02Z</time>
      </trkpt>
      <trkpt lat="44.00434" lon="7.22059">
        <ele>1728</ele>
        <time>2010-11-06T09:56:10Z</time>
      </trkpt>
      <trkpt lat="44.00421" lon="7.22046">
        <ele>1725</ele>
        <time>2010-11-06T09:56:16Z</time>
      </trkpt>
      <trkpt lat="44.0041" lon="7.22027">
        <ele>1734</ele>
        <time>2010-11-06T09:56:23Z</time>
      </trkpt>
      <trkpt lat="44.00403" lon="7.22005">
        <ele>1729</ele>
        <time>2010-11-06T09:56:30Z</time>
      </trkpt>
      <trkpt lat="44.0039" lon="7.21998">
        <ele>1715</ele>
        <time>2010-11-06T09:56:36Z</time>
      </trkpt>
      <trkpt lat="44.00374" lon="7.21995">
        <ele>1716</ele>
        <time>2010-11-06T09:56:43Z</time>
      </trkpt>
      <trkpt lat="44.00358" lon="7.21998">
        <ele>1719</ele>
        <time>2010-11-06T09:56:50Z</time>
      </trkpt>
      <trkpt lat="44.0034" lon="7.22006">
        <ele>1734</ele>
        <time>2010-11-06T09:56:59Z</time>
      </trkpt>
      <trkpt lat="44.00339" lon="7.22007">
        <ele>1733</ele>
        <time>2010-11-06T09:57:19Z</time>
      </trkpt>
      <trkpt lat="44.00339" lon="7.22007">
        <ele>1734</ele>
        <time>2010-11-06T09:57:33Z</time>
      </trkpt>
      <trkpt lat="44.00339" lon="7.22008">
        <ele>1734</ele>
        <time>2010-11-06T09:57:53Z</time>
      </trkpt>
      <trkpt lat="44.00338" lon="7.22007">
        <ele>1733</ele>
        <time>2010-11-06T09:58:01Z</time>
      </trkpt>
      <trkpt lat="44.00336" lon="7.22003">
        <ele>1732</ele>
        <time>2010-11-06T09:58:06Z</time>
      </trkpt>
      <trkpt lat="44.00337" lon="7.22003">
        <ele>1732</ele>
        <time>2010-11-06T09:58:14Z</time>
      </trkpt>
      <trkpt lat="44.00337" lon="7.22007">
        <ele>1733</ele>
        <time>2010-11-06T09:58:21Z</time>
      </trkpt>
      <trkpt lat="44.00341" lon="7.22013">
        <ele>1735</ele>
        <time>2010-11-06T09:58:30Z</time>
      </trkpt>
      <trkpt lat="44.00341" lon="7.22014">
        <ele>1735</ele>
        <time>2010-11-06T09:58:42Z</time>
      </trkpt>
      <trkpt lat="44.00341" lon="7.22014">
        <ele>1735</ele>
        <time>2010-11-06T09:58:49Z</time>
      </trkpt>
      <trkpt lat="44.00342" lon="7.22012">
        <ele>1735</ele>
        <time>2010-11-06T09:58:54Z</time>
      </trkpt>
      <trkpt lat="44.00341" lon="7.2201">
        <ele>1734</ele>
        <time>2010-11-06T09:59:01Z</time>
      </trkpt>
      <trkpt lat="44.00338" lon="7.22004">
        <ele>1733</ele>
        <time>2010-11-06T09:59:24Z</time>
      </trkpt>
      <trkpt lat="44.00338" lon="7.22003">
        <ele>1733</ele>
        <time>2010-11-06T09:59:35Z</time>
      </trkpt>
      <trkpt lat="44.00336" lon="7.22004">
        <ele>1733</ele>
        <time>2010-11-06T09:59:46Z</time>
      </trkpt>
      <trkpt lat="44.00335" lon="7.22005">
        <ele>1733</ele>
        <time>2010-11-06T09:59:52Z</time>
      </trkpt>
      <trkpt lat="44.00337" lon="7.22005">
        <ele>1733</ele>
        <time>2010-11-06T10:00:05Z</time>
      </trkpt>
      <trkpt lat="44.0034" lon="7.22004">
        <ele>1733</ele>
        <time>2010-11-06T10:00:29Z</time>
      </trkpt>
      <trkpt lat="44.00338" lon="7.22003">
        <ele>1733</ele>
        <time>2010-11-06T10:00:48Z</time>
      </trkpt>
      <trkpt lat="44.00337" lon="7.22003">
        <ele>1732</ele>
        <time>2010-11-06T10:01:12Z</time>
      </trkpt>
      <trkpt lat="44.00336" lon="7.22004">
        <ele>1733</ele>
        <time>2010-11-06T10:01:19Z</time>
      </trkpt>
      <trkpt lat="44.00336" lon="7.22002">
        <ele>1732</ele>
        <time>2010-11-06T10:01:43Z</time>
      </trkpt>
      <trkpt lat="44.00338" lon="7.22005">
        <ele>1733</ele>
        <time>2010-11-06T10:01:57Z</time>
      </trkpt>
      <trkpt lat="44.00338" lon="7.22008">
        <ele>1734</ele>
        <time>2010-11-06T10:02:06Z</time>
      </trkpt>
      <trkpt lat="44.00337" lon="7.22007">
        <ele>1733</ele>
        <time>2010-11-06T10:02:12Z</time>
      </trkpt>
      <trkpt lat="44.00337" lon="7.22008">
        <ele>1734</ele>
        <time>2010-11-06T10:02:19Z</time>
      </trkpt>
      <trkpt lat="44.00335" lon="7.2201">
        <ele>1734</ele>
        <time>2010-11-06T10:02:45Z</time>
      </trkpt>
      <trkpt lat="44.00334" lon="7.22009">
        <ele>1734</ele>
        <time>2010-11-06T10:02:55Z</time>
      </trkpt>
      <trkpt lat="44.00335" lon="7.22002">
        <ele>1732</ele>
        <time>2010-11-06T10:03:17Z</time>
      </trkpt>
      <trkpt lat="44.00337" lon="7.22004">
        <ele>1733</ele>
        <time>2010-11-06T10:03:21Z</time>
      </trkpt>
      <trkpt lat="44.00336" lon="7.22006">
        <ele>1733</ele>
        <time>2010-11-06T10:03:46Z</time>
      </trkpt>
      <trkpt lat="44.00339" lon="7.22007">
        <ele>1733</ele>
        <time>2010-11-06T10:04:05Z</time>
      </trkpt>
      <trkpt lat="44.00338" lon="7.22006">
        <ele>1733</ele>
        <time>2010-11-06T10:04:20Z</time>
      </trkpt>
      <trkpt lat="44.00337" lon="7.22007">
        <ele>1733</ele>
        <time>2010-11-06T10:04:25Z</time>
      </trkpt>
      <trkpt lat="44.00342" lon="7.2201">
        <ele>1734</ele>
        <time>2010-11-06T10:04:42Z</time>
      </trkpt>
      <trkpt lat="44.00343" lon="7.22008">
        <ele>1734</ele>
        <time>2010-11-06T10:04:47Z</time>
      </trkpt>
      <trkpt lat="44.00338" lon="7.22005">
        <ele>1733</ele>
        <time>2010-11-06T10:05:00Z</time>
      </trkpt>
      <trkpt lat="44.00336" lon="7.22006">
        <ele>1733</ele>
        <time>2010-11-06T10:05:09Z</time>
      </trkpt>
      <trkpt lat="44.00335" lon="7.22004">
        <ele>1732</ele>
        <time>2010-11-06T10:05:15Z</time>
      </trkpt>
      <trkpt lat="44.00335" lon="7.22007">
        <ele>1733</ele>
        <time>2010-11-06T10:05:24Z</time>
      </trkpt>
      <trkpt lat="44.00337" lon="7.22008">
        <ele>1733</ele>
        <time>2010-11-06T10:05:32Z</time>
      </trkpt>
      <trkpt lat="44.00337" lon="7.22007">
        <ele>1733</ele>
        <time>2010-11-06T10:05:37Z</time>
      </trkpt>
      <trkpt lat="44.00338" lon="7.22008">
        <ele>1734</ele>
        <time>2010-11-06T10:05:47Z</time>
      </trkpt>
      <trkpt lat="44.00342" lon="7.22007">
        <ele>1734</ele>
        <time>2010-11-06T10:05:51Z</time>
      </trkpt>
      <trkpt lat="44.00338" lon="7.22008">
        <ele>1734</ele>
        <time>2010-11-06T10:05:55Z</time>
      </trkpt>
      <trkpt lat="44.00335" lon="7.22008">
        <ele>1733</ele>
        <time>2010-11-06T10:06:01Z</time>
      </trkpt>
      <trkpt lat="44.00336" lon="7.22007">
        <ele>1733</ele>
        <time>2010-11-06T10:06:17Z</time>
      </trkpt>
      <trkpt lat="44.0034" lon="7.2201">
        <ele>1734</ele>
        <time>2010-11-06T10:06:33Z</time>
      </trkpt>
      <trkpt lat="44.00337" lon="7.22011">
        <ele>1734</ele>
        <time>2010-11-06T10:06:47Z</time>
      </trkpt>
      <trkpt lat="44.00333" lon="7.22011">
        <ele>1731</ele>
        <time>2010-11-06T10:07:01Z</time>
      </trkpt>
      <trkpt lat="44.00337" lon="7.22009">
        <ele>1734</ele>
        <time>2010-11-06T10:07:07Z</time>
      </trkpt>
      <trkpt lat="44.0034" lon="7.22009">
        <ele>1734</ele>
        <time>2010-11-06T10:07:12Z</time>
      </trkpt>
      <trkpt lat="44.0034" lon="7.22009">
        <ele>1734</ele>
        <time>2010-11-06T10:07:17Z</time>
      </trkpt>
      <trkpt lat="44.00339" lon="7.22006">
        <ele>1733</ele>
        <time>2010-11-06T10:07:29Z</time>
      </trkpt>
      <trkpt lat="44.00339" lon="7.22006">
        <ele>1733</ele>
        <time>2010-11-06T10:07:43Z</time>
      </trkpt>
      <trkpt lat="44.00336" lon="7.22006">
        <ele>1733</ele>
        <time>2010-11-06T10:07:53Z</time>
      </trkpt>
      <trkpt lat="44.0034" lon="7.2201">
        <ele>1734</ele>
        <time>2010-11-06T10:08:28Z</time>
      </trkpt>
      <trkpt lat="44.00342" lon="7.22009">
        <ele>1734</ele>
        <time>2010-11-06T10:08:46Z</time>
      </trkpt>
      <trkpt lat="44.0034" lon="7.22007">
        <ele>1734</ele>
        <time>2010-11-06T10:08:52Z</time>
      </trkpt>
      <trkpt lat="44.0034" lon="7.22004">
        <ele>1733</ele>
        <time>2010-11-06T10:09:01Z</time>
      </trkpt>
      <trkpt lat="44.00338" lon="7.22003">
        <ele>1733</ele>
        <time>2010-11-06T10:09:13Z</time>
      </trkpt>
      <trkpt lat="44.00337" lon="7.22002">
        <ele>1732</ele>
        <time>2010-11-06T10:09:32Z</time>
      </trkpt>
      <trkpt lat="44.00339" lon="7.22005">
        <ele>1733</ele>
        <time>2010-11-06T10:09:40Z</time>
      </trkpt>
      <trkpt lat="44.00341" lon="7.22006">
        <ele>1734</ele>
        <time>2010-11-06T10:09:41Z</time>
      </trkpt>
      <trkpt lat="44.00344" lon="7.2201">
        <ele>1735</ele>
        <time>2010-11-06T10:09:49Z</time>
      </trkpt>
      <trkpt lat="44.00338" lon="7.22011">
        <ele>1734</ele>
        <time>2010-11-06T10:10:35Z</time>
      </trkpt>
      <trkpt lat="44.00336" lon="7.22009">
        <ele>1734</ele>
        <time>2010-11-06T10:10:45Z</time>
      </trkpt>
      <trkpt lat="44.00335" lon="7.22006">
        <ele>1733</ele>
        <time>2010-11-06T10:11:00Z</time>
      </trkpt>
      <trkpt lat="44.00336" lon="7.22005">
        <ele>1733</ele>
        <time>2010-11-06T10:11:05Z</time>
      </trkpt>
      <trkpt lat="44.00337" lon="7.22002">
        <ele>1732</ele>
        <time>2010-11-06T10:11:11Z</time>
      </trkpt>
      <trkpt lat="44.00337" lon="7.22001">
        <ele>1732</ele>
        <time>2010-11-06T10:11:20Z</time>
      </trkpt>
      <trkpt lat="44.00338" lon="7.22">
        <ele>1732</ele>
        <time>2010-11-06T10:11:29Z</time>
      </trkpt>
      <trkpt lat="44.00337" lon="7.22001">
        <ele>1732</ele>
        <time>2010-11-06T10:11:36Z</time>
      </trkpt>
      <trkpt lat="44.00338" lon="7.22004">
        <ele>1733</ele>
        <time>2010-11-06T10:11:42Z</time>
      </trkpt>
      <trkpt lat="44.00338" lon="7.22007">
        <ele>1733</ele>
        <time>2010-11-06T10:11:47Z</time>
      </trkpt>
      <trkpt lat="44.00338" lon="7.22007">
        <ele>1733</ele>
        <time>2010-11-06T10:11:57Z</time>
      </trkpt>
      <trkpt lat="44.00337" lon="7.22004">
        <ele>1733</ele>
        <time>2010-11-06T10:12:14Z</time>
      </trkpt>
      <trkpt lat="44.00337" lon="7.22002">
        <ele>1732</ele>
        <time>2010-11-06T10:12:29Z</time>
      </trkpt>
      <trkpt lat="44.00339" lon="7.22004">
        <ele>1733</ele>
        <time>2010-11-06T10:12:52Z</time>
      </trkpt>
      <trkpt lat="44.00337" lon="7.22005">
        <ele>1733</ele>
        <time>2010-11-06T10:12:59Z</time>
      </trkpt>
      <trkpt lat="44.00334" lon="7.22006">
        <ele>1733</ele>
        <time>2010-11-06T10:13:05Z</time>
      </trkpt>
      <trkpt lat="44.00325" lon="7.22007">
        <ele>1731</ele>
        <time>2010-11-06T10:13:10Z</time>
      </trkpt>
      <trkpt lat="44.00315" lon="7.22011">
        <ele>1730</ele>
        <time>2010-11-06T10:13:13Z</time>
      </trkpt>
      <trkpt lat="44.00295" lon="7.22018">
        <ele>1728</ele>
        <time>2010-11-06T10:13:18Z</time>
      </trkpt>
      <trkpt lat="44.0028" lon="7.22026">
        <ele>1726</ele>
        <time>2010-11-06T10:13:22Z</time>
      </trkpt>
      <trkpt lat="44.00257" lon="7.22044">
        <ele>1726</ele>
        <time>2010-11-06T10:13:27Z</time>
      </trkpt>
      <trkpt lat="44.00241" lon="7.22067">
        <ele>1711</ele>
        <time>2010-11-06T10:13:31Z</time>
      </trkpt>
      <trkpt lat="44.00235" lon="7.22078">
        <ele>1712</ele>
        <time>2010-11-06T10:13:33Z</time>
      </trkpt>
      <trkpt lat="44.00224" lon="7.22091">
        <ele>1714</ele>
        <time>2010-11-06T10:13:37Z</time>
      </trkpt>
      <trkpt lat="44.00219" lon="7.22099">
        <ele>1713</ele>
        <time>2010-11-06T10:13:39Z</time>
      </trkpt>
      <trkpt lat="44.00212" lon="7.22115">
        <ele>1711</ele>
        <time>2010-11-06T10:13:43Z</time>
      </trkpt>
      <trkpt lat="44.00211" lon="7.22123">
        <ele>1712</ele>
        <time>2010-11-06T10:13:45Z</time>
      </trkpt>
      <trkpt lat="44.00203" lon="7.22158">
        <ele>1711</ele>
        <time>2010-11-06T10:13:52Z</time>
      </trkpt>
      <trkpt lat="44.00201" lon="7.22182">
        <ele>1721</ele>
        <time>2010-11-06T10:13:56Z</time>
      </trkpt>
      <trkpt lat="44.00197" lon="7.22206">
        <ele>1722</ele>
        <time>2010-11-06T10:14:01Z</time>
      </trkpt>
      <trkpt lat="44.00196" lon="7.22212">
        <ele>1722</ele>
        <time>2010-11-06T10:14:02Z</time>
      </trkpt>
      <trkpt lat="44.00185" lon="7.22231">
        <ele>1719</ele>
        <time>2010-11-06T10:14:06Z</time>
      </trkpt>
      <trkpt lat="44.00178" lon="7.22239">
        <ele>1714</ele>
        <time>2010-11-06T10:14:08Z</time>
      </trkpt>
      <trkpt lat="44.00174" lon="7.22254">
        <ele>1715</ele>
        <time>2010-11-06T10:14:12Z</time>
      </trkpt>
      <trkpt lat="44.00175" lon="7.22276">
        <ele>1728</ele>
        <time>2010-11-06T10:14:18Z</time>
      </trkpt>
      <trkpt lat="44.00171" lon="7.22292">
        <ele>1731</ele>
        <time>2010-11-06T10:14:22Z</time>
      </trkpt>
      <trkpt lat="44.00168" lon="7.22309">
        <ele>1731</ele>
        <time>2010-11-06T10:14:26Z</time>
      </trkpt>
      <trkpt lat="44.00158" lon="7.2232">
        <ele>1699</ele>
        <time>2010-11-06T10:14:30Z</time>
      </trkpt>
      <trkpt lat="44.00157" lon="7.22334">
        <ele>1709</ele>
        <time>2010-11-06T10:14:35Z</time>
      </trkpt>
      <trkpt lat="44.0016" lon="7.22346">
        <ele>1706</ele>
        <time>2010-11-06T10:14:39Z</time>
      </trkpt>
      <trkpt lat="44.00158" lon="7.22367">
        <ele>1700</ele>
        <time>2010-11-06T10:14:45Z</time>
      </trkpt>
      <trkpt lat="44.0016" lon="7.22376">
        <ele>1700</ele>
        <time>2010-11-06T10:14:48Z</time>
      </trkpt>
      <trkpt lat="44.0016" lon="7.2238">
        <ele>1701</ele>
        <time>2010-11-06T10:14:54Z</time>
      </trkpt>
      <trkpt lat="44.0016" lon="7.2239">
        <ele>1704</ele>
        <time>2010-11-06T10:15:00Z</time>
      </trkpt>
      <trkpt lat="44.00163" lon="7.22395">
        <ele>1707</ele>
        <time>2010-11-06T10:15:07Z</time>
      </trkpt>
      <trkpt lat="44.00163" lon="7.22402">
        <ele>1711</ele>
        <time>2010-11-06T10:15:20Z</time>
      </trkpt>
      <trkpt lat="44.00162" lon="7.22409">
        <ele>1717</ele>
        <time>2010-11-06T10:15:27Z</time>
      </trkpt>
      <trkpt lat="44.00162" lon="7.22417">
        <ele>1725</ele>
        <time>2010-11-06T10:15:34Z</time>
      </trkpt>
      <trkpt lat="44.0016" lon="7.22426">
        <ele>1721</ele>
        <time>2010-11-06T10:15:41Z</time>
      </trkpt>
      <trkpt lat="44.00158" lon="7.22431">
        <ele>1718</ele>
        <time>2010-11-06T10:15:45Z</time>
      </trkpt>
      <trkpt lat="44.00152" lon="7.22439">
        <ele>1715</ele>
        <time>2010-11-06T10:15:52Z</time>
      </trkpt>
      <trkpt lat="44.00151" lon="7.22441">
        <ele>1714</ele>
        <time>2010-11-06T10:15:54Z</time>
      </trkpt>
      <trkpt lat="44.00148" lon="7.22447">
        <ele>1713</ele>
        <time>2010-11-06T10:15:58Z</time>
      </trkpt>
      <trkpt lat="44.00146" lon="7.22456">
        <ele>1713</ele>
        <time>2010-11-06T10:16:05Z</time>
      </trkpt>
      <trkpt lat="44.00146" lon="7.22458">
        <ele>1714</ele>
        <time>2010-11-06T10:16:07Z</time>
      </trkpt>
      <trkpt lat="44.00147" lon="7.22466">
        <ele>1716</ele>
        <time>2010-11-06T10:16:14Z</time>
      </trkpt>
      <trkpt lat="44.00149" lon="7.22472">
        <ele>1719</ele>
        <time>2010-11-06T10:16:20Z</time>
      </trkpt>
      <trkpt lat="44.00148" lon="7.22476">
        <ele>1720</ele>
        <time>2010-11-06T10:16:26Z</time>
      </trkpt>
      <trkpt lat="44.00144" lon="7.22481">
        <ele>1719</ele>
        <time>2010-11-06T10:16:31Z</time>
      </trkpt>
      <trkpt lat="44.00141" lon="7.22485">
        <ele>1718</ele>
        <time>2010-11-06T10:16:34Z</time>
      </trkpt>
      <trkpt lat="44.00135" lon="7.22496">
        <ele>1716</ele>
        <time>2010-11-06T10:16:40Z</time>
      </trkpt>
      <trkpt lat="44.00135" lon="7.225">
        <ele>1726</ele>
        <time>2010-11-06T10:16:45Z</time>
      </trkpt>
      <trkpt lat="44.00137" lon="7.22507">
        <ele>1726</ele>
        <time>2010-11-06T10:16:51Z</time>
      </trkpt>
      <trkpt lat="44.00139" lon="7.22523">
        <ele>1726</ele>
        <time>2010-11-06T10:16:58Z</time>
      </trkpt>
      <trkpt lat="44.0014" lon="7.22538">
        <ele>1726</ele>
        <time>2010-11-06T10:17:04Z</time>
      </trkpt>
      <trkpt lat="44.00141" lon="7.22555">
        <ele>1728</ele>
        <time>2010-11-06T10:17:10Z</time>
      </trkpt>
      <trkpt lat="44.00139" lon="7.22569">
        <ele>1729</ele>
        <time>2010-11-06T10:17:15Z</time>
      </trkpt>
      <trkpt lat="44.00138" lon="7.22594">
        <ele>1736</ele>
        <time>2010-11-06T10:17:21Z</time>
      </trkpt>
      <trkpt lat="44.00135" lon="7.22614">
        <ele>1735</ele>
        <time>2010-11-06T10:17:25Z</time>
      </trkpt>
      <trkpt lat="44.00128" lon="7.22631">
        <ele>1734</ele>
        <time>2010-11-06T10:17:28Z</time>
      </trkpt>
      <trkpt lat="44.00113" lon="7.22651">
        <ele>1731</ele>
        <time>2010-11-06T10:17:32Z</time>
      </trkpt>
      <trkpt lat="44.00108" lon="7.22661">
        <ele>1729</ele>
        <time>2010-11-06T10:17:34Z</time>
      </trkpt>
      <trkpt lat="44.00103" lon="7.22673">
        <ele>1735</ele>
        <time>2010-11-06T10:17:36Z</time>
      </trkpt>
      <trkpt lat="44.00094" lon="7.22694">
        <ele>1737</ele>
        <time>2010-11-06T10:17:40Z</time>
      </trkpt>
      <trkpt lat="44.00091" lon="7.22716">
        <ele>1740</ele>
        <time>2010-11-06T10:17:44Z</time>
      </trkpt>
      <trkpt lat="44.0008" lon="7.22747">
        <ele>1728</ele>
        <time>2010-11-06T10:17:50Z</time>
      </trkpt>
      <trkpt lat="44.00059" lon="7.22762">
        <ele>1723</ele>
        <time>2010-11-06T10:17:55Z</time>
      </trkpt>
      <trkpt lat="44.00049" lon="7.22778">
        <ele>1720</ele>
        <time>2010-11-06T10:17:59Z</time>
      </trkpt>
      <trkpt lat="44.00049" lon="7.22783">
        <ele>1720</ele>
        <time>2010-11-06T10:18:00Z</time>
      </trkpt>
      <trkpt lat="44.00051" lon="7.22793">
        <ele>1721</ele>
        <time>2010-11-06T10:18:02Z</time>
      </trkpt>
      <trkpt lat="44.00053" lon="7.22824">
        <ele>1724</ele>
        <time>2010-11-06T10:18:09Z</time>
      </trkpt>
      <trkpt lat="44.00059" lon="7.22844">
        <ele>1731</ele>
        <time>2010-11-06T10:18:14Z</time>
      </trkpt>
      <trkpt lat="44.00065" lon="7.22866">
        <ele>1731</ele>
        <time>2010-11-06T10:18:19Z</time>
      </trkpt>
      <trkpt lat="44.00068" lon="7.22889">
        <ele>1733</ele>
        <time>2010-11-06T10:18:24Z</time>
      </trkpt>
      <trkpt lat="44.00069" lon="7.22911">
        <ele>1736</ele>
        <time>2010-11-06T10:18:29Z</time>
      </trkpt>
      <trkpt lat="44.00069" lon="7.22925">
        <ele>1740</ele>
        <time>2010-11-06T10:18:33Z</time>
      </trkpt>
      <trkpt lat="44.00066" lon="7.22939">
        <ele>1739</ele>
        <time>2010-11-06T10:18:38Z</time>
      </trkpt>
      <trkpt lat="44.00065" lon="7.22939">
        <ele>1739</ele>
        <time>2010-11-06T10:18:51Z</time>
      </trkpt>
      <trkpt lat="44.0006" lon="7.22945">
        <ele>1738</ele>
        <time>2010-11-06T10:19:14Z</time>
      </trkpt>
      <trkpt lat="44.00055" lon="7.22949">
        <ele>1738</ele>
        <time>2010-11-06T10:19:19Z</time>
      </trkpt>
      <trkpt lat="44.00041" lon="7.22966">
        <ele>1737</ele>
        <time>2010-11-06T10:19:27Z</time>
      </trkpt>
      <trkpt lat="44.00024" lon="7.22984">
        <ele>1736</ele>
        <time>2010-11-06T10:19:33Z</time>
      </trkpt>
      <trkpt lat="44.00002" lon="7.23009">
        <ele>1738</ele>
        <time>2010-11-06T10:19:39Z</time>
      </trkpt>
      <trkpt lat="43.99976" lon="7.23034">
        <ele>1733</ele>
        <time>2010-11-06T10:19:45Z</time>
      </trkpt>
      <trkpt lat="43.99972" lon="7.23038">
        <ele>1733</ele>
        <time>2010-11-06T10:19:46Z</time>
      </trkpt>
      <trkpt lat="43.99956" lon="7.2306">
        <ele>1733</ele>
        <time>2010-11-06T10:19:51Z</time>
      </trkpt>
      <trkpt lat="43.99931" lon="7.2309">
        <ele>1737</ele>
        <time>2010-11-06T10:19:56Z</time>
      </trkpt>
      <trkpt lat="43.99911" lon="7.23114">
        <ele>1727</ele>
        <time>2010-11-06T10:19:59Z</time>
      </trkpt>
      <trkpt lat="43.99872" lon="7.23144">
        <ele>1724</ele>
        <time>2010-11-06T10:20:04Z</time>
      </trkpt>
      <trkpt lat="43.99839" lon="7.23175">
        <ele>1719</ele>
        <time>2010-11-06T10:20:09Z</time>
      </trkpt>
      <trkpt lat="43.99834" lon="7.23203">
        <ele>1721</ele>
        <time>2010-11-06T10:20:12Z</time>
      </trkpt>
      <trkpt lat="43.99842" lon="7.23223">
        <ele>1720</ele>
        <time>2010-11-06T10:20:14Z</time>
      </trkpt>
      <trkpt lat="43.99855" lon="7.2326">
        <ele>1715</ele>
        <time>2010-11-06T10:20:17Z</time>
      </trkpt>
      <trkpt lat="43.99867" lon="7.23297">
        <ele>1716</ele>
        <time>2010-11-06T10:20:20Z</time>
      </trkpt>
      <trkpt lat="43.99872" lon="7.2332">
        <ele>1715</ele>
        <time>2010-11-06T10:20:22Z</time>
      </trkpt>
      <trkpt lat="43.99887" lon="7.23384">
        <ele>1706</ele>
        <time>2010-11-06T10:20:27Z</time>
      </trkpt>
      <trkpt lat="43.99898" lon="7.23454">
        <ele>1701</ele>
        <time>2010-11-06T10:20:32Z</time>
      </trkpt>
      <trkpt lat="43.99887" lon="7.23497">
        <ele>1699</ele>
        <time>2010-11-06T10:20:36Z</time>
      </trkpt>
      <trkpt lat="43.99877" lon="7.23542">
        <ele>1695</ele>
        <time>2010-11-06T10:20:40Z</time>
      </trkpt>
      <trkpt lat="43.9987" lon="7.23584">
        <ele>1688</ele>
        <time>2010-11-06T10:20:44Z</time>
      </trkpt>
      <trkpt lat="43.99868" lon="7.23593">
        <ele>1687</ele>
        <time>2010-11-06T10:20:45Z</time>
      </trkpt>
      <trkpt lat="43.99863" lon="7.23603">
        <ele>1686</ele>
        <time>2010-11-06T10:20:47Z</time>
      </trkpt>
      <trkpt lat="43.99858" lon="7.23613">
        <ele>1686</ele>
        <time>2010-11-06T10:20:51Z</time>
      </trkpt>
      <trkpt lat="43.99859" lon="7.23615">
        <ele>1685</ele>
        <time>2010-11-06T10:20:53Z</time>
      </trkpt>
      <trkpt lat="43.99861" lon="7.23614">
        <ele>1686</ele>
        <time>2010-11-06T10:21:04Z</time>
      </trkpt>
      <trkpt lat="43.99865" lon="7.23609">
        <ele>1686</ele>
        <time>2010-11-06T10:21:19Z</time>
      </trkpt>
      <trkpt lat="43.99865" lon="7.23605">
        <ele>1686</ele>
        <time>2010-11-06T10:21:33Z</time>
      </trkpt>
      <trkpt lat="43.99864" lon="7.23605">
        <ele>1686</ele>
        <time>2010-11-06T10:21:37Z</time>
      </trkpt>
      <trkpt lat="43.9986" lon="7.23605">
        <ele>1686</ele>
        <time>2010-11-06T10:21:42Z</time>
      </trkpt>
      <trkpt lat="43.99857" lon="7.23604">
        <ele>1686</ele>
        <time>2010-11-06T10:21:47Z</time>
      </trkpt>
      <trkpt lat="43.99857" lon="7.23602">
        <ele>1686</ele>
        <time>2010-11-06T10:21:55Z</time>
      </trkpt>
      <trkpt lat="43.99856" lon="7.23597">
        <ele>1686</ele>
        <time>2010-11-06T10:22:01Z</time>
      </trkpt>
      <trkpt lat="43.99856" lon="7.23594">
        <ele>1686</ele>
        <time>2010-11-06T10:22:03Z</time>
      </trkpt>
      <trkpt lat="43.99854" lon="7.2359">
        <ele>1686</ele>
        <time>2010-11-06T10:22:07Z</time>
      </trkpt>
      <trkpt lat="43.9985" lon="7.23584">
        <ele>1686</ele>
        <time>2010-11-06T10:22:11Z</time>
      </trkpt>
      <trkpt lat="43.99847" lon="7.23561">
        <ele>1690</ele>
        <time>2010-11-06T10:22:17Z</time>
      </trkpt>
      <trkpt lat="43.99842" lon="7.23554">
        <ele>1690</ele>
        <time>2010-11-06T10:22:21Z</time>
      </trkpt>
      <trkpt lat="43.99834" lon="7.23556">
        <ele>1689</ele>
        <time>2010-11-06T10:22:26Z</time>
      </trkpt>
      <trkpt lat="43.99827" lon="7.23559">
        <ele>1675</ele>
        <time>2010-11-06T10:22:30Z</time>
      </trkpt>
      <trkpt lat="43.99819" lon="7.23566">
        <ele>1676</ele>
        <time>2010-11-06T10:22:33Z</time>
      </trkpt>
      <trkpt lat="43.99798" lon="7.23573">
        <ele>1673</ele>
        <time>2010-11-06T10:22:38Z</time>
      </trkpt>
      <trkpt lat="43.99792" lon="7.23573">
        <ele>1672</ele>
        <time>2010-11-06T10:22:40Z</time>
      </trkpt>
      <trkpt lat="43.99794" lon="7.2356">
        <ele>1671</ele>
        <time>2010-11-06T10:22:45Z</time>
      </trkpt>
      <trkpt lat="43.99794" lon="7.23551">
        <ele>1670</ele>
        <time>2010-11-06T10:22:47Z</time>
      </trkpt>
      <trkpt lat="43.99791" lon="7.23544">
        <ele>1669</ele>
        <time>2010-11-06T10:22:52Z</time>
      </trkpt>
      <trkpt lat="43.99792" lon="7.23542">
        <ele>1670</ele>
        <time>2010-11-06T10:23:07Z</time>
      </trkpt>
      <trkpt lat="43.99788" lon="7.23545">
        <ele>1669</ele>
        <time>2010-11-06T10:23:10Z</time>
      </trkpt>
      <trkpt lat="43.99776" lon="7.23546">
        <ele>1668</ele>
        <time>2010-11-06T10:23:16Z</time>
      </trkpt>
      <trkpt lat="43.9976" lon="7.23545">
        <ele>1666</ele>
        <time>2010-11-06T10:23:20Z</time>
      </trkpt>
      <trkpt lat="43.99757" lon="7.23541">
        <ele>1665</ele>
        <time>2010-11-06T10:23:24Z</time>
      </trkpt>
      <trkpt lat="43.99762" lon="7.23535">
        <ele>1665</ele>
        <time>2010-11-06T10:23:27Z</time>
      </trkpt>
      <trkpt lat="43.9976" lon="7.23524">
        <ele>1662</ele>
        <time>2010-11-06T10:23:32Z</time>
      </trkpt>
      <trkpt lat="43.99759" lon="7.23513">
        <ele>1659</ele>
        <time>2010-11-06T10:23:37Z</time>
      </trkpt>
      <trkpt lat="43.99757" lon="7.23512">
        <ele>1658</ele>
        <time>2010-11-06T10:23:41Z</time>
      </trkpt>
      <trkpt lat="43.99752" lon="7.23515">
        <ele>1658</ele>
        <time>2010-11-06T10:23:44Z</time>
      </trkpt>
      <trkpt lat="43.99747" lon="7.23506">
        <ele>1648</ele>
        <time>2010-11-06T10:23:48Z</time>
      </trkpt>
      <trkpt lat="43.99747" lon="7.23503">
        <ele>1649</ele>
        <time>2010-11-06T10:23:49Z</time>
      </trkpt>
      <trkpt lat="43.99745" lon="7.23493">
        <ele>1644</ele>
        <time>2010-11-06T10:23:53Z</time>
      </trkpt>
      <trkpt lat="43.99734" lon="7.23499">
        <ele>1641</ele>
        <time>2010-11-06T10:23:59Z</time>
      </trkpt>
      <trkpt lat="43.99727" lon="7.23499">
        <ele>1639</ele>
        <time>2010-11-06T10:24:03Z</time>
      </trkpt>
      <trkpt lat="43.99725" lon="7.23496">
        <ele>1638</ele>
        <time>2010-11-06T10:24:05Z</time>
      </trkpt>
      <trkpt lat="43.99726" lon="7.23488">
        <ele>1638</ele>
        <time>2010-11-06T10:24:08Z</time>
      </trkpt>
      <trkpt lat="43.99715" lon="7.23477">
        <ele>1635</ele>
        <time>2010-11-06T10:24:13Z</time>
      </trkpt>
      <trkpt lat="43.99706" lon="7.23478">
        <ele>1633</ele>
        <time>2010-11-06T10:24:16Z</time>
      </trkpt>
      <trkpt lat="43.99695" lon="7.2348">
        <ele>1631</ele>
        <time>2010-11-06T10:24:21Z</time>
      </trkpt>
      <trkpt lat="43.99692" lon="7.23476">
        <ele>1631</ele>
        <time>2010-11-06T10:24:25Z</time>
      </trkpt>
      <trkpt lat="43.9969" lon="7.23474">
        <ele>1630</ele>
        <time>2010-11-06T10:24:30Z</time>
      </trkpt>
      <trkpt lat="43.99687" lon="7.23476">
        <ele>1630</ele>
        <time>2010-11-06T10:24:36Z</time>
      </trkpt>
      <trkpt lat="43.99684" lon="7.23474">
        <ele>1630</ele>
        <time>2010-11-06T10:24:40Z</time>
      </trkpt>
      <trkpt lat="43.99687" lon="7.23461">
        <ele>1630</ele>
        <time>2010-11-06T10:24:44Z</time>
      </trkpt>
      <trkpt lat="43.99676" lon="7.23465">
        <ele>1629</ele>
        <time>2010-11-06T10:24:51Z</time>
      </trkpt>
      <trkpt lat="43.99667" lon="7.2347">
        <ele>1628</ele>
        <time>2010-11-06T10:24:54Z</time>
      </trkpt>
      <trkpt lat="43.99659" lon="7.23474">
        <ele>1614</ele>
        <time>2010-11-06T10:24:57Z</time>
      </trkpt>
      <trkpt lat="43.99656" lon="7.23467">
        <ele>1613</ele>
        <time>2010-11-06T10:25:02Z</time>
      </trkpt>
      <trkpt lat="43.99655" lon="7.23457">
        <ele>1612</ele>
        <time>2010-11-06T10:25:05Z</time>
      </trkpt>
      <trkpt lat="43.99642" lon="7.23454">
        <ele>1611</ele>
        <time>2010-11-06T10:25:11Z</time>
      </trkpt>
      <trkpt lat="43.99631" lon="7.23447">
        <ele>1609</ele>
        <time>2010-11-06T10:25:17Z</time>
      </trkpt>
      <trkpt lat="43.99631" lon="7.23446">
        <ele>1609</ele>
        <time>2010-11-06T10:25:18Z</time>
      </trkpt>
      <trkpt lat="43.99632" lon="7.23446">
        <ele>1609</ele>
        <time>2010-11-06T10:25:22Z</time>
      </trkpt>
      <trkpt lat="43.99634" lon="7.23444">
        <ele>1609</ele>
        <time>2010-11-06T10:25:24Z</time>
      </trkpt>
      <trkpt lat="43.99639" lon="7.23437">
        <ele>1610</ele>
        <time>2010-11-06T10:25:30Z</time>
      </trkpt>
      <trkpt lat="43.99638" lon="7.23437">
        <ele>1610</ele>
        <time>2010-11-06T10:25:38Z</time>
      </trkpt>
      <trkpt lat="43.99638" lon="7.23436">
        <ele>1610</ele>
        <time>2010-11-06T10:25:48Z</time>
      </trkpt>
      <trkpt lat="43.99636" lon="7.23439">
        <ele>1609</ele>
        <time>2010-11-06T10:25:59Z</time>
      </trkpt>
      <trkpt lat="43.99631" lon="7.23441">
        <ele>1609</ele>
        <time>2010-11-06T10:26:23Z</time>
      </trkpt>
      <trkpt lat="43.99632" lon="7.23438">
        <ele>1609</ele>
        <time>2010-11-06T10:26:39Z</time>
      </trkpt>
      <trkpt lat="43.99637" lon="7.23431">
        <ele>1609</ele>
        <time>2010-11-06T10:27:06Z</time>
      </trkpt>
      <trkpt lat="43.99638" lon="7.23431">
        <ele>1609</ele>
        <time>2010-11-06T10:27:21Z</time>
      </trkpt>
      <trkpt lat="43.99635" lon="7.23435">
        <ele>1609</ele>
        <time>2010-11-06T10:27:48Z</time>
      </trkpt>
      <trkpt lat="43.99636" lon="7.23433">
        <ele>1609</ele>
        <time>2010-11-06T10:28:20Z</time>
      </trkpt>
      <trkpt lat="43.99637" lon="7.23435">
        <ele>1609</ele>
        <time>2010-11-06T10:28:43Z</time>
      </trkpt>
      <trkpt lat="43.99638" lon="7.2344">
        <ele>1610</ele>
        <time>2010-11-06T10:29:02Z</time>
      </trkpt>
      <trkpt lat="43.99639" lon="7.23448">
        <ele>1610</ele>
        <time>2010-11-06T10:29:43Z</time>
      </trkpt>
      <trkpt lat="43.9964" lon="7.23442">
        <ele>1610</ele>
        <time>2010-11-06T10:29:57Z</time>
      </trkpt>
      <trkpt lat="43.99642" lon="7.23429">
        <ele>1610</ele>
        <time>2010-11-06T10:30:13Z</time>
      </trkpt>
      <trkpt lat="43.99631" lon="7.23421">
        <ele>1608</ele>
        <time>2010-11-06T10:30:18Z</time>
      </trkpt>
      <trkpt lat="43.99623" lon="7.23422">
        <ele>1607</ele>
        <time>2010-11-06T10:30:21Z</time>
      </trkpt>
      <trkpt lat="43.99601" lon="7.23428">
        <ele>1602</ele>
        <time>2010-11-06T10:30:26Z</time>
      </trkpt>
      <trkpt lat="43.9959" lon="7.2343">
        <ele>1600</ele>
        <time>2010-11-06T10:30:28Z</time>
      </trkpt>
      <trkpt lat="43.99567" lon="7.23435">
        <ele>1594</ele>
        <time>2010-11-06T10:30:32Z</time>
      </trkpt>
      <trkpt lat="43.9956" lon="7.2343">
        <ele>1593</ele>
        <time>2010-11-06T10:30:35Z</time>
      </trkpt>
      <trkpt lat="43.99566" lon="7.23415">
        <ele>1590</ele>
        <time>2010-11-06T10:30:39Z</time>
      </trkpt>
      <trkpt lat="43.99567" lon="7.23395">
        <ele>1590</ele>
        <time>2010-11-06T10:30:43Z</time>
      </trkpt>
      <trkpt lat="43.99556" lon="7.23372">
        <ele>1589</ele>
        <time>2010-11-06T10:30:48Z</time>
      </trkpt>
      <trkpt lat="43.9955" lon="7.2337">
        <ele>1589</ele>
        <time>2010-11-06T10:30:49Z</time>
      </trkpt>
      <trkpt lat="43.99543" lon="7.23366">
        <ele>1589</ele>
        <time>2010-11-06T10:30:51Z</time>
      </trkpt>
      <trkpt lat="43.99522" lon="7.23356">
        <ele>1587</ele>
        <time>2010-11-06T10:30:55Z</time>
      </trkpt>
      <trkpt lat="43.99513" lon="7.23349">
        <ele>1586</ele>
        <time>2010-11-06T10:30:57Z</time>
      </trkpt>
      <trkpt lat="43.9949" lon="7.23337">
        <ele>1580</ele>
        <time>2010-11-06T10:31:03Z</time>
      </trkpt>
      <trkpt lat="43.99487" lon="7.23332">
        <ele>1583</ele>
        <time>2010-11-06T10:31:08Z</time>
      </trkpt>
      <trkpt lat="43.99484" lon="7.23329">
        <ele>1582</ele>
        <time>2010-11-06T10:31:10Z</time>
      </trkpt>
      <trkpt lat="43.99465" lon="7.23318">
        <ele>1580</ele>
        <time>2010-11-06T10:31:16Z</time>
      </trkpt>
      <trkpt lat="43.99446" lon="7.23306">
        <ele>1577</ele>
        <time>2010-11-06T10:31:21Z</time>
      </trkpt>
      <trkpt lat="43.9943" lon="7.23292">
        <ele>1576</ele>
        <time>2010-11-06T10:31:26Z</time>
      </trkpt>
      <trkpt lat="43.99427" lon="7.2329">
        <ele>1576</ele>
        <time>2010-11-06T10:31:27Z</time>
      </trkpt>
      <trkpt lat="43.99415" lon="7.23282">
        <ele>1559</ele>
        <time>2010-11-06T10:31:32Z</time>
      </trkpt>
      <trkpt lat="43.9941" lon="7.23278">
        <ele>1559</ele>
        <time>2010-11-06T10:31:36Z</time>
      </trkpt>
      <trkpt lat="43.99399" lon="7.23271">
        <ele>1559</ele>
        <time>2010-11-06T10:31:42Z</time>
      </trkpt>
      <trkpt lat="43.99387" lon="7.23266">
        <ele>1556</ele>
        <time>2010-11-06T10:31:48Z</time>
      </trkpt>
      <trkpt lat="43.99373" lon="7.23257">
        <ele>1553</ele>
        <time>2010-11-06T10:31:53Z</time>
      </trkpt>
      <trkpt lat="43.99361" lon="7.23246">
        <ele>1552</ele>
        <time>2010-11-06T10:31:57Z</time>
      </trkpt>
      <trkpt lat="43.99348" lon="7.23228">
        <ele>1550</ele>
        <time>2010-11-06T10:32:00Z</time>
      </trkpt>
      <trkpt lat="43.9934" lon="7.23218">
        <ele>1551</ele>
        <time>2010-11-06T10:32:03Z</time>
      </trkpt>
      <trkpt lat="43.99327" lon="7.23207">
        <ele>1533</ele>
        <time>2010-11-06T10:32:09Z</time>
      </trkpt>
      <trkpt lat="43.99313" lon="7.23196">
        <ele>1533</ele>
        <time>2010-11-06T10:32:14Z</time>
      </trkpt>
      <trkpt lat="43.99301" lon="7.2319">
        <ele>1531</ele>
        <time>2010-11-06T10:32:19Z</time>
      </trkpt>
      <trkpt lat="43.99288" lon="7.23186">
        <ele>1529</ele>
        <time>2010-11-06T10:32:24Z</time>
      </trkpt>
      <trkpt lat="43.99281" lon="7.23184">
        <ele>1527</ele>
        <time>2010-11-06T10:32:27Z</time>
      </trkpt>
      <trkpt lat="43.99275" lon="7.23184">
        <ele>1526</ele>
        <time>2010-11-06T10:32:30Z</time>
      </trkpt>
      <trkpt lat="43.99259" lon="7.23179">
        <ele>1523</ele>
        <time>2010-11-06T10:32:35Z</time>
      </trkpt>
      <trkpt lat="43.99237" lon="7.23172">
        <ele>1511</ele>
        <time>2010-11-06T10:32:39Z</time>
      </trkpt>
      <trkpt lat="43.99218" lon="7.23163">
        <ele>1514</ele>
        <time>2010-11-06T10:32:42Z</time>
      </trkpt>
      <trkpt lat="43.99209" lon="7.23157">
        <ele>1512</ele>
        <time>2010-11-06T10:32:46Z</time>
      </trkpt>
      <trkpt lat="43.99204" lon="7.23154">
        <ele>1511</ele>
        <time>2010-11-06T10:32:51Z</time>
      </trkpt>
      <trkpt lat="43.99203" lon="7.23153">
        <ele>1511</ele>
        <time>2010-11-06T10:32:52Z</time>
      </trkpt>
      <trkpt lat="43.99207" lon="7.23153">
        <ele>1512</ele>
        <time>2010-11-06T10:32:58Z</time>
      </trkpt>
      <trkpt lat="43.99198" lon="7.23148">
        <ele>1510</ele>
        <time>2010-11-06T10:33:03Z</time>
      </trkpt>
      <trkpt lat="43.99194" lon="7.23149">
        <ele>1509</ele>
        <time>2010-11-06T10:33:06Z</time>
      </trkpt>
      <trkpt lat="43.99192" lon="7.2315">
        <ele>1508</ele>
        <time>2010-11-06T10:33:08Z</time>
      </trkpt>
      <trkpt lat="43.99184" lon="7.23155">
        <ele>1505</ele>
        <time>2010-11-06T10:33:13Z</time>
      </trkpt>
      <trkpt lat="43.99176" lon="7.23156">
        <ele>1502</ele>
        <time>2010-11-06T10:33:15Z</time>
      </trkpt>
      <trkpt lat="43.99151" lon="7.23161">
        <ele>1489</ele>
        <time>2010-11-06T10:33:21Z</time>
      </trkpt>
      <trkpt lat="43.99144" lon="7.2316">
        <ele>1488</ele>
        <time>2010-11-06T10:33:23Z</time>
      </trkpt>
      <trkpt lat="43.99125" lon="7.23163">
        <ele>1485</ele>
        <time>2010-11-06T10:33:28Z</time>
      </trkpt>
      <trkpt lat="43.99117" lon="7.23166">
        <ele>1484</ele>
        <time>2010-11-06T10:33:30Z</time>
      </trkpt>
      <trkpt lat="43.99105" lon="7.2317">
        <ele>1480</ele>
        <time>2010-11-06T10:33:33Z</time>
      </trkpt>
      <trkpt lat="43.99095" lon="7.23173">
        <ele>1479</ele>
        <time>2010-11-06T10:33:35Z</time>
      </trkpt>
      <trkpt lat="43.99072" lon="7.23182">
        <ele>1471</ele>
        <time>2010-11-06T10:33:39Z</time>
      </trkpt>
      <trkpt lat="43.99056" lon="7.23184">
        <ele>1469</ele>
        <time>2010-11-06T10:33:42Z</time>
      </trkpt>
      <trkpt lat="43.99046" lon="7.23175">
        <ele>1468</ele>
        <time>2010-11-06T10:33:47Z</time>
      </trkpt>
      <trkpt lat="43.9904" lon="7.23172">
        <ele>1467</ele>
        <time>2010-11-06T10:33:51Z</time>
      </trkpt>
      <trkpt lat="43.99045" lon="7.23166">
        <ele>1463</ele>
        <time>2010-11-06T10:33:54Z</time>
      </trkpt>
      <trkpt lat="43.99045" lon="7.23161">
        <ele>1463</ele>
        <time>2010-11-06T10:33:56Z</time>
      </trkpt>
      <trkpt lat="43.99045" lon="7.23156">
        <ele>1463</ele>
        <time>2010-11-06T10:33:58Z</time>
      </trkpt>
      <trkpt lat="43.99036" lon="7.23159">
        <ele>1462</ele>
        <time>2010-11-06T10:34:03Z</time>
      </trkpt>
      <trkpt lat="43.99029" lon="7.23159">
        <ele>1461</ele>
        <time>2010-11-06T10:34:06Z</time>
      </trkpt>
      <trkpt lat="43.99027" lon="7.23158">
        <ele>1461</ele>
        <time>2010-11-06T10:34:08Z</time>
      </trkpt>
      <trkpt lat="43.99027" lon="7.23154">
        <ele>1460</ele>
        <time>2010-11-06T10:34:12Z</time>
      </trkpt>
      <trkpt lat="43.99022" lon="7.23155">
        <ele>1460</ele>
        <time>2010-11-06T10:34:16Z</time>
      </trkpt>
      <trkpt lat="43.99014" lon="7.23149">
        <ele>1459</ele>
        <time>2010-11-06T10:34:21Z</time>
      </trkpt>
      <trkpt lat="43.9902" lon="7.23142">
        <ele>1459</ele>
        <time>2010-11-06T10:34:25Z</time>
      </trkpt>
      <trkpt lat="43.99018" lon="7.2314">
        <ele>1458</ele>
        <time>2010-11-06T10:34:27Z</time>
      </trkpt>
      <trkpt lat="43.99015" lon="7.23139">
        <ele>1458</ele>
        <time>2010-11-06T10:34:29Z</time>
      </trkpt>
      <trkpt lat="43.99011" lon="7.23137">
        <ele>1457</ele>
        <time>2010-11-06T10:34:31Z</time>
      </trkpt>
      <trkpt lat="43.98997" lon="7.23136">
        <ele>1441</ele>
        <time>2010-11-06T10:34:37Z</time>
      </trkpt>
      <trkpt lat="43.98987" lon="7.23131">
        <ele>1439</ele>
        <time>2010-11-06T10:34:40Z</time>
      </trkpt>
      <trkpt lat="43.98964" lon="7.23136">
        <ele>1436</ele>
        <time>2010-11-06T10:34:46Z</time>
      </trkpt>
      <trkpt lat="43.98953" lon="7.23148">
        <ele>1436</ele>
        <time>2010-11-06T10:34:50Z</time>
      </trkpt>
      <trkpt lat="43.98952" lon="7.23148">
        <ele>1436</ele>
        <time>2010-11-06T10:34:51Z</time>
      </trkpt>
      <trkpt lat="43.98952" lon="7.23146">
        <ele>1435</ele>
        <time>2010-11-06T10:34:56Z</time>
      </trkpt>
      <trkpt lat="43.98952" lon="7.23141">
        <ele>1435</ele>
        <time>2010-11-06T10:35:00Z</time>
      </trkpt>
      <trkpt lat="43.98947" lon="7.23137">
        <ele>1434</ele>
        <time>2010-11-06T10:35:06Z</time>
      </trkpt>
      <trkpt lat="43.98946" lon="7.23143">
        <ele>1434</ele>
        <time>2010-11-06T10:35:18Z</time>
      </trkpt>
      <trkpt lat="43.98942" lon="7.23145">
        <ele>1434</ele>
        <time>2010-11-06T10:35:21Z</time>
      </trkpt>
      <trkpt lat="43.98936" lon="7.23148">
        <ele>1433</ele>
        <time>2010-11-06T10:35:26Z</time>
      </trkpt>
      <trkpt lat="43.98929" lon="7.2315">
        <ele>1433</ele>
        <time>2010-11-06T10:35:30Z</time>
      </trkpt>
      <trkpt lat="43.98915" lon="7.23157">
        <ele>1424</ele>
        <time>2010-11-06T10:35:36Z</time>
      </trkpt>
      <trkpt lat="43.98904" lon="7.2316">
        <ele>1422</ele>
        <time>2010-11-06T10:35:39Z</time>
      </trkpt>
      <trkpt lat="43.98895" lon="7.23156">
        <ele>1417</ele>
        <time>2010-11-06T10:35:42Z</time>
      </trkpt>
      <trkpt lat="43.9888" lon="7.23149">
        <ele>1411</ele>
        <time>2010-11-06T10:35:47Z</time>
      </trkpt>
      <trkpt lat="43.98866" lon="7.23153">
        <ele>1409</ele>
        <time>2010-11-06T10:35:51Z</time>
      </trkpt>
      <trkpt lat="43.9885" lon="7.23159">
        <ele>1407</ele>
        <time>2010-11-06T10:35:57Z</time>
      </trkpt>
      <trkpt lat="43.98844" lon="7.23159">
        <ele>1407</ele>
        <time>2010-11-06T10:36:02Z</time>
      </trkpt>
      <trkpt lat="43.98848" lon="7.23155">
        <ele>1407</ele>
        <time>2010-11-06T10:36:08Z</time>
      </trkpt>
      <trkpt lat="43.98839" lon="7.23151">
        <ele>1406</ele>
        <time>2010-11-06T10:36:13Z</time>
      </trkpt>
      <trkpt lat="43.98838" lon="7.23152">
        <ele>1406</ele>
        <time>2010-11-06T10:36:14Z</time>
      </trkpt>
      <trkpt lat="43.98826" lon="7.23162">
        <ele>1398</ele>
        <time>2010-11-06T10:36:20Z</time>
      </trkpt>
      <trkpt lat="43.98822" lon="7.23165">
        <ele>1396</ele>
        <time>2010-11-06T10:36:22Z</time>
      </trkpt>
      <trkpt lat="43.9881" lon="7.23171">
        <ele>1394</ele>
        <time>2010-11-06T10:36:27Z</time>
      </trkpt>
      <trkpt lat="43.9881" lon="7.23165">
        <ele>1390</ele>
        <time>2010-11-06T10:36:30Z</time>
      </trkpt>
      <trkpt lat="43.98803" lon="7.23158">
        <ele>1386</ele>
        <time>2010-11-06T10:36:35Z</time>
      </trkpt>
      <trkpt lat="43.98801" lon="7.23158">
        <ele>1385</ele>
        <time>2010-11-06T10:36:39Z</time>
      </trkpt>
      <trkpt lat="43.98795" lon="7.23157">
        <ele>1384</ele>
        <time>2010-11-06T10:36:52Z</time>
      </trkpt>
      <trkpt lat="43.98792" lon="7.23154">
        <ele>1383</ele>
        <time>2010-11-06T10:36:58Z</time>
      </trkpt>
      <trkpt lat="43.98791" lon="7.23151">
        <ele>1382</ele>
        <time>2010-11-06T10:37:03Z</time>
      </trkpt>
      <trkpt lat="43.98793" lon="7.23149">
        <ele>1382</ele>
        <time>2010-11-06T10:37:09Z</time>
      </trkpt>
      <trkpt lat="43.98794" lon="7.23147">
        <ele>1382</ele>
        <time>2010-11-06T10:37:10Z</time>
      </trkpt>
      <trkpt lat="43.98794" lon="7.23144">
        <ele>1382</ele>
        <time>2010-11-06T10:37:15Z</time>
      </trkpt>
      <trkpt lat="43.9879" lon="7.23146">
        <ele>1381</ele>
        <time>2010-11-06T10:37:27Z</time>
      </trkpt>
      <trkpt lat="43.98788" lon="7.23145">
        <ele>1381</ele>
        <time>2010-11-06T10:37:32Z</time>
      </trkpt>
      <trkpt lat="43.98788" lon="7.2314">
        <ele>1380</ele>
        <time>2010-11-06T10:37:37Z</time>
      </trkpt>
      <trkpt lat="43.98788" lon="7.23137">
        <ele>1379</ele>
        <time>2010-11-06T10:37:43Z</time>
      </trkpt>
      <trkpt lat="43.9879" lon="7.23133">
        <ele>1379</ele>
        <time>2010-11-06T10:37:48Z</time>
      </trkpt>
      <trkpt lat="43.98792" lon="7.2313">
        <ele>1379</ele>
        <time>2010-11-06T10:37:54Z</time>
      </trkpt>
      <trkpt lat="43.98791" lon="7.23131">
        <ele>1379</ele>
        <time>2010-11-06T10:37:58Z</time>
      </trkpt>
      <trkpt lat="43.98785" lon="7.23131">
        <ele>1378</ele>
        <time>2010-11-06T10:38:02Z</time>
      </trkpt>
      <trkpt lat="43.98782" lon="7.23134">
        <ele>1378</ele>
        <time>2010-11-06T10:38:08Z</time>
      </trkpt>
      <trkpt lat="43.98778" lon="7.23138">
        <ele>1378</ele>
        <time>2010-11-06T10:38:20Z</time>
      </trkpt>
      <trkpt lat="43.98774" lon="7.23141">
        <ele>1378</ele>
        <time>2010-11-06T10:38:25Z</time>
      </trkpt>
      <trkpt lat="43.98765" lon="7.23145">
        <ele>1377</ele>
        <time>2010-11-06T10:38:31Z</time>
      </trkpt>
      <trkpt lat="43.98756" lon="7.2315">
        <ele>1377</ele>
        <time>2010-11-06T10:38:36Z</time>
      </trkpt>
      <trkpt lat="43.98749" lon="7.23152">
        <ele>1365</ele>
        <time>2010-11-06T10:38:38Z</time>
      </trkpt>
      <trkpt lat="43.9873" lon="7.23166">
        <ele>1362</ele>
        <time>2010-11-06T10:38:44Z</time>
      </trkpt>
      <trkpt lat="43.98719" lon="7.23175">
        <ele>1366</ele>
        <time>2010-11-06T10:38:49Z</time>
      </trkpt>
      <trkpt lat="43.98711" lon="7.23183">
        <ele>1364</ele>
        <time>2010-11-06T10:38:52Z</time>
      </trkpt>
      <trkpt lat="43.98701" lon="7.23194">
        <ele>1362</ele>
        <time>2010-11-06T10:38:56Z</time>
      </trkpt>
      <trkpt lat="43.98691" lon="7.23198">
        <ele>1361</ele>
        <time>2010-11-06T10:39:00Z</time>
      </trkpt>
      <trkpt lat="43.98672" lon="7.23203">
        <ele>1359</ele>
        <time>2010-11-06T10:39:04Z</time>
      </trkpt>
      <trkpt lat="43.98661" lon="7.23208">
        <ele>1351</ele>
        <time>2010-11-06T10:39:06Z</time>
      </trkpt>
      <trkpt lat="43.9864" lon="7.23215">
        <ele>1350</ele>
        <time>2010-11-06T10:39:11Z</time>
      </trkpt>
      <trkpt lat="43.98633" lon="7.23217">
        <ele>1350</ele>
        <time>2010-11-06T10:39:13Z</time>
      </trkpt>
      <trkpt lat="43.98609" lon="7.23228">
        <ele>1350</ele>
        <time>2010-11-06T10:39:20Z</time>
      </trkpt>
      <trkpt lat="43.9859" lon="7.23236">
        <ele>1351</ele>
        <time>2010-11-06T10:39:26Z</time>
      </trkpt>
      <trkpt lat="43.98589" lon="7.23238">
        <ele>1352</ele>
        <time>2010-11-06T10:39:31Z</time>
      </trkpt>
      <trkpt lat="43.98584" lon="7.23239">
        <ele>1352</ele>
        <time>2010-11-06T10:39:35Z</time>
      </trkpt>
      <trkpt lat="43.9858" lon="7.23251">
        <ele>1354</ele>
        <time>2010-11-06T10:39:39Z</time>
      </trkpt>
      <trkpt lat="43.98582" lon="7.23251">
        <ele>1354</ele>
        <time>2010-11-06T10:39:42Z</time>
      </trkpt>
      <trkpt lat="43.98582" lon="7.23252">
        <ele>1354</ele>
        <time>2010-11-06T10:40:00Z</time>
      </trkpt>
      <trkpt lat="43.98581" lon="7.23253">
        <ele>1354</ele>
        <time>2010-11-06T10:40:12Z</time>
      </trkpt>
      <trkpt lat="43.98582" lon="7.23252">
        <ele>1354</ele>
        <time>2010-11-06T10:40:18Z</time>
      </trkpt>
      <trkpt lat="43.98582" lon="7.23253">
        <ele>1354</ele>
        <time>2010-11-06T10:40:24Z</time>
      </trkpt>
      <trkpt lat="43.98582" lon="7.23253">
        <ele>1354</ele>
        <time>2010-11-06T10:40:39Z</time>
      </trkpt>
      <trkpt lat="43.98581" lon="7.23254">
        <ele>1354</ele>
        <time>2010-11-06T10:40:49Z</time>
      </trkpt>
      <trkpt lat="43.98581" lon="7.23254">
        <ele>1354</ele>
        <time>2010-11-06T10:40:56Z</time>
      </trkpt>
      <trkpt lat="43.98581" lon="7.23254">
        <ele>1354</ele>
        <time>2010-11-06T10:41:03Z</time>
      </trkpt>
      <trkpt lat="43.98581" lon="7.23254">
        <ele>1354</ele>
        <time>2010-11-06T10:41:14Z</time>
      </trkpt>
      <trkpt lat="43.98581" lon="7.23254">
        <ele>1354</ele>
        <time>2010-11-06T10:41:24Z</time>
      </trkpt>
      <trkpt lat="43.9858" lon="7.23253">
        <ele>1354</ele>
        <time>2010-11-06T10:41:34Z</time>
      </trkpt>
      <trkpt lat="43.9858" lon="7.23254">
        <ele>1354</ele>
        <time>2010-11-06T10:41:43Z</time>
      </trkpt>
      <trkpt lat="43.98578" lon="7.23254">
        <ele>1354</ele>
        <time>2010-11-06T10:41:50Z</time>
      </trkpt>
      <trkpt lat="43.98579" lon="7.23255">
        <ele>1354</ele>
        <time>2010-11-06T10:41:58Z</time>
      </trkpt>
      <trkpt lat="43.98579" lon="7.23255">
        <ele>1354</ele>
        <time>2010-11-06T10:42:00Z</time>
      </trkpt>
      <trkpt lat="43.98574" lon="7.23251">
        <ele>1355</ele>
        <time>2010-11-06T10:42:05Z</time>
      </trkpt>
      <trkpt lat="43.98566" lon="7.2326">
        <ele>1355</ele>
        <time>2010-11-06T10:42:09Z</time>
      </trkpt>
      <trkpt lat="43.98553" lon="7.23284">
        <ele>1355</ele>
        <time>2010-11-06T10:42:15Z</time>
      </trkpt>
      <trkpt lat="43.98539" lon="7.2331">
        <ele>1356</ele>
        <time>2010-11-06T10:42:20Z</time>
      </trkpt>
      <trkpt lat="43.98531" lon="7.23323">
        <ele>1357</ele>
        <time>2010-11-06T10:42:23Z</time>
      </trkpt>
      <trkpt lat="43.98529" lon="7.23328">
        <ele>1358</ele>
        <time>2010-11-06T10:42:29Z</time>
      </trkpt>
      <trkpt lat="43.98526" lon="7.23335">
        <ele>1354</ele>
        <time>2010-11-06T10:42:33Z</time>
      </trkpt>
      <trkpt lat="43.98514" lon="7.23346">
        <ele>1357</ele>
        <time>2010-11-06T10:42:37Z</time>
      </trkpt>
      <trkpt lat="43.98497" lon="7.23357">
        <ele>1371</ele>
        <time>2010-11-06T10:42:42Z</time>
      </trkpt>
      <trkpt lat="43.98484" lon="7.23367">
        <ele>1373</ele>
        <time>2010-11-06T10:42:47Z</time>
      </trkpt>
      <trkpt lat="43.98477" lon="7.23374">
        <ele>1373</ele>
        <time>2010-11-06T10:42:52Z</time>
      </trkpt>
      <trkpt lat="43.98475" lon="7.23376">
        <ele>1373</ele>
        <time>2010-11-06T10:42:53Z</time>
      </trkpt>
      <trkpt lat="43.98473" lon="7.23385">
        <ele>1373</ele>
        <time>2010-11-06T10:43:00Z</time>
      </trkpt>
      <trkpt lat="43.98468" lon="7.23392">
        <ele>1374</ele>
        <time>2010-11-06T10:43:07Z</time>
      </trkpt>
      <trkpt lat="43.98464" lon="7.23395">
        <ele>1374</ele>
        <time>2010-11-06T10:43:13Z</time>
      </trkpt>
      <trkpt lat="43.9846" lon="7.23401">
        <ele>1375</ele>
        <time>2010-11-06T10:43:25Z</time>
      </trkpt>
      <trkpt lat="43.98457" lon="7.23405">
        <ele>1375</ele>
        <time>2010-11-06T10:43:31Z</time>
      </trkpt>
      <trkpt lat="43.98452" lon="7.23412">
        <ele>1377</ele>
        <time>2010-11-06T10:43:38Z</time>
      </trkpt>
      <trkpt lat="43.98445" lon="7.23417">
        <ele>1372</ele>
        <time>2010-11-06T10:43:45Z</time>
      </trkpt>
      <trkpt lat="43.98444" lon="7.23425">
        <ele>1372</ele>
        <time>2010-11-06T10:43:50Z</time>
      </trkpt>
      <trkpt lat="43.98441" lon="7.23431">
        <ele>1372</ele>
        <time>2010-11-06T10:43:55Z</time>
      </trkpt>
      <trkpt lat="43.9844" lon="7.23432">
        <ele>1372</ele>
        <time>2010-11-06T10:44:01Z</time>
      </trkpt>
      <trkpt lat="43.98438" lon="7.23441">
        <ele>1371</ele>
        <time>2010-11-06T10:44:13Z</time>
      </trkpt>
      <trkpt lat="43.98436" lon="7.23447">
        <ele>1371</ele>
        <time>2010-11-06T10:44:18Z</time>
      </trkpt>
      <trkpt lat="43.98436" lon="7.23448">
        <ele>1371</ele>
        <time>2010-11-06T10:44:19Z</time>
      </trkpt>
      <trkpt lat="43.98429" lon="7.23459">
        <ele>1370</ele>
        <time>2010-11-06T10:44:27Z</time>
      </trkpt>
      <trkpt lat="43.9843" lon="7.23465">
        <ele>1369</ele>
        <time>2010-11-06T10:44:41Z</time>
      </trkpt>
      <trkpt lat="43.98429" lon="7.23466">
        <ele>1369</ele>
        <time>2010-11-06T10:44:43Z</time>
      </trkpt>
      <trkpt lat="43.98425" lon="7.23472">
        <ele>1370</ele>
        <time>2010-11-06T10:44:48Z</time>
      </trkpt>
      <trkpt lat="43.98416" lon="7.23477">
        <ele>1383</ele>
        <time>2010-11-06T10:44:54Z</time>
      </trkpt>
      <trkpt lat="43.98404" lon="7.23482">
        <ele>1384</ele>
        <time>2010-11-06T10:44:58Z</time>
      </trkpt>
      <trkpt lat="43.98386" lon="7.23492">
        <ele>1386</ele>
        <time>2010-11-06T10:45:03Z</time>
      </trkpt>
      <trkpt lat="43.98367" lon="7.23505">
        <ele>1376</ele>
        <time>2010-11-06T10:45:08Z</time>
      </trkpt>
      <trkpt lat="43.98359" lon="7.23511">
        <ele>1377</ele>
        <time>2010-11-06T10:45:10Z</time>
      </trkpt>
      <trkpt lat="43.98334" lon="7.23528">
        <ele>1377</ele>
        <time>2010-11-06T10:45:16Z</time>
      </trkpt>
      <trkpt lat="43.9833" lon="7.23531">
        <ele>1386</ele>
        <time>2010-11-06T10:45:17Z</time>
      </trkpt>
      <trkpt lat="43.98311" lon="7.23541">
        <ele>1385</ele>
        <time>2010-11-06T10:45:21Z</time>
      </trkpt>
      <trkpt lat="43.98293" lon="7.23548">
        <ele>1385</ele>
        <time>2010-11-06T10:45:25Z</time>
      </trkpt>
      <trkpt lat="43.98274" lon="7.23562">
        <ele>1384</ele>
        <time>2010-11-06T10:45:29Z</time>
      </trkpt>
      <trkpt lat="43.9825" lon="7.23578">
        <ele>1380</ele>
        <time>2010-11-06T10:45:33Z</time>
      </trkpt>
      <trkpt lat="43.98233" lon="7.23586">
        <ele>1372</ele>
        <time>2010-11-06T10:45:37Z</time>
      </trkpt>
      <trkpt lat="43.98228" lon="7.23588">
        <ele>1371</ele>
        <time>2010-11-06T10:45:39Z</time>
      </trkpt>
      <trkpt lat="43.98215" lon="7.23596">
        <ele>1370</ele>
        <time>2010-11-06T10:45:44Z</time>
      </trkpt>
      <trkpt lat="43.98213" lon="7.23598">
        <ele>1370</ele>
        <time>2010-11-06T10:45:45Z</time>
      </trkpt>
      <trkpt lat="43.98203" lon="7.23599">
        <ele>1370</ele>
        <time>2010-11-06T10:45:51Z</time>
      </trkpt>
      <trkpt lat="43.98198" lon="7.23598">
        <ele>1370</ele>
        <time>2010-11-06T10:45:55Z</time>
      </trkpt>
      <trkpt lat="43.98189" lon="7.23598">
        <ele>1372</ele>
        <time>2010-11-06T10:46:01Z</time>
      </trkpt>
      <trkpt lat="43.98178" lon="7.23594">
        <ele>1375</ele>
        <time>2010-11-06T10:46:07Z</time>
      </trkpt>
      <trkpt lat="43.98169" lon="7.23584">
        <ele>1382</ele>
        <time>2010-11-06T10:46:14Z</time>
      </trkpt>
      <trkpt lat="43.98161" lon="7.23572">
        <ele>1386</ele>
        <time>2010-11-06T10:46:19Z</time>
      </trkpt>
      <trkpt lat="43.98152" lon="7.23564">
        <ele>1387</ele>
        <time>2010-11-06T10:46:24Z</time>
      </trkpt>
      <trkpt lat="43.98137" lon="7.23558">
        <ele>1388</ele>
        <time>2010-11-06T10:46:30Z</time>
      </trkpt>
      <trkpt lat="43.98132" lon="7.23556">
        <ele>1388</ele>
        <time>2010-11-06T10:46:32Z</time>
      </trkpt>
      <trkpt lat="43.98119" lon="7.23548">
        <ele>1388</ele>
        <time>2010-11-06T10:46:38Z</time>
      </trkpt>
      <trkpt lat="43.98109" lon="7.23541">
        <ele>1388</ele>
        <time>2010-11-06T10:46:42Z</time>
      </trkpt>
      <trkpt lat="43.98093" lon="7.2353">
        <ele>1390</ele>
        <time>2010-11-06T10:46:48Z</time>
      </trkpt>
      <trkpt lat="43.98074" lon="7.23509">
        <ele>1387</ele>
        <time>2010-11-06T10:46:55Z</time>
      </trkpt>
      <trkpt lat="43.98062" lon="7.23494">
        <ele>1395</ele>
        <time>2010-11-06T10:46:59Z</time>
      </trkpt>
      <trkpt lat="43.9804" lon="7.23476">
        <ele>1394</ele>
        <time>2010-11-06T10:47:06Z</time>
      </trkpt>
      <trkpt lat="43.98029" lon="7.2347">
        <ele>1394</ele>
        <time>2010-11-06T10:47:10Z</time>
      </trkpt>
      <trkpt lat="43.98015" lon="7.23459">
        <ele>1394</ele>
        <time>2010-11-06T10:47:16Z</time>
      </trkpt>
      <trkpt lat="43.98001" lon="7.2345">
        <ele>1396</ele>
        <time>2010-11-06T10:47:22Z</time>
      </trkpt>
      <trkpt lat="43.97994" lon="7.23444">
        <ele>1391</ele>
        <time>2010-11-06T10:47:26Z</time>
      </trkpt>
      <trkpt lat="43.9798" lon="7.23433">
        <ele>1392</ele>
        <time>2010-11-06T10:47:32Z</time>
      </trkpt>
      <trkpt lat="43.9797" lon="7.23425">
        <ele>1391</ele>
        <time>2010-11-06T10:47:37Z</time>
      </trkpt>
      <trkpt lat="43.97954" lon="7.23419">
        <ele>1390</ele>
        <time>2010-11-06T10:47:43Z</time>
      </trkpt>
      <trkpt lat="43.97938" lon="7.23416">
        <ele>1394</ele>
        <time>2010-11-06T10:47:48Z</time>
      </trkpt>
      <trkpt lat="43.97925" lon="7.23415">
        <ele>1393</ele>
        <time>2010-11-06T10:47:53Z</time>
      </trkpt>
      <trkpt lat="43.97923" lon="7.23415">
        <ele>1393</ele>
        <time>2010-11-06T10:47:54Z</time>
      </trkpt>
      <trkpt lat="43.97909" lon="7.23417">
        <ele>1393</ele>
        <time>2010-11-06T10:48:00Z</time>
      </trkpt>
      <trkpt lat="43.97896" lon="7.23422">
        <ele>1393</ele>
        <time>2010-11-06T10:48:05Z</time>
      </trkpt>
      <trkpt lat="43.9789" lon="7.23426">
        <ele>1393</ele>
        <time>2010-11-06T10:48:09Z</time>
      </trkpt>
      <trkpt lat="43.97885" lon="7.23428">
        <ele>1393</ele>
        <time>2010-11-06T10:48:11Z</time>
      </trkpt>
      <trkpt lat="43.97867" lon="7.23441">
        <ele>1394</ele>
        <time>2010-11-06T10:48:18Z</time>
      </trkpt>
      <trkpt lat="43.97852" lon="7.2345">
        <ele>1395</ele>
        <time>2010-11-06T10:48:25Z</time>
      </trkpt>
      <trkpt lat="43.97837" lon="7.23462">
        <ele>1394</ele>
        <time>2010-11-06T10:48:31Z</time>
      </trkpt>
      <trkpt lat="43.97822" lon="7.23475">
        <ele>1404</ele>
        <time>2010-11-06T10:48:37Z</time>
      </trkpt>
      <trkpt lat="43.97809" lon="7.23483">
        <ele>1405</ele>
        <time>2010-11-06T10:48:41Z</time>
      </trkpt>
      <trkpt lat="43.97791" lon="7.23494">
        <ele>1408</ele>
        <time>2010-11-06T10:48:46Z</time>
      </trkpt>
      <trkpt lat="43.97777" lon="7.23501">
        <ele>1397</ele>
        <time>2010-11-06T10:48:50Z</time>
      </trkpt>
      <trkpt lat="43.97767" lon="7.23509">
        <ele>1400</ele>
        <time>2010-11-06T10:48:54Z</time>
      </trkpt>
      <trkpt lat="43.9775" lon="7.23522">
        <ele>1418</ele>
        <time>2010-11-06T10:48:59Z</time>
      </trkpt>
      <trkpt lat="43.97739" lon="7.2353">
        <ele>1419</ele>
        <time>2010-11-06T10:49:03Z</time>
      </trkpt>
      <trkpt lat="43.97738" lon="7.23531">
        <ele>1419</ele>
        <time>2010-11-06T10:49:04Z</time>
      </trkpt>
      <trkpt lat="43.97733" lon="7.23544">
        <ele>1418</ele>
        <time>2010-11-06T10:49:10Z</time>
      </trkpt>
      <trkpt lat="43.97728" lon="7.23558">
        <ele>1417</ele>
        <time>2010-11-06T10:49:16Z</time>
      </trkpt>
      <trkpt lat="43.97723" lon="7.23571">
        <ele>1416</ele>
        <time>2010-11-06T10:49:22Z</time>
      </trkpt>
      <trkpt lat="43.97717" lon="7.23581">
        <ele>1417</ele>
        <time>2010-11-06T10:49:29Z</time>
      </trkpt>
      <trkpt lat="43.97715" lon="7.23585">
        <ele>1408</ele>
        <time>2010-11-06T10:49:32Z</time>
      </trkpt>
      <trkpt lat="43.97715" lon="7.23587">
        <ele>1407</ele>
        <time>2010-11-06T10:49:41Z</time>
      </trkpt>
      <trkpt lat="43.97715" lon="7.23586">
        <ele>1407</ele>
        <time>2010-11-06T10:49:50Z</time>
      </trkpt>
      <trkpt lat="43.97713" lon="7.23587">
        <ele>1408</ele>
        <time>2010-11-06T10:49:59Z</time>
      </trkpt>
      <trkpt lat="43.97712" lon="7.23589">
        <ele>1409</ele>
        <time>2010-11-06T10:50:08Z</time>
      </trkpt>
      <trkpt lat="43.97712" lon="7.23588">
        <ele>1408</ele>
        <time>2010-11-06T10:50:15Z</time>
      </trkpt>
      <trkpt lat="43.97714" lon="7.23587">
        <ele>1408</ele>
        <time>2010-11-06T10:50:21Z</time>
      </trkpt>
      <trkpt lat="43.97715" lon="7.23589">
        <ele>1407</ele>
        <time>2010-11-06T10:50:33Z</time>
      </trkpt>
      <trkpt lat="43.97717" lon="7.23594">
        <ele>1407</ele>
        <time>2010-11-06T10:50:44Z</time>
      </trkpt>
      <trkpt lat="43.97714" lon="7.23593">
        <ele>1408</ele>
        <time>2010-11-06T10:50:55Z</time>
      </trkpt>
      <trkpt lat="43.97715" lon="7.23591">
        <ele>1407</ele>
        <time>2010-11-06T10:51:15Z</time>
      </trkpt>
      <trkpt lat="43.97716" lon="7.23597">
        <ele>1407</ele>
        <time>2010-11-06T10:51:29Z</time>
      </trkpt>
      <trkpt lat="43.97718" lon="7.23595">
        <ele>1406</ele>
        <time>2010-11-06T10:51:48Z</time>
      </trkpt>
      <trkpt lat="43.97719" lon="7.23596">
        <ele>1406</ele>
        <time>2010-11-06T10:52:01Z</time>
      </trkpt>
      <trkpt lat="43.97721" lon="7.23598">
        <ele>1405</ele>
        <time>2010-11-06T10:52:13Z</time>
      </trkpt>
      <trkpt lat="43.97721" lon="7.23602">
        <ele>1405</ele>
        <time>2010-11-06T10:52:32Z</time>
      </trkpt>
      <trkpt lat="43.97719" lon="7.23605">
        <ele>1406</ele>
        <time>2010-11-06T10:53:02Z</time>
      </trkpt>
      <trkpt lat="43.9772" lon="7.23597">
        <ele>1406</ele>
        <time>2010-11-06T10:53:22Z</time>
      </trkpt>
      <trkpt lat="43.97718" lon="7.23603">
        <ele>1406</ele>
        <time>2010-11-06T10:53:34Z</time>
      </trkpt>
      <trkpt lat="43.97719" lon="7.23606">
        <ele>1406</ele>
        <time>2010-11-06T10:53:46Z</time>
      </trkpt>
      <trkpt lat="43.97716" lon="7.23602">
        <ele>1407</ele>
        <time>2010-11-06T10:53:56Z</time>
      </trkpt>
      <trkpt lat="43.97714" lon="7.23602">
        <ele>1407</ele>
        <time>2010-11-06T10:54:04Z</time>
      </trkpt>
      <trkpt lat="43.97713" lon="7.23603">
        <ele>1407</ele>
        <time>2010-11-06T10:54:13Z</time>
      </trkpt>
      <trkpt lat="43.97715" lon="7.23599">
        <ele>1407</ele>
        <time>2010-11-06T10:54:24Z</time>
      </trkpt>
      <trkpt lat="43.97714" lon="7.23597">
        <ele>1407</ele>
        <time>2010-11-06T10:54:31Z</time>
      </trkpt>
      <trkpt lat="43.97713" lon="7.23599">
        <ele>1408</ele>
        <time>2010-11-06T10:54:32Z</time>
      </trkpt>
      <trkpt lat="43.97707" lon="7.23612">
        <ele>1408</ele>
        <time>2010-11-06T10:54:40Z</time>
      </trkpt>
      <trkpt lat="43.977" lon="7.23622">
        <ele>1409</ele>
        <time>2010-11-06T10:54:47Z</time>
      </trkpt>
      <trkpt lat="43.97691" lon="7.23632">
        <ele>1410</ele>
        <time>2010-11-06T10:54:55Z</time>
      </trkpt>
      <trkpt lat="43.97684" lon="7.23641">
        <ele>1411</ele>
        <time>2010-11-06T10:55:01Z</time>
      </trkpt>
      <trkpt lat="43.97676" lon="7.23655">
        <ele>1413</ele>
        <time>2010-11-06T10:55:09Z</time>
      </trkpt>
      <trkpt lat="43.97675" lon="7.23657">
        <ele>1413</ele>
        <time>2010-11-06T10:55:10Z</time>
      </trkpt>
      <trkpt lat="43.97666" lon="7.23667">
        <ele>1417</ele>
        <time>2010-11-06T10:55:18Z</time>
      </trkpt>
      <trkpt lat="43.97661" lon="7.23672">
        <ele>1412</ele>
        <time>2010-11-06T10:55:23Z</time>
      </trkpt>
      <trkpt lat="43.97657" lon="7.23674">
        <ele>1410</ele>
        <time>2010-11-06T10:55:27Z</time>
      </trkpt>
      <trkpt lat="43.97646" lon="7.23674">
        <ele>1407</ele>
        <time>2010-11-06T10:55:35Z</time>
      </trkpt>
      <trkpt lat="43.97635" lon="7.23671">
        <ele>1406</ele>
        <time>2010-11-06T10:55:42Z</time>
      </trkpt>
      <trkpt lat="43.97625" lon="7.23665">
        <ele>1427</ele>
        <time>2010-11-06T10:55:48Z</time>
      </trkpt>
      <trkpt lat="43.97617" lon="7.23659">
        <ele>1427</ele>
        <time>2010-11-06T10:55:52Z</time>
      </trkpt>
      <trkpt lat="43.97605" lon="7.23654">
        <ele>1427</ele>
        <time>2010-11-06T10:55:58Z</time>
      </trkpt>
      <trkpt lat="43.97594" lon="7.23651">
        <ele>1427</ele>
        <time>2010-11-06T10:56:01Z</time>
      </trkpt>
      <trkpt lat="43.9758" lon="7.2366">
        <ele>1424</ele>
        <time>2010-11-06T10:56:06Z</time>
      </trkpt>
      <trkpt lat="43.97576" lon="7.23665">
        <ele>1424</ele>
        <time>2010-11-06T10:56:10Z</time>
      </trkpt>
      <trkpt lat="43.97563" lon="7.2367">
        <ele>1408</ele>
        <time>2010-11-06T10:56:16Z</time>
      </trkpt>
      <trkpt lat="43.97557" lon="7.2367">
        <ele>1407</ele>
        <time>2010-11-06T10:56:18Z</time>
      </trkpt>
      <trkpt lat="43.97544" lon="7.23667">
        <ele>1407</ele>
        <time>2010-11-06T10:56:24Z</time>
      </trkpt>
      <trkpt lat="43.97522" lon="7.23671">
        <ele>1410</ele>
        <time>2010-11-06T10:56:30Z</time>
      </trkpt>
      <trkpt lat="43.975" lon="7.23677">
        <ele>1414</ele>
        <time>2010-11-06T10:56:36Z</time>
      </trkpt>
      <trkpt lat="43.97484" lon="7.23683">
        <ele>1414</ele>
        <time>2010-11-06T10:56:41Z</time>
      </trkpt>
      <trkpt lat="43.97471" lon="7.23687">
        <ele>1412</ele>
        <time>2010-11-06T10:56:45Z</time>
      </trkpt>
      <trkpt lat="43.97452" lon="7.23694">
        <ele>1412</ele>
        <time>2010-11-06T10:56:50Z</time>
      </trkpt>
      <trkpt lat="43.97436" lon="7.23702">
        <ele>1412</ele>
        <time>2010-11-06T10:56:55Z</time>
      </trkpt>
      <trkpt lat="43.97419" lon="7.2371">
        <ele>1410</ele>
        <time>2010-11-06T10:56:59Z</time>
      </trkpt>
      <trkpt lat="43.97398" lon="7.23717">
        <ele>1418</ele>
        <time>2010-11-06T10:57:05Z</time>
      </trkpt>
      <trkpt lat="43.97386" lon="7.23718">
        <ele>1419</ele>
        <time>2010-11-06T10:57:10Z</time>
      </trkpt>
      <trkpt lat="43.9737" lon="7.23721">
        <ele>1420</ele>
        <time>2010-11-06T10:57:15Z</time>
      </trkpt>
      <trkpt lat="43.97361" lon="7.23721">
        <ele>1421</ele>
        <time>2010-11-06T10:57:19Z</time>
      </trkpt>
      <trkpt lat="43.97351" lon="7.23727">
        <ele>1420</ele>
        <time>2010-11-06T10:57:24Z</time>
      </trkpt>
      <trkpt lat="43.9734" lon="7.23735">
        <ele>1418</ele>
        <time>2010-11-06T10:57:31Z</time>
      </trkpt>
      <trkpt lat="43.97328" lon="7.23741">
        <ele>1426</ele>
        <time>2010-11-06T10:57:37Z</time>
      </trkpt>
      <trkpt lat="43.97318" lon="7.23744">
        <ele>1431</ele>
        <time>2010-11-06T10:57:42Z</time>
      </trkpt>
      <trkpt lat="43.97312" lon="7.2375">
        <ele>1434</ele>
        <time>2010-11-06T10:57:45Z</time>
      </trkpt>
      <trkpt lat="43.97304" lon="7.23753">
        <ele>1422</ele>
        <time>2010-11-06T10:57:49Z</time>
      </trkpt>
      <trkpt lat="43.97298" lon="7.23761">
        <ele>1423</ele>
        <time>2010-11-06T10:57:54Z</time>
      </trkpt>
      <trkpt lat="43.97296" lon="7.23781">
        <ele>1422</ele>
        <time>2010-11-06T10:57:59Z</time>
      </trkpt>
      <trkpt lat="43.9729" lon="7.23812">
        <ele>1418</ele>
        <time>2010-11-06T10:58:03Z</time>
      </trkpt>
      <trkpt lat="43.97274" lon="7.23842">
        <ele>1403</ele>
        <time>2010-11-06T10:58:07Z</time>
      </trkpt>
      <trkpt lat="43.97267" lon="7.23853">
        <ele>1402</ele>
        <time>2010-11-06T10:58:12Z</time>
      </trkpt>
      <trkpt lat="43.97267" lon="7.23853">
        <ele>1403</ele>
        <time>2010-11-06T10:58:20Z</time>
      </trkpt>
      <trkpt lat="43.97267" lon="7.23853">
        <ele>1403</ele>
        <time>2010-11-06T10:58:29Z</time>
      </trkpt>
      <trkpt lat="43.97266" lon="7.23854">
        <ele>1403</ele>
        <time>2010-11-06T10:58:37Z</time>
      </trkpt>
      <trkpt lat="43.97266" lon="7.23855">
        <ele>1402</ele>
        <time>2010-11-06T10:58:45Z</time>
      </trkpt>
      <trkpt lat="43.97265" lon="7.23855">
        <ele>1403</ele>
        <time>2010-11-06T10:58:52Z</time>
      </trkpt>
      <trkpt lat="43.97261" lon="7.23853">
        <ele>1405</ele>
        <time>2010-11-06T10:59:01Z</time>
      </trkpt>
      <trkpt lat="43.9726" lon="7.23852">
        <ele>1406</ele>
        <time>2010-11-06T10:59:08Z</time>
      </trkpt>
      <trkpt lat="43.97261" lon="7.23853">
        <ele>1405</ele>
        <time>2010-11-06T10:59:09Z</time>
      </trkpt>
      <trkpt lat="43.97264" lon="7.2386">
        <ele>1401</ele>
        <time>2010-11-06T10:59:21Z</time>
      </trkpt>
      <trkpt lat="43.97265" lon="7.23859">
        <ele>1401</ele>
        <time>2010-11-06T10:59:33Z</time>
      </trkpt>
      <trkpt lat="43.97265" lon="7.23861">
        <ele>1400</ele>
        <time>2010-11-06T10:59:39Z</time>
      </trkpt>
      <trkpt lat="43.97263" lon="7.23861">
        <ele>1400</ele>
        <time>2010-11-06T10:59:44Z</time>
      </trkpt>
      <trkpt lat="43.97266" lon="7.23858">
        <ele>1401</ele>
        <time>2010-11-06T10:59:55Z</time>
      </trkpt>
      <trkpt lat="43.97269" lon="7.23857">
        <ele>1400</ele>
        <time>2010-11-06T11:00:13Z</time>
      </trkpt>
      <trkpt lat="43.97267" lon="7.23862">
        <ele>1399</ele>
        <time>2010-11-06T11:00:46Z</time>
      </trkpt>
      <trkpt lat="43.97265" lon="7.23857">
        <ele>1402</ele>
        <time>2010-11-06T11:01:32Z</time>
      </trkpt>
      <trkpt lat="43.97265" lon="7.23855">
        <ele>1402</ele>
        <time>2010-11-06T11:01:40Z</time>
      </trkpt>
      <trkpt lat="43.97265" lon="7.23858">
        <ele>1401</ele>
        <time>2010-11-06T11:01:55Z</time>
      </trkpt>
      <trkpt lat="43.97264" lon="7.23854">
        <ele>1404</ele>
        <time>2010-11-06T11:02:15Z</time>
      </trkpt>
      <trkpt lat="43.97263" lon="7.23852">
        <ele>1404</ele>
        <time>2010-11-06T11:02:30Z</time>
      </trkpt>
      <trkpt lat="43.97263" lon="7.23852">
        <ele>1405</ele>
        <time>2010-11-06T11:02:46Z</time>
      </trkpt>
      <trkpt lat="43.97266" lon="7.23856">
        <ele>1402</ele>
        <time>2010-11-06T11:02:54Z</time>
      </trkpt>
      <trkpt lat="43.97267" lon="7.23857">
        <ele>1401</ele>
        <time>2010-11-06T11:03:03Z</time>
      </trkpt>
      <trkpt lat="43.97265" lon="7.23855">
        <ele>1403</ele>
        <time>2010-11-06T11:03:11Z</time>
      </trkpt>
      <trkpt lat="43.97263" lon="7.23853">
        <ele>1404</ele>
        <time>2010-11-06T11:03:21Z</time>
      </trkpt>
      <trkpt lat="43.97261" lon="7.23852">
        <ele>1405</ele>
        <time>2010-11-06T11:03:34Z</time>
      </trkpt>
      <trkpt lat="43.97261" lon="7.23854">
        <ele>1404</ele>
        <time>2010-11-06T11:03:40Z</time>
      </trkpt>
      <trkpt lat="43.97264" lon="7.23857">
        <ele>1402</ele>
        <time>2010-11-06T11:03:57Z</time>
      </trkpt>
      <trkpt lat="43.97265" lon="7.23861">
        <ele>1400</ele>
        <time>2010-11-06T11:04:20Z</time>
      </trkpt>
      <trkpt lat="43.97264" lon="7.2386">
        <ele>1401</ele>
        <time>2010-11-06T11:04:31Z</time>
      </trkpt>
      <trkpt lat="43.97265" lon="7.23859">
        <ele>1401</ele>
        <time>2010-11-06T11:04:41Z</time>
      </trkpt>
      <trkpt lat="43.97266" lon="7.23859">
        <ele>1400</ele>
        <time>2010-11-06T11:04:52Z</time>
      </trkpt>
      <trkpt lat="43.97267" lon="7.23865">
        <ele>1398</ele>
        <time>2010-11-06T11:05:15Z</time>
      </trkpt>
      <trkpt lat="43.97267" lon="7.23861">
        <ele>1400</ele>
        <time>2010-11-06T11:05:24Z</time>
      </trkpt>
      <trkpt lat="43.97266" lon="7.23861">
        <ele>1400</ele>
        <time>2010-11-06T11:05:36Z</time>
      </trkpt>
      <trkpt lat="43.97263" lon="7.23857">
        <ele>1402</ele>
        <time>2010-11-06T11:05:44Z</time>
      </trkpt>
      <trkpt lat="43.97265" lon="7.23862">
        <ele>1400</ele>
        <time>2010-11-06T11:05:57Z</time>
      </trkpt>
      <trkpt lat="43.97264" lon="7.23863">
        <ele>1400</ele>
        <time>2010-11-06T11:06:19Z</time>
      </trkpt>
      <trkpt lat="43.97265" lon="7.23864">
        <ele>1399</ele>
        <time>2010-11-06T11:06:31Z</time>
      </trkpt>
      <trkpt lat="43.97266" lon="7.23861">
        <ele>1400</ele>
        <time>2010-11-06T11:06:43Z</time>
      </trkpt>
      <trkpt lat="43.97267" lon="7.23863">
        <ele>1399</ele>
        <time>2010-11-06T11:07:12Z</time>
      </trkpt>
      <trkpt lat="43.97266" lon="7.2386">
        <ele>1400</ele>
        <time>2010-11-06T11:07:24Z</time>
      </trkpt>
      <trkpt lat="43.97264" lon="7.23858">
        <ele>1402</ele>
        <time>2010-11-06T11:07:49Z</time>
      </trkpt>
      <trkpt lat="43.97266" lon="7.23863">
        <ele>1399</ele>
        <time>2010-11-06T11:08:10Z</time>
      </trkpt>
      <trkpt lat="43.97265" lon="7.23862">
        <ele>1400</ele>
        <time>2010-11-06T11:08:18Z</time>
      </trkpt>
      <trkpt lat="43.97266" lon="7.23857">
        <ele>1401</ele>
        <time>2010-11-06T11:08:30Z</time>
      </trkpt>
      <trkpt lat="43.97267" lon="7.23865">
        <ele>1398</ele>
        <time>2010-11-06T11:08:39Z</time>
      </trkpt>
      <trkpt lat="43.97266" lon="7.23862">
        <ele>1399</ele>
        <time>2010-11-06T11:09:02Z</time>
      </trkpt>
      <trkpt lat="43.97266" lon="7.23859">
        <ele>1401</ele>
        <time>2010-11-06T11:09:12Z</time>
      </trkpt>
      <trkpt lat="43.97265" lon="7.23863">
        <ele>1399</ele>
        <time>2010-11-06T11:09:18Z</time>
      </trkpt>
      <trkpt lat="43.97264" lon="7.23864">
        <ele>1399</ele>
        <time>2010-11-06T11:09:25Z</time>
      </trkpt>
      <trkpt lat="43.97265" lon="7.23861">
        <ele>1400</ele>
        <time>2010-11-06T11:09:33Z</time>
      </trkpt>
      <trkpt lat="43.97263" lon="7.23861">
        <ele>1401</ele>
        <time>2010-11-06T11:09:38Z</time>
      </trkpt>
      <trkpt lat="43.97265" lon="7.23858">
        <ele>1401</ele>
        <time>2010-11-06T11:09:47Z</time>
      </trkpt>
      <trkpt lat="43.97267" lon="7.23856">
        <ele>1402</ele>
        <time>2010-11-06T11:09:57Z</time>
      </trkpt>
      <trkpt lat="43.97267" lon="7.23855">
        <ele>1402</ele>
        <time>2010-11-06T11:10:05Z</time>
      </trkpt>
      <trkpt lat="43.97268" lon="7.23855">
        <ele>1402</ele>
        <time>2010-11-06T11:10:13Z</time>
      </trkpt>
      <trkpt lat="43.9727" lon="7.23858">
        <ele>1400</ele>
        <time>2010-11-06T11:10:27Z</time>
      </trkpt>
      <trkpt lat="43.97271" lon="7.23861">
        <ele>1399</ele>
        <time>2010-11-06T11:10:39Z</time>
      </trkpt>
      <trkpt lat="43.97272" lon="7.23861">
        <ele>1399</ele>
        <time>2010-11-06T11:10:47Z</time>
      </trkpt>
      <trkpt lat="43.97273" lon="7.23861">
        <ele>1398</ele>
        <time>2010-11-06T11:10:56Z</time>
      </trkpt>
      <trkpt lat="43.97271" lon="7.2386">
        <ele>1399</ele>
        <time>2010-11-06T11:11:06Z</time>
      </trkpt>
      <trkpt lat="43.9727" lon="7.23859">
        <ele>1399</ele>
        <time>2010-11-06T11:11:14Z</time>
      </trkpt>
      <trkpt lat="43.9727" lon="7.23858">
        <ele>1400</ele>
        <time>2010-11-06T11:11:21Z</time>
      </trkpt>
      <trkpt lat="43.97269" lon="7.23857">
        <ele>1400</ele>
        <time>2010-11-06T11:11:28Z</time>
      </trkpt>
      <trkpt lat="43.97269" lon="7.23857">
        <ele>1400</ele>
        <time>2010-11-06T11:11:38Z</time>
      </trkpt>
      <trkpt lat="43.97269" lon="7.23858">
        <ele>1400</ele>
        <time>2010-11-06T11:11:50Z</time>
      </trkpt>
      <trkpt lat="43.97269" lon="7.23858">
        <ele>1400</ele>
        <time>2010-11-06T11:11:57Z</time>
      </trkpt>
      <trkpt lat="43.97268" lon="7.23858">
        <ele>1400</ele>
        <time>2010-11-06T11:11:58Z</time>
      </trkpt>
      <trkpt lat="43.97256" lon="7.23864">
        <ele>1400</ele>
        <time>2010-11-06T11:12:03Z</time>
      </trkpt>
      <trkpt lat="43.97234" lon="7.2388">
        <ele>1414</ele>
        <time>2010-11-06T11:12:09Z</time>
      </trkpt>
      <trkpt lat="43.97223" lon="7.2389">
        <ele>1413</ele>
        <time>2010-11-06T11:12:15Z</time>
      </trkpt>
      <trkpt lat="43.97208" lon="7.23901">
        <ele>1413</ele>
        <time>2010-11-06T11:12:21Z</time>
      </trkpt>
      <trkpt lat="43.97187" lon="7.23919">
        <ele>1394</ele>
        <time>2010-11-06T11:12:29Z</time>
      </trkpt>
      <trkpt lat="43.9718" lon="7.23922">
        <ele>1398</ele>
        <time>2010-11-06T11:12:32Z</time>
      </trkpt>
      <trkpt lat="43.97177" lon="7.23922">
        <ele>1400</ele>
        <time>2010-11-06T11:12:36Z</time>
      </trkpt>
      <trkpt lat="43.97164" lon="7.23928">
        <ele>1402</ele>
        <time>2010-11-06T11:12:42Z</time>
      </trkpt>
      <trkpt lat="43.97158" lon="7.23931">
        <ele>1399</ele>
        <time>2010-11-06T11:12:44Z</time>
      </trkpt>
      <trkpt lat="43.97152" lon="7.23932">
        <ele>1397</ele>
        <time>2010-11-06T11:12:47Z</time>
      </trkpt>
      <trkpt lat="43.97141" lon="7.23935">
        <ele>1393</ele>
        <time>2010-11-06T11:12:53Z</time>
      </trkpt>
      <trkpt lat="43.97131" lon="7.23936">
        <ele>1391</ele>
        <time>2010-11-06T11:12:58Z</time>
      </trkpt>
      <trkpt lat="43.97124" lon="7.23937">
        <ele>1390</ele>
        <time>2010-11-06T11:13:02Z</time>
      </trkpt>
      <trkpt lat="43.97121" lon="7.23938">
        <ele>1390</ele>
        <time>2010-11-06T11:13:07Z</time>
      </trkpt>
      <trkpt lat="43.9712" lon="7.23938">
        <ele>1389</ele>
        <time>2010-11-06T11:13:13Z</time>
      </trkpt>
      <trkpt lat="43.97119" lon="7.23938">
        <ele>1389</ele>
        <time>2010-11-06T11:13:23Z</time>
      </trkpt>
      <trkpt lat="43.97119" lon="7.23939">
        <ele>1389</ele>
        <time>2010-11-06T11:14:30Z</time>
      </trkpt>
      <trkpt lat="43.97117" lon="7.23938">
        <ele>1389</ele>
        <time>2010-11-06T11:14:35Z</time>
      </trkpt>
      <trkpt lat="43.97116" lon="7.23938">
        <ele>1389</ele>
        <time>2010-11-06T11:14:46Z</time>
      </trkpt>
      <trkpt lat="43.97114" lon="7.23938">
        <ele>1389</ele>
        <time>2010-11-06T11:14:52Z</time>
      </trkpt>
      <trkpt lat="43.97104" lon="7.23932">
        <ele>1390</ele>
        <time>2010-11-06T11:14:58Z</time>
      </trkpt>
      <trkpt lat="43.97097" lon="7.23923">
        <ele>1393</ele>
        <time>2010-11-06T11:15:01Z</time>
      </trkpt>
      <trkpt lat="43.97095" lon="7.23917">
        <ele>1394</ele>
        <time>2010-11-06T11:15:04Z</time>
      </trkpt>
      <trkpt lat="43.97093" lon="7.23911">
        <ele>1406</ele>
        <time>2010-11-06T11:15:11Z</time>
      </trkpt>
      <trkpt lat="43.97089" lon="7.23903">
        <ele>1408</ele>
        <time>2010-11-06T11:15:18Z</time>
      </trkpt>
      <trkpt lat="43.97083" lon="7.2389">
        <ele>1414</ele>
        <time>2010-11-06T11:15:24Z</time>
      </trkpt>
      <trkpt lat="43.97075" lon="7.2388">
        <ele>1398</ele>
        <time>2010-11-06T11:15:29Z</time>
      </trkpt>
      <trkpt lat="43.97074" lon="7.23877">
        <ele>1398</ele>
        <time>2010-11-06T11:15:33Z</time>
      </trkpt>
      <trkpt lat="43.97069" lon="7.2387">
        <ele>1399</ele>
        <time>2010-11-06T11:15:40Z</time>
      </trkpt>
      <trkpt lat="43.97068" lon="7.23868">
        <ele>1400</ele>
        <time>2010-11-06T11:15:45Z</time>
      </trkpt>
      <trkpt lat="43.97069" lon="7.23868">
        <ele>1400</ele>
        <time>2010-11-06T11:15:54Z</time>
      </trkpt>
      <trkpt lat="43.97068" lon="7.23867">
        <ele>1400</ele>
        <time>2010-11-06T11:15:58Z</time>
      </trkpt>
      <trkpt lat="43.97065" lon="7.23861">
        <ele>1401</ele>
        <time>2010-11-06T11:16:01Z</time>
      </trkpt>
      <trkpt lat="43.97061" lon="7.2385">
        <ele>1403</ele>
        <time>2010-11-06T11:16:05Z</time>
      </trkpt>
      <trkpt lat="43.97055" lon="7.23836">
        <ele>1403</ele>
        <time>2010-11-06T11:16:10Z</time>
      </trkpt>
      <trkpt lat="43.97054" lon="7.23835">
        <ele>1403</ele>
        <time>2010-11-06T11:16:14Z</time>
      </trkpt>
      <trkpt lat="43.97053" lon="7.23834">
        <ele>1403</ele>
        <time>2010-11-06T11:16:17Z</time>
      </trkpt>
      <trkpt lat="43.97037" lon="7.23836">
        <ele>1396</ele>
        <time>2010-11-06T11:16:23Z</time>
      </trkpt>
      <trkpt lat="43.9702" lon="7.23826">
        <ele>1409</ele>
        <time>2010-11-06T11:16:29Z</time>
      </trkpt>
      <trkpt lat="43.97007" lon="7.23817">
        <ele>1407</ele>
        <time>2010-11-06T11:16:34Z</time>
      </trkpt>
      <trkpt lat="43.97003" lon="7.23814">
        <ele>1408</ele>
        <time>2010-11-06T11:16:38Z</time>
      </trkpt>
      <trkpt lat="43.97003" lon="7.23813">
        <ele>1408</ele>
        <time>2010-11-06T11:16:45Z</time>
      </trkpt>
      <trkpt lat="43.96999" lon="7.23809">
        <ele>1395</ele>
        <time>2010-11-06T11:16:50Z</time>
      </trkpt>
      <trkpt lat="43.96992" lon="7.23801">
        <ele>1398</ele>
        <time>2010-11-06T11:16:57Z</time>
      </trkpt>
      <trkpt lat="43.96987" lon="7.23793">
        <ele>1400</ele>
        <time>2010-11-06T11:17:04Z</time>
      </trkpt>
      <trkpt lat="43.96982" lon="7.23787">
        <ele>1401</ele>
        <time>2010-11-06T11:17:10Z</time>
      </trkpt>
      <trkpt lat="43.96976" lon="7.23779">
        <ele>1403</ele>
        <time>2010-11-06T11:17:17Z</time>
      </trkpt>
      <trkpt lat="43.96967" lon="7.23774">
        <ele>1403</ele>
        <time>2010-11-06T11:17:25Z</time>
      </trkpt>
      <trkpt lat="43.96963" lon="7.23771">
        <ele>1403</ele>
        <time>2010-11-06T11:17:31Z</time>
      </trkpt>
      <trkpt lat="43.9696" lon="7.2377">
        <ele>1403</ele>
        <time>2010-11-06T11:17:33Z</time>
      </trkpt>
      <trkpt lat="43.9695" lon="7.23762">
        <ele>1403</ele>
        <time>2010-11-06T11:17:38Z</time>
      </trkpt>
      <trkpt lat="43.96942" lon="7.23756">
        <ele>1403</ele>
        <time>2010-11-06T11:17:42Z</time>
      </trkpt>
      <trkpt lat="43.9693" lon="7.23753">
        <ele>1404</ele>
        <time>2010-11-06T11:17:47Z</time>
      </trkpt>
      <trkpt lat="43.96915" lon="7.2375">
        <ele>1407</ele>
        <time>2010-11-06T11:17:51Z</time>
      </trkpt>
      <trkpt lat="43.96901" lon="7.23748">
        <ele>1417</ele>
        <time>2010-11-06T11:17:56Z</time>
      </trkpt>
      <trkpt lat="43.96888" lon="7.23749">
        <ele>1420</ele>
        <time>2010-11-06T11:18:02Z</time>
      </trkpt>
      <trkpt lat="43.96874" lon="7.23746">
        <ele>1421</ele>
        <time>2010-11-06T11:18:09Z</time>
      </trkpt>
      <trkpt lat="43.96862" lon="7.23745">
        <ele>1421</ele>
        <time>2010-11-06T11:18:16Z</time>
      </trkpt>
      <trkpt lat="43.96852" lon="7.23746">
        <ele>1420</ele>
        <time>2010-11-06T11:18:22Z</time>
      </trkpt>
      <trkpt lat="43.9684" lon="7.23746">
        <ele>1417</ele>
        <time>2010-11-06T11:18:29Z</time>
      </trkpt>
      <trkpt lat="43.96824" lon="7.23746">
        <ele>1416</ele>
        <time>2010-11-06T11:18:37Z</time>
      </trkpt>
      <trkpt lat="43.96811" lon="7.23747">
        <ele>1418</ele>
        <time>2010-11-06T11:18:44Z</time>
      </trkpt>
      <trkpt lat="43.96802" lon="7.23749">
        <ele>1419</ele>
        <time>2010-11-06T11:18:49Z</time>
      </trkpt>
      <trkpt lat="43.96788" lon="7.23752">
        <ele>1403</ele>
        <time>2010-11-06T11:18:56Z</time>
      </trkpt>
      <trkpt lat="43.96778" lon="7.2375">
        <ele>1404</ele>
        <time>2010-11-06T11:19:00Z</time>
      </trkpt>
      <trkpt lat="43.96762" lon="7.23755">
        <ele>1407</ele>
        <time>2010-11-06T11:19:07Z</time>
      </trkpt>
      <trkpt lat="43.96746" lon="7.23757">
        <ele>1410</ele>
        <time>2010-11-06T11:19:13Z</time>
      </trkpt>
      <trkpt lat="43.96732" lon="7.2376">
        <ele>1408</ele>
        <time>2010-11-06T11:19:18Z</time>
      </trkpt>
      <trkpt lat="43.96718" lon="7.23763">
        <ele>1406</ele>
        <time>2010-11-06T11:19:22Z</time>
      </trkpt>
      <trkpt lat="43.96704" lon="7.23763">
        <ele>1406</ele>
        <time>2010-11-06T11:19:26Z</time>
      </trkpt>
      <trkpt lat="43.96685" lon="7.23762">
        <ele>1407</ele>
        <time>2010-11-06T11:19:31Z</time>
      </trkpt>
      <trkpt lat="43.96673" lon="7.23764">
        <ele>1407</ele>
        <time>2010-11-06T11:19:34Z</time>
      </trkpt>
      <trkpt lat="43.96671" lon="7.23764">
        <ele>1407</ele>
        <time>2010-11-06T11:19:42Z</time>
      </trkpt>
      <trkpt lat="43.9667" lon="7.23763">
        <ele>1407</ele>
        <time>2010-11-06T11:20:01Z</time>
      </trkpt>
      <trkpt lat="43.96669" lon="7.23763">
        <ele>1407</ele>
        <time>2010-11-06T11:20:06Z</time>
      </trkpt>
      <trkpt lat="43.9667" lon="7.23765">
        <ele>1407</ele>
        <time>2010-11-06T11:20:16Z</time>
      </trkpt>
      <trkpt lat="43.96673" lon="7.23767">
        <ele>1407</ele>
        <time>2010-11-06T11:20:28Z</time>
      </trkpt>
      <trkpt lat="43.96675" lon="7.2377">
        <ele>1406</ele>
        <time>2010-11-06T11:20:42Z</time>
      </trkpt>
      <trkpt lat="43.96674" lon="7.23773">
        <ele>1406</ele>
        <time>2010-11-06T11:20:57Z</time>
      </trkpt>
      <trkpt lat="43.96676" lon="7.23773">
        <ele>1406</ele>
        <time>2010-11-06T11:21:10Z</time>
      </trkpt>
      <trkpt lat="43.96675" lon="7.23774">
        <ele>1406</ele>
        <time>2010-11-06T11:21:23Z</time>
      </trkpt>
      <trkpt lat="43.96672" lon="7.23772">
        <ele>1406</ele>
        <time>2010-11-06T11:21:38Z</time>
      </trkpt>
      <trkpt lat="43.96671" lon="7.23769">
        <ele>1407</ele>
        <time>2010-11-06T11:21:53Z</time>
      </trkpt>
      <trkpt lat="43.96671" lon="7.23769">
        <ele>1407</ele>
        <time>2010-11-06T11:21:55Z</time>
      </trkpt>
      <trkpt lat="43.96671" lon="7.23767">
        <ele>1407</ele>
        <time>2010-11-06T11:22:06Z</time>
      </trkpt>
      <trkpt lat="43.96671" lon="7.23767">
        <ele>1407</ele>
        <time>2010-11-06T11:22:15Z</time>
      </trkpt>
      <trkpt lat="43.96672" lon="7.23768">
        <ele>1407</ele>
        <time>2010-11-06T11:22:25Z</time>
      </trkpt>
      <trkpt lat="43.96672" lon="7.23768">
        <ele>1407</ele>
        <time>2010-11-06T11:22:30Z</time>
      </trkpt>
      <trkpt lat="43.96672" lon="7.23766">
        <ele>1407</ele>
        <time>2010-11-06T11:22:41Z</time>
      </trkpt>
      <trkpt lat="43.96671" lon="7.23765">
        <ele>1407</ele>
        <time>2010-11-06T11:22:51Z</time>
      </trkpt>
      <trkpt lat="43.96669" lon="7.23765">
        <ele>1407</ele>
        <time>2010-11-06T11:23:04Z</time>
      </trkpt>
      <trkpt lat="43.96669" lon="7.23763">
        <ele>1407</ele>
        <time>2010-11-06T11:23:11Z</time>
      </trkpt>
      <trkpt lat="43.9667" lon="7.23766">
        <ele>1407</ele>
        <time>2010-11-06T11:23:21Z</time>
      </trkpt>
      <trkpt lat="43.96669" lon="7.23766">
        <ele>1407</ele>
        <time>2010-11-06T11:23:29Z</time>
      </trkpt>
      <trkpt lat="43.9667" lon="7.23767">
        <ele>1407</ele>
        <time>2010-11-06T11:23:40Z</time>
      </trkpt>
      <trkpt lat="43.9667" lon="7.23768">
        <ele>1407</ele>
        <time>2010-11-06T11:23:46Z</time>
      </trkpt>
      <trkpt lat="43.9667" lon="7.23767">
        <ele>1407</ele>
        <time>2010-11-06T11:23:57Z</time>
      </trkpt>
      <trkpt lat="43.96671" lon="7.23767">
        <ele>1407</ele>
        <time>2010-11-06T11:24:07Z</time>
      </trkpt>
      <trkpt lat="43.96672" lon="7.23767">
        <ele>1407</ele>
        <time>2010-11-06T11:24:12Z</time>
      </trkpt>
      <trkpt lat="43.96672" lon="7.23766">
        <ele>1407</ele>
        <time>2010-11-06T11:24:22Z</time>
      </trkpt>
      <trkpt lat="43.96673" lon="7.23767">
        <ele>1407</ele>
        <time>2010-11-06T11:24:34Z</time>
      </trkpt>
      <trkpt lat="43.96672" lon="7.23768">
        <ele>1407</ele>
        <time>2010-11-06T11:24:48Z</time>
      </trkpt>
      <trkpt lat="43.9667" lon="7.23769">
        <ele>1407</ele>
        <time>2010-11-06T11:24:56Z</time>
      </trkpt>
      <trkpt lat="43.96662" lon="7.23776">
        <ele>1408</ele>
        <time>2010-11-06T11:25:02Z</time>
      </trkpt>
      <trkpt lat="43.96649" lon="7.23777">
        <ele>1408</ele>
        <time>2010-11-06T11:25:09Z</time>
      </trkpt>
      <trkpt lat="43.9664" lon="7.23779">
        <ele>1408</ele>
        <time>2010-11-06T11:25:14Z</time>
      </trkpt>
      <trkpt lat="43.9663" lon="7.23778">
        <ele>1409</ele>
        <time>2010-11-06T11:25:20Z</time>
      </trkpt>
      <trkpt lat="43.96616" lon="7.23778">
        <ele>1409</ele>
        <time>2010-11-06T11:25:29Z</time>
      </trkpt>
      <trkpt lat="43.96613" lon="7.23779">
        <ele>1409</ele>
        <time>2010-11-06T11:25:34Z</time>
      </trkpt>
      <trkpt lat="43.96612" lon="7.2378">
        <ele>1409</ele>
        <time>2010-11-06T11:25:42Z</time>
      </trkpt>
      <trkpt lat="43.96612" lon="7.2378">
        <ele>1409</ele>
        <time>2010-11-06T11:25:47Z</time>
      </trkpt>
      <trkpt lat="43.96609" lon="7.2378">
        <ele>1409</ele>
        <time>2010-11-06T11:25:53Z</time>
      </trkpt>
      <trkpt lat="43.96609" lon="7.2378">
        <ele>1409</ele>
        <time>2010-11-06T11:26:03Z</time>
      </trkpt>
      <trkpt lat="43.96611" lon="7.23781">
        <ele>1409</ele>
        <time>2010-11-06T11:26:09Z</time>
      </trkpt>
      <trkpt lat="43.96611" lon="7.23778">
        <ele>1409</ele>
        <time>2010-11-06T11:26:19Z</time>
      </trkpt>
      <trkpt lat="43.9661" lon="7.23776">
        <ele>1408</ele>
        <time>2010-11-06T11:26:24Z</time>
      </trkpt>
      <trkpt lat="43.96611" lon="7.23774">
        <ele>1408</ele>
        <time>2010-11-06T11:26:35Z</time>
      </trkpt>
      <trkpt lat="43.96608" lon="7.23776">
        <ele>1408</ele>
        <time>2010-11-06T11:26:47Z</time>
      </trkpt>
      <trkpt lat="43.96608" lon="7.23777">
        <ele>1409</ele>
        <time>2010-11-06T11:26:54Z</time>
      </trkpt>
      <trkpt lat="43.9661" lon="7.23776">
        <ele>1409</ele>
        <time>2010-11-06T11:26:58Z</time>
      </trkpt>
      <trkpt lat="43.96609" lon="7.23779">
        <ele>1409</ele>
        <time>2010-11-06T11:27:04Z</time>
      </trkpt>
      <trkpt lat="43.96608" lon="7.2378">
        <ele>1409</ele>
        <time>2010-11-06T11:27:09Z</time>
      </trkpt>
      <trkpt lat="43.96602" lon="7.2378">
        <ele>1409</ele>
        <time>2010-11-06T11:27:14Z</time>
      </trkpt>
      <trkpt lat="43.96595" lon="7.23782">
        <ele>1409</ele>
        <time>2010-11-06T11:27:19Z</time>
      </trkpt>
      <trkpt lat="43.9658" lon="7.23782">
        <ele>1410</ele>
        <time>2010-11-06T11:27:25Z</time>
      </trkpt>
      <trkpt lat="43.96567" lon="7.23786">
        <ele>1410</ele>
        <time>2010-11-06T11:27:31Z</time>
      </trkpt>
      <trkpt lat="43.96554" lon="7.23788">
        <ele>1411</ele>
        <time>2010-11-06T11:27:36Z</time>
      </trkpt>
      <trkpt lat="43.96542" lon="7.23794">
        <ele>1411</ele>
        <time>2010-11-06T11:27:42Z</time>
      </trkpt>
      <trkpt lat="43.96524" lon="7.23802">
        <ele>1411</ele>
        <time>2010-11-06T11:27:48Z</time>
      </trkpt>
      <trkpt lat="43.96511" lon="7.23811">
        <ele>1412</ele>
        <time>2010-11-06T11:27:53Z</time>
      </trkpt>
      <trkpt lat="43.96497" lon="7.2382">
        <ele>1416</ele>
        <time>2010-11-06T11:27:59Z</time>
      </trkpt>
      <trkpt lat="43.96486" lon="7.23829">
        <ele>1416</ele>
        <time>2010-11-06T11:28:04Z</time>
      </trkpt>
      <trkpt lat="43.9647" lon="7.23844">
        <ele>1413</ele>
        <time>2010-11-06T11:28:09Z</time>
      </trkpt>
      <trkpt lat="43.96449" lon="7.23859">
        <ele>1413</ele>
        <time>2010-11-06T11:28:14Z</time>
      </trkpt>
      <trkpt lat="43.96437" lon="7.23867">
        <ele>1413</ele>
        <time>2010-11-06T11:28:18Z</time>
      </trkpt>
      <trkpt lat="43.96434" lon="7.23869">
        <ele>1413</ele>
        <time>2010-11-06T11:28:19Z</time>
      </trkpt>
      <trkpt lat="43.96413" lon="7.23879">
        <ele>1418</ele>
        <time>2010-11-06T11:28:25Z</time>
      </trkpt>
      <trkpt lat="43.96397" lon="7.23885">
        <ele>1417</ele>
        <time>2010-11-06T11:28:30Z</time>
      </trkpt>
      <trkpt lat="43.96377" lon="7.23895">
        <ele>1418</ele>
        <time>2010-11-06T11:28:34Z</time>
      </trkpt>
      <trkpt lat="43.96347" lon="7.23912">
        <ele>1417</ele>
        <time>2010-11-06T11:28:39Z</time>
      </trkpt>
      <trkpt lat="43.96336" lon="7.23916">
        <ele>1415</ele>
        <time>2010-11-06T11:28:41Z</time>
      </trkpt>
      <trkpt lat="43.96314" lon="7.23928">
        <ele>1414</ele>
        <time>2010-11-06T11:28:45Z</time>
      </trkpt>
      <trkpt lat="43.96291" lon="7.23943">
        <ele>1415</ele>
        <time>2010-11-06T11:28:50Z</time>
      </trkpt>
      <trkpt lat="43.96272" lon="7.23962">
        <ele>1414</ele>
        <time>2010-11-06T11:28:54Z</time>
      </trkpt>
      <trkpt lat="43.96252" lon="7.23977">
        <ele>1412</ele>
        <time>2010-11-06T11:28:59Z</time>
      </trkpt>
      <trkpt lat="43.96246" lon="7.23983">
        <ele>1421</ele>
        <time>2010-11-06T11:29:02Z</time>
      </trkpt>
      <trkpt lat="43.96242" lon="7.23991">
        <ele>1418</ele>
        <time>2010-11-06T11:29:08Z</time>
      </trkpt>
      <trkpt lat="43.96241" lon="7.23994">
        <ele>1417</ele>
        <time>2010-11-06T11:29:24Z</time>
      </trkpt>
      <trkpt lat="43.9624" lon="7.23997">
        <ele>1417</ele>
        <time>2010-11-06T11:29:39Z</time>
      </trkpt>
      <trkpt lat="43.96231" lon="7.24005">
        <ele>1407</ele>
        <time>2010-11-06T11:29:43Z</time>
      </trkpt>
      <trkpt lat="43.96213" lon="7.24015">
        <ele>1408</ele>
        <time>2010-11-06T11:29:48Z</time>
      </trkpt>
      <trkpt lat="43.96206" lon="7.24018">
        <ele>1408</ele>
        <time>2010-11-06T11:29:50Z</time>
      </trkpt>
      <trkpt lat="43.96196" lon="7.24035">
        <ele>1407</ele>
        <time>2010-11-06T11:29:53Z</time>
      </trkpt>
      <trkpt lat="43.96176" lon="7.24054">
        <ele>1405</ele>
        <time>2010-11-06T11:29:57Z</time>
      </trkpt>
      <trkpt lat="43.96164" lon="7.24061">
        <ele>1414</ele>
        <time>2010-11-06T11:30:00Z</time>
      </trkpt>
      <trkpt lat="43.96157" lon="7.24064">
        <ele>1413</ele>
        <time>2010-11-06T11:30:02Z</time>
      </trkpt>
      <trkpt lat="43.96155" lon="7.24067">
        <ele>1413</ele>
        <time>2010-11-06T11:30:07Z</time>
      </trkpt>
      <trkpt lat="43.96155" lon="7.24068">
        <ele>1412</ele>
        <time>2010-11-06T11:30:14Z</time>
      </trkpt>
      <trkpt lat="43.96157" lon="7.24068">
        <ele>1412</ele>
        <time>2010-11-06T11:30:30Z</time>
      </trkpt>
      <trkpt lat="43.96157" lon="7.24069">
        <ele>1412</ele>
        <time>2010-11-06T11:30:34Z</time>
      </trkpt>
      <trkpt lat="43.96149" lon="7.24075">
        <ele>1412</ele>
        <time>2010-11-06T11:30:41Z</time>
      </trkpt>
      <trkpt lat="43.96138" lon="7.24078">
        <ele>1415</ele>
        <time>2010-11-06T11:30:47Z</time>
      </trkpt>
      <trkpt lat="43.96129" lon="7.24084">
        <ele>1403</ele>
        <time>2010-11-06T11:30:52Z</time>
      </trkpt>
      <trkpt lat="43.96117" lon="7.24092">
        <ele>1404</ele>
        <time>2010-11-06T11:30:56Z</time>
      </trkpt>
      <trkpt lat="43.96102" lon="7.24102">
        <ele>1405</ele>
        <time>2010-11-06T11:31:00Z</time>
      </trkpt>
      <trkpt lat="43.96094" lon="7.24112">
        <ele>1404</ele>
        <time>2010-11-06T11:31:04Z</time>
      </trkpt>
      <trkpt lat="43.96085" lon="7.24126">
        <ele>1402</ele>
        <time>2010-11-06T11:31:09Z</time>
      </trkpt>
      <trkpt lat="43.96071" lon="7.24146">
        <ele>1409</ele>
        <time>2010-11-06T11:31:14Z</time>
      </trkpt>
      <trkpt lat="43.96056" lon="7.24179">
        <ele>1401</ele>
        <time>2010-11-06T11:31:20Z</time>
      </trkpt>
      <trkpt lat="43.96046" lon="7.24193">
        <ele>1402</ele>
        <time>2010-11-06T11:31:23Z</time>
      </trkpt>
      <trkpt lat="43.96035" lon="7.24214">
        <ele>1401</ele>
        <time>2010-11-06T11:31:27Z</time>
      </trkpt>
      <trkpt lat="43.96016" lon="7.24229">
        <ele>1402</ele>
        <time>2010-11-06T11:31:31Z</time>
      </trkpt>
      <trkpt lat="43.96008" lon="7.24233">
        <ele>1402</ele>
        <time>2010-11-06T11:31:33Z</time>
      </trkpt>
      <trkpt lat="43.95993" lon="7.24246">
        <ele>1407</ele>
        <time>2010-11-06T11:31:38Z</time>
      </trkpt>
      <trkpt lat="43.95974" lon="7.24269">
        <ele>1402</ele>
        <time>2010-11-06T11:31:44Z</time>
      </trkpt>
      <trkpt lat="43.9596" lon="7.2428">
        <ele>1402</ele>
        <time>2010-11-06T11:31:49Z</time>
      </trkpt>
      <trkpt lat="43.95945" lon="7.24284">
        <ele>1403</ele>
        <time>2010-11-06T11:31:53Z</time>
      </trkpt>
      <trkpt lat="43.95929" lon="7.24294">
        <ele>1403</ele>
        <time>2010-11-06T11:31:58Z</time>
      </trkpt>
      <trkpt lat="43.95917" lon="7.24297">
        <ele>1403</ele>
        <time>2010-11-06T11:32:03Z</time>
      </trkpt>
      <trkpt lat="43.95905" lon="7.24299">
        <ele>1410</ele>
        <time>2010-11-06T11:32:09Z</time>
      </trkpt>
      <trkpt lat="43.95898" lon="7.243">
        <ele>1411</ele>
        <time>2010-11-06T11:32:14Z</time>
      </trkpt>
      <trkpt lat="43.95893" lon="7.24301">
        <ele>1411</ele>
        <time>2010-11-06T11:32:17Z</time>
      </trkpt>
      <trkpt lat="43.95888" lon="7.24304">
        <ele>1411</ele>
        <time>2010-11-06T11:32:21Z</time>
      </trkpt>
      <trkpt lat="43.95882" lon="7.24309">
        <ele>1411</ele>
        <time>2010-11-06T11:32:27Z</time>
      </trkpt>
      <trkpt lat="43.95877" lon="7.24311">
        <ele>1411</ele>
        <time>2010-11-06T11:32:31Z</time>
      </trkpt>
      <trkpt lat="43.95867" lon="7.24311">
        <ele>1411</ele>
        <time>2010-11-06T11:32:36Z</time>
      </trkpt>
      <trkpt lat="43.95857" lon="7.24314">
        <ele>1411</ele>
        <time>2010-11-06T11:32:41Z</time>
      </trkpt>
      <trkpt lat="43.95852" lon="7.24315">
        <ele>1411</ele>
        <time>2010-11-06T11:32:44Z</time>
      </trkpt>
      <trkpt lat="43.95841" lon="7.24318">
        <ele>1410</ele>
        <time>2010-11-06T11:32:49Z</time>
      </trkpt>
      <trkpt lat="43.95837" lon="7.24318">
        <ele>1410</ele>
        <time>2010-11-06T11:32:51Z</time>
      </trkpt>
      <trkpt lat="43.95822" lon="7.24314">
        <ele>1414</ele>
        <time>2010-11-06T11:32:56Z</time>
      </trkpt>
      <trkpt lat="43.95806" lon="7.24315">
        <ele>1416</ele>
        <time>2010-11-06T11:33:01Z</time>
      </trkpt>
      <trkpt lat="43.95791" lon="7.24312">
        <ele>1417</ele>
        <time>2010-11-06T11:33:07Z</time>
      </trkpt>
      <trkpt lat="43.95778" lon="7.24309">
        <ele>1417</ele>
        <time>2010-11-06T11:33:13Z</time>
      </trkpt>
      <trkpt lat="43.95769" lon="7.24307">
        <ele>1417</ele>
        <time>2010-11-06T11:33:17Z</time>
      </trkpt>
      <trkpt lat="43.95758" lon="7.24297">
        <ele>1418</ele>
        <time>2010-11-06T11:33:23Z</time>
      </trkpt>
      <trkpt lat="43.95754" lon="7.24296">
        <ele>1419</ele>
        <time>2010-11-06T11:33:28Z</time>
      </trkpt>
      <trkpt lat="43.9575" lon="7.24295">
        <ele>1419</ele>
        <time>2010-11-06T11:33:34Z</time>
      </trkpt>
      <trkpt lat="43.95747" lon="7.24292">
        <ele>1417</ele>
        <time>2010-11-06T11:33:41Z</time>
      </trkpt>
      <trkpt lat="43.95737" lon="7.24289">
        <ele>1418</ele>
        <time>2010-11-06T11:33:47Z</time>
      </trkpt>
      <trkpt lat="43.95721" lon="7.24286">
        <ele>1417</ele>
        <time>2010-11-06T11:33:53Z</time>
      </trkpt>
      <trkpt lat="43.95709" lon="7.24284">
        <ele>1417</ele>
        <time>2010-11-06T11:33:58Z</time>
      </trkpt>
      <trkpt lat="43.95698" lon="7.24277">
        <ele>1417</ele>
        <time>2010-11-06T11:34:03Z</time>
      </trkpt>
      <trkpt lat="43.95679" lon="7.24267">
        <ele>1419</ele>
        <time>2010-11-06T11:34:10Z</time>
      </trkpt>
      <trkpt lat="43.95666" lon="7.24259">
        <ele>1421</ele>
        <time>2010-11-06T11:34:16Z</time>
      </trkpt>
      <trkpt lat="43.95654" lon="7.2425">
        <ele>1420</ele>
        <time>2010-11-06T11:34:22Z</time>
      </trkpt>
      <trkpt lat="43.95646" lon="7.24244">
        <ele>1431</ele>
        <time>2010-11-06T11:34:27Z</time>
      </trkpt>
      <trkpt lat="43.9564" lon="7.24239">
        <ele>1433</ele>
        <time>2010-11-06T11:34:32Z</time>
      </trkpt>
      <trkpt lat="43.9563" lon="7.24231">
        <ele>1434</ele>
        <time>2010-11-06T11:34:39Z</time>
      </trkpt>
      <trkpt lat="43.9562" lon="7.24226">
        <ele>1435</ele>
        <time>2010-11-06T11:34:45Z</time>
      </trkpt>
      <trkpt lat="43.95617" lon="7.24225">
        <ele>1435</ele>
        <time>2010-11-06T11:34:47Z</time>
      </trkpt>
      <trkpt lat="43.9561" lon="7.24218">
        <ele>1436</ele>
        <time>2010-11-06T11:34:53Z</time>
      </trkpt>
      <trkpt lat="43.95608" lon="7.24213">
        <ele>1437</ele>
        <time>2010-11-06T11:34:57Z</time>
      </trkpt>
      <trkpt lat="43.95604" lon="7.24209">
        <ele>1437</ele>
        <time>2010-11-06T11:35:02Z</time>
      </trkpt>
      <trkpt lat="43.95598" lon="7.24205">
        <ele>1438</ele>
        <time>2010-11-06T11:35:11Z</time>
      </trkpt>
      <trkpt lat="43.95595" lon="7.24205">
        <ele>1438</ele>
        <time>2010-11-06T11:35:15Z</time>
      </trkpt>
      <trkpt lat="43.95583" lon="7.24203">
        <ele>1440</ele>
        <time>2010-11-06T11:35:22Z</time>
      </trkpt>
      <trkpt lat="43.95573" lon="7.242">
        <ele>1441</ele>
        <time>2010-11-06T11:35:28Z</time>
      </trkpt>
      <trkpt lat="43.95557" lon="7.24197">
        <ele>1442</ele>
        <time>2010-11-06T11:35:36Z</time>
      </trkpt>
      <trkpt lat="43.95549" lon="7.24194">
        <ele>1442</ele>
        <time>2010-11-06T11:35:40Z</time>
      </trkpt>
      <trkpt lat="43.95541" lon="7.24191">
        <ele>1443</ele>
        <time>2010-11-06T11:35:45Z</time>
      </trkpt>
      <trkpt lat="43.95538" lon="7.24191">
        <ele>1443</ele>
        <time>2010-11-06T11:35:47Z</time>
      </trkpt>
      <trkpt lat="43.95528" lon="7.24188">
        <ele>1443</ele>
        <time>2010-11-06T11:35:53Z</time>
      </trkpt>
      <trkpt lat="43.95522" lon="7.24186">
        <ele>1444</ele>
        <time>2010-11-06T11:35:59Z</time>
      </trkpt>
      <trkpt lat="43.95512" lon="7.24182">
        <ele>1445</ele>
        <time>2010-11-06T11:36:06Z</time>
      </trkpt>
      <trkpt lat="43.95503" lon="7.2418">
        <ele>1446</ele>
        <time>2010-11-06T11:36:12Z</time>
      </trkpt>
      <trkpt lat="43.95501" lon="7.24181">
        <ele>1446</ele>
        <time>2010-11-06T11:36:14Z</time>
      </trkpt>
      <trkpt lat="43.95494" lon="7.24184">
        <ele>1453</ele>
        <time>2010-11-06T11:36:20Z</time>
      </trkpt>
      <trkpt lat="43.95491" lon="7.24186">
        <ele>1454</ele>
        <time>2010-11-06T11:36:26Z</time>
      </trkpt>
      <trkpt lat="43.95488" lon="7.24188">
        <ele>1455</ele>
        <time>2010-11-06T11:36:32Z</time>
      </trkpt>
      <trkpt lat="43.95485" lon="7.24191">
        <ele>1455</ele>
        <time>2010-11-06T11:36:40Z</time>
      </trkpt>
      <trkpt lat="43.95481" lon="7.24189">
        <ele>1456</ele>
        <time>2010-11-06T11:36:48Z</time>
      </trkpt>
      <trkpt lat="43.95478" lon="7.2419">
        <ele>1456</ele>
        <time>2010-11-06T11:36:54Z</time>
      </trkpt>
      <trkpt lat="43.95477" lon="7.24193">
        <ele>1456</ele>
        <time>2010-11-06T11:36:59Z</time>
      </trkpt>
      <trkpt lat="43.95477" lon="7.24197">
        <ele>1456</ele>
        <time>2010-11-06T11:37:05Z</time>
      </trkpt>
      <trkpt lat="43.95475" lon="7.24195">
        <ele>1457</ele>
        <time>2010-11-06T11:37:09Z</time>
      </trkpt>
      <trkpt lat="43.95469" lon="7.2419">
        <ele>1458</ele>
        <time>2010-11-06T11:37:16Z</time>
      </trkpt>
      <trkpt lat="43.95465" lon="7.24188">
        <ele>1458</ele>
        <time>2010-11-06T11:37:24Z</time>
      </trkpt>
      <trkpt lat="43.95463" lon="7.24186">
        <ele>1459</ele>
        <time>2010-11-06T11:37:28Z</time>
      </trkpt>
      <trkpt lat="43.9546" lon="7.24188">
        <ele>1459</ele>
        <time>2010-11-06T11:37:34Z</time>
      </trkpt>
      <trkpt lat="43.95459" lon="7.24192">
        <ele>1459</ele>
        <time>2010-11-06T11:37:39Z</time>
      </trkpt>
      <trkpt lat="43.95457" lon="7.24195">
        <ele>1460</ele>
        <time>2010-11-06T11:37:45Z</time>
      </trkpt>
      <trkpt lat="43.95455" lon="7.24191">
        <ele>1460</ele>
        <time>2010-11-06T11:37:50Z</time>
      </trkpt>
      <trkpt lat="43.95454" lon="7.24195">
        <ele>1460</ele>
        <time>2010-11-06T11:37:54Z</time>
      </trkpt>
      <trkpt lat="43.95451" lon="7.24198">
        <ele>1461</ele>
        <time>2010-11-06T11:38:03Z</time>
      </trkpt>
      <trkpt lat="43.95447" lon="7.24201">
        <ele>1461</ele>
        <time>2010-11-06T11:38:08Z</time>
      </trkpt>
      <trkpt lat="43.95446" lon="7.24206">
        <ele>1461</ele>
        <time>2010-11-06T11:38:14Z</time>
      </trkpt>
      <trkpt lat="43.95443" lon="7.24212">
        <ele>1461</ele>
        <time>2010-11-06T11:38:21Z</time>
      </trkpt>
      <trkpt lat="43.95438" lon="7.24215">
        <ele>1462</ele>
        <time>2010-11-06T11:38:28Z</time>
      </trkpt>
      <trkpt lat="43.95433" lon="7.24218">
        <ele>1463</ele>
        <time>2010-11-06T11:38:33Z</time>
      </trkpt>
      <trkpt lat="43.9543" lon="7.2422">
        <ele>1463</ele>
        <time>2010-11-06T11:38:41Z</time>
      </trkpt>
      <trkpt lat="43.95426" lon="7.24222">
        <ele>1464</ele>
        <time>2010-11-06T11:38:47Z</time>
      </trkpt>
      <trkpt lat="43.95422" lon="7.24226">
        <ele>1465</ele>
        <time>2010-11-06T11:38:55Z</time>
      </trkpt>
      <trkpt lat="43.95419" lon="7.24228">
        <ele>1465</ele>
        <time>2010-11-06T11:39:01Z</time>
      </trkpt>
      <trkpt lat="43.95419" lon="7.24233">
        <ele>1466</ele>
        <time>2010-11-06T11:39:09Z</time>
      </trkpt>
      <trkpt lat="43.95414" lon="7.24234">
        <ele>1477</ele>
        <time>2010-11-06T11:39:16Z</time>
      </trkpt>
      <trkpt lat="43.95411" lon="7.24237">
        <ele>1477</ele>
        <time>2010-11-06T11:39:22Z</time>
      </trkpt>
      <trkpt lat="43.9541" lon="7.2424">
        <ele>1476</ele>
        <time>2010-11-06T11:39:30Z</time>
      </trkpt>
      <trkpt lat="43.95408" lon="7.24246">
        <ele>1476</ele>
        <time>2010-11-06T11:39:40Z</time>
      </trkpt>
      <trkpt lat="43.95405" lon="7.2425">
        <ele>1476</ele>
        <time>2010-11-06T11:39:47Z</time>
      </trkpt>
      <trkpt lat="43.95402" lon="7.24255">
        <ele>1468</ele>
        <time>2010-11-06T11:39:55Z</time>
      </trkpt>
      <trkpt lat="43.954" lon="7.24258">
        <ele>1467</ele>
        <time>2010-11-06T11:40:03Z</time>
      </trkpt>
      <trkpt lat="43.954" lon="7.2426">
        <ele>1467</ele>
        <time>2010-11-06T11:40:12Z</time>
      </trkpt>
      <trkpt lat="43.95401" lon="7.2426">
        <ele>1467</ele>
        <time>2010-11-06T11:40:19Z</time>
      </trkpt>
      <trkpt lat="43.954" lon="7.24262">
        <ele>1467</ele>
        <time>2010-11-06T11:41:24Z</time>
      </trkpt>
      <trkpt lat="43.95399" lon="7.24264">
        <ele>1466</ele>
        <time>2010-11-06T11:41:30Z</time>
      </trkpt>
      <trkpt lat="43.95397" lon="7.24264">
        <ele>1466</ele>
        <time>2010-11-06T11:41:34Z</time>
      </trkpt>
      <trkpt lat="43.95385" lon="7.24262">
        <ele>1467</ele>
        <time>2010-11-06T11:41:40Z</time>
      </trkpt>
      <trkpt lat="43.95369" lon="7.24263">
        <ele>1468</ele>
        <time>2010-11-06T11:41:46Z</time>
      </trkpt>
      <trkpt lat="43.95354" lon="7.24263">
        <ele>1472</ele>
        <time>2010-11-06T11:41:51Z</time>
      </trkpt>
      <trkpt lat="43.95335" lon="7.24266">
        <ele>1476</ele>
        <time>2010-11-06T11:41:56Z</time>
      </trkpt>
      <trkpt lat="43.95327" lon="7.24267">
        <ele>1480</ele>
        <time>2010-11-06T11:42:02Z</time>
      </trkpt>
      <trkpt lat="43.95323" lon="7.24268">
        <ele>1479</ele>
        <time>2010-11-06T11:42:08Z</time>
      </trkpt>
      <trkpt lat="43.95319" lon="7.2427">
        <ele>1479</ele>
        <time>2010-11-06T11:42:12Z</time>
      </trkpt>
      <trkpt lat="43.95312" lon="7.24267">
        <ele>1479</ele>
        <time>2010-11-06T11:42:19Z</time>
      </trkpt>
      <trkpt lat="43.95306" lon="7.24266">
        <ele>1479</ele>
        <time>2010-11-06T11:42:26Z</time>
      </trkpt>
      <trkpt lat="43.953" lon="7.24267">
        <ele>1479</ele>
        <time>2010-11-06T11:42:32Z</time>
      </trkpt>
      <trkpt lat="43.95297" lon="7.24268">
        <ele>1479</ele>
        <time>2010-11-06T11:42:35Z</time>
      </trkpt>
      <trkpt lat="43.95294" lon="7.24276">
        <ele>1477</ele>
        <time>2010-11-06T11:42:39Z</time>
      </trkpt>
      <trkpt lat="43.95289" lon="7.2428">
        <ele>1477</ele>
        <time>2010-11-06T11:42:44Z</time>
      </trkpt>
      <trkpt lat="43.95287" lon="7.24277">
        <ele>1477</ele>
        <time>2010-11-06T11:42:50Z</time>
      </trkpt>
      <trkpt lat="43.95282" lon="7.24278">
        <ele>1478</ele>
        <time>2010-11-06T11:42:57Z</time>
      </trkpt>
      <trkpt lat="43.95278" lon="7.24278">
        <ele>1479</ele>
        <time>2010-11-06T11:43:02Z</time>
      </trkpt>
      <trkpt lat="43.95272" lon="7.24277">
        <ele>1480</ele>
        <time>2010-11-06T11:43:09Z</time>
      </trkpt>
      <trkpt lat="43.95268" lon="7.24275">
        <ele>1481</ele>
        <time>2010-11-06T11:43:16Z</time>
      </trkpt>
      <trkpt lat="43.95264" lon="7.24275">
        <ele>1482</ele>
        <time>2010-11-06T11:43:21Z</time>
      </trkpt>
      <trkpt lat="43.95262" lon="7.24277">
        <ele>1481</ele>
        <time>2010-11-06T11:43:26Z</time>
      </trkpt>
      <trkpt lat="43.95261" lon="7.24277">
        <ele>1481</ele>
        <time>2010-11-06T11:43:29Z</time>
      </trkpt>
      <trkpt lat="43.95255" lon="7.2428">
        <ele>1481</ele>
        <time>2010-11-06T11:43:33Z</time>
      </trkpt>
      <trkpt lat="43.95241" lon="7.24293">
        <ele>1485</ele>
        <time>2010-11-06T11:43:38Z</time>
      </trkpt>
      <trkpt lat="43.95229" lon="7.24294">
        <ele>1486</ele>
        <time>2010-11-06T11:43:43Z</time>
      </trkpt>
      <trkpt lat="43.95216" lon="7.24297">
        <ele>1486</ele>
        <time>2010-11-06T11:43:47Z</time>
      </trkpt>
      <trkpt lat="43.95213" lon="7.24297">
        <ele>1487</ele>
        <time>2010-11-06T11:43:51Z</time>
      </trkpt>
      <trkpt lat="43.95213" lon="7.24297">
        <ele>1486</ele>
        <time>2010-11-06T11:43:59Z</time>
      </trkpt>
      <trkpt lat="43.9521" lon="7.24298">
        <ele>1487</ele>
        <time>2010-11-06T11:44:05Z</time>
      </trkpt>
      <trkpt lat="43.95208" lon="7.24301">
        <ele>1487</ele>
        <time>2010-11-06T11:44:11Z</time>
      </trkpt>
      <trkpt lat="43.95205" lon="7.24301">
        <ele>1487</ele>
        <time>2010-11-06T11:44:16Z</time>
      </trkpt>
      <trkpt lat="43.95203" lon="7.24295">
        <ele>1488</ele>
        <time>2010-11-06T11:44:23Z</time>
      </trkpt>
      <trkpt lat="43.95199" lon="7.2429">
        <ele>1489</ele>
        <time>2010-11-06T11:44:30Z</time>
      </trkpt>
      <trkpt lat="43.95197" lon="7.2429">
        <ele>1489</ele>
        <time>2010-11-06T11:44:36Z</time>
      </trkpt>
      <trkpt lat="43.95198" lon="7.2429">
        <ele>1489</ele>
        <time>2010-11-06T11:44:41Z</time>
      </trkpt>
      <trkpt lat="43.95194" lon="7.24289">
        <ele>1489</ele>
        <time>2010-11-06T11:44:49Z</time>
      </trkpt>
      <trkpt lat="43.95195" lon="7.24288">
        <ele>1489</ele>
        <time>2010-11-06T11:44:52Z</time>
      </trkpt>
      <trkpt lat="43.95204" lon="7.24293">
        <ele>1488</ele>
        <time>2010-11-06T11:44:59Z</time>
      </trkpt>
      <trkpt lat="43.95204" lon="7.24295">
        <ele>1488</ele>
        <time>2010-11-06T11:45:04Z</time>
      </trkpt>
      <trkpt lat="43.95204" lon="7.24298">
        <ele>1487</ele>
        <time>2010-11-06T11:45:11Z</time>
      </trkpt>
      <trkpt lat="43.95203" lon="7.24297">
        <ele>1488</ele>
        <time>2010-11-06T11:45:12Z</time>
      </trkpt>
      <trkpt lat="43.95205" lon="7.24297">
        <ele>1487</ele>
        <time>2010-11-06T11:45:19Z</time>
      </trkpt>
      <trkpt lat="43.95212" lon="7.24303">
        <ele>1486</ele>
        <time>2010-11-06T11:45:25Z</time>
      </trkpt>
      <trkpt lat="43.9521" lon="7.24304">
        <ele>1486</ele>
        <time>2010-11-06T11:45:27Z</time>
      </trkpt>
      <trkpt lat="43.95202" lon="7.24308">
        <ele>1487</ele>
        <time>2010-11-06T11:45:31Z</time>
      </trkpt>
      <trkpt lat="43.95194" lon="7.2431">
        <ele>1488</ele>
        <time>2010-11-06T11:45:38Z</time>
      </trkpt>
      <trkpt lat="43.95192" lon="7.24309">
        <ele>1488</ele>
        <time>2010-11-06T11:45:39Z</time>
      </trkpt>
      <trkpt lat="43.95185" lon="7.24309">
        <ele>1489</ele>
        <time>2010-11-06T11:45:46Z</time>
      </trkpt>
      <trkpt lat="43.95173" lon="7.24312">
        <ele>1490</ele>
        <time>2010-11-06T11:46:02Z</time>
      </trkpt>
      <trkpt lat="43.95171" lon="7.24316">
        <ele>1490</ele>
        <time>2010-11-06T11:46:10Z</time>
      </trkpt>
      <trkpt lat="43.95165" lon="7.24317">
        <ele>1496</ele>
        <time>2010-11-06T11:46:16Z</time>
      </trkpt>
      <trkpt lat="43.95167" lon="7.2432">
        <ele>1491</ele>
        <time>2010-11-06T11:46:20Z</time>
      </trkpt>
      <trkpt lat="43.9517" lon="7.24325">
        <ele>1491</ele>
        <time>2010-11-06T11:46:27Z</time>
      </trkpt>
      <trkpt lat="43.9516" lon="7.24319">
        <ele>1496</ele>
        <time>2010-11-06T11:46:34Z</time>
      </trkpt>
      <trkpt lat="43.95155" lon="7.24315">
        <ele>1497</ele>
        <time>2010-11-06T11:46:39Z</time>
      </trkpt>
      <trkpt lat="43.95155" lon="7.24317">
        <ele>1497</ele>
        <time>2010-11-06T11:46:43Z</time>
      </trkpt>
      <trkpt lat="43.95166" lon="7.2432">
        <ele>1496</ele>
        <time>2010-11-06T11:46:49Z</time>
      </trkpt>
      <trkpt lat="43.95168" lon="7.24322">
        <ele>1491</ele>
        <time>2010-11-06T11:46:53Z</time>
      </trkpt>
      <trkpt lat="43.95171" lon="7.24324">
        <ele>1491</ele>
        <time>2010-11-06T11:46:58Z</time>
      </trkpt>
      <trkpt lat="43.9517" lon="7.24326">
        <ele>1491</ele>
        <time>2010-11-06T11:47:02Z</time>
      </trkpt>
      <trkpt lat="43.95181" lon="7.24329">
        <ele>1490</ele>
        <time>2010-11-06T11:47:06Z</time>
      </trkpt>
      <trkpt lat="43.95202" lon="7.24336">
        <ele>1463</ele>
        <time>2010-11-06T11:47:14Z</time>
      </trkpt>
      <trkpt lat="43.95193" lon="7.24336">
        <ele>1468</ele>
        <time>2010-11-06T11:47:15Z</time>
      </trkpt>
      <trkpt lat="43.95196" lon="7.24338">
        <ele>1466</ele>
        <time>2010-11-06T11:47:21Z</time>
      </trkpt>
      <trkpt lat="43.952" lon="7.24341">
        <ele>1463</ele>
        <time>2010-11-06T11:47:26Z</time>
      </trkpt>
      <trkpt lat="43.95198" lon="7.24345">
        <ele>1463</ele>
        <time>2010-11-06T11:47:31Z</time>
      </trkpt>
      <trkpt lat="43.95197" lon="7.24348">
        <ele>1463</ele>
        <time>2010-11-06T11:47:33Z</time>
      </trkpt>
      <trkpt lat="43.9518" lon="7.2435">
        <ele>1470</ele>
        <time>2010-11-06T11:47:37Z</time>
      </trkpt>
      <trkpt lat="43.95164" lon="7.24352">
        <ele>1490</ele>
        <time>2010-11-06T11:47:42Z</time>
      </trkpt>
      <trkpt lat="43.95155" lon="7.24357">
        <ele>1490</ele>
        <time>2010-11-06T11:47:50Z</time>
      </trkpt>
      <trkpt lat="43.95153" lon="7.24357">
        <ele>1490</ele>
        <time>2010-11-06T11:47:52Z</time>
      </trkpt>
      <trkpt lat="43.95146" lon="7.24358">
        <ele>1490</ele>
        <time>2010-11-06T11:47:58Z</time>
      </trkpt>
      <trkpt lat="43.95137" lon="7.2436">
        <ele>1491</ele>
        <time>2010-11-06T11:48:06Z</time>
      </trkpt>
      <trkpt lat="43.9513" lon="7.24362">
        <ele>1493</ele>
        <time>2010-11-06T11:48:13Z</time>
      </trkpt>
      <trkpt lat="43.95128" lon="7.24363">
        <ele>1493</ele>
        <time>2010-11-06T11:48:15Z</time>
      </trkpt>
      <trkpt lat="43.95122" lon="7.24365">
        <ele>1494</ele>
        <time>2010-11-06T11:48:22Z</time>
      </trkpt>
      <trkpt lat="43.9512" lon="7.24366">
        <ele>1494</ele>
        <time>2010-11-06T11:48:27Z</time>
      </trkpt>
      <trkpt lat="43.95118" lon="7.24364">
        <ele>1495</ele>
        <time>2010-11-06T11:48:33Z</time>
      </trkpt>
      <trkpt lat="43.95115" lon="7.24363">
        <ele>1496</ele>
        <time>2010-11-06T11:48:39Z</time>
      </trkpt>
      <trkpt lat="43.9511" lon="7.2436">
        <ele>1498</ele>
        <time>2010-11-06T11:48:45Z</time>
      </trkpt>
      <trkpt lat="43.95106" lon="7.2436">
        <ele>1499</ele>
        <time>2010-11-06T11:48:49Z</time>
      </trkpt>
      <trkpt lat="43.95101" lon="7.24365">
        <ele>1499</ele>
        <time>2010-11-06T11:48:54Z</time>
      </trkpt>
      <trkpt lat="43.95098" lon="7.24367">
        <ele>1499</ele>
        <time>2010-11-06T11:48:57Z</time>
      </trkpt>
      <trkpt lat="43.95092" lon="7.24367">
        <ele>1500</ele>
        <time>2010-11-06T11:49:05Z</time>
      </trkpt>
      <trkpt lat="43.95085" lon="7.24365">
        <ele>1502</ele>
        <time>2010-11-06T11:49:13Z</time>
      </trkpt>
      <trkpt lat="43.95078" lon="7.24363">
        <ele>1521</ele>
        <time>2010-11-06T11:49:20Z</time>
      </trkpt>
      <trkpt lat="43.95079" lon="7.2436">
        <ele>1521</ele>
        <time>2010-11-06T11:49:26Z</time>
      </trkpt>
      <trkpt lat="43.95079" lon="7.2436">
        <ele>1521</ele>
        <time>2010-11-06T11:49:32Z</time>
      </trkpt>
      <trkpt lat="43.95079" lon="7.24359">
        <ele>1521</ele>
        <time>2010-11-06T11:49:39Z</time>
      </trkpt>
      <trkpt lat="43.95079" lon="7.24359">
        <ele>1521</ele>
        <time>2010-11-06T11:49:49Z</time>
      </trkpt>
      <trkpt lat="43.95077" lon="7.24359">
        <ele>1522</ele>
        <time>2010-11-06T11:50:04Z</time>
      </trkpt>
      <trkpt lat="43.95077" lon="7.24357">
        <ele>1522</ele>
        <time>2010-11-06T11:50:10Z</time>
      </trkpt>
      <trkpt lat="43.95076" lon="7.24355">
        <ele>1522</ele>
        <time>2010-11-06T11:50:17Z</time>
      </trkpt>
      <trkpt lat="43.95075" lon="7.24356">
        <ele>1522</ele>
        <time>2010-11-06T11:50:24Z</time>
      </trkpt>
      <trkpt lat="43.95073" lon="7.24357">
        <ele>1522</ele>
        <time>2010-11-06T11:50:29Z</time>
      </trkpt>
      <trkpt lat="43.95069" lon="7.24357">
        <ele>1522</ele>
        <time>2010-11-06T11:50:38Z</time>
      </trkpt>
      <trkpt lat="43.95067" lon="7.24357">
        <ele>1522</ele>
        <time>2010-11-06T11:50:43Z</time>
      </trkpt>
      <trkpt lat="43.95064" lon="7.24356">
        <ele>1522</ele>
        <time>2010-11-06T11:50:49Z</time>
      </trkpt>
      <trkpt lat="43.95062" lon="7.24358">
        <ele>1522</ele>
        <time>2010-11-06T11:50:54Z</time>
      </trkpt>
      <trkpt lat="43.9506" lon="7.2436">
        <ele>1522</ele>
        <time>2010-11-06T11:51:00Z</time>
      </trkpt>
      <trkpt lat="43.95058" lon="7.24359">
        <ele>1522</ele>
        <time>2010-11-06T11:51:03Z</time>
      </trkpt>
      <trkpt lat="43.95058" lon="7.24364">
        <ele>1522</ele>
        <time>2010-11-06T11:51:12Z</time>
      </trkpt>
      <trkpt lat="43.95055" lon="7.24364">
        <ele>1522</ele>
        <time>2010-11-06T11:51:16Z</time>
      </trkpt>
      <trkpt lat="43.9505" lon="7.24366">
        <ele>1522</ele>
        <time>2010-11-06T11:51:23Z</time>
      </trkpt>
      <trkpt lat="43.95045" lon="7.24367">
        <ele>1523</ele>
        <time>2010-11-06T11:51:29Z</time>
      </trkpt>
      <trkpt lat="43.95039" lon="7.24368">
        <ele>1523</ele>
        <time>2010-11-06T11:51:35Z</time>
      </trkpt>
      <trkpt lat="43.95036" lon="7.24374">
        <ele>1523</ele>
        <time>2010-11-06T11:51:41Z</time>
      </trkpt>
      <trkpt lat="43.95032" lon="7.24378">
        <ele>1524</ele>
        <time>2010-11-06T11:51:47Z</time>
      </trkpt>
      <trkpt lat="43.95031" lon="7.24382">
        <ele>1524</ele>
        <time>2010-11-06T11:51:51Z</time>
      </trkpt>
      <trkpt lat="43.9503" lon="7.24386">
        <ele>1525</ele>
        <time>2010-11-06T11:51:56Z</time>
      </trkpt>
      <trkpt lat="43.95026" lon="7.2439">
        <ele>1526</ele>
        <time>2010-11-06T11:52:02Z</time>
      </trkpt>
      <trkpt lat="43.95021" lon="7.24393">
        <ele>1527</ele>
        <time>2010-11-06T11:52:08Z</time>
      </trkpt>
      <trkpt lat="43.95016" lon="7.24395">
        <ele>1528</ele>
        <time>2010-11-06T11:52:14Z</time>
      </trkpt>
      <trkpt lat="43.95013" lon="7.24394">
        <ele>1529</ele>
        <time>2010-11-06T11:52:19Z</time>
      </trkpt>
      <trkpt lat="43.95009" lon="7.24393">
        <ele>1529</ele>
        <time>2010-11-06T11:52:23Z</time>
      </trkpt>
      <trkpt lat="43.95005" lon="7.24394">
        <ele>1530</ele>
        <time>2010-11-06T11:52:28Z</time>
      </trkpt>
      <trkpt lat="43.95002" lon="7.24395">
        <ele>1531</ele>
        <time>2010-11-06T11:52:31Z</time>
      </trkpt>
      <trkpt lat="43.94999" lon="7.24394">
        <ele>1531</ele>
        <time>2010-11-06T11:52:35Z</time>
      </trkpt>
      <trkpt lat="43.94996" lon="7.24395">
        <ele>1531</ele>
        <time>2010-11-06T11:52:41Z</time>
      </trkpt>
      <trkpt lat="43.94994" lon="7.24397">
        <ele>1532</ele>
        <time>2010-11-06T11:52:47Z</time>
      </trkpt>
      <trkpt lat="43.94993" lon="7.24399">
        <ele>1532</ele>
        <time>2010-11-06T11:52:51Z</time>
      </trkpt>
      <trkpt lat="43.94988" lon="7.244">
        <ele>1532</ele>
        <time>2010-11-06T11:52:58Z</time>
      </trkpt>
      <trkpt lat="43.94984" lon="7.24401">
        <ele>1531</ele>
        <time>2010-11-06T11:53:03Z</time>
      </trkpt>
      <trkpt lat="43.9498" lon="7.24402">
        <ele>1530</ele>
        <time>2010-11-06T11:53:08Z</time>
      </trkpt>
      <trkpt lat="43.94976" lon="7.24402">
        <ele>1529</ele>
        <time>2010-11-06T11:53:12Z</time>
      </trkpt>
      <trkpt lat="43.9498" lon="7.24398">
        <ele>1529</ele>
        <time>2010-11-06T11:53:20Z</time>
      </trkpt>
      <trkpt lat="43.94979" lon="7.244">
        <ele>1530</ele>
        <time>2010-11-06T11:53:25Z</time>
      </trkpt>
      <trkpt lat="43.94978" lon="7.24403">
        <ele>1530</ele>
        <time>2010-11-06T11:53:33Z</time>
      </trkpt>
      <trkpt lat="43.94977" lon="7.24408">
        <ele>1530</ele>
        <time>2010-11-06T11:53:44Z</time>
      </trkpt>
      <trkpt lat="43.94974" lon="7.24411">
        <ele>1530</ele>
        <time>2010-11-06T11:53:51Z</time>
      </trkpt>
      <trkpt lat="43.9497" lon="7.24413">
        <ele>1529</ele>
        <time>2010-11-06T11:53:57Z</time>
      </trkpt>
      <trkpt lat="43.94967" lon="7.24416">
        <ele>1529</ele>
        <time>2010-11-06T11:54:03Z</time>
      </trkpt>
      <trkpt lat="43.94966" lon="7.2442">
        <ele>1539</ele>
        <time>2010-11-06T11:54:09Z</time>
      </trkpt>
      <trkpt lat="43.94966" lon="7.24422">
        <ele>1539</ele>
        <time>2010-11-06T11:54:15Z</time>
      </trkpt>
      <trkpt lat="43.94966" lon="7.24424">
        <ele>1539</ele>
        <time>2010-11-06T11:54:20Z</time>
      </trkpt>
      <trkpt lat="43.94966" lon="7.24425">
        <ele>1539</ele>
        <time>2010-11-06T11:54:24Z</time>
      </trkpt>
      <trkpt lat="43.94968" lon="7.24427">
        <ele>1539</ele>
        <time>2010-11-06T11:54:30Z</time>
      </trkpt>
      <trkpt lat="43.94966" lon="7.24429">
        <ele>1539</ele>
        <time>2010-11-06T11:54:34Z</time>
      </trkpt>
      <trkpt lat="43.94965" lon="7.24433">
        <ele>1539</ele>
        <time>2010-11-06T11:54:40Z</time>
      </trkpt>
      <trkpt lat="43.94961" lon="7.24431">
        <ele>1538</ele>
        <time>2010-11-06T11:54:53Z</time>
      </trkpt>
      <trkpt lat="43.94958" lon="7.24429">
        <ele>1538</ele>
        <time>2010-11-06T11:55:01Z</time>
      </trkpt>
      <trkpt lat="43.94958" lon="7.24432">
        <ele>1538</ele>
        <time>2010-11-06T11:55:06Z</time>
      </trkpt>
      <trkpt lat="43.94958" lon="7.24433">
        <ele>1538</ele>
        <time>2010-11-06T11:55:14Z</time>
      </trkpt>
      <trkpt lat="43.94958" lon="7.24435">
        <ele>1539</ele>
        <time>2010-11-06T11:55:17Z</time>
      </trkpt>
      <trkpt lat="43.94961" lon="7.24435">
        <ele>1539</ele>
        <time>2010-11-06T11:55:22Z</time>
      </trkpt>
      <trkpt lat="43.94964" lon="7.24439">
        <ele>1539</ele>
        <time>2010-11-06T11:55:29Z</time>
      </trkpt>
      <trkpt lat="43.94962" lon="7.24441">
        <ele>1539</ele>
        <time>2010-11-06T11:55:34Z</time>
      </trkpt>
      <trkpt lat="43.94959" lon="7.24443">
        <ele>1539</ele>
        <time>2010-11-06T11:55:39Z</time>
      </trkpt>
      <trkpt lat="43.94958" lon="7.24445">
        <ele>1539</ele>
        <time>2010-11-06T11:55:44Z</time>
      </trkpt>
      <trkpt lat="43.94956" lon="7.24446">
        <ele>1539</ele>
        <time>2010-11-06T11:55:49Z</time>
      </trkpt>
      <trkpt lat="43.94954" lon="7.24447">
        <ele>1539</ele>
        <time>2010-11-06T11:55:54Z</time>
      </trkpt>
      <trkpt lat="43.94952" lon="7.2445">
        <ele>1540</ele>
        <time>2010-11-06T11:55:59Z</time>
      </trkpt>
      <trkpt lat="43.94948" lon="7.24453">
        <ele>1540</ele>
        <time>2010-11-06T11:56:04Z</time>
      </trkpt>
      <trkpt lat="43.94945" lon="7.24456">
        <ele>1541</ele>
        <time>2010-11-06T11:56:10Z</time>
      </trkpt>
      <trkpt lat="43.94942" lon="7.24458">
        <ele>1541</ele>
        <time>2010-11-06T11:56:15Z</time>
      </trkpt>
      <trkpt lat="43.9494" lon="7.2446">
        <ele>1542</ele>
        <time>2010-11-06T11:56:19Z</time>
      </trkpt>
      <trkpt lat="43.94939" lon="7.24464">
        <ele>1543</ele>
        <time>2010-11-06T11:56:26Z</time>
      </trkpt>
      <trkpt lat="43.94941" lon="7.24467">
        <ele>1543</ele>
        <time>2010-11-06T11:56:34Z</time>
      </trkpt>
      <trkpt lat="43.94941" lon="7.24472">
        <ele>1544</ele>
        <time>2010-11-06T11:56:40Z</time>
      </trkpt>
      <trkpt lat="43.94942" lon="7.24476">
        <ele>1545</ele>
        <time>2010-11-06T11:56:46Z</time>
      </trkpt>
      <trkpt lat="43.94943" lon="7.24481">
        <ele>1545</ele>
        <time>2010-11-06T11:56:52Z</time>
      </trkpt>
      <trkpt lat="43.94942" lon="7.24485">
        <ele>1546</ele>
        <time>2010-11-06T11:56:57Z</time>
      </trkpt>
      <trkpt lat="43.94942" lon="7.24489">
        <ele>1547</ele>
        <time>2010-11-06T11:57:05Z</time>
      </trkpt>
      <trkpt lat="43.94942" lon="7.24489">
        <ele>1547</ele>
        <time>2010-11-06T11:57:14Z</time>
      </trkpt>
      <trkpt lat="43.94941" lon="7.24492">
        <ele>1548</ele>
        <time>2010-11-06T11:57:19Z</time>
      </trkpt>
      <trkpt lat="43.94941" lon="7.24492">
        <ele>1548</ele>
        <time>2010-11-06T11:57:26Z</time>
      </trkpt>
      <trkpt lat="43.94941" lon="7.24491">
        <ele>1548</ele>
        <time>2010-11-06T11:57:42Z</time>
      </trkpt>
      <trkpt lat="43.94941" lon="7.24491">
        <ele>1548</ele>
        <time>2010-11-06T11:57:54Z</time>
      </trkpt>
      <trkpt lat="43.94941" lon="7.24491">
        <ele>1548</ele>
        <time>2010-11-06T11:58:27Z</time>
      </trkpt>
      <trkpt lat="43.94939" lon="7.2449">
        <ele>1548</ele>
        <time>2010-11-06T11:58:37Z</time>
      </trkpt>
      <trkpt lat="43.94939" lon="7.24491">
        <ele>1548</ele>
        <time>2010-11-06T11:58:43Z</time>
      </trkpt>
      <trkpt lat="43.94939" lon="7.24491">
        <ele>1548</ele>
        <time>2010-11-06T11:58:51Z</time>
      </trkpt>
      <trkpt lat="43.9494" lon="7.24491">
        <ele>1548</ele>
        <time>2010-11-06T11:59:01Z</time>
      </trkpt>
      <trkpt lat="43.9494" lon="7.2449">
        <ele>1548</ele>
        <time>2010-11-06T11:59:10Z</time>
      </trkpt>
      <trkpt lat="43.9494" lon="7.2449">
        <ele>1548</ele>
        <time>2010-11-06T11:59:18Z</time>
      </trkpt>
      <trkpt lat="43.94939" lon="7.24491">
        <ele>1548</ele>
        <time>2010-11-06T11:59:30Z</time>
      </trkpt>
      <trkpt lat="43.9494" lon="7.24491">
        <ele>1548</ele>
        <time>2010-11-06T11:59:44Z</time>
      </trkpt>
      <trkpt lat="43.9494" lon="7.24491">
        <ele>1548</ele>
        <time>2010-11-06T11:59:50Z</time>
      </trkpt>
      <trkpt lat="43.94941" lon="7.2449">
        <ele>1548</ele>
        <time>2010-11-06T12:00:00Z</time>
      </trkpt>
      <trkpt lat="43.94941" lon="7.2449">
        <ele>1548</ele>
        <time>2010-11-06T12:00:11Z</time>
      </trkpt>
      <trkpt lat="43.9494" lon="7.24491">
        <ele>1548</ele>
        <time>2010-11-06T12:00:36Z</time>
      </trkpt>
      <trkpt lat="43.94939" lon="7.24491">
        <ele>1548</ele>
        <time>2010-11-06T12:00:49Z</time>
      </trkpt>
      <trkpt lat="43.94939" lon="7.24492">
        <ele>1549</ele>
        <time>2010-11-06T12:01:08Z</time>
      </trkpt>
      <trkpt lat="43.94939" lon="7.24491">
        <ele>1549</ele>
        <time>2010-11-06T12:01:46Z</time>
      </trkpt>
      <trkpt lat="43.94939" lon="7.24491">
        <ele>1549</ele>
        <time>2010-11-06T12:02:24Z</time>
      </trkpt>
      <trkpt lat="43.94939" lon="7.24491">
        <ele>1549</ele>
        <time>2010-11-06T12:02:42Z</time>
      </trkpt>
      <trkpt lat="43.9494" lon="7.24492">
        <ele>1548</ele>
        <time>2010-11-06T12:04:21Z</time>
      </trkpt>
      <trkpt lat="43.9494" lon="7.24491">
        <ele>1548</ele>
        <time>2010-11-06T12:04:26Z</time>
      </trkpt>
      <trkpt lat="43.9494" lon="7.24492">
        <ele>1548</ele>
        <time>2010-11-06T12:05:20Z</time>
      </trkpt>
      <trkpt lat="43.9494" lon="7.24491">
        <ele>1548</ele>
        <time>2010-11-06T12:05:28Z</time>
      </trkpt>
      <trkpt lat="43.94941" lon="7.24492">
        <ele>1548</ele>
        <time>2010-11-06T12:06:02Z</time>
      </trkpt>
      <trkpt lat="43.94941" lon="7.24492">
        <ele>1548</ele>
        <time>2010-11-06T12:06:21Z</time>
      </trkpt>
      <trkpt lat="43.94941" lon="7.24492">
        <ele>1548</ele>
        <time>2010-11-06T12:06:28Z</time>
      </trkpt>
      <trkpt lat="43.94941" lon="7.24493">
        <ele>1548</ele>
        <time>2010-11-06T12:06:50Z</time>
      </trkpt>
      <trkpt lat="43.94941" lon="7.24492">
        <ele>1548</ele>
        <time>2010-11-06T12:06:57Z</time>
      </trkpt>
      <trkpt lat="43.94941" lon="7.24492">
        <ele>1548</ele>
        <time>2010-11-06T12:07:04Z</time>
      </trkpt>
      <trkpt lat="43.94942" lon="7.24493">
        <ele>1548</ele>
        <time>2010-11-06T12:07:17Z</time>
      </trkpt>
      <trkpt lat="43.94942" lon="7.24493">
        <ele>1548</ele>
        <time>2010-11-06T12:07:23Z</time>
      </trkpt>
      <trkpt lat="43.94941" lon="7.24492">
        <ele>1548</ele>
        <time>2010-11-06T12:07:29Z</time>
      </trkpt>
      <trkpt lat="43.94941" lon="7.24491">
        <ele>1548</ele>
        <time>2010-11-06T12:07:51Z</time>
      </trkpt>
      <trkpt lat="43.9494" lon="7.24492">
        <ele>1548</ele>
        <time>2010-11-06T12:08:39Z</time>
      </trkpt>
      <trkpt lat="43.9494" lon="7.24491">
        <ele>1548</ele>
        <time>2010-11-06T12:08:58Z</time>
      </trkpt>
      <trkpt lat="43.9494" lon="7.24491">
        <ele>1548</ele>
        <time>2010-11-06T12:09:04Z</time>
      </trkpt>
      <trkpt lat="43.9494" lon="7.24491">
        <ele>1548</ele>
        <time>2010-11-06T12:09:24Z</time>
      </trkpt>
      <trkpt lat="43.94941" lon="7.24491">
        <ele>1548</ele>
        <time>2010-11-06T12:09:45Z</time>
      </trkpt>
      <trkpt lat="43.94941" lon="7.24492">
        <ele>1548</ele>
        <time>2010-11-06T12:10:11Z</time>
      </trkpt>
      <trkpt lat="43.94941" lon="7.24492">
        <ele>1548</ele>
        <time>2010-11-06T12:10:21Z</time>
      </trkpt>
      <trkpt lat="43.94941" lon="7.24492">
        <ele>1548</ele>
        <time>2010-11-06T12:10:36Z</time>
      </trkpt>
      <trkpt lat="43.94941" lon="7.24491">
        <ele>1548</ele>
        <time>2010-11-06T12:10:54Z</time>
      </trkpt>
      <trkpt lat="43.94941" lon="7.24491">
        <ele>1548</ele>
        <time>2010-11-06T12:11:13Z</time>
      </trkpt>
      <trkpt lat="43.94941" lon="7.24491">
        <ele>1548</ele>
        <time>2010-11-06T12:11:22Z</time>
      </trkpt>
      <trkpt lat="43.94941" lon="7.24491">
        <ele>1548</ele>
        <time>2010-11-06T12:11:29Z</time>
      </trkpt>
      <trkpt lat="43.94941" lon="7.24491">
        <ele>1548</ele>
        <time>2010-11-06T12:11:36Z</time>
      </trkpt>
      <trkpt lat="43.9494" lon="7.24491">
        <ele>1548</ele>
        <time>2010-11-06T12:11:48Z</time>
      </trkpt>
      <trkpt lat="43.9494" lon="7.24492">
        <ele>1548</ele>
        <time>2010-11-06T12:12:24Z</time>
      </trkpt>
      <trkpt lat="43.9494" lon="7.24492">
        <ele>1548</ele>
        <time>2010-11-06T12:12:44Z</time>
      </trkpt>
      <trkpt lat="43.9494" lon="7.24492">
        <ele>1548</ele>
        <time>2010-11-06T12:12:52Z</time>
      </trkpt>
      <trkpt lat="43.94941" lon="7.24492">
        <ele>1548</ele>
        <time>2010-11-06T12:13:06Z</time>
      </trkpt>
      <trkpt lat="43.94942" lon="7.24492">
        <ele>1548</ele>
        <time>2010-11-06T12:13:32Z</time>
      </trkpt>
      <trkpt lat="43.94942" lon="7.24492">
        <ele>1548</ele>
        <time>2010-11-06T12:13:38Z</time>
      </trkpt>
      <trkpt lat="43.94942" lon="7.24492">
        <ele>1548</ele>
        <time>2010-11-06T12:13:47Z</time>
      </trkpt>
      <trkpt lat="43.94942" lon="7.24491">
        <ele>1548</ele>
        <time>2010-11-06T12:13:59Z</time>
      </trkpt>
      <trkpt lat="43.94941" lon="7.24491">
        <ele>1548</ele>
        <time>2010-11-06T12:14:19Z</time>
      </trkpt>
      <trkpt lat="43.94941" lon="7.24492">
        <ele>1548</ele>
        <time>2010-11-06T12:14:26Z</time>
      </trkpt>
      <trkpt lat="43.94941" lon="7.24491">
        <ele>1548</ele>
        <time>2010-11-06T12:14:36Z</time>
      </trkpt>
      <trkpt lat="43.9494" lon="7.24491">
        <ele>1548</ele>
        <time>2010-11-06T12:14:48Z</time>
      </trkpt>
      <trkpt lat="43.94939" lon="7.24493">
        <ele>1549</ele>
        <time>2010-11-06T12:15:56Z</time>
      </trkpt>
      <trkpt lat="43.9494" lon="7.24493">
        <ele>1549</ele>
        <time>2010-11-06T12:16:08Z</time>
      </trkpt>
      <trkpt lat="43.9494" lon="7.24493">
        <ele>1549</ele>
        <time>2010-11-06T12:17:08Z</time>
      </trkpt>
      <trkpt lat="43.9494" lon="7.24492">
        <ele>1548</ele>
        <time>2010-11-06T12:17:17Z</time>
      </trkpt>
      <trkpt lat="43.9494" lon="7.24492">
        <ele>1548</ele>
        <time>2010-11-06T12:17:35Z</time>
      </trkpt>
      <trkpt lat="43.9494" lon="7.24491">
        <ele>1548</ele>
        <time>2010-11-06T12:17:44Z</time>
      </trkpt>
      <trkpt lat="43.9494" lon="7.24492">
        <ele>1548</ele>
        <time>2010-11-06T12:17:50Z</time>
      </trkpt>
      <trkpt lat="43.9494" lon="7.24491">
        <ele>1548</ele>
        <time>2010-11-06T12:17:57Z</time>
      </trkpt>
      <trkpt lat="43.94939" lon="7.24491">
        <ele>1549</ele>
        <time>2010-11-06T12:18:13Z</time>
      </trkpt>
      <trkpt lat="43.94939" lon="7.24491">
        <ele>1549</ele>
        <time>2010-11-06T12:18:24Z</time>
      </trkpt>
      <trkpt lat="43.94938" lon="7.24491">
        <ele>1549</ele>
        <time>2010-11-06T12:18:35Z</time>
      </trkpt>
      <trkpt lat="43.94938" lon="7.24491">
        <ele>1549</ele>
        <time>2010-11-06T12:18:49Z</time>
      </trkpt>
      <trkpt lat="43.94937" lon="7.24497">
        <ele>1550</ele>
        <time>2010-11-06T12:18:54Z</time>
      </trkpt>
      <trkpt lat="43.94936" lon="7.24498">
        <ele>1551</ele>
        <time>2010-11-06T12:18:59Z</time>
      </trkpt>
      <trkpt lat="43.9494" lon="7.24496">
        <ele>1549</ele>
        <time>2010-11-06T12:19:05Z</time>
      </trkpt>
      <trkpt lat="43.94941" lon="7.24497">
        <ele>1548</ele>
        <time>2010-11-06T12:19:10Z</time>
      </trkpt>
      <trkpt lat="43.94939" lon="7.24501">
        <ele>1541</ele>
        <time>2010-11-06T12:19:16Z</time>
      </trkpt>
      <trkpt lat="43.94939" lon="7.24501">
        <ele>1541</ele>
        <time>2010-11-06T12:19:23Z</time>
      </trkpt>
      <trkpt lat="43.94938" lon="7.24501">
        <ele>1542</ele>
        <time>2010-11-06T12:19:44Z</time>
      </trkpt>
      <trkpt lat="43.94938" lon="7.24501">
        <ele>1541</ele>
        <time>2010-11-06T12:19:57Z</time>
      </trkpt>
      <trkpt lat="43.94937" lon="7.24495">
        <ele>1550</ele>
        <time>2010-11-06T12:20:02Z</time>
      </trkpt>
      <trkpt lat="43.94938" lon="7.24491">
        <ele>1549</ele>
        <time>2010-11-06T12:20:08Z</time>
      </trkpt>
      <trkpt lat="43.94938" lon="7.2449">
        <ele>1549</ele>
        <time>2010-11-06T12:20:12Z</time>
      </trkpt>
      <trkpt lat="43.94938" lon="7.24491">
        <ele>1549</ele>
        <time>2010-11-06T12:20:16Z</time>
      </trkpt>
      <trkpt lat="43.94939" lon="7.2449">
        <ele>1549</ele>
        <time>2010-11-06T12:20:24Z</time>
      </trkpt>
      <trkpt lat="43.94938" lon="7.24491">
        <ele>1549</ele>
        <time>2010-11-06T12:20:31Z</time>
      </trkpt>
      <trkpt lat="43.9494" lon="7.24491">
        <ele>1548</ele>
        <time>2010-11-06T12:20:39Z</time>
      </trkpt>
      <trkpt lat="43.94941" lon="7.2449">
        <ele>1548</ele>
        <time>2010-11-06T12:20:45Z</time>
      </trkpt>
      <trkpt lat="43.94941" lon="7.24487">
        <ele>1547</ele>
        <time>2010-11-06T12:20:52Z</time>
      </trkpt>
      <trkpt lat="43.94943" lon="7.24479">
        <ele>1545</ele>
        <time>2010-11-06T12:20:58Z</time>
      </trkpt>
      <trkpt lat="43.94942" lon="7.24475">
        <ele>1544</ele>
        <time>2010-11-06T12:21:03Z</time>
      </trkpt>
      <trkpt lat="43.9494" lon="7.24472">
        <ele>1544</ele>
        <time>2010-11-06T12:21:08Z</time>
      </trkpt>
      <trkpt lat="43.9494" lon="7.24468">
        <ele>1543</ele>
        <time>2010-11-06T12:21:13Z</time>
      </trkpt>
      <trkpt lat="43.94938" lon="7.24466">
        <ele>1543</ele>
        <time>2010-11-06T12:21:18Z</time>
      </trkpt>
      <trkpt lat="43.94937" lon="7.24463">
        <ele>1542</ele>
        <time>2010-11-06T12:21:23Z</time>
      </trkpt>
      <trkpt lat="43.94938" lon="7.24458">
        <ele>1541</ele>
        <time>2010-11-06T12:21:28Z</time>
      </trkpt>
      <trkpt lat="43.94939" lon="7.24453">
        <ele>1541</ele>
        <time>2010-11-06T12:21:33Z</time>
      </trkpt>
      <trkpt lat="43.9494" lon="7.2445">
        <ele>1540</ele>
        <time>2010-11-06T12:21:38Z</time>
      </trkpt>
      <trkpt lat="43.94943" lon="7.24448">
        <ele>1540</ele>
        <time>2010-11-06T12:21:41Z</time>
      </trkpt>
      <trkpt lat="43.94943" lon="7.24446">
        <ele>1539</ele>
        <time>2010-11-06T12:21:46Z</time>
      </trkpt>
      <trkpt lat="43.94944" lon="7.24445">
        <ele>1539</ele>
        <time>2010-11-06T12:21:52Z</time>
      </trkpt>
      <trkpt lat="43.94945" lon="7.24444">
        <ele>1539</ele>
        <time>2010-11-06T12:21:57Z</time>
      </trkpt>
      <trkpt lat="43.94944" lon="7.24445">
        <ele>1539</ele>
        <time>2010-11-06T12:22:09Z</time>
      </trkpt>
      <trkpt lat="43.94943" lon="7.24445">
        <ele>1539</ele>
        <time>2010-11-06T12:22:17Z</time>
      </trkpt>
      <trkpt lat="43.94945" lon="7.24445">
        <ele>1539</ele>
        <time>2010-11-06T12:22:29Z</time>
      </trkpt>
      <trkpt lat="43.94945" lon="7.24446">
        <ele>1539</ele>
        <time>2010-11-06T12:22:37Z</time>
      </trkpt>
      <trkpt lat="43.94946" lon="7.24442">
        <ele>1539</ele>
        <time>2010-11-06T12:22:44Z</time>
      </trkpt>
      <trkpt lat="43.94949" lon="7.24439">
        <ele>1538</ele>
        <time>2010-11-06T12:22:49Z</time>
      </trkpt>
      <trkpt lat="43.94951" lon="7.24438">
        <ele>1538</ele>
        <time>2010-11-06T12:22:55Z</time>
      </trkpt>
      <trkpt lat="43.94953" lon="7.24437">
        <ele>1538</ele>
        <time>2010-11-06T12:22:57Z</time>
      </trkpt>
      <trkpt lat="43.94957" lon="7.24436">
        <ele>1539</ele>
        <time>2010-11-06T12:23:02Z</time>
      </trkpt>
      <trkpt lat="43.94959" lon="7.24434">
        <ele>1539</ele>
        <time>2010-11-06T12:23:07Z</time>
      </trkpt>
      <trkpt lat="43.9496" lon="7.24431">
        <ele>1538</ele>
        <time>2010-11-06T12:23:11Z</time>
      </trkpt>
      <trkpt lat="43.94962" lon="7.2443">
        <ele>1538</ele>
        <time>2010-11-06T12:23:16Z</time>
      </trkpt>
      <trkpt lat="43.94962" lon="7.24426">
        <ele>1538</ele>
        <time>2010-11-06T12:23:21Z</time>
      </trkpt>
      <trkpt lat="43.94964" lon="7.24425">
        <ele>1538</ele>
        <time>2010-11-06T12:23:25Z</time>
      </trkpt>
      <trkpt lat="43.94963" lon="7.24425">
        <ele>1538</ele>
        <time>2010-11-06T12:23:26Z</time>
      </trkpt>
      <trkpt lat="43.94966" lon="7.24424">
        <ele>1539</ele>
        <time>2010-11-06T12:23:32Z</time>
      </trkpt>
      <trkpt lat="43.94962" lon="7.2442">
        <ele>1538</ele>
        <time>2010-11-06T12:23:37Z</time>
      </trkpt>
      <trkpt lat="43.94963" lon="7.2442">
        <ele>1538</ele>
        <time>2010-11-06T12:23:42Z</time>
      </trkpt>
      <trkpt lat="43.94963" lon="7.2442">
        <ele>1538</ele>
        <time>2010-11-06T12:23:44Z</time>
      </trkpt>
      <trkpt lat="43.94964" lon="7.24416">
        <ele>1528</ele>
        <time>2010-11-06T12:23:48Z</time>
      </trkpt>
      <trkpt lat="43.94965" lon="7.24414">
        <ele>1528</ele>
        <time>2010-11-06T12:23:52Z</time>
      </trkpt>
      <trkpt lat="43.94966" lon="7.24412">
        <ele>1528</ele>
        <time>2010-11-06T12:23:55Z</time>
      </trkpt>
      <trkpt lat="43.9497" lon="7.24407">
        <ele>1529</ele>
        <time>2010-11-06T12:24:00Z</time>
      </trkpt>
      <trkpt lat="43.94972" lon="7.24408">
        <ele>1529</ele>
        <time>2010-11-06T12:24:04Z</time>
      </trkpt>
      <trkpt lat="43.94973" lon="7.24406">
        <ele>1529</ele>
        <time>2010-11-06T12:24:09Z</time>
      </trkpt>
      <trkpt lat="43.94976" lon="7.24406">
        <ele>1530</ele>
        <time>2010-11-06T12:24:13Z</time>
      </trkpt>
      <trkpt lat="43.94977" lon="7.24405">
        <ele>1530</ele>
        <time>2010-11-06T12:24:19Z</time>
      </trkpt>
      <trkpt lat="43.94978" lon="7.24405">
        <ele>1530</ele>
        <time>2010-11-06T12:24:25Z</time>
      </trkpt>
      <trkpt lat="43.9498" lon="7.24404">
        <ele>1530</ele>
        <time>2010-11-06T12:24:30Z</time>
      </trkpt>
      <trkpt lat="43.94981" lon="7.24406">
        <ele>1531</ele>
        <time>2010-11-06T12:24:34Z</time>
      </trkpt>
      <trkpt lat="43.94983" lon="7.24402">
        <ele>1531</ele>
        <time>2010-11-06T12:24:39Z</time>
      </trkpt>
      <trkpt lat="43.94985" lon="7.24402">
        <ele>1531</ele>
        <time>2010-11-06T12:24:40Z</time>
      </trkpt>
      <trkpt lat="43.9499" lon="7.24405">
        <ele>1533</ele>
        <time>2010-11-06T12:24:45Z</time>
      </trkpt>
      <trkpt lat="43.94991" lon="7.24404">
        <ele>1533</ele>
        <time>2010-11-06T12:24:46Z</time>
      </trkpt>
      <trkpt lat="43.94995" lon="7.244">
        <ele>1533</ele>
        <time>2010-11-06T12:24:53Z</time>
      </trkpt>
      <trkpt lat="43.94998" lon="7.24399">
        <ele>1533</ele>
        <time>2010-11-06T12:25:00Z</time>
      </trkpt>
      <trkpt lat="43.95001" lon="7.24399">
        <ele>1532</ele>
        <time>2010-11-06T12:25:05Z</time>
      </trkpt>
      <trkpt lat="43.95003" lon="7.244">
        <ele>1532</ele>
        <time>2010-11-06T12:25:10Z</time>
      </trkpt>
      <trkpt lat="43.9501" lon="7.24397">
        <ele>1530</ele>
        <time>2010-11-06T12:25:16Z</time>
      </trkpt>
      <trkpt lat="43.95016" lon="7.24396">
        <ele>1529</ele>
        <time>2010-11-06T12:25:21Z</time>
      </trkpt>
      <trkpt lat="43.95018" lon="7.24393">
        <ele>1528</ele>
        <time>2010-11-06T12:25:23Z</time>
      </trkpt>
      <trkpt lat="43.95023" lon="7.24389">
        <ele>1526</ele>
        <time>2010-11-06T12:25:28Z</time>
      </trkpt>
      <trkpt lat="43.95029" lon="7.24383">
        <ele>1525</ele>
        <time>2010-11-06T12:25:34Z</time>
      </trkpt>
      <trkpt lat="43.95031" lon="7.2438">
        <ele>1524</ele>
        <time>2010-11-06T12:25:39Z</time>
      </trkpt>
      <trkpt lat="43.95033" lon="7.24375">
        <ele>1524</ele>
        <time>2010-11-06T12:25:44Z</time>
      </trkpt>
      <trkpt lat="43.95036" lon="7.24371">
        <ele>1524</ele>
        <time>2010-11-06T12:25:48Z</time>
      </trkpt>
      <trkpt lat="43.95039" lon="7.24371">
        <ele>1523</ele>
        <time>2010-11-06T12:25:52Z</time>
      </trkpt>
      <trkpt lat="43.95045" lon="7.24371">
        <ele>1522</ele>
        <time>2010-11-06T12:25:59Z</time>
      </trkpt>
      <trkpt lat="43.95049" lon="7.2437">
        <ele>1522</ele>
        <time>2010-11-06T12:26:04Z</time>
      </trkpt>
      <trkpt lat="43.95052" lon="7.24369">
        <ele>1522</ele>
        <time>2010-11-06T12:26:10Z</time>
      </trkpt>
      <trkpt lat="43.95055" lon="7.24366">
        <ele>1522</ele>
        <time>2010-11-06T12:26:15Z</time>
      </trkpt>
      <trkpt lat="43.95057" lon="7.24363">
        <ele>1522</ele>
        <time>2010-11-06T12:26:20Z</time>
      </trkpt>
      <trkpt lat="43.95061" lon="7.24363">
        <ele>1522</ele>
        <time>2010-11-06T12:26:27Z</time>
      </trkpt>
      <trkpt lat="43.95063" lon="7.24361">
        <ele>1522</ele>
        <time>2010-11-06T12:26:32Z</time>
      </trkpt>
      <trkpt lat="43.95066" lon="7.24361">
        <ele>1522</ele>
        <time>2010-11-06T12:26:38Z</time>
      </trkpt>
      <trkpt lat="43.9507" lon="7.2436">
        <ele>1522</ele>
        <time>2010-11-06T12:26:44Z</time>
      </trkpt>
      <trkpt lat="43.95072" lon="7.2436">
        <ele>1521</ele>
        <time>2010-11-06T12:26:50Z</time>
      </trkpt>
      <trkpt lat="43.95076" lon="7.24361">
        <ele>1521</ele>
        <time>2010-11-06T12:26:55Z</time>
      </trkpt>
      <trkpt lat="43.95077" lon="7.24363">
        <ele>1521</ele>
        <time>2010-11-06T12:27:02Z</time>
      </trkpt>
      <trkpt lat="43.95076" lon="7.24358">
        <ele>1522</ele>
        <time>2010-11-06T12:27:09Z</time>
      </trkpt>
      <trkpt lat="43.95076" lon="7.24358">
        <ele>1522</ele>
        <time>2010-11-06T12:27:16Z</time>
      </trkpt>
      <trkpt lat="43.95074" lon="7.24355">
        <ele>1522</ele>
        <time>2010-11-06T12:27:23Z</time>
      </trkpt>
      <trkpt lat="43.95068" lon="7.24348">
        <ele>1523</ele>
        <time>2010-11-06T12:27:29Z</time>
      </trkpt>
      <trkpt lat="43.95063" lon="7.24335">
        <ele>1523</ele>
        <time>2010-11-06T12:27:37Z</time>
      </trkpt>
      <trkpt lat="43.95062" lon="7.24333">
        <ele>1523</ele>
        <time>2010-11-06T12:27:38Z</time>
      </trkpt>
      <trkpt lat="43.95061" lon="7.24325">
        <ele>1511</ele>
        <time>2010-11-06T12:27:43Z</time>
      </trkpt>
      <trkpt lat="43.95059" lon="7.24315">
        <ele>1507</ele>
        <time>2010-11-06T12:27:51Z</time>
      </trkpt>
      <trkpt lat="43.95056" lon="7.24313">
        <ele>1507</ele>
        <time>2010-11-06T12:27:59Z</time>
      </trkpt>
      <trkpt lat="43.95055" lon="7.24313">
        <ele>1506</ele>
        <time>2010-11-06T12:28:16Z</time>
      </trkpt>
      <trkpt lat="43.95054" lon="7.24312">
        <ele>1506</ele>
        <time>2010-11-06T12:28:32Z</time>
      </trkpt>
      <trkpt lat="43.95051" lon="7.24312">
        <ele>1506</ele>
        <time>2010-11-06T12:28:48Z</time>
      </trkpt>
      <trkpt lat="43.95043" lon="7.24318">
        <ele>1507</ele>
        <time>2010-11-06T12:28:53Z</time>
      </trkpt>
      <trkpt lat="43.95039" lon="7.2432">
        <ele>1507</ele>
        <time>2010-11-06T12:28:57Z</time>
      </trkpt>
      <trkpt lat="43.95031" lon="7.24328">
        <ele>1509</ele>
        <time>2010-11-06T12:29:02Z</time>
      </trkpt>
      <trkpt lat="43.95022" lon="7.24331">
        <ele>1511</ele>
        <time>2010-11-06T12:29:05Z</time>
      </trkpt>
      <trkpt lat="43.95017" lon="7.24334">
        <ele>1525</ele>
        <time>2010-11-06T12:29:08Z</time>
      </trkpt>
      <trkpt lat="43.95012" lon="7.24341">
        <ele>1525</ele>
        <time>2010-11-06T12:29:15Z</time>
      </trkpt>
      <trkpt lat="43.95009" lon="7.24342">
        <ele>1525</ele>
        <time>2010-11-06T12:29:22Z</time>
      </trkpt>
      <trkpt lat="43.95005" lon="7.24347">
        <ele>1525</ele>
        <time>2010-11-06T12:29:26Z</time>
      </trkpt>
      <trkpt lat="43.95004" lon="7.24349">
        <ele>1525</ele>
        <time>2010-11-06T12:29:28Z</time>
      </trkpt>
      <trkpt lat="43.94992" lon="7.24357">
        <ele>1524</ele>
        <time>2010-11-06T12:29:34Z</time>
      </trkpt>
      <trkpt lat="43.9498" lon="7.2436">
        <ele>1523</ele>
        <time>2010-11-06T12:29:40Z</time>
      </trkpt>
      <trkpt lat="43.94965" lon="7.24352">
        <ele>1521</ele>
        <time>2010-11-06T12:29:45Z</time>
      </trkpt>
      <trkpt lat="43.94954" lon="7.24346">
        <ele>1518</ele>
        <time>2010-11-06T12:29:50Z</time>
      </trkpt>
      <trkpt lat="43.94946" lon="7.24342">
        <ele>1515</ele>
        <time>2010-11-06T12:29:54Z</time>
      </trkpt>
      <trkpt lat="43.94945" lon="7.2434">
        <ele>1514</ele>
        <time>2010-11-06T12:29:55Z</time>
      </trkpt>
      <trkpt lat="43.94942" lon="7.2434">
        <ele>1513</ele>
        <time>2010-11-06T12:30:01Z</time>
      </trkpt>
      <trkpt lat="43.94941" lon="7.24339">
        <ele>1513</ele>
        <time>2010-11-06T12:30:27Z</time>
      </trkpt>
      <trkpt lat="43.94942" lon="7.2434">
        <ele>1513</ele>
        <time>2010-11-06T12:30:53Z</time>
      </trkpt>
      <trkpt lat="43.94942" lon="7.24341">
        <ele>1513</ele>
        <time>2010-11-06T12:31:00Z</time>
      </trkpt>
      <trkpt lat="43.94942" lon="7.24341">
        <ele>1513</ele>
        <time>2010-11-06T12:31:07Z</time>
      </trkpt>
      <trkpt lat="43.94942" lon="7.24341">
        <ele>1513</ele>
        <time>2010-11-06T12:31:12Z</time>
      </trkpt>
      <trkpt lat="43.94942" lon="7.24343">
        <ele>1514</ele>
        <time>2010-11-06T12:31:23Z</time>
      </trkpt>
      <trkpt lat="43.94942" lon="7.24343">
        <ele>1514</ele>
        <time>2010-11-06T12:31:32Z</time>
      </trkpt>
      <trkpt lat="43.94942" lon="7.24343">
        <ele>1513</ele>
        <time>2010-11-06T12:31:38Z</time>
      </trkpt>
      <trkpt lat="43.94942" lon="7.24343">
        <ele>1513</ele>
        <time>2010-11-06T12:31:48Z</time>
      </trkpt>
      <trkpt lat="43.9494" lon="7.24343">
        <ele>1513</ele>
        <time>2010-11-06T12:31:54Z</time>
      </trkpt>
      <trkpt lat="43.94938" lon="7.24342">
        <ele>1512</ele>
        <time>2010-11-06T12:32:01Z</time>
      </trkpt>
      <trkpt lat="43.94934" lon="7.24344">
        <ele>1511</ele>
        <time>2010-11-06T12:32:05Z</time>
      </trkpt>
      <trkpt lat="43.94926" lon="7.24352">
        <ele>1511</ele>
        <time>2010-11-06T12:32:10Z</time>
      </trkpt>
      <trkpt lat="43.94915" lon="7.24367">
        <ele>1494</ele>
        <time>2010-11-06T12:32:16Z</time>
      </trkpt>
      <trkpt lat="43.94908" lon="7.2438">
        <ele>1497</ele>
        <time>2010-11-06T12:32:21Z</time>
      </trkpt>
      <trkpt lat="43.94898" lon="7.24391">
        <ele>1498</ele>
        <time>2010-11-06T12:32:26Z</time>
      </trkpt>
      <trkpt lat="43.94894" lon="7.24398">
        <ele>1499</ele>
        <time>2010-11-06T12:32:30Z</time>
      </trkpt>
      <trkpt lat="43.94895" lon="7.24402">
        <ele>1501</ele>
        <time>2010-11-06T12:32:38Z</time>
      </trkpt>
      <trkpt lat="43.94892" lon="7.24403">
        <ele>1499</ele>
        <time>2010-11-06T12:32:43Z</time>
      </trkpt>
      <trkpt lat="43.94888" lon="7.24404">
        <ele>1498</ele>
        <time>2010-11-06T12:32:48Z</time>
      </trkpt>
      <trkpt lat="43.94885" lon="7.24405">
        <ele>1496</ele>
        <time>2010-11-06T12:32:54Z</time>
      </trkpt>
      <trkpt lat="43.94882" lon="7.24405">
        <ele>1495</ele>
        <time>2010-11-06T12:32:56Z</time>
      </trkpt>
      <trkpt lat="43.94874" lon="7.24402">
        <ele>1491</ele>
        <time>2010-11-06T12:32:59Z</time>
      </trkpt>
      <trkpt lat="43.94876" lon="7.24398">
        <ele>1491</ele>
        <time>2010-11-06T12:33:04Z</time>
      </trkpt>
      <trkpt lat="43.94878" lon="7.24396">
        <ele>1492</ele>
        <time>2010-11-06T12:33:06Z</time>
      </trkpt>
      <trkpt lat="43.94879" lon="7.24389">
        <ele>1491</ele>
        <time>2010-11-06T12:33:11Z</time>
      </trkpt>
      <trkpt lat="43.94881" lon="7.24386">
        <ele>1491</ele>
        <time>2010-11-06T12:33:15Z</time>
      </trkpt>
      <trkpt lat="43.9488" lon="7.24383">
        <ele>1490</ele>
        <time>2010-11-06T12:33:17Z</time>
      </trkpt>
      <trkpt lat="43.94877" lon="7.24383">
        <ele>1489</ele>
        <time>2010-11-06T12:33:22Z</time>
      </trkpt>
      <trkpt lat="43.94878" lon="7.24379">
        <ele>1489</ele>
        <time>2010-11-06T12:33:28Z</time>
      </trkpt>
      <trkpt lat="43.94882" lon="7.24376">
        <ele>1489</ele>
        <time>2010-11-06T12:33:34Z</time>
      </trkpt>
      <trkpt lat="43.94884" lon="7.24375">
        <ele>1490</ele>
        <time>2010-11-06T12:33:37Z</time>
      </trkpt>
      <trkpt lat="43.94886" lon="7.24365">
        <ele>1488</ele>
        <time>2010-11-06T12:33:41Z</time>
      </trkpt>
      <trkpt lat="43.94888" lon="7.24353">
        <ele>1487</ele>
        <time>2010-11-06T12:33:46Z</time>
      </trkpt>
      <trkpt lat="43.94888" lon="7.24352">
        <ele>1487</ele>
        <time>2010-11-06T12:33:51Z</time>
      </trkpt>
      <trkpt lat="43.94889" lon="7.24349">
        <ele>1487</ele>
        <time>2010-11-06T12:33:53Z</time>
      </trkpt>
      <trkpt lat="43.9489" lon="7.24339">
        <ele>1487</ele>
        <time>2010-11-06T12:33:59Z</time>
      </trkpt>
      <trkpt lat="43.94889" lon="7.24341">
        <ele>1487</ele>
        <time>2010-11-06T12:34:04Z</time>
      </trkpt>
      <trkpt lat="43.94888" lon="7.24344">
        <ele>1487</ele>
        <time>2010-11-06T12:34:08Z</time>
      </trkpt>
      <trkpt lat="43.94886" lon="7.24346">
        <ele>1486</ele>
        <time>2010-11-06T12:34:10Z</time>
      </trkpt>
      <trkpt lat="43.94882" lon="7.24351">
        <ele>1485</ele>
        <time>2010-11-06T12:34:14Z</time>
      </trkpt>
      <trkpt lat="43.94885" lon="7.2435">
        <ele>1486</ele>
        <time>2010-11-06T12:34:20Z</time>
      </trkpt>
      <trkpt lat="43.94884" lon="7.24349">
        <ele>1486</ele>
        <time>2010-11-06T12:34:25Z</time>
      </trkpt>
      <trkpt lat="43.94883" lon="7.24345">
        <ele>1485</ele>
        <time>2010-11-06T12:34:31Z</time>
      </trkpt>
      <trkpt lat="43.94883" lon="7.24338">
        <ele>1485</ele>
        <time>2010-11-06T12:34:37Z</time>
      </trkpt>
      <trkpt lat="43.94881" lon="7.24338">
        <ele>1484</ele>
        <time>2010-11-06T12:34:42Z</time>
      </trkpt>
      <trkpt lat="43.94878" lon="7.24341">
        <ele>1483</ele>
        <time>2010-11-06T12:34:48Z</time>
      </trkpt>
      <trkpt lat="43.94878" lon="7.24341">
        <ele>1483</ele>
        <time>2010-11-06T12:34:55Z</time>
      </trkpt>
      <trkpt lat="43.94877" lon="7.24341">
        <ele>1483</ele>
        <time>2010-11-06T12:35:02Z</time>
      </trkpt>
      <trkpt lat="43.94874" lon="7.24344">
        <ele>1482</ele>
        <time>2010-11-06T12:35:06Z</time>
      </trkpt>
      <trkpt lat="43.94864" lon="7.24359">
        <ele>1480</ele>
        <time>2010-11-06T12:35:12Z</time>
      </trkpt>
      <trkpt lat="43.94859" lon="7.24366">
        <ele>1480</ele>
        <time>2010-11-06T12:35:16Z</time>
      </trkpt>
      <trkpt lat="43.94846" lon="7.2438">
        <ele>1481</ele>
        <time>2010-11-06T12:35:21Z</time>
      </trkpt>
      <trkpt lat="43.94843" lon="7.24382">
        <ele>1481</ele>
        <time>2010-11-06T12:35:25Z</time>
      </trkpt>
      <trkpt lat="43.94837" lon="7.24387">
        <ele>1480</ele>
        <time>2010-11-06T12:35:30Z</time>
      </trkpt>
      <trkpt lat="43.94828" lon="7.24397">
        <ele>1459</ele>
        <time>2010-11-06T12:35:35Z</time>
      </trkpt>
      <trkpt lat="43.94825" lon="7.244">
        <ele>1460</ele>
        <time>2010-11-06T12:35:41Z</time>
      </trkpt>
      <trkpt lat="43.94824" lon="7.24401">
        <ele>1460</ele>
        <time>2010-11-06T12:35:42Z</time>
      </trkpt>
      <trkpt lat="43.94816" lon="7.24406">
        <ele>1458</ele>
        <time>2010-11-06T12:35:46Z</time>
      </trkpt>
      <trkpt lat="43.94804" lon="7.24414">
        <ele>1454</ele>
        <time>2010-11-06T12:35:53Z</time>
      </trkpt>
      <trkpt lat="43.94799" lon="7.24417">
        <ele>1470</ele>
        <time>2010-11-06T12:35:57Z</time>
      </trkpt>
      <trkpt lat="43.94796" lon="7.24418">
        <ele>1469</ele>
        <time>2010-11-06T12:36:03Z</time>
      </trkpt>
      <trkpt lat="43.94788" lon="7.24424">
        <ele>1467</ele>
        <time>2010-11-06T12:36:08Z</time>
      </trkpt>
      <trkpt lat="43.94787" lon="7.2442">
        <ele>1466</ele>
        <time>2010-11-06T12:36:12Z</time>
      </trkpt>
      <trkpt lat="43.94788" lon="7.24417">
        <ele>1466</ele>
        <time>2010-11-06T12:36:14Z</time>
      </trkpt>
      <trkpt lat="43.94792" lon="7.2441">
        <ele>1448</ele>
        <time>2010-11-06T12:36:19Z</time>
      </trkpt>
      <trkpt lat="43.94795" lon="7.24406">
        <ele>1449</ele>
        <time>2010-11-06T12:36:22Z</time>
      </trkpt>
      <trkpt lat="43.94797" lon="7.24398">
        <ele>1449</ele>
        <time>2010-11-06T12:36:27Z</time>
      </trkpt>
      <trkpt lat="43.94788" lon="7.244">
        <ele>1446</ele>
        <time>2010-11-06T12:36:32Z</time>
      </trkpt>
      <trkpt lat="43.9478" lon="7.24408">
        <ele>1444</ele>
        <time>2010-11-06T12:36:37Z</time>
      </trkpt>
      <trkpt lat="43.94777" lon="7.24404">
        <ele>1443</ele>
        <time>2010-11-06T12:36:41Z</time>
      </trkpt>
      <trkpt lat="43.9478" lon="7.24392">
        <ele>1443</ele>
        <time>2010-11-06T12:36:46Z</time>
      </trkpt>
      <trkpt lat="43.94782" lon="7.24381">
        <ele>1443</ele>
        <time>2010-11-06T12:36:50Z</time>
      </trkpt>
      <trkpt lat="43.94784" lon="7.2438">
        <ele>1443</ele>
        <time>2010-11-06T12:36:54Z</time>
      </trkpt>
      <trkpt lat="43.94783" lon="7.24376">
        <ele>1442</ele>
        <time>2010-11-06T12:37:07Z</time>
      </trkpt>
      <trkpt lat="43.94784" lon="7.24371">
        <ele>1441</ele>
        <time>2010-11-06T12:37:14Z</time>
      </trkpt>
      <trkpt lat="43.94781" lon="7.2437">
        <ele>1441</ele>
        <time>2010-11-06T12:37:19Z</time>
      </trkpt>
      <trkpt lat="43.94779" lon="7.24371">
        <ele>1440</ele>
        <time>2010-11-06T12:37:21Z</time>
      </trkpt>
      <trkpt lat="43.9477" lon="7.24375">
        <ele>1439</ele>
        <time>2010-11-06T12:37:26Z</time>
      </trkpt>
      <trkpt lat="43.9476" lon="7.24375">
        <ele>1438</ele>
        <time>2010-11-06T12:37:32Z</time>
      </trkpt>
      <trkpt lat="43.94757" lon="7.24377">
        <ele>1438</ele>
        <time>2010-11-06T12:37:34Z</time>
      </trkpt>
      <trkpt lat="43.94755" lon="7.24372">
        <ele>1436</ele>
        <time>2010-11-06T12:37:41Z</time>
      </trkpt>
      <trkpt lat="43.94754" lon="7.24363">
        <ele>1434</ele>
        <time>2010-11-06T12:37:48Z</time>
      </trkpt>
      <trkpt lat="43.94755" lon="7.24358">
        <ele>1432</ele>
        <time>2010-11-06T12:37:53Z</time>
      </trkpt>
      <trkpt lat="43.94756" lon="7.24357">
        <ele>1432</ele>
        <time>2010-11-06T12:37:58Z</time>
      </trkpt>
      <trkpt lat="43.94754" lon="7.24353">
        <ele>1430</ele>
        <time>2010-11-06T12:38:04Z</time>
      </trkpt>
      <trkpt lat="43.94752" lon="7.24352">
        <ele>1429</ele>
        <time>2010-11-06T12:38:09Z</time>
      </trkpt>
      <trkpt lat="43.94742" lon="7.24355">
        <ele>1408</ele>
        <time>2010-11-06T12:38:15Z</time>
      </trkpt>
      <trkpt lat="43.94741" lon="7.24353">
        <ele>1408</ele>
        <time>2010-11-06T12:38:17Z</time>
      </trkpt>
      <trkpt lat="43.94736" lon="7.24358">
        <ele>1407</ele>
        <time>2010-11-06T12:38:20Z</time>
      </trkpt>
      <trkpt lat="43.94731" lon="7.24355">
        <ele>1405</ele>
        <time>2010-11-06T12:38:25Z</time>
      </trkpt>
      <trkpt lat="43.94728" lon="7.24351">
        <ele>1405</ele>
        <time>2010-11-06T12:38:29Z</time>
      </trkpt>
      <trkpt lat="43.94726" lon="7.24358">
        <ele>1404</ele>
        <time>2010-11-06T12:38:33Z</time>
      </trkpt>
      <trkpt lat="43.94722" lon="7.24353">
        <ele>1403</ele>
        <time>2010-11-06T12:38:36Z</time>
      </trkpt>
      <trkpt lat="43.94718" lon="7.24351">
        <ele>1402</ele>
        <time>2010-11-06T12:38:40Z</time>
      </trkpt>
      <trkpt lat="43.94716" lon="7.24353">
        <ele>1401</ele>
        <time>2010-11-06T12:38:44Z</time>
      </trkpt>
      <trkpt lat="43.94715" lon="7.24347">
        <ele>1401</ele>
        <time>2010-11-06T12:38:51Z</time>
      </trkpt>
      <trkpt lat="43.9471" lon="7.24346">
        <ele>1399</ele>
        <time>2010-11-06T12:38:56Z</time>
      </trkpt>
      <trkpt lat="43.94709" lon="7.24346">
        <ele>1398</ele>
        <time>2010-11-06T12:39:00Z</time>
      </trkpt>
      <trkpt lat="43.9471" lon="7.24345">
        <ele>1399</ele>
        <time>2010-11-06T12:39:11Z</time>
      </trkpt>
      <trkpt lat="43.9471" lon="7.24339">
        <ele>1399</ele>
        <time>2010-11-06T12:39:16Z</time>
      </trkpt>
      <trkpt lat="43.94709" lon="7.24339">
        <ele>1398</ele>
        <time>2010-11-06T12:39:24Z</time>
      </trkpt>
      <trkpt lat="43.94702" lon="7.24346">
        <ele>1396</ele>
        <time>2010-11-06T12:39:29Z</time>
      </trkpt>
      <trkpt lat="43.947" lon="7.24344">
        <ele>1395</ele>
        <time>2010-11-06T12:39:33Z</time>
      </trkpt>
      <trkpt lat="43.94701" lon="7.24341">
        <ele>1395</ele>
        <time>2010-11-06T12:39:37Z</time>
      </trkpt>
      <trkpt lat="43.94701" lon="7.24339">
        <ele>1395</ele>
        <time>2010-11-06T12:39:40Z</time>
      </trkpt>
      <trkpt lat="43.94694" lon="7.24339">
        <ele>1392</ele>
        <time>2010-11-06T12:39:45Z</time>
      </trkpt>
      <trkpt lat="43.94698" lon="7.24329">
        <ele>1384</ele>
        <time>2010-11-06T12:39:50Z</time>
      </trkpt>
      <trkpt lat="43.94699" lon="7.24327">
        <ele>1384</ele>
        <time>2010-11-06T12:39:51Z</time>
      </trkpt>
      <trkpt lat="43.94696" lon="7.24323">
        <ele>1383</ele>
        <time>2010-11-06T12:39:55Z</time>
      </trkpt>
      <trkpt lat="43.94685" lon="7.24324">
        <ele>1380</ele>
        <time>2010-11-06T12:40:00Z</time>
      </trkpt>
      <trkpt lat="43.94682" lon="7.24323">
        <ele>1379</ele>
        <time>2010-11-06T12:40:05Z</time>
      </trkpt>
      <trkpt lat="43.94678" lon="7.2432">
        <ele>1378</ele>
        <time>2010-11-06T12:40:11Z</time>
      </trkpt>
      <trkpt lat="43.94676" lon="7.24317">
        <ele>1378</ele>
        <time>2010-11-06T12:40:15Z</time>
      </trkpt>
      <trkpt lat="43.94677" lon="7.24315">
        <ele>1379</ele>
        <time>2010-11-06T12:40:20Z</time>
      </trkpt>
      <trkpt lat="43.94677" lon="7.24312">
        <ele>1379</ele>
        <time>2010-11-06T12:40:26Z</time>
      </trkpt>
      <trkpt lat="43.94676" lon="7.24306">
        <ele>1379</ele>
        <time>2010-11-06T12:40:32Z</time>
      </trkpt>
      <trkpt lat="43.94679" lon="7.24302">
        <ele>1380</ele>
        <time>2010-11-06T12:40:38Z</time>
      </trkpt>
      <trkpt lat="43.94677" lon="7.24301">
        <ele>1380</ele>
        <time>2010-11-06T12:40:42Z</time>
      </trkpt>
      <trkpt lat="43.94666" lon="7.24293">
        <ele>1359</ele>
        <time>2010-11-06T12:40:48Z</time>
      </trkpt>
      <trkpt lat="43.94652" lon="7.24282">
        <ele>1358</ele>
        <time>2010-11-06T12:40:54Z</time>
      </trkpt>
      <trkpt lat="43.94643" lon="7.24273">
        <ele>1357</ele>
        <time>2010-11-06T12:40:57Z</time>
      </trkpt>
      <trkpt lat="43.94641" lon="7.24271">
        <ele>1357</ele>
        <time>2010-11-06T12:40:59Z</time>
      </trkpt>
      <trkpt lat="43.94638" lon="7.24267">
        <ele>1357</ele>
        <time>2010-11-06T12:41:04Z</time>
      </trkpt>
      <trkpt lat="43.94638" lon="7.24267">
        <ele>1357</ele>
        <time>2010-11-06T12:41:11Z</time>
      </trkpt>
      <trkpt lat="43.94638" lon="7.24267">
        <ele>1357</ele>
        <time>2010-11-06T12:41:17Z</time>
      </trkpt>
      <trkpt lat="43.94638" lon="7.24267">
        <ele>1357</ele>
        <time>2010-11-06T12:41:58Z</time>
      </trkpt>
      <trkpt lat="43.94638" lon="7.24267">
        <ele>1357</ele>
        <time>2010-11-06T12:42:19Z</time>
      </trkpt>
      <trkpt lat="43.94637" lon="7.24268">
        <ele>1357</ele>
        <time>2010-11-06T12:42:32Z</time>
      </trkpt>
      <trkpt lat="43.94637" lon="7.24269">
        <ele>1357</ele>
        <time>2010-11-06T12:42:49Z</time>
      </trkpt>
      <trkpt lat="43.94637" lon="7.24269">
        <ele>1357</ele>
        <time>2010-11-06T12:43:11Z</time>
      </trkpt>
      <trkpt lat="43.94638" lon="7.24268">
        <ele>1357</ele>
        <time>2010-11-06T12:43:16Z</time>
      </trkpt>
      <trkpt lat="43.94638" lon="7.24267">
        <ele>1357</ele>
        <time>2010-11-06T12:43:24Z</time>
      </trkpt>
      <trkpt lat="43.94637" lon="7.24267">
        <ele>1357</ele>
        <time>2010-11-06T12:43:31Z</time>
      </trkpt>
      <trkpt lat="43.94637" lon="7.24267">
        <ele>1357</ele>
        <time>2010-11-06T12:43:44Z</time>
      </trkpt>
      <trkpt lat="43.94636" lon="7.24267">
        <ele>1357</ele>
        <time>2010-11-06T12:44:00Z</time>
      </trkpt>
      <trkpt lat="43.94636" lon="7.24265">
        <ele>1357</ele>
        <time>2010-11-06T12:44:06Z</time>
      </trkpt>
      <trkpt lat="43.94636" lon="7.24265">
        <ele>1357</ele>
        <time>2010-11-06T12:44:18Z</time>
      </trkpt>
      <trkpt lat="43.94639" lon="7.24266">
        <ele>1357</ele>
        <time>2010-11-06T12:44:37Z</time>
      </trkpt>
      <trkpt lat="43.94639" lon="7.24268">
        <ele>1357</ele>
        <time>2010-11-06T12:44:48Z</time>
      </trkpt>
      <trkpt lat="43.94638" lon="7.24267">
        <ele>1357</ele>
        <time>2010-11-06T12:45:01Z</time>
      </trkpt>
      <trkpt lat="43.94637" lon="7.24267">
        <ele>1357</ele>
        <time>2010-11-06T12:45:07Z</time>
      </trkpt>
      <trkpt lat="43.94636" lon="7.24266">
        <ele>1357</ele>
        <time>2010-11-06T12:45:10Z</time>
      </trkpt>
      <trkpt lat="43.94628" lon="7.24252">
        <ele>1357</ele>
        <time>2010-11-06T12:45:16Z</time>
      </trkpt>
      <trkpt lat="43.94621" lon="7.24234">
        <ele>1360</ele>
        <time>2010-11-06T12:45:21Z</time>
      </trkpt>
      <trkpt lat="43.94608" lon="7.2421">
        <ele>1360</ele>
        <time>2010-11-06T12:45:27Z</time>
      </trkpt>
      <trkpt lat="43.946" lon="7.24193">
        <ele>1362</ele>
        <time>2010-11-06T12:45:31Z</time>
      </trkpt>
      <trkpt lat="43.9459" lon="7.24175">
        <ele>1366</ele>
        <time>2010-11-06T12:45:35Z</time>
      </trkpt>
      <trkpt lat="43.94584" lon="7.24166">
        <ele>1370</ele>
        <time>2010-11-06T12:45:38Z</time>
      </trkpt>
      <trkpt lat="43.94574" lon="7.24144">
        <ele>1374</ele>
        <time>2010-11-06T12:45:43Z</time>
      </trkpt>
      <trkpt lat="43.94562" lon="7.24124">
        <ele>1374</ele>
        <time>2010-11-06T12:45:47Z</time>
      </trkpt>
      <trkpt lat="43.9456" lon="7.24118">
        <ele>1374</ele>
        <time>2010-11-06T12:45:50Z</time>
      </trkpt>
      <trkpt lat="43.94556" lon="7.24103">
        <ele>1373</ele>
        <time>2010-11-06T12:45:57Z</time>
      </trkpt>
      <trkpt lat="43.94558" lon="7.24088">
        <ele>1370</ele>
        <time>2010-11-06T12:46:03Z</time>
      </trkpt>
      <trkpt lat="43.94558" lon="7.24067">
        <ele>1362</ele>
        <time>2010-11-06T12:46:09Z</time>
      </trkpt>
      <trkpt lat="43.94557" lon="7.2406">
        <ele>1362</ele>
        <time>2010-11-06T12:46:11Z</time>
      </trkpt>
      <trkpt lat="43.94556" lon="7.2404">
        <ele>1360</ele>
        <time>2010-11-06T12:46:17Z</time>
      </trkpt>
      <trkpt lat="43.94556" lon="7.24037">
        <ele>1360</ele>
        <time>2010-11-06T12:46:18Z</time>
      </trkpt>
      <trkpt lat="43.9455" lon="7.2401">
        <ele>1358</ele>
        <time>2010-11-06T12:46:23Z</time>
      </trkpt>
      <trkpt lat="43.94544" lon="7.23993">
        <ele>1340</ele>
        <time>2010-11-06T12:46:27Z</time>
      </trkpt>
      <trkpt lat="43.94545" lon="7.23986">
        <ele>1339</ele>
        <time>2010-11-06T12:46:30Z</time>
      </trkpt>
      <trkpt lat="43.94546" lon="7.2398">
        <ele>1338</ele>
        <time>2010-11-06T12:46:38Z</time>
      </trkpt>
      <trkpt lat="43.94545" lon="7.23976">
        <ele>1338</ele>
        <time>2010-11-06T12:46:46Z</time>
      </trkpt>
      <trkpt lat="43.94545" lon="7.23975">
        <ele>1338</ele>
        <time>2010-11-06T12:46:53Z</time>
      </trkpt>
      <trkpt lat="43.94537" lon="7.23977">
        <ele>1338</ele>
        <time>2010-11-06T12:46:57Z</time>
      </trkpt>
      <trkpt lat="43.94528" lon="7.23982">
        <ele>1340</ele>
        <time>2010-11-06T12:47:01Z</time>
      </trkpt>
      <trkpt lat="43.94507" lon="7.23993">
        <ele>1350</ele>
        <time>2010-11-06T12:47:07Z</time>
      </trkpt>
      <trkpt lat="43.94492" lon="7.24005">
        <ele>1362</ele>
        <time>2010-11-06T12:47:11Z</time>
      </trkpt>
      <trkpt lat="43.94473" lon="7.24013">
        <ele>1367</ele>
        <time>2010-11-06T12:47:15Z</time>
      </trkpt>
      <trkpt lat="43.94447" lon="7.24013">
        <ele>1367</ele>
        <time>2010-11-06T12:47:20Z</time>
      </trkpt>
      <trkpt lat="43.94443" lon="7.24013">
        <ele>1366</ele>
        <time>2010-11-06T12:47:21Z</time>
      </trkpt>
      <trkpt lat="43.94432" lon="7.24013">
        <ele>1364</ele>
        <time>2010-11-06T12:47:25Z</time>
      </trkpt>
      <trkpt lat="43.94406" lon="7.2401">
        <ele>1362</ele>
        <time>2010-11-06T12:47:31Z</time>
      </trkpt>
      <trkpt lat="43.94381" lon="7.24011">
        <ele>1366</ele>
        <time>2010-11-06T12:47:36Z</time>
      </trkpt>
      <trkpt lat="43.94341" lon="7.24006">
        <ele>1360</ele>
        <time>2010-11-06T12:47:43Z</time>
      </trkpt>
      <trkpt lat="43.9433" lon="7.24007">
        <ele>1360</ele>
        <time>2010-11-06T12:47:45Z</time>
      </trkpt>
      <trkpt lat="43.94309" lon="7.24001">
        <ele>1367</ele>
        <time>2010-11-06T12:47:49Z</time>
      </trkpt>
      <trkpt lat="43.94282" lon="7.2399">
        <ele>1352</ele>
        <time>2010-11-06T12:47:54Z</time>
      </trkpt>
      <trkpt lat="43.94272" lon="7.23991">
        <ele>1354</ele>
        <time>2010-11-06T12:47:56Z</time>
      </trkpt>
      <trkpt lat="43.94247" lon="7.2398">
        <ele>1359</ele>
        <time>2010-11-06T12:48:01Z</time>
      </trkpt>
      <trkpt lat="43.94238" lon="7.23956">
        <ele>1353</ele>
        <time>2010-11-06T12:48:04Z</time>
      </trkpt>
      <trkpt lat="43.94231" lon="7.23903">
        <ele>1330</ele>
        <time>2010-11-06T12:48:09Z</time>
      </trkpt>
      <trkpt lat="43.94239" lon="7.23864">
        <ele>1324</ele>
        <time>2010-11-06T12:48:13Z</time>
      </trkpt>
      <trkpt lat="43.94244" lon="7.23843">
        <ele>1322</ele>
        <time>2010-11-06T12:48:15Z</time>
      </trkpt>
      <trkpt lat="43.94251" lon="7.23796">
        <ele>1309</ele>
        <time>2010-11-06T12:48:19Z</time>
      </trkpt>
      <trkpt lat="43.94258" lon="7.23775">
        <ele>1307</ele>
        <time>2010-11-06T12:48:21Z</time>
      </trkpt>
      <trkpt lat="43.94274" lon="7.23739">
        <ele>1300</ele>
        <time>2010-11-06T12:48:25Z</time>
      </trkpt>
      <trkpt lat="43.94277" lon="7.2372">
        <ele>1299</ele>
        <time>2010-11-06T12:48:28Z</time>
      </trkpt>
      <trkpt lat="43.9427" lon="7.23717">
        <ele>1299</ele>
        <time>2010-11-06T12:48:31Z</time>
      </trkpt>
      <trkpt lat="43.94267" lon="7.23719">
        <ele>1299</ele>
        <time>2010-11-06T12:48:32Z</time>
      </trkpt>
      <trkpt lat="43.94265" lon="7.2372">
        <ele>1299</ele>
        <time>2010-11-06T12:48:37Z</time>
      </trkpt>
      <trkpt lat="43.94265" lon="7.23719">
        <ele>1299</ele>
        <time>2010-11-06T12:48:48Z</time>
      </trkpt>
      <trkpt lat="43.94265" lon="7.23719">
        <ele>1299</ele>
        <time>2010-11-06T12:49:08Z</time>
      </trkpt>
      <trkpt lat="43.94265" lon="7.23719">
        <ele>1299</ele>
        <time>2010-11-06T12:49:16Z</time>
      </trkpt>
      <trkpt lat="43.94262" lon="7.23721">
        <ele>1299</ele>
        <time>2010-11-06T12:49:42Z</time>
      </trkpt>
      <trkpt lat="43.94253" lon="7.23736">
        <ele>1302</ele>
        <time>2010-11-06T12:49:46Z</time>
      </trkpt>
      <trkpt lat="43.94245" lon="7.23758">
        <ele>1303</ele>
        <time>2010-11-06T12:49:49Z</time>
      </trkpt>
      <trkpt lat="43.9423" lon="7.23786">
        <ele>1300</ele>
        <time>2010-11-06T12:49:53Z</time>
      </trkpt>
      <trkpt lat="43.94217" lon="7.23826">
        <ele>1303</ele>
        <time>2010-11-06T12:49:58Z</time>
      </trkpt>
      <trkpt lat="43.94209" lon="7.23843">
        <ele>1319</ele>
        <time>2010-11-06T12:50:00Z</time>
      </trkpt>
      <trkpt lat="43.94199" lon="7.23858">
        <ele>1320</ele>
        <time>2010-11-06T12:50:02Z</time>
      </trkpt>
      <trkpt lat="43.94174" lon="7.23863">
        <ele>1317</ele>
        <time>2010-11-06T12:50:06Z</time>
      </trkpt>
      <trkpt lat="43.94155" lon="7.23866">
        <ele>1304</ele>
        <time>2010-11-06T12:50:09Z</time>
      </trkpt>
      <trkpt lat="43.94141" lon="7.23863">
        <ele>1302</ele>
        <time>2010-11-06T12:50:11Z</time>
      </trkpt>
      <trkpt lat="43.94122" lon="7.23856">
        <ele>1297</ele>
        <time>2010-11-06T12:50:14Z</time>
      </trkpt>
      <trkpt lat="43.94096" lon="7.23843">
        <ele>1285</ele>
        <time>2010-11-06T12:50:18Z</time>
      </trkpt>
      <trkpt lat="43.9408" lon="7.23844">
        <ele>1267</ele>
        <time>2010-11-06T12:50:22Z</time>
      </trkpt>
      <trkpt lat="43.94076" lon="7.23863">
        <ele>1266</ele>
        <time>2010-11-06T12:50:25Z</time>
      </trkpt>
      <trkpt lat="43.94073" lon="7.2391">
        <ele>1284</ele>
        <time>2010-11-06T12:50:31Z</time>
      </trkpt>
      <trkpt lat="43.94066" lon="7.23919">
        <ele>1298</ele>
        <time>2010-11-06T12:50:33Z</time>
      </trkpt>
      <trkpt lat="43.94045" lon="7.23939">
        <ele>1297</ele>
        <time>2010-11-06T12:50:37Z</time>
      </trkpt>
      <trkpt lat="43.94029" lon="7.23953">
        <ele>1297</ele>
        <time>2010-11-06T12:50:41Z</time>
      </trkpt>
      <trkpt lat="43.94019" lon="7.23951">
        <ele>1294</ele>
        <time>2010-11-06T12:50:43Z</time>
      </trkpt>
      <trkpt lat="43.94008" lon="7.23948">
        <ele>1290</ele>
        <time>2010-11-06T12:50:45Z</time>
      </trkpt>
      <trkpt lat="43.93986" lon="7.23945">
        <ele>1272</ele>
        <time>2010-11-06T12:50:50Z</time>
      </trkpt>
      <trkpt lat="43.93969" lon="7.23956">
        <ele>1275</ele>
        <time>2010-11-06T12:50:55Z</time>
      </trkpt>
      <trkpt lat="43.93951" lon="7.23966">
        <ele>1277</ele>
        <time>2010-11-06T12:51:00Z</time>
      </trkpt>
      <trkpt lat="43.93931" lon="7.23975">
        <ele>1281</ele>
        <time>2010-11-06T12:51:04Z</time>
      </trkpt>
      <trkpt lat="43.93925" lon="7.23977">
        <ele>1283</ele>
        <time>2010-11-06T12:51:05Z</time>
      </trkpt>
      <trkpt lat="43.93906" lon="7.23991">
        <ele>1277</ele>
        <time>2010-11-06T12:51:09Z</time>
      </trkpt>
      <trkpt lat="43.93887" lon="7.23999">
        <ele>1264</ele>
        <time>2010-11-06T12:51:14Z</time>
      </trkpt>
      <trkpt lat="43.93873" lon="7.24003">
        <ele>1287</ele>
        <time>2010-11-06T12:51:18Z</time>
      </trkpt>
      <trkpt lat="43.93867" lon="7.23998">
        <ele>1256</ele>
        <time>2010-11-06T12:51:20Z</time>
      </trkpt>
      <trkpt lat="43.93859" lon="7.23991">
        <ele>1253</ele>
        <time>2010-11-06T12:51:22Z</time>
      </trkpt>
      <trkpt lat="43.93847" lon="7.23984">
        <ele>1251</ele>
        <time>2010-11-06T12:51:25Z</time>
      </trkpt>
      <trkpt lat="43.93831" lon="7.23992">
        <ele>1242</ele>
        <time>2010-11-06T12:51:29Z</time>
      </trkpt>
      <trkpt lat="43.93827" lon="7.2399">
        <ele>1237</ele>
        <time>2010-11-06T12:51:30Z</time>
      </trkpt>
      <trkpt lat="43.93806" lon="7.23983">
        <ele>1218</ele>
        <time>2010-11-06T12:51:36Z</time>
      </trkpt>
      <trkpt lat="43.93793" lon="7.24004">
        <ele>1229</ele>
        <time>2010-11-06T12:51:42Z</time>
      </trkpt>
      <trkpt lat="43.93791" lon="7.24017">
        <ele>1228</ele>
        <time>2010-11-06T12:51:45Z</time>
      </trkpt>
      <trkpt lat="43.93789" lon="7.24035">
        <ele>1228</ele>
        <time>2010-11-06T12:51:48Z</time>
      </trkpt>
      <trkpt lat="43.93782" lon="7.24053">
        <ele>1225</ele>
        <time>2010-11-06T12:51:52Z</time>
      </trkpt>
      <trkpt lat="43.93786" lon="7.24062">
        <ele>1227</ele>
        <time>2010-11-06T12:51:54Z</time>
      </trkpt>
      <trkpt lat="43.93796" lon="7.24086">
        <ele>1238</ele>
        <time>2010-11-06T12:51:59Z</time>
      </trkpt>
      <trkpt lat="43.93797" lon="7.24106">
        <ele>1239</ele>
        <time>2010-11-06T12:52:02Z</time>
      </trkpt>
      <trkpt lat="43.93799" lon="7.24128">
        <ele>1241</ele>
        <time>2010-11-06T12:52:06Z</time>
      </trkpt>
      <trkpt lat="43.93793" lon="7.24159">
        <ele>1240</ele>
        <time>2010-11-06T12:52:12Z</time>
      </trkpt>
      <trkpt lat="43.93783" lon="7.24172">
        <ele>1245</ele>
        <time>2010-11-06T12:52:15Z</time>
      </trkpt>
      <trkpt lat="43.9378" lon="7.24192">
        <ele>1248</ele>
        <time>2010-11-06T12:52:19Z</time>
      </trkpt>
      <trkpt lat="43.93771" lon="7.24213">
        <ele>1250</ele>
        <time>2010-11-06T12:52:23Z</time>
      </trkpt>
      <trkpt lat="43.93751" lon="7.24235">
        <ele>1247</ele>
        <time>2010-11-06T12:52:29Z</time>
      </trkpt>
      <trkpt lat="43.93734" lon="7.24237">
        <ele>1214</ele>
        <time>2010-11-06T12:52:33Z</time>
      </trkpt>
      <trkpt lat="43.93716" lon="7.24244">
        <ele>1205</ele>
        <time>2010-11-06T12:52:37Z</time>
      </trkpt>
      <trkpt lat="43.93706" lon="7.24267">
        <ele>1235</ele>
        <time>2010-11-06T12:52:41Z</time>
      </trkpt>
      <trkpt lat="43.93691" lon="7.24284">
        <ele>1235</ele>
        <time>2010-11-06T12:52:45Z</time>
      </trkpt>
      <trkpt lat="43.9367" lon="7.24303">
        <ele>1241</ele>
        <time>2010-11-06T12:52:50Z</time>
      </trkpt>
      <trkpt lat="43.93667" lon="7.24309">
        <ele>1244</ele>
        <time>2010-11-06T12:52:51Z</time>
      </trkpt>
      <trkpt lat="43.93646" lon="7.24327">
        <ele>1225</ele>
        <time>2010-11-06T12:52:56Z</time>
      </trkpt>
      <trkpt lat="43.93632" lon="7.24334">
        <ele>1252</ele>
        <time>2010-11-06T12:52:59Z</time>
      </trkpt>
      <trkpt lat="43.93612" lon="7.24339">
        <ele>1244</ele>
        <time>2010-11-06T12:53:04Z</time>
      </trkpt>
      <trkpt lat="43.9359" lon="7.24328">
        <ele>1208</ele>
        <time>2010-11-06T12:53:09Z</time>
      </trkpt>
      <trkpt lat="43.9358" lon="7.24335">
        <ele>1211</ele>
        <time>2010-11-06T12:53:12Z</time>
      </trkpt>
      <trkpt lat="43.93577" lon="7.24339">
        <ele>1214</ele>
        <time>2010-11-06T12:53:13Z</time>
      </trkpt>
      <trkpt lat="43.9356" lon="7.24354">
        <ele>1221</ele>
        <time>2010-11-06T12:53:18Z</time>
      </trkpt>
      <trkpt lat="43.93556" lon="7.24353">
        <ele>1221</ele>
        <time>2010-11-06T12:53:19Z</time>
      </trkpt>
      <trkpt lat="43.93535" lon="7.24348">
        <ele>1218</ele>
        <time>2010-11-06T12:53:24Z</time>
      </trkpt>
      <trkpt lat="43.93518" lon="7.24349">
        <ele>1214</ele>
        <time>2010-11-06T12:53:28Z</time>
      </trkpt>
      <trkpt lat="43.935" lon="7.24344">
        <ele>1201</ele>
        <time>2010-11-06T12:53:32Z</time>
      </trkpt>
      <trkpt lat="43.93464" lon="7.24319">
        <ele>1194</ele>
        <time>2010-11-06T12:53:39Z</time>
      </trkpt>
      <trkpt lat="43.93454" lon="7.24313">
        <ele>1194</ele>
        <time>2010-11-06T12:53:41Z</time>
      </trkpt>
      <trkpt lat="43.93445" lon="7.24306">
        <ele>1194</ele>
        <time>2010-11-06T12:53:43Z</time>
      </trkpt>
      <trkpt lat="43.93427" lon="7.24303">
        <ele>1194</ele>
        <time>2010-11-06T12:53:47Z</time>
      </trkpt>
      <trkpt lat="43.93424" lon="7.24304">
        <ele>1194</ele>
        <time>2010-11-06T12:53:49Z</time>
      </trkpt>
      <trkpt lat="43.93423" lon="7.24304">
        <ele>1194</ele>
        <time>2010-11-06T12:53:57Z</time>
      </trkpt>
      <trkpt lat="43.93424" lon="7.24305">
        <ele>1194</ele>
        <time>2010-11-06T12:54:02Z</time>
      </trkpt>
      <trkpt lat="43.93425" lon="7.24302">
        <ele>1194</ele>
        <time>2010-11-06T12:54:07Z</time>
      </trkpt>
      <trkpt lat="43.93423" lon="7.24303">
        <ele>1194</ele>
        <time>2010-11-06T12:54:13Z</time>
      </trkpt>
      <trkpt lat="43.93422" lon="7.24303">
        <ele>1194</ele>
        <time>2010-11-06T12:54:18Z</time>
      </trkpt>
      <trkpt lat="43.93422" lon="7.24303">
        <ele>1194</ele>
        <time>2010-11-06T12:54:36Z</time>
      </trkpt>
      <trkpt lat="43.93421" lon="7.24303">
        <ele>1194</ele>
        <time>2010-11-06T12:54:47Z</time>
      </trkpt>
      <trkpt lat="43.93421" lon="7.24303">
        <ele>1194</ele>
        <time>2010-11-06T12:54:54Z</time>
      </trkpt>
      <trkpt lat="43.93422" lon="7.24303">
        <ele>1194</ele>
        <time>2010-11-06T12:55:07Z</time>
      </trkpt>
      <trkpt lat="43.93424" lon="7.24303">
        <ele>1194</ele>
        <time>2010-11-06T12:55:32Z</time>
      </trkpt>
      <trkpt lat="43.93424" lon="7.24306">
        <ele>1194</ele>
        <time>2010-11-06T12:55:42Z</time>
      </trkpt>
      <trkpt lat="43.93424" lon="7.24306">
        <ele>1195</ele>
        <time>2010-11-06T12:55:47Z</time>
      </trkpt>
      <trkpt lat="43.93422" lon="7.24311">
        <ele>1195</ele>
        <time>2010-11-06T12:55:50Z</time>
      </trkpt>
      <trkpt lat="43.93418" lon="7.24317">
        <ele>1197</ele>
        <time>2010-11-06T12:55:57Z</time>
      </trkpt>
      <trkpt lat="43.93414" lon="7.24319">
        <ele>1198</ele>
        <time>2010-11-06T12:56:04Z</time>
      </trkpt>
      <trkpt lat="43.934" lon="7.24327">
        <ele>1198</ele>
        <time>2010-11-06T12:56:08Z</time>
      </trkpt>
      <trkpt lat="43.93379" lon="7.24342">
        <ele>1192</ele>
        <time>2010-11-06T12:56:12Z</time>
      </trkpt>
      <trkpt lat="43.93375" lon="7.24346">
        <ele>1191</ele>
        <time>2010-11-06T12:56:13Z</time>
      </trkpt>
      <trkpt lat="43.93357" lon="7.24362">
        <ele>1189</ele>
        <time>2010-11-06T12:56:19Z</time>
      </trkpt>
      <trkpt lat="43.93353" lon="7.24365">
        <ele>1189</ele>
        <time>2010-11-06T12:56:21Z</time>
      </trkpt>
      <trkpt lat="43.93349" lon="7.24367">
        <ele>1188</ele>
        <time>2010-11-06T12:56:25Z</time>
      </trkpt>
      <trkpt lat="43.93343" lon="7.24368">
        <ele>1188</ele>
        <time>2010-11-06T12:56:30Z</time>
      </trkpt>
      <trkpt lat="43.93334" lon="7.24368">
        <ele>1188</ele>
        <time>2010-11-06T12:56:36Z</time>
      </trkpt>
      <trkpt lat="43.93328" lon="7.24368">
        <ele>1185</ele>
        <time>2010-11-06T12:56:39Z</time>
      </trkpt>
      <trkpt lat="43.93317" lon="7.24378">
        <ele>1182</ele>
        <time>2010-11-06T12:56:43Z</time>
      </trkpt>
      <trkpt lat="43.93315" lon="7.2438">
        <ele>1182</ele>
        <time>2010-11-06T12:56:44Z</time>
      </trkpt>
      <trkpt lat="43.93302" lon="7.24386">
        <ele>1181</ele>
        <time>2010-11-06T12:56:50Z</time>
      </trkpt>
      <trkpt lat="43.9329" lon="7.2439">
        <ele>1181</ele>
        <time>2010-11-06T12:56:55Z</time>
      </trkpt>
      <trkpt lat="43.93288" lon="7.2439">
        <ele>1181</ele>
        <time>2010-11-06T12:56:56Z</time>
      </trkpt>
      <trkpt lat="43.93279" lon="7.24394">
        <ele>1180</ele>
        <time>2010-11-06T12:57:00Z</time>
      </trkpt>
      <trkpt lat="43.93271" lon="7.24402">
        <ele>1179</ele>
        <time>2010-11-06T12:57:04Z</time>
      </trkpt>
      <trkpt lat="43.9326" lon="7.24412">
        <ele>1178</ele>
        <time>2010-11-06T12:57:08Z</time>
      </trkpt>
      <trkpt lat="43.93253" lon="7.24419">
        <ele>1173</ele>
        <time>2010-11-06T12:57:11Z</time>
      </trkpt>
      <trkpt lat="43.9324" lon="7.24433">
        <ele>1171</ele>
        <time>2010-11-06T12:57:17Z</time>
      </trkpt>
      <trkpt lat="43.93226" lon="7.24443">
        <ele>1168</ele>
        <time>2010-11-06T12:57:21Z</time>
      </trkpt>
      <trkpt lat="43.93213" lon="7.24456">
        <ele>1167</ele>
        <time>2010-11-06T12:57:25Z</time>
      </trkpt>
      <trkpt lat="43.93207" lon="7.24465">
        <ele>1165</ele>
        <time>2010-11-06T12:57:27Z</time>
      </trkpt>
      <trkpt lat="43.93195" lon="7.24486">
        <ele>1163</ele>
        <time>2010-11-06T12:57:30Z</time>
      </trkpt>
      <trkpt lat="43.93184" lon="7.24501">
        <ele>1144</ele>
        <time>2010-11-06T12:57:34Z</time>
      </trkpt>
      <trkpt lat="43.93178" lon="7.2451">
        <ele>1145</ele>
        <time>2010-11-06T12:57:37Z</time>
      </trkpt>
      <trkpt lat="43.93167" lon="7.24524">
        <ele>1139</ele>
        <time>2010-11-06T12:57:40Z</time>
      </trkpt>
      <trkpt lat="43.93155" lon="7.24533">
        <ele>1137</ele>
        <time>2010-11-06T12:57:45Z</time>
      </trkpt>
      <trkpt lat="43.93152" lon="7.24537">
        <ele>1136</ele>
        <time>2010-11-06T12:57:47Z</time>
      </trkpt>
      <trkpt lat="43.9314" lon="7.24536">
        <ele>1135</ele>
        <time>2010-11-06T12:57:52Z</time>
      </trkpt>
      <trkpt lat="43.93135" lon="7.24533">
        <ele>1135</ele>
        <time>2010-11-06T12:57:54Z</time>
      </trkpt>
      <trkpt lat="43.93125" lon="7.24525">
        <ele>1136</ele>
        <time>2010-11-06T12:57:59Z</time>
      </trkpt>
      <trkpt lat="43.9312" lon="7.24522">
        <ele>1137</ele>
        <time>2010-11-06T12:58:01Z</time>
      </trkpt>
      <trkpt lat="43.93111" lon="7.24524">
        <ele>1136</ele>
        <time>2010-11-06T12:58:05Z</time>
      </trkpt>
      <trkpt lat="43.93091" lon="7.24528">
        <ele>1135</ele>
        <time>2010-11-06T12:58:10Z</time>
      </trkpt>
      <trkpt lat="43.93079" lon="7.2453">
        <ele>1124</ele>
        <time>2010-11-06T12:58:14Z</time>
      </trkpt>
      <trkpt lat="43.93077" lon="7.24529">
        <ele>1124</ele>
        <time>2010-11-06T12:58:15Z</time>
      </trkpt>
      <trkpt lat="43.93067" lon="7.24528">
        <ele>1123</ele>
        <time>2010-11-06T12:58:19Z</time>
      </trkpt>
      <trkpt lat="43.9306" lon="7.24515">
        <ele>1126</ele>
        <time>2010-11-06T12:58:24Z</time>
      </trkpt>
      <trkpt lat="43.93058" lon="7.24512">
        <ele>1126</ele>
        <time>2010-11-06T12:58:25Z</time>
      </trkpt>
      <trkpt lat="43.93046" lon="7.24503">
        <ele>1124</ele>
        <time>2010-11-06T12:58:29Z</time>
      </trkpt>
      <trkpt lat="43.9303" lon="7.24497">
        <ele>1143</ele>
        <time>2010-11-06T12:58:34Z</time>
      </trkpt>
      <trkpt lat="43.93016" lon="7.24503">
        <ele>1121</ele>
        <time>2010-11-06T12:58:38Z</time>
      </trkpt>
      <trkpt lat="43.93011" lon="7.24506">
        <ele>1121</ele>
        <time>2010-11-06T12:58:39Z</time>
      </trkpt>
      <trkpt lat="43.92998" lon="7.24512">
        <ele>1113</ele>
        <time>2010-11-06T12:58:44Z</time>
      </trkpt>
      <trkpt lat="43.92994" lon="7.24512">
        <ele>1112</ele>
        <time>2010-11-06T12:58:46Z</time>
      </trkpt>
      <trkpt lat="43.92983" lon="7.24505">
        <ele>1110</ele>
        <time>2010-11-06T12:58:51Z</time>
      </trkpt>
      <trkpt lat="43.92961" lon="7.24499">
        <ele>1127</ele>
        <time>2010-11-06T12:58:58Z</time>
      </trkpt>
      <trkpt lat="43.92949" lon="7.2449">
        <ele>1126</ele>
        <time>2010-11-06T12:59:02Z</time>
      </trkpt>
      <trkpt lat="43.92938" lon="7.24491">
        <ele>1123</ele>
        <time>2010-11-06T12:59:05Z</time>
      </trkpt>
      <trkpt lat="43.92928" lon="7.24498">
        <ele>1117</ele>
        <time>2010-11-06T12:59:09Z</time>
      </trkpt>
      <trkpt lat="43.92912" lon="7.24497">
        <ele>1112</ele>
        <time>2010-11-06T12:59:14Z</time>
      </trkpt>
      <trkpt lat="43.92893" lon="7.24496">
        <ele>1116</ele>
        <time>2010-11-06T12:59:20Z</time>
      </trkpt>
      <trkpt lat="43.92883" lon="7.24514">
        <ele>1092</ele>
        <time>2010-11-06T12:59:24Z</time>
      </trkpt>
      <trkpt lat="43.92877" lon="7.24516">
        <ele>1091</ele>
        <time>2010-11-06T12:59:26Z</time>
      </trkpt>
      <trkpt lat="43.92862" lon="7.24522">
        <ele>1089</ele>
        <time>2010-11-06T12:59:31Z</time>
      </trkpt>
      <trkpt lat="43.92851" lon="7.24533">
        <ele>1087</ele>
        <time>2010-11-06T12:59:35Z</time>
      </trkpt>
      <trkpt lat="43.92848" lon="7.24534">
        <ele>1086</ele>
        <time>2010-11-06T12:59:37Z</time>
      </trkpt>
      <trkpt lat="43.92841" lon="7.24523">
        <ele>1091</ele>
        <time>2010-11-06T12:59:41Z</time>
      </trkpt>
      <trkpt lat="43.92838" lon="7.2452">
        <ele>1092</ele>
        <time>2010-11-06T12:59:42Z</time>
      </trkpt>
      <trkpt lat="43.92828" lon="7.24514">
        <ele>1090</ele>
        <time>2010-11-06T12:59:45Z</time>
      </trkpt>
      <trkpt lat="43.92798" lon="7.24525">
        <ele>1079</ele>
        <time>2010-11-06T12:59:51Z</time>
      </trkpt>
      <trkpt lat="43.92793" lon="7.24526">
        <ele>1079</ele>
        <time>2010-11-06T12:59:52Z</time>
      </trkpt>
      <trkpt lat="43.92787" lon="7.24529">
        <ele>1077</ele>
        <time>2010-11-06T12:59:54Z</time>
      </trkpt>
      <trkpt lat="43.92773" lon="7.24531">
        <ele>1076</ele>
        <time>2010-11-06T12:59:58Z</time>
      </trkpt>
      <trkpt lat="43.92769" lon="7.24532">
        <ele>1076</ele>
        <time>2010-11-06T12:59:59Z</time>
      </trkpt>
      <trkpt lat="43.92756" lon="7.24536">
        <ele>1074</ele>
        <time>2010-11-06T13:00:04Z</time>
      </trkpt>
      <trkpt lat="43.92754" lon="7.24542">
        <ele>1072</ele>
        <time>2010-11-06T13:00:08Z</time>
      </trkpt>
      <trkpt lat="43.92747" lon="7.2453">
        <ele>1065</ele>
        <time>2010-11-06T13:00:13Z</time>
      </trkpt>
      <trkpt lat="43.92743" lon="7.2452">
        <ele>1070</ele>
        <time>2010-11-06T13:00:16Z</time>
      </trkpt>
      <trkpt lat="43.92733" lon="7.245">
        <ele>1073</ele>
        <time>2010-11-06T13:00:21Z</time>
      </trkpt>
      <trkpt lat="43.92728" lon="7.24491">
        <ele>1088</ele>
        <time>2010-11-06T13:00:25Z</time>
      </trkpt>
      <trkpt lat="43.92729" lon="7.24491">
        <ele>1088</ele>
        <time>2010-11-06T13:00:29Z</time>
      </trkpt>
      <trkpt lat="43.92728" lon="7.2449">
        <ele>1088</ele>
        <time>2010-11-06T13:00:36Z</time>
      </trkpt>
      <trkpt lat="43.92727" lon="7.2449">
        <ele>1088</ele>
        <time>2010-11-06T13:00:43Z</time>
      </trkpt>
      <trkpt lat="43.92728" lon="7.24491">
        <ele>1088</ele>
        <time>2010-11-06T13:01:06Z</time>
      </trkpt>
      <trkpt lat="43.92728" lon="7.24492">
        <ele>1088</ele>
        <time>2010-11-06T13:01:13Z</time>
      </trkpt>
      <trkpt lat="43.92729" lon="7.24493">
        <ele>1088</ele>
        <time>2010-11-06T13:01:37Z</time>
      </trkpt>
      <trkpt lat="43.92728" lon="7.24492">
        <ele>1088</ele>
        <time>2010-11-06T13:01:47Z</time>
      </trkpt>
      <trkpt lat="43.92726" lon="7.24487">
        <ele>1088</ele>
        <time>2010-11-06T13:02:16Z</time>
      </trkpt>
      <trkpt lat="43.92723" lon="7.24476">
        <ele>1089</ele>
        <time>2010-11-06T13:02:24Z</time>
      </trkpt>
      <trkpt lat="43.9272" lon="7.24471">
        <ele>1089</ele>
        <time>2010-11-06T13:02:30Z</time>
      </trkpt>
      <trkpt lat="43.92718" lon="7.24471">
        <ele>1089</ele>
        <time>2010-11-06T13:02:31Z</time>
      </trkpt>
      <trkpt lat="43.9271" lon="7.2447">
        <ele>1088</ele>
        <time>2010-11-06T13:02:36Z</time>
      </trkpt>
      <trkpt lat="43.92696" lon="7.24469">
        <ele>1087</ele>
        <time>2010-11-06T13:02:41Z</time>
      </trkpt>
      <trkpt lat="43.92695" lon="7.24468">
        <ele>1087</ele>
        <time>2010-11-06T13:02:42Z</time>
      </trkpt>
      <trkpt lat="43.92689" lon="7.24466">
        <ele>1087</ele>
        <time>2010-11-06T13:02:48Z</time>
      </trkpt>
      <trkpt lat="43.92683" lon="7.24462">
        <ele>1087</ele>
        <time>2010-11-06T13:02:54Z</time>
      </trkpt>
      <trkpt lat="43.92679" lon="7.24459">
        <ele>1088</ele>
        <time>2010-11-06T13:02:57Z</time>
      </trkpt>
      <trkpt lat="43.92667" lon="7.24445">
        <ele>1091</ele>
        <time>2010-11-06T13:03:03Z</time>
      </trkpt>
      <trkpt lat="43.92651" lon="7.24451">
        <ele>1074</ele>
        <time>2010-11-06T13:03:07Z</time>
      </trkpt>
      <trkpt lat="43.92632" lon="7.24456">
        <ele>1069</ele>
        <time>2010-11-06T13:03:11Z</time>
      </trkpt>
      <trkpt lat="43.92619" lon="7.24457">
        <ele>1067</ele>
        <time>2010-11-06T13:03:15Z</time>
      </trkpt>
      <trkpt lat="43.92607" lon="7.24466">
        <ele>1062</ele>
        <time>2010-11-06T13:03:21Z</time>
      </trkpt>
      <trkpt lat="43.92605" lon="7.24466">
        <ele>1062</ele>
        <time>2010-11-06T13:03:22Z</time>
      </trkpt>
      <trkpt lat="43.92595" lon="7.24453">
        <ele>1064</ele>
        <time>2010-11-06T13:03:27Z</time>
      </trkpt>
      <trkpt lat="43.9259" lon="7.24447">
        <ele>1066</ele>
        <time>2010-11-06T13:03:30Z</time>
      </trkpt>
      <trkpt lat="43.92586" lon="7.2443">
        <ele>1069</ele>
        <time>2010-11-06T13:03:34Z</time>
      </trkpt>
      <trkpt lat="43.92576" lon="7.2441">
        <ele>1072</ele>
        <time>2010-11-06T13:03:42Z</time>
      </trkpt>
      <trkpt lat="43.92575" lon="7.24407">
        <ele>1072</ele>
        <time>2010-11-06T13:03:43Z</time>
      </trkpt>
      <trkpt lat="43.92573" lon="7.24404">
        <ele>1073</ele>
        <time>2010-11-06T13:03:45Z</time>
      </trkpt>
      <trkpt lat="43.92572" lon="7.24404">
        <ele>1073</ele>
        <time>2010-11-06T13:03:47Z</time>
      </trkpt>
      <trkpt lat="43.92568" lon="7.24405">
        <ele>1072</ele>
        <time>2010-11-06T13:03:50Z</time>
      </trkpt>
      <trkpt lat="43.92556" lon="7.24409">
        <ele>1071</ele>
        <time>2010-11-06T13:03:56Z</time>
      </trkpt>
      <trkpt lat="43.92544" lon="7.24412">
        <ele>1069</ele>
        <time>2010-11-06T13:04:01Z</time>
      </trkpt>
      <trkpt lat="43.92538" lon="7.24414">
        <ele>1068</ele>
        <time>2010-11-06T13:04:03Z</time>
      </trkpt>
      <trkpt lat="43.92534" lon="7.24417">
        <ele>1045</ele>
        <time>2010-11-06T13:04:07Z</time>
      </trkpt>
      <trkpt lat="43.92534" lon="7.24418">
        <ele>1045</ele>
        <time>2010-11-06T13:04:08Z</time>
      </trkpt>
      <trkpt lat="43.92541" lon="7.24423">
        <ele>1046</ele>
        <time>2010-11-06T13:04:12Z</time>
      </trkpt>
      <trkpt lat="43.92547" lon="7.24432">
        <ele>1046</ele>
        <time>2010-11-06T13:04:16Z</time>
      </trkpt>
      <trkpt lat="43.92546" lon="7.24435">
        <ele>1045</ele>
        <time>2010-11-06T13:04:20Z</time>
      </trkpt>
      <trkpt lat="43.92537" lon="7.24434">
        <ele>1044</ele>
        <time>2010-11-06T13:04:26Z</time>
      </trkpt>
      <trkpt lat="43.92524" lon="7.24441">
        <ele>1041</ele>
        <time>2010-11-06T13:04:32Z</time>
      </trkpt>
      <trkpt lat="43.92514" lon="7.24452">
        <ele>1037</ele>
        <time>2010-11-06T13:04:37Z</time>
      </trkpt>
      <trkpt lat="43.92502" lon="7.24463">
        <ele>1032</ele>
        <time>2010-11-06T13:04:41Z</time>
      </trkpt>
      <trkpt lat="43.92488" lon="7.24472">
        <ele>1018</ele>
        <time>2010-11-06T13:04:46Z</time>
      </trkpt>
      <trkpt lat="43.92482" lon="7.2448">
        <ele>1017</ele>
        <time>2010-11-06T13:04:50Z</time>
      </trkpt>
      <trkpt lat="43.92482" lon="7.2448">
        <ele>1017</ele>
        <time>2010-11-06T13:04:51Z</time>
      </trkpt>
      <trkpt lat="43.92488" lon="7.24478">
        <ele>1017</ele>
        <time>2010-11-06T13:04:55Z</time>
      </trkpt>
      <trkpt lat="43.92487" lon="7.2448">
        <ele>1016</ele>
        <time>2010-11-06T13:04:59Z</time>
      </trkpt>
      <trkpt lat="43.92482" lon="7.24486">
        <ele>1015</ele>
        <time>2010-11-06T13:05:03Z</time>
      </trkpt>
      <trkpt lat="43.92474" lon="7.24494">
        <ele>1015</ele>
        <time>2010-11-06T13:05:08Z</time>
      </trkpt>
      <trkpt lat="43.92466" lon="7.24497">
        <ele>1015</ele>
        <time>2010-11-06T13:05:13Z</time>
      </trkpt>
      <trkpt lat="43.92456" lon="7.24503">
        <ele>992</ele>
        <time>2010-11-06T13:05:18Z</time>
      </trkpt>
      <trkpt lat="43.92449" lon="7.2451">
        <ele>992</ele>
        <time>2010-11-06T13:05:22Z</time>
      </trkpt>
      <trkpt lat="43.92451" lon="7.24511">
        <ele>992</ele>
        <time>2010-11-06T13:05:25Z</time>
      </trkpt>
      <trkpt lat="43.92455" lon="7.24516">
        <ele>991</ele>
        <time>2010-11-06T13:05:30Z</time>
      </trkpt>
      <trkpt lat="43.92447" lon="7.24522">
        <ele>990</ele>
        <time>2010-11-06T13:05:35Z</time>
      </trkpt>
      <trkpt lat="43.92442" lon="7.2453">
        <ele>988</ele>
        <time>2010-11-06T13:05:38Z</time>
      </trkpt>
      <trkpt lat="43.92434" lon="7.24549">
        <ele>983</ele>
        <time>2010-11-06T13:05:44Z</time>
      </trkpt>
      <trkpt lat="43.92434" lon="7.24552">
        <ele>982</ele>
        <time>2010-11-06T13:05:45Z</time>
      </trkpt>
      <trkpt lat="43.92422" lon="7.24573">
        <ele>975</ele>
        <time>2010-11-06T13:05:51Z</time>
      </trkpt>
      <trkpt lat="43.92414" lon="7.2458">
        <ele>969</ele>
        <time>2010-11-06T13:05:53Z</time>
      </trkpt>
      <trkpt lat="43.92404" lon="7.24575">
        <ele>969</ele>
        <time>2010-11-06T13:05:57Z</time>
      </trkpt>
      <trkpt lat="43.92395" lon="7.24566">
        <ele>968</ele>
        <time>2010-11-06T13:06:02Z</time>
      </trkpt>
      <trkpt lat="43.92383" lon="7.24565">
        <ele>966</ele>
        <time>2010-11-06T13:06:06Z</time>
      </trkpt>
      <trkpt lat="43.92375" lon="7.24564">
        <ele>965</ele>
        <time>2010-11-06T13:06:09Z</time>
      </trkpt>
      <trkpt lat="43.92371" lon="7.24557">
        <ele>965</ele>
        <time>2010-11-06T13:06:14Z</time>
      </trkpt>
      <trkpt lat="43.92372" lon="7.24557">
        <ele>965</ele>
        <time>2010-11-06T13:06:24Z</time>
      </trkpt>
      <trkpt lat="43.92372" lon="7.24558">
        <ele>965</ele>
        <time>2010-11-06T13:06:38Z</time>
      </trkpt>
      <trkpt lat="43.92372" lon="7.24558">
        <ele>965</ele>
        <time>2010-11-06T13:06:49Z</time>
      </trkpt>
      <trkpt lat="43.92372" lon="7.24559">
        <ele>965</ele>
        <time>2010-11-06T13:06:58Z</time>
      </trkpt>
      <trkpt lat="43.92372" lon="7.24558">
        <ele>965</ele>
        <time>2010-11-06T13:07:10Z</time>
      </trkpt>
      <trkpt lat="43.92371" lon="7.24557">
        <ele>965</ele>
        <time>2010-11-06T13:07:39Z</time>
      </trkpt>
      <trkpt lat="43.92371" lon="7.24558">
        <ele>965</ele>
        <time>2010-11-06T13:08:04Z</time>
      </trkpt>
      <trkpt lat="43.92371" lon="7.24559">
        <ele>964</ele>
        <time>2010-11-06T13:08:20Z</time>
      </trkpt>
      <trkpt lat="43.92371" lon="7.24558">
        <ele>964</ele>
        <time>2010-11-06T13:08:38Z</time>
      </trkpt>
      <trkpt lat="43.9237" lon="7.24559">
        <ele>964</ele>
        <time>2010-11-06T13:09:12Z</time>
      </trkpt>
      <trkpt lat="43.92369" lon="7.24559">
        <ele>964</ele>
        <time>2010-11-06T13:09:39Z</time>
      </trkpt>
      <trkpt lat="43.92368" lon="7.24558">
        <ele>964</ele>
        <time>2010-11-06T13:09:49Z</time>
      </trkpt>
      <trkpt lat="43.92363" lon="7.24543">
        <ele>965</ele>
        <time>2010-11-06T13:09:55Z</time>
      </trkpt>
      <trkpt lat="43.92354" lon="7.24528">
        <ele>965</ele>
        <time>2010-11-06T13:10:01Z</time>
      </trkpt>
      <trkpt lat="43.92349" lon="7.24519">
        <ele>964</ele>
        <time>2010-11-06T13:10:06Z</time>
      </trkpt>
      <trkpt lat="43.92347" lon="7.24508">
        <ele>963</ele>
        <time>2010-11-06T13:10:11Z</time>
      </trkpt>
      <trkpt lat="43.92346" lon="7.24507">
        <ele>963</ele>
        <time>2010-11-06T13:10:13Z</time>
      </trkpt>
      <trkpt lat="43.92344" lon="7.2451">
        <ele>963</ele>
        <time>2010-11-06T13:10:19Z</time>
      </trkpt>
      <trkpt lat="43.92343" lon="7.24508">
        <ele>962</ele>
        <time>2010-11-06T13:10:25Z</time>
      </trkpt>
      <trkpt lat="43.9234" lon="7.24501">
        <ele>961</ele>
        <time>2010-11-06T13:10:31Z</time>
      </trkpt>
      <trkpt lat="43.92338" lon="7.24492">
        <ele>969</ele>
        <time>2010-11-06T13:10:34Z</time>
      </trkpt>
      <trkpt lat="43.92335" lon="7.24492">
        <ele>968</ele>
        <time>2010-11-06T13:10:38Z</time>
      </trkpt>
      <trkpt lat="43.92335" lon="7.24494">
        <ele>966</ele>
        <time>2010-11-06T13:10:39Z</time>
      </trkpt>
      <trkpt lat="43.92335" lon="7.24495">
        <ele>964</ele>
        <time>2010-11-06T13:10:41Z</time>
      </trkpt>
      <trkpt lat="43.92333" lon="7.24496">
        <ele>955</ele>
        <time>2010-11-06T13:10:44Z</time>
      </trkpt>
      <trkpt lat="43.92327" lon="7.24486">
        <ele>949</ele>
        <time>2010-11-06T13:10:50Z</time>
      </trkpt>
      <trkpt lat="43.92323" lon="7.24478">
        <ele>946</ele>
        <time>2010-11-06T13:10:55Z</time>
      </trkpt>
      <trkpt lat="43.92321" lon="7.24476">
        <ele>945</ele>
        <time>2010-11-06T13:10:56Z</time>
      </trkpt>
      <trkpt lat="43.9232" lon="7.24474">
        <ele>945</ele>
        <time>2010-11-06T13:10:59Z</time>
      </trkpt>
      <trkpt lat="43.92318" lon="7.24472">
        <ele>944</ele>
        <time>2010-11-06T13:11:01Z</time>
      </trkpt>
      <trkpt lat="43.92314" lon="7.24469">
        <ele>943</ele>
        <time>2010-11-06T13:11:06Z</time>
      </trkpt>
      <trkpt lat="43.92314" lon="7.24467">
        <ele>943</ele>
        <time>2010-11-06T13:11:13Z</time>
      </trkpt>
      <trkpt lat="43.92314" lon="7.24464">
        <ele>943</ele>
        <time>2010-11-06T13:11:15Z</time>
      </trkpt>
      <trkpt lat="43.92313" lon="7.24454">
        <ele>944</ele>
        <time>2010-11-06T13:11:19Z</time>
      </trkpt>
      <trkpt lat="43.92308" lon="7.24448">
        <ele>944</ele>
        <time>2010-11-06T13:11:22Z</time>
      </trkpt>
      <trkpt lat="43.92309" lon="7.24434">
        <ele>948</ele>
        <time>2010-11-06T13:11:27Z</time>
      </trkpt>
      <trkpt lat="43.9231" lon="7.24426">
        <ele>950</ele>
        <time>2010-11-06T13:11:29Z</time>
      </trkpt>
      <trkpt lat="43.92311" lon="7.24405">
        <ele>967</ele>
        <time>2010-11-06T13:11:34Z</time>
      </trkpt>
      <trkpt lat="43.92303" lon="7.24392">
        <ele>964</ele>
        <time>2010-11-06T13:11:39Z</time>
      </trkpt>
      <trkpt lat="43.92303" lon="7.24391">
        <ele>964</ele>
        <time>2010-11-06T13:11:42Z</time>
      </trkpt>
      <trkpt lat="43.92302" lon="7.2439">
        <ele>964</ele>
        <time>2010-11-06T13:11:47Z</time>
      </trkpt>
      <trkpt lat="43.92302" lon="7.24388">
        <ele>964</ele>
        <time>2010-11-06T13:11:57Z</time>
      </trkpt>
      <trkpt lat="43.92298" lon="7.24389">
        <ele>962</ele>
        <time>2010-11-06T13:12:03Z</time>
      </trkpt>
      <trkpt lat="43.92293" lon="7.24391">
        <ele>960</ele>
        <time>2010-11-06T13:12:08Z</time>
      </trkpt>
      <trkpt lat="43.9229" lon="7.24392">
        <ele>959</ele>
        <time>2010-11-06T13:12:10Z</time>
      </trkpt>
      <trkpt lat="43.92284" lon="7.24393">
        <ele>956</ele>
        <time>2010-11-06T13:12:16Z</time>
      </trkpt>
      <trkpt lat="43.92281" lon="7.24393">
        <ele>955</ele>
        <time>2010-11-06T13:12:21Z</time>
      </trkpt>
      <trkpt lat="43.9228" lon="7.24391">
        <ele>954</ele>
        <time>2010-11-06T13:12:27Z</time>
      </trkpt>
      <trkpt lat="43.92267" lon="7.24385">
        <ele>951</ele>
        <time>2010-11-06T13:12:34Z</time>
      </trkpt>
      <trkpt lat="43.92266" lon="7.24385">
        <ele>951</ele>
        <time>2010-11-06T13:12:37Z</time>
      </trkpt>
      <trkpt lat="43.92267" lon="7.24384">
        <ele>951</ele>
        <time>2010-11-06T13:12:46Z</time>
      </trkpt>
      <trkpt lat="43.92265" lon="7.24384">
        <ele>951</ele>
        <time>2010-11-06T13:12:53Z</time>
      </trkpt>
      <trkpt lat="43.92266" lon="7.24385">
        <ele>951</ele>
        <time>2010-11-06T13:13:01Z</time>
      </trkpt>
      <trkpt lat="43.92267" lon="7.24386">
        <ele>951</ele>
        <time>2010-11-06T13:13:04Z</time>
      </trkpt>
      <trkpt lat="43.92269" lon="7.2439">
        <ele>950</ele>
        <time>2010-11-06T13:13:08Z</time>
      </trkpt>
      <trkpt lat="43.92265" lon="7.24389">
        <ele>949</ele>
        <time>2010-11-06T13:13:13Z</time>
      </trkpt>
      <trkpt lat="43.92255" lon="7.24385">
        <ele>948</ele>
        <time>2010-11-06T13:13:18Z</time>
      </trkpt>
      <trkpt lat="43.92254" lon="7.24382">
        <ele>949</ele>
        <time>2010-11-06T13:13:19Z</time>
      </trkpt>
      <trkpt lat="43.92252" lon="7.24375">
        <ele>951</ele>
        <time>2010-11-06T13:13:21Z</time>
      </trkpt>
      <trkpt lat="43.92243" lon="7.24365">
        <ele>922</ele>
        <time>2010-11-06T13:13:26Z</time>
      </trkpt>
      <trkpt lat="43.92231" lon="7.24367">
        <ele>920</ele>
        <time>2010-11-06T13:13:31Z</time>
      </trkpt>
      <trkpt lat="43.92217" lon="7.2437">
        <ele>916</ele>
        <time>2010-11-06T13:13:35Z</time>
      </trkpt>
      <trkpt lat="43.92209" lon="7.24355">
        <ele>918</ele>
        <time>2010-11-06T13:13:41Z</time>
      </trkpt>
      <trkpt lat="43.92207" lon="7.24351">
        <ele>918</ele>
        <time>2010-11-06T13:13:42Z</time>
      </trkpt>
      <trkpt lat="43.92191" lon="7.2433">
        <ele>938</ele>
        <time>2010-11-06T13:13:48Z</time>
      </trkpt>
      <trkpt lat="43.92179" lon="7.24327">
        <ele>932</ele>
        <time>2010-11-06T13:13:52Z</time>
      </trkpt>
      <trkpt lat="43.92166" lon="7.24333">
        <ele>920</ele>
        <time>2010-11-06T13:13:58Z</time>
      </trkpt>
      <trkpt lat="43.92156" lon="7.24344">
        <ele>903</ele>
        <time>2010-11-06T13:14:02Z</time>
      </trkpt>
      <trkpt lat="43.92147" lon="7.24352">
        <ele>894</ele>
        <time>2010-11-06T13:14:05Z</time>
      </trkpt>
      <trkpt lat="43.92139" lon="7.24363">
        <ele>887</ele>
        <time>2010-11-06T13:14:09Z</time>
      </trkpt>
      <trkpt lat="43.92134" lon="7.24374">
        <ele>882</ele>
        <time>2010-11-06T13:14:12Z</time>
      </trkpt>
      <trkpt lat="43.92123" lon="7.24377">
        <ele>880</ele>
        <time>2010-11-06T13:14:17Z</time>
      </trkpt>
      <trkpt lat="43.92121" lon="7.24377">
        <ele>879</ele>
        <time>2010-11-06T13:14:18Z</time>
      </trkpt>
      <trkpt lat="43.9211" lon="7.24372">
        <ele>879</ele>
        <time>2010-11-06T13:14:24Z</time>
      </trkpt>
      <trkpt lat="43.92107" lon="7.24373">
        <ele>878</ele>
        <time>2010-11-06T13:14:25Z</time>
      </trkpt>
      <trkpt lat="43.92102" lon="7.2438">
        <ele>875</ele>
        <time>2010-11-06T13:14:30Z</time>
      </trkpt>
      <trkpt lat="43.92098" lon="7.24377">
        <ele>876</ele>
        <time>2010-11-06T13:14:34Z</time>
      </trkpt>
      <trkpt lat="43.9209" lon="7.24376">
        <ele>875</ele>
        <time>2010-11-06T13:14:38Z</time>
      </trkpt>
      <trkpt lat="43.92087" lon="7.24375">
        <ele>875</ele>
        <time>2010-11-06T13:14:39Z</time>
      </trkpt>
      <trkpt lat="43.92075" lon="7.24365">
        <ele>860</ele>
        <time>2010-11-06T13:14:46Z</time>
      </trkpt>
      <trkpt lat="43.92073" lon="7.24363">
        <ele>861</ele>
        <time>2010-11-06T13:14:54Z</time>
      </trkpt>
      <trkpt lat="43.92071" lon="7.24364">
        <ele>860</ele>
        <time>2010-11-06T13:14:58Z</time>
      </trkpt>
      <trkpt lat="43.9207" lon="7.24364">
        <ele>860</ele>
        <time>2010-11-06T13:15:05Z</time>
      </trkpt>
      <trkpt lat="43.92067" lon="7.24369">
        <ele>858</ele>
        <time>2010-11-06T13:15:10Z</time>
      </trkpt>
      <trkpt lat="43.92065" lon="7.24368">
        <ele>858</ele>
        <time>2010-11-06T13:15:16Z</time>
      </trkpt>
      <trkpt lat="43.92064" lon="7.24369">
        <ele>858</ele>
        <time>2010-11-06T13:15:24Z</time>
      </trkpt>
      <trkpt lat="43.92064" lon="7.24369">
        <ele>857</ele>
        <time>2010-11-06T13:15:29Z</time>
      </trkpt>
      <trkpt lat="43.92063" lon="7.24369">
        <ele>857</ele>
        <time>2010-11-06T13:15:43Z</time>
      </trkpt>
      <trkpt lat="43.92058" lon="7.24355">
        <ele>860</ele>
        <time>2010-11-06T13:15:47Z</time>
      </trkpt>
      <trkpt lat="43.92053" lon="7.24352">
        <ele>859</ele>
        <time>2010-11-06T13:15:50Z</time>
      </trkpt>
      <trkpt lat="43.92052" lon="7.24355">
        <ele>858</ele>
        <time>2010-11-06T13:15:53Z</time>
      </trkpt>
      <trkpt lat="43.92052" lon="7.24353">
        <ele>858</ele>
        <time>2010-11-06T13:16:00Z</time>
      </trkpt>
      <trkpt lat="43.92053" lon="7.24357">
        <ele>858</ele>
        <time>2010-11-06T13:16:04Z</time>
      </trkpt>
      <trkpt lat="43.92054" lon="7.24359">
        <ele>858</ele>
        <time>2010-11-06T13:16:07Z</time>
      </trkpt>
      <trkpt lat="43.92051" lon="7.24373">
        <ele>854</ele>
        <time>2010-11-06T13:16:11Z</time>
      </trkpt>
      <trkpt lat="43.92041" lon="7.24389">
        <ele>850</ele>
        <time>2010-11-06T13:16:15Z</time>
      </trkpt>
      <trkpt lat="43.92036" lon="7.24396">
        <ele>849</ele>
        <time>2010-11-06T13:16:17Z</time>
      </trkpt>
      <trkpt lat="43.92027" lon="7.24414">
        <ele>845</ele>
        <time>2010-11-06T13:16:22Z</time>
      </trkpt>
      <trkpt lat="43.92017" lon="7.24436">
        <ele>830</ele>
        <time>2010-11-06T13:16:26Z</time>
      </trkpt>
      <trkpt lat="43.92007" lon="7.24451">
        <ele>828</ele>
        <time>2010-11-06T13:16:29Z</time>
      </trkpt>
      <trkpt lat="43.92003" lon="7.24456">
        <ele>827</ele>
        <time>2010-11-06T13:16:30Z</time>
      </trkpt>
      <trkpt lat="43.91984" lon="7.24469">
        <ele>821</ele>
        <time>2010-11-06T13:16:34Z</time>
      </trkpt>
      <trkpt lat="43.91958" lon="7.24483">
        <ele>820</ele>
        <time>2010-11-06T13:16:39Z</time>
      </trkpt>
      <trkpt lat="43.91943" lon="7.24485">
        <ele>820</ele>
        <time>2010-11-06T13:16:42Z</time>
      </trkpt>
      <trkpt lat="43.91941" lon="7.24489">
        <ele>819</ele>
        <time>2010-11-06T13:16:44Z</time>
      </trkpt>
      <trkpt lat="43.91941" lon="7.24489">
        <ele>819</ele>
        <time>2010-11-06T13:16:48Z</time>
      </trkpt>
      <trkpt lat="43.91942" lon="7.24491">
        <ele>819</ele>
        <time>2010-11-06T13:17:08Z</time>
      </trkpt>
      <trkpt lat="43.91942" lon="7.24491">
        <ele>819</ele>
        <time>2010-11-06T13:17:14Z</time>
      </trkpt>
      <trkpt lat="43.91942" lon="7.24492">
        <ele>819</ele>
        <time>2010-11-06T13:17:22Z</time>
      </trkpt>
      <trkpt lat="43.91942" lon="7.24492">
        <ele>819</ele>
        <time>2010-11-06T13:17:33Z</time>
      </trkpt>
      <trkpt lat="43.91941" lon="7.24491">
        <ele>819</ele>
        <time>2010-11-06T13:17:38Z</time>
      </trkpt>
      <trkpt lat="43.91942" lon="7.2449">
        <ele>819</ele>
        <time>2010-11-06T13:17:54Z</time>
      </trkpt>
      <trkpt lat="43.91942" lon="7.24491">
        <ele>819</ele>
        <time>2010-11-06T13:18:05Z</time>
      </trkpt>
      <trkpt lat="43.91941" lon="7.24493">
        <ele>819</ele>
        <time>2010-11-06T13:18:32Z</time>
      </trkpt>
      <trkpt lat="43.91942" lon="7.24493">
        <ele>819</ele>
        <time>2010-11-06T13:19:07Z</time>
      </trkpt>
      <trkpt lat="43.91942" lon="7.24491">
        <ele>819</ele>
        <time>2010-11-06T13:19:26Z</time>
      </trkpt>
      <trkpt lat="43.91941" lon="7.24492">
        <ele>819</ele>
        <time>2010-11-06T13:19:38Z</time>
      </trkpt>
      <trkpt lat="43.91942" lon="7.24492">
        <ele>819</ele>
        <time>2010-11-06T13:19:44Z</time>
      </trkpt>
      <trkpt lat="43.91943" lon="7.24493">
        <ele>819</ele>
        <time>2010-11-06T13:20:04Z</time>
      </trkpt>
      <trkpt lat="43.91943" lon="7.24492">
        <ele>820</ele>
        <time>2010-11-06T13:20:15Z</time>
      </trkpt>
      <trkpt lat="43.91943" lon="7.24492">
        <ele>820</ele>
        <time>2010-11-06T13:20:28Z</time>
      </trkpt>
      <trkpt lat="43.91942" lon="7.24492">
        <ele>819</ele>
        <time>2010-11-06T13:20:39Z</time>
      </trkpt>
      <trkpt lat="43.91942" lon="7.24493">
        <ele>819</ele>
        <time>2010-11-06T13:20:45Z</time>
      </trkpt>
      <trkpt lat="43.91942" lon="7.24494">
        <ele>819</ele>
        <time>2010-11-06T13:21:10Z</time>
      </trkpt>
      <trkpt lat="43.91942" lon="7.24495">
        <ele>819</ele>
        <time>2010-11-06T13:21:41Z</time>
      </trkpt>
      <trkpt lat="43.91942" lon="7.24494">
        <ele>819</ele>
        <time>2010-11-06T13:21:46Z</time>
      </trkpt>
      <trkpt lat="43.91941" lon="7.24493">
        <ele>819</ele>
        <time>2010-11-06T13:21:55Z</time>
      </trkpt>
      <trkpt lat="43.91942" lon="7.24493">
        <ele>819</ele>
        <time>2010-11-06T13:22:04Z</time>
      </trkpt>
      <trkpt lat="43.91942" lon="7.24493">
        <ele>819</ele>
        <time>2010-11-06T13:22:11Z</time>
      </trkpt>
      <trkpt lat="43.91942" lon="7.24492">
        <ele>819</ele>
        <time>2010-11-06T13:22:16Z</time>
      </trkpt>
      <trkpt lat="43.91941" lon="7.24493">
        <ele>819</ele>
        <time>2010-11-06T13:22:20Z</time>
      </trkpt>
      <trkpt lat="43.91941" lon="7.24492">
        <ele>819</ele>
        <time>2010-11-06T13:22:57Z</time>
      </trkpt>
      <trkpt lat="43.91941" lon="7.24492">
        <ele>819</ele>
        <time>2010-11-06T13:23:11Z</time>
      </trkpt>
      <trkpt lat="43.9194" lon="7.24491">
        <ele>819</ele>
        <time>2010-11-06T13:23:15Z</time>
      </trkpt>
      <trkpt lat="43.9194" lon="7.24494">
        <ele>819</ele>
        <time>2010-11-06T13:23:21Z</time>
      </trkpt>
      <trkpt lat="43.91932" lon="7.24509">
        <ele>811</ele>
        <time>2010-11-06T13:23:26Z</time>
      </trkpt>
      <trkpt lat="43.91914" lon="7.24521">
        <ele>811</ele>
        <time>2010-11-06T13:23:30Z</time>
      </trkpt>
      <trkpt lat="43.9189" lon="7.24528">
        <ele>809</ele>
        <time>2010-11-06T13:23:34Z</time>
      </trkpt>
      <trkpt lat="43.91887" lon="7.2453">
        <ele>808</ele>
        <time>2010-11-06T13:23:35Z</time>
      </trkpt>
      <trkpt lat="43.91872" lon="7.24532">
        <ele>808</ele>
        <time>2010-11-06T13:23:40Z</time>
      </trkpt>
      <trkpt lat="43.91866" lon="7.24536">
        <ele>807</ele>
        <time>2010-11-06T13:23:43Z</time>
      </trkpt>
      <trkpt lat="43.91862" lon="7.24534">
        <ele>807</ele>
        <time>2010-11-06T13:23:49Z</time>
      </trkpt>
      <trkpt lat="43.91862" lon="7.24534">
        <ele>807</ele>
        <time>2010-11-06T13:23:55Z</time>
      </trkpt>
      <trkpt lat="43.91863" lon="7.24534">
        <ele>808</ele>
        <time>2010-11-06T13:24:03Z</time>
      </trkpt>
      <trkpt lat="43.91864" lon="7.24534">
        <ele>808</ele>
        <time>2010-11-06T13:24:12Z</time>
      </trkpt>
      <trkpt lat="43.91864" lon="7.24533">
        <ele>808</ele>
        <time>2010-11-06T13:24:28Z</time>
      </trkpt>
      <trkpt lat="43.91864" lon="7.24533">
        <ele>808</ele>
        <time>2010-11-06T13:24:42Z</time>
      </trkpt>
      <trkpt lat="43.91865" lon="7.24533">
        <ele>808</ele>
        <time>2010-11-06T13:24:56Z</time>
      </trkpt>
      <trkpt lat="43.91868" lon="7.24532">
        <ele>808</ele>
        <time>2010-11-06T13:25:04Z</time>
      </trkpt>
      <trkpt lat="43.91869" lon="7.24531">
        <ele>808</ele>
        <time>2010-11-06T13:25:10Z</time>
      </trkpt>
      <trkpt lat="43.91868" lon="7.24532">
        <ele>808</ele>
        <time>2010-11-06T13:25:17Z</time>
      </trkpt>
      <trkpt lat="43.91866" lon="7.24532">
        <ele>808</ele>
        <time>2010-11-06T13:25:32Z</time>
      </trkpt>
      <trkpt lat="43.91865" lon="7.24532">
        <ele>808</ele>
        <time>2010-11-06T13:25:39Z</time>
      </trkpt>
      <trkpt lat="43.91863" lon="7.24534">
        <ele>808</ele>
        <time>2010-11-06T13:25:45Z</time>
      </trkpt>
      <trkpt lat="43.91862" lon="7.24534">
        <ele>808</ele>
        <time>2010-11-06T13:25:50Z</time>
      </trkpt>
      <trkpt lat="43.91864" lon="7.24535">
        <ele>807</ele>
        <time>2010-11-06T13:26:10Z</time>
      </trkpt>
      <trkpt lat="43.91864" lon="7.24535">
        <ele>807</ele>
        <time>2010-11-06T13:26:19Z</time>
      </trkpt>
      <trkpt lat="43.91863" lon="7.24536">
        <ele>807</ele>
        <time>2010-11-06T13:26:29Z</time>
      </trkpt>
      <trkpt lat="43.91864" lon="7.24535">
        <ele>807</ele>
        <time>2010-11-06T13:26:37Z</time>
      </trkpt>
      <trkpt lat="43.91864" lon="7.24536">
        <ele>807</ele>
        <time>2010-11-06T13:26:45Z</time>
      </trkpt>
      <trkpt lat="43.91866" lon="7.24536">
        <ele>807</ele>
        <time>2010-11-06T13:26:54Z</time>
      </trkpt>
      <trkpt lat="43.91866" lon="7.24536">
        <ele>807</ele>
        <time>2010-11-06T13:27:07Z</time>
      </trkpt>
      <trkpt lat="43.91866" lon="7.24536">
        <ele>807</ele>
        <time>2010-11-06T13:27:13Z</time>
      </trkpt>
      <trkpt lat="43.91866" lon="7.24536">
        <ele>807</ele>
        <time>2010-11-06T13:27:20Z</time>
      </trkpt>
      <trkpt lat="43.91866" lon="7.24536">
        <ele>807</ele>
        <time>2010-11-06T13:27:27Z</time>
      </trkpt>
      <trkpt lat="43.91867" lon="7.24536">
        <ele>807</ele>
        <time>2010-11-06T13:27:32Z</time>
      </trkpt>
      <trkpt lat="43.91867" lon="7.24535">
        <ele>808</ele>
        <time>2010-11-06T13:27:42Z</time>
      </trkpt>
      <trkpt lat="43.91865" lon="7.24535">
        <ele>807</ele>
        <time>2010-11-06T13:27:51Z</time>
      </trkpt>
      <trkpt lat="43.91864" lon="7.24536">
        <ele>807</ele>
        <time>2010-11-06T13:27:59Z</time>
      </trkpt>
      <trkpt lat="43.91863" lon="7.24534">
        <ele>807</ele>
        <time>2010-11-06T13:28:10Z</time>
      </trkpt>
      <trkpt lat="43.91863" lon="7.24534">
        <ele>808</ele>
        <time>2010-11-06T13:28:20Z</time>
      </trkpt>
      <trkpt lat="43.91865" lon="7.24536">
        <ele>807</ele>
        <time>2010-11-06T13:28:27Z</time>
      </trkpt>
      <trkpt lat="43.91866" lon="7.24536">
        <ele>807</ele>
        <time>2010-11-06T13:28:38Z</time>
      </trkpt>
      <trkpt lat="43.91866" lon="7.24536">
        <ele>807</ele>
        <time>2010-11-06T13:28:52Z</time>
      </trkpt>
      <trkpt lat="43.91863" lon="7.24534">
        <ele>807</ele>
        <time>2010-11-06T13:28:58Z</time>
      </trkpt>
      <trkpt lat="43.91863" lon="7.24532">
        <ele>808</ele>
        <time>2010-11-06T13:29:03Z</time>
      </trkpt>
      <trkpt lat="43.91863" lon="7.24531">
        <ele>808</ele>
        <time>2010-11-06T13:29:14Z</time>
      </trkpt>
      <trkpt lat="43.91864" lon="7.24532">
        <ele>808</ele>
        <time>2010-11-06T13:29:27Z</time>
      </trkpt>
      <trkpt lat="43.91863" lon="7.24537">
        <ele>807</ele>
        <time>2010-11-06T13:29:44Z</time>
      </trkpt>
      <trkpt lat="43.91864" lon="7.24537">
        <ele>807</ele>
        <time>2010-11-06T13:29:50Z</time>
      </trkpt>
      <trkpt lat="43.91865" lon="7.24538">
        <ele>807</ele>
        <time>2010-11-06T13:29:56Z</time>
      </trkpt>
      <trkpt lat="43.91863" lon="7.24538">
        <ele>807</ele>
        <time>2010-11-06T13:30:11Z</time>
      </trkpt>
      <trkpt lat="43.91863" lon="7.24537">
        <ele>807</ele>
        <time>2010-11-06T13:30:21Z</time>
      </trkpt>
      <trkpt lat="43.91863" lon="7.24536">
        <ele>807</ele>
        <time>2010-11-06T13:30:45Z</time>
      </trkpt>
      <trkpt lat="43.91863" lon="7.24536">
        <ele>807</ele>
        <time>2010-11-06T13:31:03Z</time>
      </trkpt>
      <trkpt lat="43.91863" lon="7.24535">
        <ele>807</ele>
        <time>2010-11-06T13:31:20Z</time>
      </trkpt>
      <trkpt lat="43.91862" lon="7.24536">
        <ele>807</ele>
        <time>2010-11-06T13:31:30Z</time>
      </trkpt>
      <trkpt lat="43.91862" lon="7.24537">
        <ele>807</ele>
        <time>2010-11-06T13:31:43Z</time>
      </trkpt>
      <trkpt lat="43.91863" lon="7.24535">
        <ele>807</ele>
        <time>2010-11-06T13:31:55Z</time>
      </trkpt>
      <trkpt lat="43.91864" lon="7.24535">
        <ele>807</ele>
        <time>2010-11-06T13:32:01Z</time>
      </trkpt>
      <trkpt lat="43.91866" lon="7.24535">
        <ele>808</ele>
        <time>2010-11-06T13:32:10Z</time>
      </trkpt>
      <trkpt lat="43.91869" lon="7.24533">
        <ele>808</ele>
        <time>2010-11-06T13:32:13Z</time>
      </trkpt>
      <trkpt lat="43.91873" lon="7.24528">
        <ele>808</ele>
        <time>2010-11-06T13:32:19Z</time>
      </trkpt>
      <trkpt lat="43.91873" lon="7.24528">
        <ele>808</ele>
        <time>2010-11-06T13:32:20Z</time>
      </trkpt>
      <trkpt lat="43.9188" lon="7.24517">
        <ele>809</ele>
        <time>2010-11-06T13:32:26Z</time>
      </trkpt>
      <trkpt lat="43.91887" lon="7.24482">
        <ele>810</ele>
        <time>2010-11-06T13:32:37Z</time>
      </trkpt>
      <trkpt lat="43.91895" lon="7.24464">
        <ele>810</ele>
        <time>2010-11-06T13:32:43Z</time>
      </trkpt>
      <trkpt lat="43.91909" lon="7.24451">
        <ele>811</ele>
        <time>2010-11-06T13:32:51Z</time>
      </trkpt>
      <trkpt lat="43.91921" lon="7.24447">
        <ele>819</ele>
        <time>2010-11-06T13:32:57Z</time>
      </trkpt>
      <trkpt lat="43.91936" lon="7.24441">
        <ele>819</ele>
        <time>2010-11-06T13:33:05Z</time>
      </trkpt>
      <trkpt lat="43.9195" lon="7.24435">
        <ele>820</ele>
        <time>2010-11-06T13:33:12Z</time>
      </trkpt>
      <trkpt lat="43.91961" lon="7.24425">
        <ele>822</ele>
        <time>2010-11-06T13:33:19Z</time>
      </trkpt>
      <trkpt lat="43.9197" lon="7.24408">
        <ele>828</ele>
        <time>2010-11-06T13:33:26Z</time>
      </trkpt>
      <trkpt lat="43.91975" lon="7.24386">
        <ele>829</ele>
        <time>2010-11-06T13:33:34Z</time>
      </trkpt>
      <trkpt lat="43.91973" lon="7.24363">
        <ele>830</ele>
        <time>2010-11-06T13:33:42Z</time>
      </trkpt>
      <trkpt lat="43.91967" lon="7.24343">
        <ele>831</ele>
        <time>2010-11-06T13:33:49Z</time>
      </trkpt>
      <trkpt lat="43.91956" lon="7.24326">
        <ele>838</ele>
        <time>2010-11-06T13:33:56Z</time>
      </trkpt>
      <trkpt lat="43.91942" lon="7.24314">
        <ele>836</ele>
        <time>2010-11-06T13:34:03Z</time>
      </trkpt>
      <trkpt lat="43.91926" lon="7.24303">
        <ele>836</ele>
        <time>2010-11-06T13:34:11Z</time>
      </trkpt>
      <trkpt lat="43.91911" lon="7.24293">
        <ele>822</ele>
        <time>2010-11-06T13:34:18Z</time>
      </trkpt>
      <trkpt lat="43.91899" lon="7.24285">
        <ele>822</ele>
        <time>2010-11-06T13:34:24Z</time>
      </trkpt>
      <trkpt lat="43.91885" lon="7.24272">
        <ele>822</ele>
        <time>2010-11-06T13:34:32Z</time>
      </trkpt>
      <trkpt lat="43.91884" lon="7.24271">
        <ele>822</ele>
        <time>2010-11-06T13:34:33Z</time>
      </trkpt>
      <trkpt lat="43.9188" lon="7.24265">
        <ele>822</ele>
        <time>2010-11-06T13:34:38Z</time>
      </trkpt>
      <trkpt lat="43.91879" lon="7.24264">
        <ele>822</ele>
        <time>2010-11-06T13:34:44Z</time>
      </trkpt>
      <trkpt lat="43.91877" lon="7.24261">
        <ele>822</ele>
        <time>2010-11-06T13:34:50Z</time>
      </trkpt>
      <trkpt lat="43.91871" lon="7.24251">
        <ele>821</ele>
        <time>2010-11-06T13:34:56Z</time>
      </trkpt>
      <trkpt lat="43.91869" lon="7.24233">
        <ele>825</ele>
        <time>2010-11-06T13:35:03Z</time>
      </trkpt>
      <trkpt lat="43.91874" lon="7.24213">
        <ele>826</ele>
        <time>2010-11-06T13:35:10Z</time>
      </trkpt>
      <trkpt lat="43.91883" lon="7.24198">
        <ele>828</ele>
        <time>2010-11-06T13:35:17Z</time>
      </trkpt>
      <trkpt lat="43.91896" lon="7.24185">
        <ele>830</ele>
        <time>2010-11-06T13:35:25Z</time>
      </trkpt>
      <trkpt lat="43.91908" lon="7.24173">
        <ele>835</ele>
        <time>2010-11-06T13:35:33Z</time>
      </trkpt>
      <trkpt lat="43.91918" lon="7.24162">
        <ele>840</ele>
        <time>2010-11-06T13:35:40Z</time>
      </trkpt>
      <trkpt lat="43.91929" lon="7.24149">
        <ele>840</ele>
        <time>2010-11-06T13:35:48Z</time>
      </trkpt>
      <trkpt lat="43.9194" lon="7.2414">
        <ele>841</ele>
        <time>2010-11-06T13:35:55Z</time>
      </trkpt>
      <trkpt lat="43.91953" lon="7.24134">
        <ele>841</ele>
        <time>2010-11-06T13:36:02Z</time>
      </trkpt>
      <trkpt lat="43.91965" lon="7.2413">
        <ele>843</ele>
        <time>2010-11-06T13:36:09Z</time>
      </trkpt>
      <trkpt lat="43.91975" lon="7.24129">
        <ele>844</ele>
        <time>2010-11-06T13:36:15Z</time>
      </trkpt>
      <trkpt lat="43.91989" lon="7.24126">
        <ele>845</ele>
        <time>2010-11-06T13:36:22Z</time>
      </trkpt>
      <trkpt lat="43.92003" lon="7.24117">
        <ele>860</ele>
        <time>2010-11-06T13:36:30Z</time>
      </trkpt>
      <trkpt lat="43.92013" lon="7.24103">
        <ele>858</ele>
        <time>2010-11-06T13:36:37Z</time>
      </trkpt>
      <trkpt lat="43.92021" lon="7.24088">
        <ele>857</ele>
        <time>2010-11-06T13:36:44Z</time>
      </trkpt>
      <trkpt lat="43.92032" lon="7.24068">
        <ele>856</ele>
        <time>2010-11-06T13:36:53Z</time>
      </trkpt>
      <trkpt lat="43.92046" lon="7.24047">
        <ele>859</ele>
        <time>2010-11-06T13:37:03Z</time>
      </trkpt>
      <trkpt lat="43.92052" lon="7.24031">
        <ele>860</ele>
        <time>2010-11-06T13:37:10Z</time>
      </trkpt>
      <trkpt lat="43.92047" lon="7.24022">
        <ele>859</ele>
        <time>2010-11-06T13:37:15Z</time>
      </trkpt>
      <trkpt lat="43.92043" lon="7.24018">
        <ele>858</ele>
        <time>2010-11-06T13:37:18Z</time>
      </trkpt>
      <trkpt lat="43.92041" lon="7.24015">
        <ele>858</ele>
        <time>2010-11-06T13:37:23Z</time>
      </trkpt>
      <trkpt lat="43.9204" lon="7.24013">
        <ele>858</ele>
        <time>2010-11-06T13:37:28Z</time>
      </trkpt>
      <trkpt lat="43.9204" lon="7.24012">
        <ele>858</ele>
        <time>2010-11-06T13:37:34Z</time>
      </trkpt>
      <trkpt lat="43.92039" lon="7.24013">
        <ele>858</ele>
        <time>2010-11-06T13:37:41Z</time>
      </trkpt>
      <trkpt lat="43.92037" lon="7.24012">
        <ele>857</ele>
        <time>2010-11-06T13:37:45Z</time>
      </trkpt>
      <trkpt lat="43.92024" lon="7.24008">
        <ele>855</ele>
        <time>2010-11-06T13:37:50Z</time>
      </trkpt>
      <trkpt lat="43.92008" lon="7.23994">
        <ele>856</ele>
        <time>2010-11-06T13:37:57Z</time>
      </trkpt>
      <trkpt lat="43.92001" lon="7.23976">
        <ele>862</ele>
        <time>2010-11-06T13:38:04Z</time>
      </trkpt>
      <trkpt lat="43.91998" lon="7.23959">
        <ele>860</ele>
        <time>2010-11-06T13:38:10Z</time>
      </trkpt>
      <trkpt lat="43.91991" lon="7.23939">
        <ele>865</ele>
        <time>2010-11-06T13:38:17Z</time>
      </trkpt>
      <trkpt lat="43.9198" lon="7.23933">
        <ele>865</ele>
        <time>2010-11-06T13:38:22Z</time>
      </trkpt>
      <trkpt lat="43.91964" lon="7.23934">
        <ele>863</ele>
        <time>2010-11-06T13:38:29Z</time>
      </trkpt>
      <trkpt lat="43.91948" lon="7.23939">
        <ele>861</ele>
        <time>2010-11-06T13:38:36Z</time>
      </trkpt>
      <trkpt lat="43.91927" lon="7.23941">
        <ele>861</ele>
        <time>2010-11-06T13:38:45Z</time>
      </trkpt>
      <trkpt lat="43.91909" lon="7.23945">
        <ele>851</ele>
        <time>2010-11-06T13:38:53Z</time>
      </trkpt>
      <trkpt lat="43.91895" lon="7.23942">
        <ele>850</ele>
        <time>2010-11-06T13:39:00Z</time>
      </trkpt>
      <trkpt lat="43.91886" lon="7.23929">
        <ele>850</ele>
        <time>2010-11-06T13:39:06Z</time>
      </trkpt>
      <trkpt lat="43.9188" lon="7.23908">
        <ele>859</ele>
        <time>2010-11-06T13:39:13Z</time>
      </trkpt>
      <trkpt lat="43.91878" lon="7.2388">
        <ele>860</ele>
        <time>2010-11-06T13:39:22Z</time>
      </trkpt>
      <trkpt lat="43.91879" lon="7.23861">
        <ele>861</ele>
        <time>2010-11-06T13:39:29Z</time>
      </trkpt>
      <trkpt lat="43.91878" lon="7.23861">
        <ele>861</ele>
        <time>2010-11-06T13:39:36Z</time>
      </trkpt>
      <trkpt lat="43.91878" lon="7.23857">
        <ele>861</ele>
        <time>2010-11-06T13:39:48Z</time>
      </trkpt>
      <trkpt lat="43.91879" lon="7.23857">
        <ele>861</ele>
        <time>2010-11-06T13:39:51Z</time>
      </trkpt>
      <trkpt lat="43.9189" lon="7.2384">
        <ele>865</ele>
        <time>2010-11-06T13:39:58Z</time>
      </trkpt>
      <trkpt lat="43.91901" lon="7.23826">
        <ele>869</ele>
        <time>2010-11-06T13:40:04Z</time>
      </trkpt>
      <trkpt lat="43.91916" lon="7.23805">
        <ele>867</ele>
        <time>2010-11-06T13:40:11Z</time>
      </trkpt>
      <trkpt lat="43.91933" lon="7.23786">
        <ele>879</ele>
        <time>2010-11-06T13:40:18Z</time>
      </trkpt>
      <trkpt lat="43.91946" lon="7.23777">
        <ele>880</ele>
        <time>2010-11-06T13:40:24Z</time>
      </trkpt>
      <trkpt lat="43.91959" lon="7.23772">
        <ele>883</ele>
        <time>2010-11-06T13:40:32Z</time>
      </trkpt>
      <trkpt lat="43.91974" lon="7.23767">
        <ele>885</ele>
        <time>2010-11-06T13:40:39Z</time>
      </trkpt>
      <trkpt lat="43.91984" lon="7.23754">
        <ele>888</ele>
        <time>2010-11-06T13:40:45Z</time>
      </trkpt>
      <trkpt lat="43.91986" lon="7.23733">
        <ele>888</ele>
        <time>2010-11-06T13:40:52Z</time>
      </trkpt>
      <trkpt lat="43.91982" lon="7.23712">
        <ele>887</ele>
        <time>2010-11-06T13:40:59Z</time>
      </trkpt>
      <trkpt lat="43.91982" lon="7.23689">
        <ele>888</ele>
        <time>2010-11-06T13:41:07Z</time>
      </trkpt>
      <trkpt lat="43.91984" lon="7.23677">
        <ele>890</ele>
        <time>2010-11-06T13:41:11Z</time>
      </trkpt>
      <trkpt lat="43.91989" lon="7.23646">
        <ele>896</ele>
        <time>2010-11-06T13:41:21Z</time>
      </trkpt>
      <trkpt lat="43.91985" lon="7.23622">
        <ele>896</ele>
        <time>2010-11-06T13:41:29Z</time>
      </trkpt>
      <trkpt lat="43.91973" lon="7.23609">
        <ele>896</ele>
        <time>2010-11-06T13:41:35Z</time>
      </trkpt>
      <trkpt lat="43.91955" lon="7.23602">
        <ele>896</ele>
        <time>2010-11-06T13:41:43Z</time>
      </trkpt>
      <trkpt lat="43.91935" lon="7.23593">
        <ele>896</ele>
        <time>2010-11-06T13:41:52Z</time>
      </trkpt>
      <trkpt lat="43.91913" lon="7.23581">
        <ele>899</ele>
        <time>2010-11-06T13:42:02Z</time>
      </trkpt>
      <trkpt lat="43.91893" lon="7.23569">
        <ele>901</ele>
        <time>2010-11-06T13:42:11Z</time>
      </trkpt>
      <trkpt lat="43.91877" lon="7.23556">
        <ele>901</ele>
        <time>2010-11-06T13:42:19Z</time>
      </trkpt>
      <trkpt lat="43.91863" lon="7.23538">
        <ele>903</ele>
        <time>2010-11-06T13:42:27Z</time>
      </trkpt>
      <trkpt lat="43.91849" lon="7.23525">
        <ele>905</ele>
        <time>2010-11-06T13:42:32Z</time>
      </trkpt>
      <trkpt lat="43.91827" lon="7.23504">
        <ele>908</ele>
        <time>2010-11-06T13:42:40Z</time>
      </trkpt>
      <trkpt lat="43.91813" lon="7.23496">
        <ele>917</ele>
        <time>2010-11-06T13:42:46Z</time>
      </trkpt>
      <trkpt lat="43.91798" lon="7.23494">
        <ele>920</ele>
        <time>2010-11-06T13:42:53Z</time>
      </trkpt>
      <trkpt lat="43.91779" lon="7.23482">
        <ele>921</ele>
        <time>2010-11-06T13:43:01Z</time>
      </trkpt>
      <trkpt lat="43.91764" lon="7.23465">
        <ele>923</ele>
        <time>2010-11-06T13:43:09Z</time>
      </trkpt>
      <trkpt lat="43.91756" lon="7.23467">
        <ele>923</ele>
        <time>2010-11-06T13:43:13Z</time>
      </trkpt>
      <trkpt lat="43.91744" lon="7.23487">
        <ele>925</ele>
        <time>2010-11-06T13:43:20Z</time>
      </trkpt>
      <trkpt lat="43.91736" lon="7.23504">
        <ele>916</ele>
        <time>2010-11-06T13:43:26Z</time>
      </trkpt>
      <trkpt lat="43.91723" lon="7.23518">
        <ele>917</ele>
        <time>2010-11-06T13:43:33Z</time>
      </trkpt>
      <trkpt lat="43.91703" lon="7.23528">
        <ele>919</ele>
        <time>2010-11-06T13:43:41Z</time>
      </trkpt>
      <trkpt lat="43.91683" lon="7.23543">
        <ele>919</ele>
        <time>2010-11-06T13:43:50Z</time>
      </trkpt>
      <trkpt lat="43.91667" lon="7.23559">
        <ele>918</ele>
        <time>2010-11-06T13:43:57Z</time>
      </trkpt>
      <trkpt lat="43.91649" lon="7.23577">
        <ele>928</ele>
        <time>2010-11-06T13:44:05Z</time>
      </trkpt>
      <trkpt lat="43.91635" lon="7.23579">
        <ele>933</ele>
        <time>2010-11-06T13:44:10Z</time>
      </trkpt>
      <trkpt lat="43.91617" lon="7.23575">
        <ele>937</ele>
        <time>2010-11-06T13:44:16Z</time>
      </trkpt>
      <trkpt lat="43.91606" lon="7.23583">
        <ele>939</ele>
        <time>2010-11-06T13:44:20Z</time>
      </trkpt>
      <trkpt lat="43.91602" lon="7.23603">
        <ele>928</ele>
        <time>2010-11-06T13:44:25Z</time>
      </trkpt>
      <trkpt lat="43.91596" lon="7.23627">
        <ele>925</ele>
        <time>2010-11-06T13:44:31Z</time>
      </trkpt>
      <trkpt lat="43.91586" lon="7.23648">
        <ele>924</ele>
        <time>2010-11-06T13:44:37Z</time>
      </trkpt>
      <trkpt lat="43.91573" lon="7.23667">
        <ele>926</ele>
        <time>2010-11-06T13:44:43Z</time>
      </trkpt>
      <trkpt lat="43.91557" lon="7.23678">
        <ele>926</ele>
        <time>2010-11-06T13:44:49Z</time>
      </trkpt>
      <trkpt lat="43.9154" lon="7.23678">
        <ele>928</ele>
        <time>2010-11-06T13:44:55Z</time>
      </trkpt>
      <trkpt lat="43.91526" lon="7.23669">
        <ele>932</ele>
        <time>2010-11-06T13:45:00Z</time>
      </trkpt>
      <trkpt lat="43.91518" lon="7.23662">
        <ele>942</ele>
        <time>2010-11-06T13:45:03Z</time>
      </trkpt>
      <trkpt lat="43.91504" lon="7.23671">
        <ele>938</ele>
        <time>2010-11-06T13:45:08Z</time>
      </trkpt>
      <trkpt lat="43.91502" lon="7.23676">
        <ele>937</ele>
        <time>2010-11-06T13:45:09Z</time>
      </trkpt>
      <trkpt lat="43.91499" lon="7.23697">
        <ele>947</ele>
        <time>2010-11-06T13:45:14Z</time>
      </trkpt>
      <trkpt lat="43.91492" lon="7.23726">
        <ele>944</ele>
        <time>2010-11-06T13:45:21Z</time>
      </trkpt>
      <trkpt lat="43.91481" lon="7.23736">
        <ele>944</ele>
        <time>2010-11-06T13:45:25Z</time>
      </trkpt>
      <trkpt lat="43.91462" lon="7.23751">
        <ele>944</ele>
        <time>2010-11-06T13:45:31Z</time>
      </trkpt>
      <trkpt lat="43.91457" lon="7.23768">
        <ele>946</ele>
        <time>2010-11-06T13:45:35Z</time>
      </trkpt>
      <trkpt lat="43.91461" lon="7.23786">
        <ele>945</ele>
        <time>2010-11-06T13:45:40Z</time>
      </trkpt>
      <trkpt lat="43.91469" lon="7.23807">
        <ele>942</ele>
        <time>2010-11-06T13:45:47Z</time>
      </trkpt>
      <trkpt lat="43.91475" lon="7.23822">
        <ele>939</ele>
        <time>2010-11-06T13:45:52Z</time>
      </trkpt>
      <trkpt lat="43.91478" lon="7.23849">
        <ele>932</ele>
        <time>2010-11-06T13:46:00Z</time>
      </trkpt>
      <trkpt lat="43.91475" lon="7.23871">
        <ele>932</ele>
        <time>2010-11-06T13:46:07Z</time>
      </trkpt>
      <trkpt lat="43.91468" lon="7.23888">
        <ele>931</ele>
        <time>2010-11-06T13:46:13Z</time>
      </trkpt>
      <trkpt lat="43.91456" lon="7.23904">
        <ele>932</ele>
        <time>2010-11-06T13:46:20Z</time>
      </trkpt>
      <trkpt lat="43.91455" lon="7.23906">
        <ele>932</ele>
        <time>2010-11-06T13:46:21Z</time>
      </trkpt>
      <trkpt lat="43.91448" lon="7.23904">
        <ele>933</ele>
        <time>2010-11-06T13:46:25Z</time>
      </trkpt>
      <trkpt lat="43.91449" lon="7.23899">
        <ele>933</ele>
        <time>2010-11-06T13:46:27Z</time>
      </trkpt>
      <trkpt lat="43.91459" lon="7.23884">
        <ele>933</ele>
        <time>2010-11-06T13:46:34Z</time>
      </trkpt>
      <trkpt lat="43.91464" lon="7.23873">
        <ele>933</ele>
        <time>2010-11-06T13:46:39Z</time>
      </trkpt>
      <trkpt lat="43.9147" lon="7.23853">
        <ele>934</ele>
        <time>2010-11-06T13:46:46Z</time>
      </trkpt>
      <trkpt lat="43.91467" lon="7.23837">
        <ele>935</ele>
        <time>2010-11-06T13:46:51Z</time>
      </trkpt>
      <trkpt lat="43.91461" lon="7.23823">
        <ele>943</ele>
        <time>2010-11-06T13:46:56Z</time>
      </trkpt>
      <trkpt lat="43.91458" lon="7.23815">
        <ele>945</ele>
        <time>2010-11-06T13:47:00Z</time>
      </trkpt>
      <trkpt lat="43.91453" lon="7.23806">
        <ele>946</ele>
        <time>2010-11-06T13:47:04Z</time>
      </trkpt>
      <trkpt lat="43.91446" lon="7.23782">
        <ele>948</ele>
        <time>2010-11-06T13:47:11Z</time>
      </trkpt>
      <trkpt lat="43.91447" lon="7.23756">
        <ele>949</ele>
        <time>2010-11-06T13:47:18Z</time>
      </trkpt>
      <trkpt lat="43.91455" lon="7.23726">
        <ele>953</ele>
        <time>2010-11-06T13:47:26Z</time>
      </trkpt>
      <trkpt lat="43.91466" lon="7.23713">
        <ele>952</ele>
        <time>2010-11-06T13:47:32Z</time>
      </trkpt>
      <trkpt lat="43.91472" lon="7.23696">
        <ele>951</ele>
        <time>2010-11-06T13:47:37Z</time>
      </trkpt>
      <trkpt lat="43.91476" lon="7.23676">
        <ele>951</ele>
        <time>2010-11-06T13:47:43Z</time>
      </trkpt>
      <trkpt lat="43.91479" lon="7.2366">
        <ele>960</ele>
        <time>2010-11-06T13:47:48Z</time>
      </trkpt>
      <trkpt lat="43.91479" lon="7.23641">
        <ele>964</ele>
        <time>2010-11-06T13:47:53Z</time>
      </trkpt>
      <trkpt lat="43.91477" lon="7.23616">
        <ele>969</ele>
        <time>2010-11-06T13:47:59Z</time>
      </trkpt>
      <trkpt lat="43.91483" lon="7.23595">
        <ele>969</ele>
        <time>2010-11-06T13:48:05Z</time>
      </trkpt>
      <trkpt lat="43.91491" lon="7.23593">
        <ele>968</ele>
        <time>2010-11-06T13:48:09Z</time>
      </trkpt>
      <trkpt lat="43.91506" lon="7.236">
        <ele>954</ele>
        <time>2010-11-06T13:48:15Z</time>
      </trkpt>
      <trkpt lat="43.91519" lon="7.23601">
        <ele>951</ele>
        <time>2010-11-06T13:48:20Z</time>
      </trkpt>
      <trkpt lat="43.9153" lon="7.23594">
        <ele>949</ele>
        <time>2010-11-06T13:48:25Z</time>
      </trkpt>
      <trkpt lat="43.91547" lon="7.23575">
        <ele>959</ele>
        <time>2010-11-06T13:48:32Z</time>
      </trkpt>
      <trkpt lat="43.91553" lon="7.23559">
        <ele>959</ele>
        <time>2010-11-06T13:48:37Z</time>
      </trkpt>
      <trkpt lat="43.91558" lon="7.23538">
        <ele>961</ele>
        <time>2010-11-06T13:48:43Z</time>
      </trkpt>
      <trkpt lat="43.91565" lon="7.23516">
        <ele>961</ele>
        <time>2010-11-06T13:48:49Z</time>
      </trkpt>
      <trkpt lat="43.9157" lon="7.23489">
        <ele>970</ele>
        <time>2010-11-06T13:48:53Z</time>
      </trkpt>
      <trkpt lat="43.91574" lon="7.23474">
        <ele>975</ele>
        <time>2010-11-06T13:48:55Z</time>
      </trkpt>
      <trkpt lat="43.91586" lon="7.23475">
        <ele>960</ele>
        <time>2010-11-06T13:48:59Z</time>
      </trkpt>
      <trkpt lat="43.91589" lon="7.23477">
        <ele>960</ele>
        <time>2010-11-06T13:49:00Z</time>
      </trkpt>
      <trkpt lat="43.91602" lon="7.23473">
        <ele>960</ele>
        <time>2010-11-06T13:49:05Z</time>
      </trkpt>
      <trkpt lat="43.91605" lon="7.2347">
        <ele>960</ele>
        <time>2010-11-06T13:49:06Z</time>
      </trkpt>
      <trkpt lat="43.91616" lon="7.23448">
        <ele>962</ele>
        <time>2010-11-06T13:49:12Z</time>
      </trkpt>
      <trkpt lat="43.91625" lon="7.23427">
        <ele>963</ele>
        <time>2010-11-06T13:49:18Z</time>
      </trkpt>
      <trkpt lat="43.91638" lon="7.23406">
        <ele>975</ele>
        <time>2010-11-06T13:49:25Z</time>
      </trkpt>
      <trkpt lat="43.91652" lon="7.2339">
        <ele>975</ele>
        <time>2010-11-06T13:49:31Z</time>
      </trkpt>
      <trkpt lat="43.91668" lon="7.23369">
        <ele>964</ele>
        <time>2010-11-06T13:49:38Z</time>
      </trkpt>
      <trkpt lat="43.91684" lon="7.23349">
        <ele>967</ele>
        <time>2010-11-06T13:49:45Z</time>
      </trkpt>
      <trkpt lat="43.91709" lon="7.23331">
        <ele>975</ele>
        <time>2010-11-06T13:49:54Z</time>
      </trkpt>
      <trkpt lat="43.91723" lon="7.23313">
        <ele>973</ele>
        <time>2010-11-06T13:50:00Z</time>
      </trkpt>
      <trkpt lat="43.91737" lon="7.23284">
        <ele>975</ele>
        <time>2010-11-06T13:50:08Z</time>
      </trkpt>
      <trkpt lat="43.91752" lon="7.23254">
        <ele>974</ele>
        <time>2010-11-06T13:50:16Z</time>
      </trkpt>
      <trkpt lat="43.91754" lon="7.23247">
        <ele>977</ele>
        <time>2010-11-06T13:50:18Z</time>
      </trkpt>
      <trkpt lat="43.91749" lon="7.23236">
        <ele>985</ele>
        <time>2010-11-06T13:50:22Z</time>
      </trkpt>
      <trkpt lat="43.91739" lon="7.23247">
        <ele>983</ele>
        <time>2010-11-06T13:50:26Z</time>
      </trkpt>
      <trkpt lat="43.91727" lon="7.23268">
        <ele>977</ele>
        <time>2010-11-06T13:50:32Z</time>
      </trkpt>
      <trkpt lat="43.91711" lon="7.23287">
        <ele>978</ele>
        <time>2010-11-06T13:50:39Z</time>
      </trkpt>
      <trkpt lat="43.917" lon="7.23308">
        <ele>978</ele>
        <time>2010-11-06T13:50:45Z</time>
      </trkpt>
      <trkpt lat="43.91686" lon="7.23316">
        <ele>979</ele>
        <time>2010-11-06T13:50:50Z</time>
      </trkpt>
      <trkpt lat="43.9167" lon="7.23325">
        <ele>980</ele>
        <time>2010-11-06T13:50:56Z</time>
      </trkpt>
      <trkpt lat="43.91655" lon="7.23335">
        <ele>981</ele>
        <time>2010-11-06T13:51:01Z</time>
      </trkpt>
      <trkpt lat="43.91635" lon="7.23352">
        <ele>983</ele>
        <time>2010-11-06T13:51:05Z</time>
      </trkpt>
      <trkpt lat="43.91606" lon="7.23381">
        <ele>983</ele>
        <time>2010-11-06T13:51:11Z</time>
      </trkpt>
      <trkpt lat="43.91598" lon="7.2339">
        <ele>982</ele>
        <time>2010-11-06T13:51:13Z</time>
      </trkpt>
      <trkpt lat="43.91579" lon="7.23401">
        <ele>992</ele>
        <time>2010-11-06T13:51:17Z</time>
      </trkpt>
      <trkpt lat="43.91556" lon="7.23389">
        <ele>1000</ele>
        <time>2010-11-06T13:51:22Z</time>
      </trkpt>
      <trkpt lat="43.91533" lon="7.23388">
        <ele>1004</ele>
        <time>2010-11-06T13:51:27Z</time>
      </trkpt>
      <trkpt lat="43.91528" lon="7.23392">
        <ele>1004</ele>
        <time>2010-11-06T13:51:28Z</time>
      </trkpt>
      <trkpt lat="43.91511" lon="7.23429">
        <ele>996</ele>
        <time>2010-11-06T13:51:33Z</time>
      </trkpt>
      <trkpt lat="43.9151" lon="7.23438">
        <ele>993</ele>
        <time>2010-11-06T13:51:34Z</time>
      </trkpt>
      <trkpt lat="43.91505" lon="7.23454">
        <ele>989</ele>
        <time>2010-11-06T13:51:36Z</time>
      </trkpt>
      <trkpt lat="43.91491" lon="7.23476">
        <ele>1005</ele>
        <time>2010-11-06T13:51:40Z</time>
      </trkpt>
      <trkpt lat="43.91471" lon="7.23496">
        <ele>1007</ele>
        <time>2010-11-06T13:51:45Z</time>
      </trkpt>
      <trkpt lat="43.91462" lon="7.23502">
        <ele>997</ele>
        <time>2010-11-06T13:51:47Z</time>
      </trkpt>
      <trkpt lat="43.91447" lon="7.23505">
        <ele>1001</ele>
        <time>2010-11-06T13:51:50Z</time>
      </trkpt>
      <trkpt lat="43.91426" lon="7.23519">
        <ele>1006</ele>
        <time>2010-11-06T13:51:55Z</time>
      </trkpt>
      <trkpt lat="43.91423" lon="7.23523">
        <ele>1005</ele>
        <time>2010-11-06T13:51:56Z</time>
      </trkpt>
      <trkpt lat="43.91413" lon="7.23542">
        <ele>1023</ele>
        <time>2010-11-06T13:52:00Z</time>
      </trkpt>
      <trkpt lat="43.91407" lon="7.23551">
        <ele>1022</ele>
        <time>2010-11-06T13:52:02Z</time>
      </trkpt>
      <trkpt lat="43.91389" lon="7.23598">
        <ele>1010</ele>
        <time>2010-11-06T13:52:11Z</time>
      </trkpt>
      <trkpt lat="43.91387" lon="7.23608">
        <ele>1010</ele>
        <time>2010-11-06T13:52:13Z</time>
      </trkpt>
      <trkpt lat="43.91375" lon="7.23641">
        <ele>1010</ele>
        <time>2010-11-06T13:52:19Z</time>
      </trkpt>
      <trkpt lat="43.91372" lon="7.23646">
        <ele>1010</ele>
        <time>2010-11-06T13:52:20Z</time>
      </trkpt>
      <trkpt lat="43.91356" lon="7.23672">
        <ele>1006</ele>
        <time>2010-11-06T13:52:26Z</time>
      </trkpt>
      <trkpt lat="43.91344" lon="7.23706">
        <ele>1001</ele>
        <time>2010-11-06T13:52:33Z</time>
      </trkpt>
      <trkpt lat="43.91332" lon="7.23748">
        <ele>1010</ele>
        <time>2010-11-06T13:52:41Z</time>
      </trkpt>
      <trkpt lat="43.91322" lon="7.23778">
        <ele>1004</ele>
        <time>2010-11-06T13:52:47Z</time>
      </trkpt>
      <trkpt lat="43.91311" lon="7.23792">
        <ele>1002</ele>
        <time>2010-11-06T13:52:51Z</time>
      </trkpt>
      <trkpt lat="43.91292" lon="7.23809">
        <ele>1001</ele>
        <time>2010-11-06T13:52:57Z</time>
      </trkpt>
      <trkpt lat="43.91284" lon="7.23804">
        <ele>1002</ele>
        <time>2010-11-06T13:53:01Z</time>
      </trkpt>
      <trkpt lat="43.91293" lon="7.23794">
        <ele>1003</ele>
        <time>2010-11-06T13:53:05Z</time>
      </trkpt>
      <trkpt lat="43.91307" lon="7.23771">
        <ele>1005</ele>
        <time>2010-11-06T13:53:12Z</time>
      </trkpt>
      <trkpt lat="43.91315" lon="7.23731">
        <ele>1018</ele>
        <time>2010-11-06T13:53:21Z</time>
      </trkpt>
      <trkpt lat="43.91325" lon="7.23696">
        <ele>1022</ele>
        <time>2010-11-06T13:53:29Z</time>
      </trkpt>
      <trkpt lat="43.91337" lon="7.23663">
        <ele>1021</ele>
        <time>2010-11-06T13:53:37Z</time>
      </trkpt>
      <trkpt lat="43.91343" lon="7.23635">
        <ele>1018</ele>
        <time>2010-11-06T13:53:43Z</time>
      </trkpt>
      <trkpt lat="43.91351" lon="7.23606">
        <ele>1021</ele>
        <time>2010-11-06T13:53:49Z</time>
      </trkpt>
      <trkpt lat="43.91365" lon="7.23572">
        <ele>1031</ele>
        <time>2010-11-06T13:53:57Z</time>
      </trkpt>
      <trkpt lat="43.91374" lon="7.23533">
        <ele>1032</ele>
        <time>2010-11-06T13:54:05Z</time>
      </trkpt>
      <trkpt lat="43.91385" lon="7.23499">
        <ele>1041</ele>
        <time>2010-11-06T13:54:12Z</time>
      </trkpt>
      <trkpt lat="43.91396" lon="7.23466">
        <ele>1043</ele>
        <time>2010-11-06T13:54:19Z</time>
      </trkpt>
      <trkpt lat="43.91408" lon="7.23438">
        <ele>1044</ele>
        <time>2010-11-06T13:54:25Z</time>
      </trkpt>
      <trkpt lat="43.91425" lon="7.23417">
        <ele>1033</ele>
        <time>2010-11-06T13:54:31Z</time>
      </trkpt>
      <trkpt lat="43.91439" lon="7.234">
        <ele>1033</ele>
        <time>2010-11-06T13:54:36Z</time>
      </trkpt>
      <trkpt lat="43.91453" lon="7.23369">
        <ele>1031</ele>
        <time>2010-11-06T13:54:43Z</time>
      </trkpt>
      <trkpt lat="43.91454" lon="7.23342">
        <ele>1033</ele>
        <time>2010-11-06T13:54:48Z</time>
      </trkpt>
      <trkpt lat="43.91454" lon="7.2331">
        <ele>1040</ele>
        <time>2010-11-06T13:54:54Z</time>
      </trkpt>
      <trkpt lat="43.91444" lon="7.23282">
        <ele>1043</ele>
        <time>2010-11-06T13:55:00Z</time>
      </trkpt>
      <trkpt lat="43.91439" lon="7.23266">
        <ele>1045</ele>
        <time>2010-11-06T13:55:03Z</time>
      </trkpt>
      <trkpt lat="43.91446" lon="7.23241">
        <ele>1051</ele>
        <time>2010-11-06T13:55:08Z</time>
      </trkpt>
      <trkpt lat="43.91463" lon="7.23227">
        <ele>1050</ele>
        <time>2010-11-06T13:55:13Z</time>
      </trkpt>
      <trkpt lat="43.91484" lon="7.23229">
        <ele>1047</ele>
        <time>2010-11-06T13:55:18Z</time>
      </trkpt>
      <trkpt lat="43.91488" lon="7.23231">
        <ele>1046</ele>
        <time>2010-11-06T13:55:19Z</time>
      </trkpt>
      <trkpt lat="43.91506" lon="7.23241">
        <ele>1039</ele>
        <time>2010-11-06T13:55:24Z</time>
      </trkpt>
      <trkpt lat="43.91521" lon="7.23242">
        <ele>1038</ele>
        <time>2010-11-06T13:55:28Z</time>
      </trkpt>
      <trkpt lat="43.91542" lon="7.2323">
        <ele>1037</ele>
        <time>2010-11-06T13:55:34Z</time>
      </trkpt>
      <trkpt lat="43.91562" lon="7.23203">
        <ele>1038</ele>
        <time>2010-11-06T13:55:41Z</time>
      </trkpt>
      <trkpt lat="43.91584" lon="7.23172">
        <ele>1037</ele>
        <time>2010-11-06T13:55:49Z</time>
      </trkpt>
      <trkpt lat="43.91606" lon="7.23133">
        <ele>1035</ele>
        <time>2010-11-06T13:55:58Z</time>
      </trkpt>
      <trkpt lat="43.91608" lon="7.23129">
        <ele>1035</ele>
        <time>2010-11-06T13:55:59Z</time>
      </trkpt>
      <trkpt lat="43.91602" lon="7.23114">
        <ele>1036</ele>
        <time>2010-11-06T13:56:03Z</time>
      </trkpt>
      <trkpt lat="43.91586" lon="7.23107">
        <ele>1036</ele>
        <time>2010-11-06T13:56:08Z</time>
      </trkpt>
      <trkpt lat="43.91576" lon="7.2311">
        <ele>1040</ele>
        <time>2010-11-06T13:56:11Z</time>
      </trkpt>
      <trkpt lat="43.9155" lon="7.23129">
        <ele>1041</ele>
        <time>2010-11-06T13:56:19Z</time>
      </trkpt>
      <trkpt lat="43.91519" lon="7.23149">
        <ele>1044</ele>
        <time>2010-11-06T13:56:28Z</time>
      </trkpt>
      <trkpt lat="43.91502" lon="7.23156">
        <ele>1047</ele>
        <time>2010-11-06T13:56:34Z</time>
      </trkpt>
      <trkpt lat="43.91486" lon="7.23157">
        <ele>1051</ele>
        <time>2010-11-06T13:56:42Z</time>
      </trkpt>
      <trkpt lat="43.91485" lon="7.23156">
        <ele>1051</ele>
        <time>2010-11-06T13:56:49Z</time>
      </trkpt>
      <trkpt lat="43.91485" lon="7.23156">
        <ele>1051</ele>
        <time>2010-11-06T13:57:04Z</time>
      </trkpt>
      <trkpt lat="43.91486" lon="7.23156">
        <ele>1051</ele>
        <time>2010-11-06T13:57:23Z</time>
      </trkpt>
      <trkpt lat="43.91486" lon="7.23155">
        <ele>1051</ele>
        <time>2010-11-06T13:57:39Z</time>
      </trkpt>
      <trkpt lat="43.91487" lon="7.23157">
        <ele>1051</ele>
        <time>2010-11-06T13:57:45Z</time>
      </trkpt>
      <trkpt lat="43.91487" lon="7.23157">
        <ele>1051</ele>
        <time>2010-11-06T13:57:55Z</time>
      </trkpt>
      <trkpt lat="43.91487" lon="7.23157">
        <ele>1051</ele>
        <time>2010-11-06T13:58:12Z</time>
      </trkpt>
      <trkpt lat="43.91488" lon="7.23157">
        <ele>1051</ele>
        <time>2010-11-06T13:58:19Z</time>
      </trkpt>
      <trkpt lat="43.91488" lon="7.23157">
        <ele>1051</ele>
        <time>2010-11-06T13:58:28Z</time>
      </trkpt>
      <trkpt lat="43.91488" lon="7.23157">
        <ele>1051</ele>
        <time>2010-11-06T13:58:48Z</time>
      </trkpt>
      <trkpt lat="43.91487" lon="7.23157">
        <ele>1051</ele>
        <time>2010-11-06T13:59:33Z</time>
      </trkpt>
      <trkpt lat="43.91487" lon="7.23157">
        <ele>1051</ele>
        <time>2010-11-06T13:59:51Z</time>
      </trkpt>
      <trkpt lat="43.91485" lon="7.23163">
        <ele>1051</ele>
        <time>2010-11-06T13:59:57Z</time>
      </trkpt>
      <trkpt lat="43.91484" lon="7.23163">
        <ele>1051</ele>
        <time>2010-11-06T14:00:03Z</time>
      </trkpt>
      <trkpt lat="43.91484" lon="7.23164">
        <ele>1051</ele>
        <time>2010-11-06T14:00:27Z</time>
      </trkpt>
      <trkpt lat="43.91484" lon="7.23163">
        <ele>1051</ele>
        <time>2010-11-06T14:01:08Z</time>
      </trkpt>
      <trkpt lat="43.91483" lon="7.23163">
        <ele>1051</ele>
        <time>2010-11-06T14:01:23Z</time>
      </trkpt>
      <trkpt lat="43.91482" lon="7.23163">
        <ele>1051</ele>
        <time>2010-11-06T14:01:31Z</time>
      </trkpt>
      <trkpt lat="43.91483" lon="7.23165">
        <ele>1051</ele>
        <time>2010-11-06T14:01:40Z</time>
      </trkpt>
      <trkpt lat="43.91482" lon="7.23163">
        <ele>1051</ele>
        <time>2010-11-06T14:02:02Z</time>
      </trkpt>
      <trkpt lat="43.91482" lon="7.23163">
        <ele>1051</ele>
        <time>2010-11-06T14:02:13Z</time>
      </trkpt>
      <trkpt lat="43.91481" lon="7.23162">
        <ele>1051</ele>
        <time>2010-11-06T14:02:22Z</time>
      </trkpt>
      <trkpt lat="43.91481" lon="7.23162">
        <ele>1051</ele>
        <time>2010-11-06T14:02:45Z</time>
      </trkpt>
      <trkpt lat="43.91482" lon="7.23162">
        <ele>1051</ele>
        <time>2010-11-06T14:02:55Z</time>
      </trkpt>
      <trkpt lat="43.91483" lon="7.23162">
        <ele>1051</ele>
        <time>2010-11-06T14:03:16Z</time>
      </trkpt>
      <trkpt lat="43.91481" lon="7.23165">
        <ele>1051</ele>
        <time>2010-11-06T14:03:20Z</time>
      </trkpt>
      <trkpt lat="43.9148" lon="7.23166">
        <ele>1051</ele>
        <time>2010-11-06T14:03:30Z</time>
      </trkpt>
      <trkpt lat="43.9148" lon="7.23165">
        <ele>1051</ele>
        <time>2010-11-06T14:03:39Z</time>
      </trkpt>
      <trkpt lat="43.9148" lon="7.23165">
        <ele>1051</ele>
        <time>2010-11-06T14:04:08Z</time>
      </trkpt>
      <trkpt lat="43.91481" lon="7.23164">
        <ele>1051</ele>
        <time>2010-11-06T14:04:57Z</time>
      </trkpt>
      <trkpt lat="43.91478" lon="7.23165">
        <ele>1052</ele>
        <time>2010-11-06T14:05:07Z</time>
      </trkpt>
      <trkpt lat="43.9147" lon="7.23169">
        <ele>1052</ele>
        <time>2010-11-06T14:05:12Z</time>
      </trkpt>
      <trkpt lat="43.9145" lon="7.23175">
        <ele>1055</ele>
        <time>2010-11-06T14:05:19Z</time>
      </trkpt>
      <trkpt lat="43.91422" lon="7.23181">
        <ele>1059</ele>
        <time>2010-11-06T14:05:27Z</time>
      </trkpt>
      <trkpt lat="43.91396" lon="7.23194">
        <ele>1070</ele>
        <time>2010-11-06T14:05:34Z</time>
      </trkpt>
      <trkpt lat="43.91377" lon="7.23213">
        <ele>1072</ele>
        <time>2010-11-06T14:05:41Z</time>
      </trkpt>
      <trkpt lat="43.91361" lon="7.23234">
        <ele>1073</ele>
        <time>2010-11-06T14:05:49Z</time>
      </trkpt>
      <trkpt lat="43.91354" lon="7.23254">
        <ele>1069</ele>
        <time>2010-11-06T14:05:55Z</time>
      </trkpt>
      <trkpt lat="43.91346" lon="7.23287">
        <ele>1067</ele>
        <time>2010-11-06T14:06:04Z</time>
      </trkpt>
      <trkpt lat="43.91342" lon="7.23317">
        <ele>1069</ele>
        <time>2010-11-06T14:06:12Z</time>
      </trkpt>
      <trkpt lat="43.91349" lon="7.23333">
        <ele>1069</ele>
        <time>2010-11-06T14:06:17Z</time>
      </trkpt>
      <trkpt lat="43.9136" lon="7.23346">
        <ele>1063</ele>
        <time>2010-11-06T14:06:22Z</time>
      </trkpt>
      <trkpt lat="43.9136" lon="7.23363">
        <ele>1062</ele>
        <time>2010-11-06T14:06:27Z</time>
      </trkpt>
      <trkpt lat="43.91351" lon="7.23381">
        <ele>1063</ele>
        <time>2010-11-06T14:06:33Z</time>
      </trkpt>
      <trkpt lat="43.91339" lon="7.23399">
        <ele>1066</ele>
        <time>2010-11-06T14:06:40Z</time>
      </trkpt>
      <trkpt lat="43.91327" lon="7.23409">
        <ele>1075</ele>
        <time>2010-11-06T14:06:46Z</time>
      </trkpt>
      <trkpt lat="43.91314" lon="7.23404">
        <ele>1077</ele>
        <time>2010-11-06T14:06:52Z</time>
      </trkpt>
      <trkpt lat="43.91302" lon="7.23393">
        <ele>1079</ele>
        <time>2010-11-06T14:06:58Z</time>
      </trkpt>
      <trkpt lat="43.91285" lon="7.23389">
        <ele>1081</ele>
        <time>2010-11-06T14:07:05Z</time>
      </trkpt>
      <trkpt lat="43.91268" lon="7.23397">
        <ele>1081</ele>
        <time>2010-11-06T14:07:12Z</time>
      </trkpt>
      <trkpt lat="43.91244" lon="7.23405">
        <ele>1087</ele>
        <time>2010-11-06T14:07:21Z</time>
      </trkpt>
      <trkpt lat="43.91222" lon="7.23411">
        <ele>1092</ele>
        <time>2010-11-06T14:07:29Z</time>
      </trkpt>
      <trkpt lat="43.91198" lon="7.23418">
        <ele>1082</ele>
        <time>2010-11-06T14:07:38Z</time>
      </trkpt>
      <trkpt lat="43.91178" lon="7.23428">
        <ele>1086</ele>
        <time>2010-11-06T14:07:46Z</time>
      </trkpt>
      <trkpt lat="43.91152" lon="7.23442">
        <ele>1086</ele>
        <time>2010-11-06T14:07:56Z</time>
      </trkpt>
      <trkpt lat="43.91134" lon="7.23462">
        <ele>1082</ele>
        <time>2010-11-06T14:08:04Z</time>
      </trkpt>
      <trkpt lat="43.91122" lon="7.23472">
        <ele>1081</ele>
        <time>2010-11-06T14:08:09Z</time>
      </trkpt>
      <trkpt lat="43.91108" lon="7.23473">
        <ele>1080</ele>
        <time>2010-11-06T14:08:14Z</time>
      </trkpt>
      <trkpt lat="43.91098" lon="7.2346">
        <ele>1083</ele>
        <time>2010-11-06T14:08:19Z</time>
      </trkpt>
      <trkpt lat="43.91081" lon="7.23436">
        <ele>1078</ele>
        <time>2010-11-06T14:08:27Z</time>
      </trkpt>
      <trkpt lat="43.91061" lon="7.23418">
        <ele>1075</ele>
        <time>2010-11-06T14:08:36Z</time>
      </trkpt>
      <trkpt lat="43.91042" lon="7.23407">
        <ele>1078</ele>
        <time>2010-11-06T14:08:44Z</time>
      </trkpt>
      <trkpt lat="43.9103" lon="7.23394">
        <ele>1074</ele>
        <time>2010-11-06T14:08:50Z</time>
      </trkpt>
      <trkpt lat="43.91036" lon="7.23386">
        <ele>1078</ele>
        <time>2010-11-06T14:08:54Z</time>
      </trkpt>
      <trkpt lat="43.91046" lon="7.23395">
        <ele>1080</ele>
        <time>2010-11-06T14:08:58Z</time>
      </trkpt>
      <trkpt lat="43.91054" lon="7.23401">
        <ele>1083</ele>
        <time>2010-11-06T14:09:01Z</time>
      </trkpt>
      <trkpt lat="43.91076" lon="7.23412">
        <ele>1093</ele>
        <time>2010-11-06T14:09:10Z</time>
      </trkpt>
      <trkpt lat="43.91092" lon="7.23424">
        <ele>1092</ele>
        <time>2010-11-06T14:09:17Z</time>
      </trkpt>
      <trkpt lat="43.91109" lon="7.23435">
        <ele>1087</ele>
        <time>2010-11-06T14:09:24Z</time>
      </trkpt>
      <trkpt lat="43.91121" lon="7.23427">
        <ele>1087</ele>
        <time>2010-11-06T14:09:29Z</time>
      </trkpt>
      <trkpt lat="43.91138" lon="7.23409">
        <ele>1103</ele>
        <time>2010-11-06T14:09:37Z</time>
      </trkpt>
      <trkpt lat="43.91159" lon="7.23389">
        <ele>1105</ele>
        <time>2010-11-06T14:09:47Z</time>
      </trkpt>
      <trkpt lat="43.91181" lon="7.23368">
        <ele>1104</ele>
        <time>2010-11-06T14:09:57Z</time>
      </trkpt>
      <trkpt lat="43.91202" lon="7.23353">
        <ele>1104</ele>
        <time>2010-11-06T14:10:06Z</time>
      </trkpt>
      <trkpt lat="43.91216" lon="7.23338">
        <ele>1102</ele>
        <time>2010-11-06T14:10:13Z</time>
      </trkpt>
      <trkpt lat="43.91228" lon="7.23318">
        <ele>1115</ele>
        <time>2010-11-06T14:10:20Z</time>
      </trkpt>
      <trkpt lat="43.91237" lon="7.23292">
        <ele>1119</ele>
        <time>2010-11-06T14:10:28Z</time>
      </trkpt>
      <trkpt lat="43.91246" lon="7.23262">
        <ele>1121</ele>
        <time>2010-11-06T14:10:37Z</time>
      </trkpt>
      <trkpt lat="43.91254" lon="7.23238">
        <ele>1115</ele>
        <time>2010-11-06T14:10:44Z</time>
      </trkpt>
      <trkpt lat="43.91264" lon="7.23217">
        <ele>1113</ele>
        <time>2010-11-06T14:10:51Z</time>
      </trkpt>
      <trkpt lat="43.9128" lon="7.23187">
        <ele>1113</ele>
        <time>2010-11-06T14:11:01Z</time>
      </trkpt>
      <trkpt lat="43.91286" lon="7.23163">
        <ele>1120</ele>
        <time>2010-11-06T14:11:08Z</time>
      </trkpt>
      <trkpt lat="43.91282" lon="7.23141">
        <ele>1121</ele>
        <time>2010-11-06T14:11:14Z</time>
      </trkpt>
      <trkpt lat="43.91281" lon="7.23115">
        <ele>1122</ele>
        <time>2010-11-06T14:11:21Z</time>
      </trkpt>
      <trkpt lat="43.91274" lon="7.23095">
        <ele>1125</ele>
        <time>2010-11-06T14:11:27Z</time>
      </trkpt>
      <trkpt lat="43.91262" lon="7.23071">
        <ele>1128</ele>
        <time>2010-11-06T14:11:35Z</time>
      </trkpt>
      <trkpt lat="43.91251" lon="7.23045">
        <ele>1123</ele>
        <time>2010-11-06T14:11:43Z</time>
      </trkpt>
      <trkpt lat="43.91243" lon="7.23013">
        <ele>1140</ele>
        <time>2010-11-06T14:11:52Z</time>
      </trkpt>
      <trkpt lat="43.91233" lon="7.2299">
        <ele>1137</ele>
        <time>2010-11-06T14:11:59Z</time>
      </trkpt>
      <trkpt lat="43.91224" lon="7.22961">
        <ele>1138</ele>
        <time>2010-11-06T14:12:07Z</time>
      </trkpt>
      <trkpt lat="43.91211" lon="7.22936">
        <ele>1138</ele>
        <time>2010-11-06T14:12:15Z</time>
      </trkpt>
      <trkpt lat="43.91196" lon="7.22921">
        <ele>1142</ele>
        <time>2010-11-06T14:12:22Z</time>
      </trkpt>
      <trkpt lat="43.91179" lon="7.22903">
        <ele>1137</ele>
        <time>2010-11-06T14:12:30Z</time>
      </trkpt>
      <trkpt lat="43.91163" lon="7.22883">
        <ele>1151</ele>
        <time>2010-11-06T14:12:38Z</time>
      </trkpt>
      <trkpt lat="43.91149" lon="7.22854">
        <ele>1148</ele>
        <time>2010-11-06T14:12:47Z</time>
      </trkpt>
      <trkpt lat="43.91139" lon="7.22854">
        <ele>1150</ele>
        <time>2010-11-06T14:12:51Z</time>
      </trkpt>
      <trkpt lat="43.91139" lon="7.22863">
        <ele>1152</ele>
        <time>2010-11-06T14:12:53Z</time>
      </trkpt>
      <trkpt lat="43.91153" lon="7.22892">
        <ele>1153</ele>
        <time>2010-11-06T14:13:00Z</time>
      </trkpt>
      <trkpt lat="43.91167" lon="7.22914">
        <ele>1149</ele>
        <time>2010-11-06T14:13:06Z</time>
      </trkpt>
      <trkpt lat="43.9118" lon="7.22936">
        <ele>1145</ele>
        <time>2010-11-06T14:13:12Z</time>
      </trkpt>
      <trkpt lat="43.91188" lon="7.22962">
        <ele>1144</ele>
        <time>2010-11-06T14:13:18Z</time>
      </trkpt>
      <trkpt lat="43.9119" lon="7.22986">
        <ele>1147</ele>
        <time>2010-11-06T14:13:23Z</time>
      </trkpt>
      <trkpt lat="43.91191" lon="7.23019">
        <ele>1152</ele>
        <time>2010-11-06T14:13:30Z</time>
      </trkpt>
      <trkpt lat="43.91195" lon="7.23042">
        <ele>1152</ele>
        <time>2010-11-06T14:13:34Z</time>
      </trkpt>
      <trkpt lat="43.91202" lon="7.23074">
        <ele>1153</ele>
        <time>2010-11-06T14:13:40Z</time>
      </trkpt>
      <trkpt lat="43.91208" lon="7.23115">
        <ele>1153</ele>
        <time>2010-11-06T14:13:48Z</time>
      </trkpt>
      <trkpt lat="43.91204" lon="7.23142">
        <ele>1153</ele>
        <time>2010-11-06T14:13:53Z</time>
      </trkpt>
      <trkpt lat="43.91197" lon="7.2317">
        <ele>1149</ele>
        <time>2010-11-06T14:13:59Z</time>
      </trkpt>
      <trkpt lat="43.9119" lon="7.23196">
        <ele>1148</ele>
        <time>2010-11-06T14:14:06Z</time>
      </trkpt>
      <trkpt lat="43.91175" lon="7.2321">
        <ele>1148</ele>
        <time>2010-11-06T14:14:12Z</time>
      </trkpt>
      <trkpt lat="43.91161" lon="7.23218">
        <ele>1153</ele>
        <time>2010-11-06T14:14:17Z</time>
      </trkpt>
      <trkpt lat="43.91144" lon="7.23213">
        <ele>1152</ele>
        <time>2010-11-06T14:14:23Z</time>
      </trkpt>
      <trkpt lat="43.91125" lon="7.2319">
        <ele>1153</ele>
        <time>2010-11-06T14:14:31Z</time>
      </trkpt>
      <trkpt lat="43.91115" lon="7.23163">
        <ele>1162</ele>
        <time>2010-11-06T14:14:38Z</time>
      </trkpt>
      <trkpt lat="43.91114" lon="7.23133">
        <ele>1163</ele>
        <time>2010-11-06T14:14:46Z</time>
      </trkpt>
      <trkpt lat="43.91113" lon="7.23106">
        <ele>1164</ele>
        <time>2010-11-06T14:14:53Z</time>
      </trkpt>
      <trkpt lat="43.91111" lon="7.23092">
        <ele>1165</ele>
        <time>2010-11-06T14:14:58Z</time>
      </trkpt>
      <trkpt lat="43.91107" lon="7.23073">
        <ele>1166</ele>
        <time>2010-11-06T14:15:05Z</time>
      </trkpt>
      <trkpt lat="43.91097" lon="7.23051">
        <ele>1166</ele>
        <time>2010-11-06T14:15:12Z</time>
      </trkpt>
      <trkpt lat="43.91089" lon="7.23034">
        <ele>1167</ele>
        <time>2010-11-06T14:15:18Z</time>
      </trkpt>
      <trkpt lat="43.91083" lon="7.23021">
        <ele>1161</ele>
        <time>2010-11-06T14:15:24Z</time>
      </trkpt>
      <trkpt lat="43.9108" lon="7.23013">
        <ele>1163</ele>
        <time>2010-11-06T14:15:29Z</time>
      </trkpt>
      <trkpt lat="43.91076" lon="7.23">
        <ele>1167</ele>
        <time>2010-11-06T14:15:36Z</time>
      </trkpt>
      <trkpt lat="43.91071" lon="7.22986">
        <ele>1166</ele>
        <time>2010-11-06T14:15:42Z</time>
      </trkpt>
      <trkpt lat="43.91064" lon="7.22963">
        <ele>1165</ele>
        <time>2010-11-06T14:15:48Z</time>
      </trkpt>
      <trkpt lat="43.91054" lon="7.22939">
        <ele>1166</ele>
        <time>2010-11-06T14:15:55Z</time>
      </trkpt>
      <trkpt lat="43.91039" lon="7.2292">
        <ele>1165</ele>
        <time>2010-11-06T14:16:02Z</time>
      </trkpt>
      <trkpt lat="43.91024" lon="7.229">
        <ele>1168</ele>
        <time>2010-11-06T14:16:07Z</time>
      </trkpt>
      <trkpt lat="43.91015" lon="7.22885">
        <ele>1168</ele>
        <time>2010-11-06T14:16:10Z</time>
      </trkpt>
      <trkpt lat="43.91006" lon="7.22874">
        <ele>1169</ele>
        <time>2010-11-06T14:16:13Z</time>
      </trkpt>
      <trkpt lat="43.91001" lon="7.22869">
        <ele>1169</ele>
        <time>2010-11-06T14:16:15Z</time>
      </trkpt>
      <trkpt lat="43.90986" lon="7.22855">
        <ele>1154</ele>
        <time>2010-11-06T14:16:21Z</time>
      </trkpt>
      <trkpt lat="43.90977" lon="7.22844">
        <ele>1153</ele>
        <time>2010-11-06T14:16:26Z</time>
      </trkpt>
      <trkpt lat="43.90977" lon="7.2284">
        <ele>1153</ele>
        <time>2010-11-06T14:16:28Z</time>
      </trkpt>
      <trkpt lat="43.90972" lon="7.22829">
        <ele>1157</ele>
        <time>2010-11-06T14:16:35Z</time>
      </trkpt>
      <trkpt lat="43.90972" lon="7.22828">
        <ele>1157</ele>
        <time>2010-11-06T14:16:45Z</time>
      </trkpt>
      <trkpt lat="43.90972" lon="7.22829">
        <ele>1156</ele>
        <time>2010-11-06T14:17:00Z</time>
      </trkpt>
      <trkpt lat="43.90972" lon="7.22829">
        <ele>1156</ele>
        <time>2010-11-06T14:17:11Z</time>
      </trkpt>
      <trkpt lat="43.90972" lon="7.22829">
        <ele>1157</ele>
        <time>2010-11-06T14:17:24Z</time>
      </trkpt>
      <trkpt lat="43.90972" lon="7.2283">
        <ele>1157</ele>
        <time>2010-11-06T14:17:47Z</time>
      </trkpt>
      <trkpt lat="43.90972" lon="7.2283">
        <ele>1157</ele>
        <time>2010-11-06T14:17:53Z</time>
      </trkpt>
      <trkpt lat="43.90973" lon="7.22831">
        <ele>1157</ele>
        <time>2010-11-06T14:17:59Z</time>
      </trkpt>
      <trkpt lat="43.90973" lon="7.22831">
        <ele>1157</ele>
        <time>2010-11-06T14:18:06Z</time>
      </trkpt>
      <trkpt lat="43.90973" lon="7.2283">
        <ele>1157</ele>
        <time>2010-11-06T14:18:12Z</time>
      </trkpt>
      <trkpt lat="43.90973" lon="7.22831">
        <ele>1157</ele>
        <time>2010-11-06T14:18:27Z</time>
      </trkpt>
      <trkpt lat="43.90972" lon="7.22831">
        <ele>1157</ele>
        <time>2010-11-06T14:19:16Z</time>
      </trkpt>
      <trkpt lat="43.90972" lon="7.22831">
        <ele>1157</ele>
        <time>2010-11-06T14:19:28Z</time>
      </trkpt>
      <trkpt lat="43.90971" lon="7.22832">
        <ele>1156</ele>
        <time>2010-11-06T14:19:42Z</time>
      </trkpt>
      <trkpt lat="43.9097" lon="7.22832">
        <ele>1156</ele>
        <time>2010-11-06T14:19:59Z</time>
      </trkpt>
      <trkpt lat="43.90968" lon="7.22833">
        <ele>1155</ele>
        <time>2010-11-06T14:20:05Z</time>
      </trkpt>
      <trkpt lat="43.90971" lon="7.22832">
        <ele>1156</ele>
        <time>2010-11-06T14:20:19Z</time>
      </trkpt>
      <trkpt lat="43.90973" lon="7.22832">
        <ele>1157</ele>
        <time>2010-11-06T14:20:25Z</time>
      </trkpt>
      <trkpt lat="43.90973" lon="7.22831">
        <ele>1157</ele>
        <time>2010-11-06T14:20:32Z</time>
      </trkpt>
      <trkpt lat="43.90971" lon="7.22831">
        <ele>1156</ele>
        <time>2010-11-06T14:20:59Z</time>
      </trkpt>
      <trkpt lat="43.90971" lon="7.2283">
        <ele>1156</ele>
        <time>2010-11-06T14:21:04Z</time>
      </trkpt>
      <trkpt lat="43.9097" lon="7.2283">
        <ele>1156</ele>
        <time>2010-11-06T14:21:13Z</time>
      </trkpt>
      <trkpt lat="43.90971" lon="7.22829">
        <ele>1156</ele>
        <time>2010-11-06T14:21:25Z</time>
      </trkpt>
      <trkpt lat="43.90971" lon="7.22829">
        <ele>1156</ele>
        <time>2010-11-06T14:21:38Z</time>
      </trkpt>
      <trkpt lat="43.90971" lon="7.22829">
        <ele>1156</ele>
        <time>2010-11-06T14:21:47Z</time>
      </trkpt>
      <trkpt lat="43.90971" lon="7.22829">
        <ele>1156</ele>
        <time>2010-11-06T14:22:03Z</time>
      </trkpt>
      <trkpt lat="43.90971" lon="7.22829">
        <ele>1156</ele>
        <time>2010-11-06T14:22:30Z</time>
      </trkpt>
      <trkpt lat="43.90971" lon="7.22829">
        <ele>1156</ele>
        <time>2010-11-06T14:22:37Z</time>
      </trkpt>
      <trkpt lat="43.90971" lon="7.22829">
        <ele>1156</ele>
        <time>2010-11-06T14:22:43Z</time>
      </trkpt>
      <trkpt lat="43.90972" lon="7.22827">
        <ele>1157</ele>
        <time>2010-11-06T14:22:48Z</time>
      </trkpt>
      <trkpt lat="43.90972" lon="7.22827">
        <ele>1157</ele>
        <time>2010-11-06T14:22:56Z</time>
      </trkpt>
      <trkpt lat="43.90972" lon="7.22827">
        <ele>1157</ele>
        <time>2010-11-06T14:23:08Z</time>
      </trkpt>
      <trkpt lat="43.90972" lon="7.22827">
        <ele>1156</ele>
        <time>2010-11-06T14:23:12Z</time>
      </trkpt>
      <trkpt lat="43.90971" lon="7.22824">
        <ele>1156</ele>
        <time>2010-11-06T14:23:14Z</time>
      </trkpt>
      <trkpt lat="43.9097" lon="7.22814">
        <ele>1155</ele>
        <time>2010-11-06T14:23:20Z</time>
      </trkpt>
      <trkpt lat="43.90971" lon="7.22814">
        <ele>1156</ele>
        <time>2010-11-06T14:23:26Z</time>
      </trkpt>
      <trkpt lat="43.90971" lon="7.22813">
        <ele>1156</ele>
        <time>2010-11-06T14:23:39Z</time>
      </trkpt>
      <trkpt lat="43.90971" lon="7.2282">
        <ele>1156</ele>
        <time>2010-11-06T14:23:44Z</time>
      </trkpt>
      <trkpt lat="43.90971" lon="7.22821">
        <ele>1156</ele>
        <time>2010-11-06T14:23:45Z</time>
      </trkpt>
      <trkpt lat="43.90972" lon="7.22827">
        <ele>1157</ele>
        <time>2010-11-06T14:23:49Z</time>
      </trkpt>
      <trkpt lat="43.9097" lon="7.22829">
        <ele>1156</ele>
        <time>2010-11-06T14:23:54Z</time>
      </trkpt>
      <trkpt lat="43.90971" lon="7.22827">
        <ele>1156</ele>
        <time>2010-11-06T14:24:03Z</time>
      </trkpt>
      <trkpt lat="43.9097" lon="7.22821">
        <ele>1156</ele>
        <time>2010-11-06T14:24:06Z</time>
      </trkpt>
      <trkpt lat="43.90969" lon="7.22816">
        <ele>1155</ele>
        <time>2010-11-06T14:24:12Z</time>
      </trkpt>
      <trkpt lat="43.90968" lon="7.22812">
        <ele>1155</ele>
        <time>2010-11-06T14:24:17Z</time>
      </trkpt>
      <trkpt lat="43.90965" lon="7.22804">
        <ele>1154</ele>
        <time>2010-11-06T14:24:24Z</time>
      </trkpt>
      <trkpt lat="43.90963" lon="7.22799">
        <ele>1154</ele>
        <time>2010-11-06T14:24:31Z</time>
      </trkpt>
      <trkpt lat="43.90962" lon="7.22797">
        <ele>1153</ele>
        <time>2010-11-06T14:24:36Z</time>
      </trkpt>
      <trkpt lat="43.90961" lon="7.22793">
        <ele>1153</ele>
        <time>2010-11-06T14:24:42Z</time>
      </trkpt>
      <trkpt lat="43.90959" lon="7.22788">
        <ele>1153</ele>
        <time>2010-11-06T14:24:48Z</time>
      </trkpt>
      <trkpt lat="43.90957" lon="7.22786">
        <ele>1153</ele>
        <time>2010-11-06T14:24:55Z</time>
      </trkpt>
      <trkpt lat="43.90955" lon="7.22783">
        <ele>1152</ele>
        <time>2010-11-06T14:25:01Z</time>
      </trkpt>
      <trkpt lat="43.90954" lon="7.22774">
        <ele>1152</ele>
        <time>2010-11-06T14:25:08Z</time>
      </trkpt>
      <trkpt lat="43.90954" lon="7.22767">
        <ele>1152</ele>
        <time>2010-11-06T14:25:14Z</time>
      </trkpt>
      <trkpt lat="43.90953" lon="7.22758">
        <ele>1152</ele>
        <time>2010-11-06T14:25:20Z</time>
      </trkpt>
      <trkpt lat="43.90952" lon="7.22754">
        <ele>1152</ele>
        <time>2010-11-06T14:25:23Z</time>
      </trkpt>
      <trkpt lat="43.90952" lon="7.22747">
        <ele>1157</ele>
        <time>2010-11-06T14:25:30Z</time>
      </trkpt>
      <trkpt lat="43.9095" lon="7.22744">
        <ele>1157</ele>
        <time>2010-11-06T14:25:36Z</time>
      </trkpt>
      <trkpt lat="43.90949" lon="7.22741">
        <ele>1157</ele>
        <time>2010-11-06T14:25:42Z</time>
      </trkpt>
      <trkpt lat="43.90948" lon="7.22738">
        <ele>1157</ele>
        <time>2010-11-06T14:25:49Z</time>
      </trkpt>
      <trkpt lat="43.90946" lon="7.22732">
        <ele>1157</ele>
        <time>2010-11-06T14:25:56Z</time>
      </trkpt>
      <trkpt lat="43.90944" lon="7.22727">
        <ele>1157</ele>
        <time>2010-11-06T14:26:02Z</time>
      </trkpt>
      <trkpt lat="43.90943" lon="7.22722">
        <ele>1157</ele>
        <time>2010-11-06T14:26:08Z</time>
      </trkpt>
      <trkpt lat="43.90939" lon="7.2272">
        <ele>1157</ele>
        <time>2010-11-06T14:26:13Z</time>
      </trkpt>
      <trkpt lat="43.90935" lon="7.22715">
        <ele>1157</ele>
        <time>2010-11-06T14:26:21Z</time>
      </trkpt>
      <trkpt lat="43.90932" lon="7.22707">
        <ele>1158</ele>
        <time>2010-11-06T14:26:28Z</time>
      </trkpt>
      <trkpt lat="43.90929" lon="7.22699">
        <ele>1158</ele>
        <time>2010-11-06T14:26:36Z</time>
      </trkpt>
      <trkpt lat="43.90925" lon="7.2269">
        <ele>1159</ele>
        <time>2010-11-06T14:26:44Z</time>
      </trkpt>
      <trkpt lat="43.90922" lon="7.22687">
        <ele>1159</ele>
        <time>2010-11-06T14:26:48Z</time>
      </trkpt>
      <trkpt lat="43.90919" lon="7.22681">
        <ele>1159</ele>
        <time>2010-11-06T14:26:55Z</time>
      </trkpt>
      <trkpt lat="43.90916" lon="7.22679">
        <ele>1148</ele>
        <time>2010-11-06T14:27:00Z</time>
      </trkpt>
      <trkpt lat="43.90915" lon="7.22677">
        <ele>1149</ele>
        <time>2010-11-06T14:27:04Z</time>
      </trkpt>
      <trkpt lat="43.90909" lon="7.22671">
        <ele>1150</ele>
        <time>2010-11-06T14:27:10Z</time>
      </trkpt>
      <trkpt lat="43.90904" lon="7.22667">
        <ele>1153</ele>
        <time>2010-11-06T14:27:13Z</time>
      </trkpt>
      <trkpt lat="43.90895" lon="7.2266">
        <ele>1150</ele>
        <time>2010-11-06T14:27:17Z</time>
      </trkpt>
      <trkpt lat="43.9089" lon="7.22656">
        <ele>1148</ele>
        <time>2010-11-06T14:27:20Z</time>
      </trkpt>
      <trkpt lat="43.90887" lon="7.22654">
        <ele>1147</ele>
        <time>2010-11-06T14:27:27Z</time>
      </trkpt>
      <trkpt lat="43.90887" lon="7.22652">
        <ele>1147</ele>
        <time>2010-11-06T14:27:32Z</time>
      </trkpt>
      <trkpt lat="43.90887" lon="7.22653">
        <ele>1147</ele>
        <time>2010-11-06T14:27:48Z</time>
      </trkpt>
      <trkpt lat="43.90885" lon="7.22653">
        <ele>1146</ele>
        <time>2010-11-06T14:27:55Z</time>
      </trkpt>
      <trkpt lat="43.90884" lon="7.22653">
        <ele>1146</ele>
        <time>2010-11-06T14:27:58Z</time>
      </trkpt>
      <trkpt lat="43.90881" lon="7.22655">
        <ele>1145</ele>
        <time>2010-11-06T14:28:00Z</time>
      </trkpt>
      <trkpt lat="43.90875" lon="7.22653">
        <ele>1143</ele>
        <time>2010-11-06T14:28:05Z</time>
      </trkpt>
      <trkpt lat="43.90869" lon="7.22648">
        <ele>1142</ele>
        <time>2010-11-06T14:28:09Z</time>
      </trkpt>
      <trkpt lat="43.90861" lon="7.22642">
        <ele>1140</ele>
        <time>2010-11-06T14:28:14Z</time>
      </trkpt>
      <trkpt lat="43.90858" lon="7.22639">
        <ele>1140</ele>
        <time>2010-11-06T14:28:16Z</time>
      </trkpt>
      <trkpt lat="43.90853" lon="7.22635">
        <ele>1139</ele>
        <time>2010-11-06T14:28:19Z</time>
      </trkpt>
      <trkpt lat="43.90843" lon="7.22631">
        <ele>1138</ele>
        <time>2010-11-06T14:28:25Z</time>
      </trkpt>
      <trkpt lat="43.90833" lon="7.22624">
        <ele>1113</ele>
        <time>2010-11-06T14:28:30Z</time>
      </trkpt>
      <trkpt lat="43.90822" lon="7.22615">
        <ele>1114</ele>
        <time>2010-11-06T14:28:34Z</time>
      </trkpt>
      <trkpt lat="43.90808" lon="7.22596">
        <ele>1115</ele>
        <time>2010-11-06T14:28:39Z</time>
      </trkpt>
      <trkpt lat="43.90793" lon="7.22578">
        <ele>1123</ele>
        <time>2010-11-06T14:28:44Z</time>
      </trkpt>
      <trkpt lat="43.90782" lon="7.22566">
        <ele>1120</ele>
        <time>2010-11-06T14:28:47Z</time>
      </trkpt>
      <trkpt lat="43.90769" lon="7.22555">
        <ele>1119</ele>
        <time>2010-11-06T14:28:53Z</time>
      </trkpt>
      <trkpt lat="43.90767" lon="7.22552">
        <ele>1119</ele>
        <time>2010-11-06T14:28:55Z</time>
      </trkpt>
      <trkpt lat="43.90766" lon="7.22549">
        <ele>1120</ele>
        <time>2010-11-06T14:29:02Z</time>
      </trkpt>
      <trkpt lat="43.90764" lon="7.22548">
        <ele>1119</ele>
        <time>2010-11-06T14:29:08Z</time>
      </trkpt>
      <trkpt lat="43.90759" lon="7.22544">
        <ele>1120</ele>
        <time>2010-11-06T14:29:12Z</time>
      </trkpt>
      <trkpt lat="43.90755" lon="7.22537">
        <ele>1120</ele>
        <time>2010-11-06T14:29:17Z</time>
      </trkpt>
      <trkpt lat="43.90751" lon="7.22533">
        <ele>1121</ele>
        <time>2010-11-06T14:29:23Z</time>
      </trkpt>
      <trkpt lat="43.90748" lon="7.22533">
        <ele>1096</ele>
        <time>2010-11-06T14:29:29Z</time>
      </trkpt>
      <trkpt lat="43.90744" lon="7.22531">
        <ele>1096</ele>
        <time>2010-11-06T14:29:36Z</time>
      </trkpt>
      <trkpt lat="43.90741" lon="7.22529">
        <ele>1096</ele>
        <time>2010-11-06T14:29:42Z</time>
      </trkpt>
      <trkpt lat="43.9074" lon="7.22529">
        <ele>1096</ele>
        <time>2010-11-06T14:29:52Z</time>
      </trkpt>
      <trkpt lat="43.9074" lon="7.22529">
        <ele>1096</ele>
        <time>2010-11-06T14:29:53Z</time>
      </trkpt>
      <trkpt lat="43.90727" lon="7.22518">
        <ele>1096</ele>
        <time>2010-11-06T14:29:59Z</time>
      </trkpt>
      <trkpt lat="43.90719" lon="7.22512">
        <ele>1094</ele>
        <time>2010-11-06T14:30:04Z</time>
      </trkpt>
      <trkpt lat="43.90712" lon="7.22504">
        <ele>1092</ele>
        <time>2010-11-06T14:30:08Z</time>
      </trkpt>
      <trkpt lat="43.90707" lon="7.22502">
        <ele>1090</ele>
        <time>2010-11-06T14:30:12Z</time>
      </trkpt>
      <trkpt lat="43.90704" lon="7.22502">
        <ele>1089</ele>
        <time>2010-11-06T14:30:14Z</time>
      </trkpt>
      <trkpt lat="43.90697" lon="7.22497">
        <ele>1095</ele>
        <time>2010-11-06T14:30:18Z</time>
      </trkpt>
      <trkpt lat="43.90692" lon="7.22495">
        <ele>1094</ele>
        <time>2010-11-06T14:30:20Z</time>
      </trkpt>
      <trkpt lat="43.90689" lon="7.2249">
        <ele>1093</ele>
        <time>2010-11-06T14:30:23Z</time>
      </trkpt>
      <trkpt lat="43.90688" lon="7.22488">
        <ele>1092</ele>
        <time>2010-11-06T14:30:25Z</time>
      </trkpt>
      <trkpt lat="43.90687" lon="7.22484">
        <ele>1093</ele>
        <time>2010-11-06T14:30:30Z</time>
      </trkpt>
      <trkpt lat="43.90685" lon="7.22483">
        <ele>1092</ele>
        <time>2010-11-06T14:30:36Z</time>
      </trkpt>
      <trkpt lat="43.90679" lon="7.22478">
        <ele>1092</ele>
        <time>2010-11-06T14:30:44Z</time>
      </trkpt>
      <trkpt lat="43.90678" lon="7.22476">
        <ele>1092</ele>
        <time>2010-11-06T14:30:50Z</time>
      </trkpt>
      <trkpt lat="43.90677" lon="7.22475">
        <ele>1092</ele>
        <time>2010-11-06T14:30:51Z</time>
      </trkpt>
      <trkpt lat="43.90668" lon="7.22466">
        <ele>1092</ele>
        <time>2010-11-06T14:30:57Z</time>
      </trkpt>
      <trkpt lat="43.90667" lon="7.22465">
        <ele>1093</ele>
        <time>2010-11-06T14:31:01Z</time>
      </trkpt>
      <trkpt lat="43.90664" lon="7.22462">
        <ele>1067</ele>
        <time>2010-11-06T14:31:07Z</time>
      </trkpt>
      <trkpt lat="43.90663" lon="7.2246">
        <ele>1067</ele>
        <time>2010-11-06T14:31:10Z</time>
      </trkpt>
      <trkpt lat="43.90657" lon="7.22445">
        <ele>1067</ele>
        <time>2010-11-06T14:31:16Z</time>
      </trkpt>
      <trkpt lat="43.90656" lon="7.22446">
        <ele>1067</ele>
        <time>2010-11-06T14:31:21Z</time>
      </trkpt>
      <trkpt lat="43.90655" lon="7.22449">
        <ele>1067</ele>
        <time>2010-11-06T14:31:23Z</time>
      </trkpt>
      <trkpt lat="43.90654" lon="7.22454">
        <ele>1066</ele>
        <time>2010-11-06T14:31:29Z</time>
      </trkpt>
      <trkpt lat="43.90651" lon="7.22462">
        <ele>1065</ele>
        <time>2010-11-06T14:31:33Z</time>
      </trkpt>
      <trkpt lat="43.9065" lon="7.22464">
        <ele>1065</ele>
        <time>2010-11-06T14:31:38Z</time>
      </trkpt>
      <trkpt lat="43.90645" lon="7.22463">
        <ele>1064</ele>
        <time>2010-11-06T14:31:44Z</time>
      </trkpt>
      <trkpt lat="43.90643" lon="7.2246">
        <ele>1063</ele>
        <time>2010-11-06T14:31:51Z</time>
      </trkpt>
      <trkpt lat="43.90639" lon="7.22453">
        <ele>1063</ele>
        <time>2010-11-06T14:31:55Z</time>
      </trkpt>
      <trkpt lat="43.90634" lon="7.22457">
        <ele>1061</ele>
        <time>2010-11-06T14:32:00Z</time>
      </trkpt>
      <trkpt lat="43.90634" lon="7.22459">
        <ele>1061</ele>
        <time>2010-11-06T14:32:09Z</time>
      </trkpt>
      <trkpt lat="43.90633" lon="7.22462">
        <ele>1061</ele>
        <time>2010-11-06T14:32:18Z</time>
      </trkpt>
      <trkpt lat="43.90632" lon="7.22464">
        <ele>1061</ele>
        <time>2010-11-06T14:32:20Z</time>
      </trkpt>
      <trkpt lat="43.90625" lon="7.22478">
        <ele>1059</ele>
        <time>2010-11-06T14:32:25Z</time>
      </trkpt>
      <trkpt lat="43.90618" lon="7.22499">
        <ele>1056</ele>
        <time>2010-11-06T14:32:29Z</time>
      </trkpt>
      <trkpt lat="43.90612" lon="7.22526">
        <ele>1046</ele>
        <time>2010-11-06T14:32:33Z</time>
      </trkpt>
      <trkpt lat="43.90604" lon="7.22547">
        <ele>1043</ele>
        <time>2010-11-06T14:32:38Z</time>
      </trkpt>
      <trkpt lat="43.90594" lon="7.22535">
        <ele>1042</ele>
        <time>2010-11-06T14:32:41Z</time>
      </trkpt>
      <trkpt lat="43.90585" lon="7.2252">
        <ele>1042</ele>
        <time>2010-11-06T14:32:44Z</time>
      </trkpt>
      <trkpt lat="43.90568" lon="7.22494">
        <ele>1029</ele>
        <time>2010-11-06T14:32:50Z</time>
      </trkpt>
      <trkpt lat="43.90561" lon="7.2249">
        <ele>1026</ele>
        <time>2010-11-06T14:32:53Z</time>
      </trkpt>
      <trkpt lat="43.90559" lon="7.22506">
        <ele>1020</ele>
        <time>2010-11-06T14:32:56Z</time>
      </trkpt>
      <trkpt lat="43.90556" lon="7.22543">
        <ele>1014</ele>
        <time>2010-11-06T14:33:02Z</time>
      </trkpt>
      <trkpt lat="43.90555" lon="7.22554">
        <ele>1013</ele>
        <time>2010-11-06T14:33:04Z</time>
      </trkpt>
      <trkpt lat="43.90554" lon="7.22569">
        <ele>1012</ele>
        <time>2010-11-06T14:33:08Z</time>
      </trkpt>
      <trkpt lat="43.9055" lon="7.22564">
        <ele>1012</ele>
        <time>2010-11-06T14:33:11Z</time>
      </trkpt>
      <trkpt lat="43.9054" lon="7.22545">
        <ele>1011</ele>
        <time>2010-11-06T14:33:15Z</time>
      </trkpt>
      <trkpt lat="43.90526" lon="7.22519">
        <ele>1009</ele>
        <time>2010-11-06T14:33:19Z</time>
      </trkpt>
      <trkpt lat="43.9052" lon="7.22504">
        <ele>1008</ele>
        <time>2010-11-06T14:33:21Z</time>
      </trkpt>
      <trkpt lat="43.90513" lon="7.2247">
        <ele>1014</ele>
        <time>2010-11-06T14:33:26Z</time>
      </trkpt>
      <trkpt lat="43.9051" lon="7.2246">
        <ele>1015</ele>
        <time>2010-11-06T14:33:28Z</time>
      </trkpt>
      <trkpt lat="43.905" lon="7.22442">
        <ele>995</ele>
        <time>2010-11-06T14:33:32Z</time>
      </trkpt>
      <trkpt lat="43.90489" lon="7.22419">
        <ele>998</ele>
        <time>2010-11-06T14:33:36Z</time>
      </trkpt>
      <trkpt lat="43.90482" lon="7.22391">
        <ele>993</ele>
        <time>2010-11-06T14:33:40Z</time>
      </trkpt>
      <trkpt lat="43.90473" lon="7.22385">
        <ele>991</ele>
        <time>2010-11-06T14:33:42Z</time>
      </trkpt>
      <trkpt lat="43.90443" lon="7.2237">
        <ele>987</ele>
        <time>2010-11-06T14:33:47Z</time>
      </trkpt>
      <trkpt lat="43.90419" lon="7.22364">
        <ele>984</ele>
        <time>2010-11-06T14:33:51Z</time>
      </trkpt>
      <trkpt lat="43.90396" lon="7.22357">
        <ele>973</ele>
        <time>2010-11-06T14:33:55Z</time>
      </trkpt>
      <trkpt lat="43.90391" lon="7.22353">
        <ele>973</ele>
        <time>2010-11-06T14:33:56Z</time>
      </trkpt>
      <trkpt lat="43.90348" lon="7.22349">
        <ele>970</ele>
        <time>2010-11-06T14:34:02Z</time>
      </trkpt>
      <trkpt lat="43.90331" lon="7.22351">
        <ele>965</ele>
        <time>2010-11-06T14:34:04Z</time>
      </trkpt>
      <trkpt lat="43.90299" lon="7.22363">
        <ele>963</ele>
        <time>2010-11-06T14:34:08Z</time>
      </trkpt>
      <trkpt lat="43.90285" lon="7.22374">
        <ele>962</ele>
        <time>2010-11-06T14:34:10Z</time>
      </trkpt>
      <trkpt lat="43.90261" lon="7.22387">
        <ele>962</ele>
        <time>2010-11-06T14:34:13Z</time>
      </trkpt>
      <trkpt lat="43.9024" lon="7.22398">
        <ele>963</ele>
        <time>2010-11-06T14:34:16Z</time>
      </trkpt>
      <trkpt lat="43.90228" lon="7.22414">
        <ele>964</ele>
        <time>2010-11-06T14:34:20Z</time>
      </trkpt>
      <trkpt lat="43.90224" lon="7.22424">
        <ele>967</ele>
        <time>2010-11-06T14:34:23Z</time>
      </trkpt>
      <trkpt lat="43.90219" lon="7.22441">
        <ele>967</ele>
        <time>2010-11-06T14:34:28Z</time>
      </trkpt>
      <trkpt lat="43.90212" lon="7.22443">
        <ele>968</ele>
        <time>2010-11-06T14:34:33Z</time>
      </trkpt>
      <trkpt lat="43.90218" lon="7.22433">
        <ele>967</ele>
        <time>2010-11-06T14:34:37Z</time>
      </trkpt>
      <trkpt lat="43.90232" lon="7.22408">
        <ele>964</ele>
        <time>2010-11-06T14:34:44Z</time>
      </trkpt>
      <trkpt lat="43.90242" lon="7.22396">
        <ele>963</ele>
        <time>2010-11-06T14:34:48Z</time>
      </trkpt>
      <trkpt lat="43.90245" lon="7.22399">
        <ele>963</ele>
        <time>2010-11-06T14:34:56Z</time>
      </trkpt>
      <trkpt lat="43.90236" lon="7.22412">
        <ele>964</ele>
        <time>2010-11-06T14:35:01Z</time>
      </trkpt>
      <trkpt lat="43.90223" lon="7.22432">
        <ele>967</ele>
        <time>2010-11-06T14:35:07Z</time>
      </trkpt>
      <trkpt lat="43.90214" lon="7.22447">
        <ele>968</ele>
        <time>2010-11-06T14:35:13Z</time>
      </trkpt>
      <trkpt lat="43.90214" lon="7.22446">
        <ele>968</ele>
        <time>2010-11-06T14:35:17Z</time>
      </trkpt>
      <trkpt lat="43.90215" lon="7.22448">
        <ele>968</ele>
        <time>2010-11-06T14:35:27Z</time>
      </trkpt>
      <trkpt lat="43.90215" lon="7.22449">
        <ele>968</ele>
        <time>2010-11-06T14:35:42Z</time>
      </trkpt>
      <trkpt lat="43.90215" lon="7.22448">
        <ele>968</ele>
        <time>2010-11-06T14:35:55Z</time>
      </trkpt>
      <trkpt lat="43.9021" lon="7.22449">
        <ele>968</ele>
        <time>2010-11-06T14:36:02Z</time>
      </trkpt>
      <trkpt lat="43.90203" lon="7.22438">
        <ele>969</ele>
        <time>2010-11-06T14:36:09Z</time>
      </trkpt>
      <trkpt lat="43.90197" lon="7.22434">
        <ele>969</ele>
        <time>2010-11-06T14:36:14Z</time>
      </trkpt>
      <trkpt lat="43.90192" lon="7.22432">
        <ele>970</ele>
        <time>2010-11-06T14:36:19Z</time>
      </trkpt>
      <trkpt lat="43.90187" lon="7.22433">
        <ele>970</ele>
        <time>2010-11-06T14:36:23Z</time>
      </trkpt>
      <trkpt lat="43.90183" lon="7.22436">
        <ele>970</ele>
        <time>2010-11-06T14:36:26Z</time>
      </trkpt>
      <trkpt lat="43.90181" lon="7.22435">
        <ele>970</ele>
        <time>2010-11-06T14:36:32Z</time>
      </trkpt>
      <trkpt lat="43.90181" lon="7.22436">
        <ele>970</ele>
        <time>2010-11-06T14:36:38Z</time>
      </trkpt>
      <trkpt lat="43.90179" lon="7.22435">
        <ele>971</ele>
        <time>2010-11-06T14:36:47Z</time>
      </trkpt>
      <trkpt lat="43.90175" lon="7.22435">
        <ele>971</ele>
        <time>2010-11-06T14:37:00Z</time>
      </trkpt>
      <trkpt lat="43.90164" lon="7.2243">
        <ele>979</ele>
        <time>2010-11-06T14:37:07Z</time>
      </trkpt>
      <trkpt lat="43.90154" lon="7.22429">
        <ele>980</ele>
        <time>2010-11-06T14:37:14Z</time>
      </trkpt>
      <trkpt lat="43.90143" lon="7.22427">
        <ele>983</ele>
        <time>2010-11-06T14:37:21Z</time>
      </trkpt>
      <trkpt lat="43.90141" lon="7.22426">
        <ele>983</ele>
        <time>2010-11-06T14:37:23Z</time>
      </trkpt>
      <trkpt lat="43.90131" lon="7.22427">
        <ele>985</ele>
        <time>2010-11-06T14:37:30Z</time>
      </trkpt>
      <trkpt lat="43.90125" lon="7.22425">
        <ele>987</ele>
        <time>2010-11-06T14:37:35Z</time>
      </trkpt>
      <trkpt lat="43.90124" lon="7.22426">
        <ele>987</ele>
        <time>2010-11-06T14:37:36Z</time>
      </trkpt>
      <trkpt lat="43.90117" lon="7.2242">
        <ele>988</ele>
        <time>2010-11-06T14:37:43Z</time>
      </trkpt>
      <trkpt lat="43.90116" lon="7.22419">
        <ele>988</ele>
        <time>2010-11-06T14:37:44Z</time>
      </trkpt>
      <trkpt lat="43.90114" lon="7.22417">
        <ele>989</ele>
        <time>2010-11-06T14:37:52Z</time>
      </trkpt>
      <trkpt lat="43.90111" lon="7.22416">
        <ele>986</ele>
        <time>2010-11-06T14:37:59Z</time>
      </trkpt>
      <trkpt lat="43.90108" lon="7.22415">
        <ele>987</ele>
        <time>2010-11-06T14:38:06Z</time>
      </trkpt>
      <trkpt lat="43.90104" lon="7.22412">
        <ele>988</ele>
        <time>2010-11-06T14:38:14Z</time>
      </trkpt>
      <trkpt lat="43.901" lon="7.22413">
        <ele>989</ele>
        <time>2010-11-06T14:38:20Z</time>
      </trkpt>
      <trkpt lat="43.90096" lon="7.22411">
        <ele>990</ele>
        <time>2010-11-06T14:38:25Z</time>
      </trkpt>
      <trkpt lat="43.90094" lon="7.2241">
        <ele>990</ele>
        <time>2010-11-06T14:38:33Z</time>
      </trkpt>
      <trkpt lat="43.90093" lon="7.22408">
        <ele>990</ele>
        <time>2010-11-06T14:38:42Z</time>
      </trkpt>
      <trkpt lat="43.90091" lon="7.22404">
        <ele>990</ele>
        <time>2010-11-06T14:38:48Z</time>
      </trkpt>
      <trkpt lat="43.90089" lon="7.22399">
        <ele>989</ele>
        <time>2010-11-06T14:38:55Z</time>
      </trkpt>
      <trkpt lat="43.90086" lon="7.22399">
        <ele>989</ele>
        <time>2010-11-06T14:39:00Z</time>
      </trkpt>
      <trkpt lat="43.90083" lon="7.22398">
        <ele>1002</ele>
        <time>2010-11-06T14:39:05Z</time>
      </trkpt>
      <trkpt lat="43.90078" lon="7.224">
        <ele>1002</ele>
        <time>2010-11-06T14:39:11Z</time>
      </trkpt>
      <trkpt lat="43.90075" lon="7.22403">
        <ele>1002</ele>
        <time>2010-11-06T14:39:15Z</time>
      </trkpt>
      <trkpt lat="43.90073" lon="7.22407">
        <ele>1001</ele>
        <time>2010-11-06T14:39:18Z</time>
      </trkpt>
      <trkpt lat="43.90074" lon="7.22415">
        <ele>1000</ele>
        <time>2010-11-06T14:39:25Z</time>
      </trkpt>
      <trkpt lat="43.90074" lon="7.22423">
        <ele>1002</ele>
        <time>2010-11-06T14:39:32Z</time>
      </trkpt>
      <trkpt lat="43.90074" lon="7.22431">
        <ele>1004</ele>
        <time>2010-11-06T14:39:38Z</time>
      </trkpt>
      <trkpt lat="43.90071" lon="7.22432">
        <ele>1005</ele>
        <time>2010-11-06T14:39:43Z</time>
      </trkpt>
      <trkpt lat="43.90065" lon="7.22429">
        <ele>1006</ele>
        <time>2010-11-06T14:39:50Z</time>
      </trkpt>
      <trkpt lat="43.90061" lon="7.22427">
        <ele>1007</ele>
        <time>2010-11-06T14:39:56Z</time>
      </trkpt>
      <trkpt lat="43.90057" lon="7.22426">
        <ele>1008</ele>
        <time>2010-11-06T14:40:02Z</time>
      </trkpt>
      <trkpt lat="43.90052" lon="7.22424">
        <ele>1009</ele>
        <time>2010-11-06T14:40:08Z</time>
      </trkpt>
      <trkpt lat="43.90045" lon="7.22421">
        <ele>1011</ele>
        <time>2010-11-06T14:40:16Z</time>
      </trkpt>
      <trkpt lat="43.90041" lon="7.22419">
        <ele>1012</ele>
        <time>2010-11-06T14:40:23Z</time>
      </trkpt>
      <trkpt lat="43.90037" lon="7.2242">
        <ele>1013</ele>
        <time>2010-11-06T14:40:27Z</time>
      </trkpt>
      <trkpt lat="43.90034" lon="7.22418">
        <ele>1014</ele>
        <time>2010-11-06T14:40:33Z</time>
      </trkpt>
      <trkpt lat="43.90029" lon="7.22417">
        <ele>1015</ele>
        <time>2010-11-06T14:40:38Z</time>
      </trkpt>
      <trkpt lat="43.90025" lon="7.22416">
        <ele>1014</ele>
        <time>2010-11-06T14:40:46Z</time>
      </trkpt>
      <trkpt lat="43.90023" lon="7.22415">
        <ele>1014</ele>
        <time>2010-11-06T14:40:53Z</time>
      </trkpt>
      <trkpt lat="43.90021" lon="7.22415">
        <ele>1015</ele>
        <time>2010-11-06T14:41:02Z</time>
      </trkpt>
      <trkpt lat="43.90022" lon="7.22415">
        <ele>1015</ele>
        <time>2010-11-06T14:41:11Z</time>
      </trkpt>
      <trkpt lat="43.9002" lon="7.22416">
        <ele>1015</ele>
        <time>2010-11-06T14:41:35Z</time>
      </trkpt>
      <trkpt lat="43.90021" lon="7.22418">
        <ele>1017</ele>
        <time>2010-11-06T14:41:41Z</time>
      </trkpt>
      <trkpt lat="43.90021" lon="7.22418">
        <ele>1017</ele>
        <time>2010-11-06T14:41:46Z</time>
      </trkpt>
      <trkpt lat="43.9002" lon="7.22422">
        <ele>1017</ele>
        <time>2010-11-06T14:42:00Z</time>
      </trkpt>
      <trkpt lat="43.90021" lon="7.22426">
        <ele>1017</ele>
        <time>2010-11-06T14:42:13Z</time>
      </trkpt>
      <trkpt lat="43.90018" lon="7.22431">
        <ele>1017</ele>
        <time>2010-11-06T14:42:17Z</time>
      </trkpt>
      <trkpt lat="43.90014" lon="7.2244">
        <ele>1017</ele>
        <time>2010-11-06T14:42:22Z</time>
      </trkpt>
      <trkpt lat="43.9001" lon="7.22446">
        <ele>1017</ele>
        <time>2010-11-06T14:42:27Z</time>
      </trkpt>
      <trkpt lat="43.90012" lon="7.22457">
        <ele>1017</ele>
        <time>2010-11-06T14:42:33Z</time>
      </trkpt>
      <trkpt lat="43.9001" lon="7.22466">
        <ele>1018</ele>
        <time>2010-11-06T14:42:39Z</time>
      </trkpt>
      <trkpt lat="43.90008" lon="7.22467">
        <ele>1018</ele>
        <time>2010-11-06T14:42:43Z</time>
      </trkpt>
      <trkpt lat="43.90004" lon="7.22473">
        <ele>1019</ele>
        <time>2010-11-06T14:42:49Z</time>
      </trkpt>
      <trkpt lat="43.90006" lon="7.2248">
        <ele>1020</ele>
        <time>2010-11-06T14:42:55Z</time>
      </trkpt>
      <trkpt lat="43.90011" lon="7.22489">
        <ele>1021</ele>
        <time>2010-11-06T14:43:00Z</time>
      </trkpt>
      <trkpt lat="43.90006" lon="7.22499">
        <ele>1025</ele>
        <time>2010-11-06T14:43:04Z</time>
      </trkpt>
      <trkpt lat="43.90004" lon="7.22506">
        <ele>1025</ele>
        <time>2010-11-06T14:43:06Z</time>
      </trkpt>
      <trkpt lat="43.89999" lon="7.22526">
        <ele>1031</ele>
        <time>2010-11-06T14:43:12Z</time>
      </trkpt>
      <trkpt lat="43.89995" lon="7.22538">
        <ele>1031</ele>
        <time>2010-11-06T14:43:16Z</time>
      </trkpt>
      <trkpt lat="43.89992" lon="7.22555">
        <ele>1030</ele>
        <time>2010-11-06T14:43:21Z</time>
      </trkpt>
      <trkpt lat="43.89991" lon="7.22569">
        <ele>1029</ele>
        <time>2010-11-06T14:43:25Z</time>
      </trkpt>
      <trkpt lat="43.89988" lon="7.22581">
        <ele>1028</ele>
        <time>2010-11-06T14:43:29Z</time>
      </trkpt>
      <trkpt lat="43.89985" lon="7.22584">
        <ele>1025</ele>
        <time>2010-11-06T14:43:33Z</time>
      </trkpt>
      <trkpt lat="43.89982" lon="7.22589">
        <ele>1026</ele>
        <time>2010-11-06T14:43:36Z</time>
      </trkpt>
      <trkpt lat="43.8998" lon="7.22596">
        <ele>1026</ele>
        <time>2010-11-06T14:43:41Z</time>
      </trkpt>
      <trkpt lat="43.89977" lon="7.22605">
        <ele>1026</ele>
        <time>2010-11-06T14:43:45Z</time>
      </trkpt>
      <trkpt lat="43.89973" lon="7.22609">
        <ele>1026</ele>
        <time>2010-11-06T14:43:49Z</time>
      </trkpt>
      <trkpt lat="43.8997" lon="7.22611">
        <ele>1026</ele>
        <time>2010-11-06T14:43:53Z</time>
      </trkpt>
      <trkpt lat="43.8996" lon="7.22619">
        <ele>1027</ele>
        <time>2010-11-06T14:43:58Z</time>
      </trkpt>
      <trkpt lat="43.89951" lon="7.22623">
        <ele>1028</ele>
        <time>2010-11-06T14:44:02Z</time>
      </trkpt>
      <trkpt lat="43.89946" lon="7.22627">
        <ele>1028</ele>
        <time>2010-11-06T14:44:05Z</time>
      </trkpt>
      <trkpt lat="43.89936" lon="7.22643">
        <ele>1029</ele>
        <time>2010-11-06T14:44:12Z</time>
      </trkpt>
      <trkpt lat="43.89934" lon="7.22644">
        <ele>1029</ele>
        <time>2010-11-06T14:44:13Z</time>
      </trkpt>
      <trkpt lat="43.89926" lon="7.22653">
        <ele>1030</ele>
        <time>2010-11-06T14:44:19Z</time>
      </trkpt>
      <trkpt lat="43.89918" lon="7.22664">
        <ele>1032</ele>
        <time>2010-11-06T14:44:27Z</time>
      </trkpt>
      <trkpt lat="43.89911" lon="7.22673">
        <ele>1032</ele>
        <time>2010-11-06T14:44:33Z</time>
      </trkpt>
      <trkpt lat="43.89904" lon="7.22681">
        <ele>1031</ele>
        <time>2010-11-06T14:44:40Z</time>
      </trkpt>
      <trkpt lat="43.89898" lon="7.22689">
        <ele>1031</ele>
        <time>2010-11-06T14:44:47Z</time>
      </trkpt>
      <trkpt lat="43.89888" lon="7.22696">
        <ele>1030</ele>
        <time>2010-11-06T14:44:54Z</time>
      </trkpt>
      <trkpt lat="43.89876" lon="7.227">
        <ele>1031</ele>
        <time>2010-11-06T14:45:01Z</time>
      </trkpt>
      <trkpt lat="43.89867" lon="7.22698">
        <ele>1031</ele>
        <time>2010-11-06T14:45:08Z</time>
      </trkpt>
      <trkpt lat="43.89857" lon="7.22691">
        <ele>1032</ele>
        <time>2010-11-06T14:45:15Z</time>
      </trkpt>
      <trkpt lat="43.89849" lon="7.22685">
        <ele>1033</ele>
        <time>2010-11-06T14:45:21Z</time>
      </trkpt>
      <trkpt lat="43.89842" lon="7.22673">
        <ele>1035</ele>
        <time>2010-11-06T14:45:27Z</time>
      </trkpt>
      <trkpt lat="43.8984" lon="7.22665">
        <ele>1038</ele>
        <time>2010-11-06T14:45:30Z</time>
      </trkpt>
      <trkpt lat="43.89848" lon="7.22656">
        <ele>1037</ele>
        <time>2010-11-06T14:45:36Z</time>
      </trkpt>
      <trkpt lat="43.89858" lon="7.2264">
        <ele>1037</ele>
        <time>2010-11-06T14:45:44Z</time>
      </trkpt>
      <trkpt lat="43.89863" lon="7.22628">
        <ele>1037</ele>
        <time>2010-11-06T14:45:50Z</time>
      </trkpt>
      <trkpt lat="43.89866" lon="7.22617">
        <ele>1037</ele>
        <time>2010-11-06T14:45:55Z</time>
      </trkpt>
      <trkpt lat="43.8987" lon="7.22596">
        <ele>1037</ele>
        <time>2010-11-06T14:46:03Z</time>
      </trkpt>
      <trkpt lat="43.89874" lon="7.22568">
        <ele>1038</ele>
        <time>2010-11-06T14:46:13Z</time>
      </trkpt>
      <trkpt lat="43.89878" lon="7.22543">
        <ele>1039</ele>
        <time>2010-11-06T14:46:22Z</time>
      </trkpt>
      <trkpt lat="43.8988" lon="7.22525">
        <ele>1039</ele>
        <time>2010-11-06T14:46:29Z</time>
      </trkpt>
      <trkpt lat="43.89883" lon="7.22506">
        <ele>1039</ele>
        <time>2010-11-06T14:46:36Z</time>
      </trkpt>
      <trkpt lat="43.89881" lon="7.22489">
        <ele>1042</ele>
        <time>2010-11-06T14:46:42Z</time>
      </trkpt>
      <trkpt lat="43.89879" lon="7.22469">
        <ele>1042</ele>
        <time>2010-11-06T14:46:50Z</time>
      </trkpt>
      <trkpt lat="43.89879" lon="7.22451">
        <ele>1042</ele>
        <time>2010-11-06T14:46:57Z</time>
      </trkpt>
      <trkpt lat="43.89878" lon="7.22433">
        <ele>1043</ele>
        <time>2010-11-06T14:47:04Z</time>
      </trkpt>
      <trkpt lat="43.89874" lon="7.22414">
        <ele>1046</ele>
        <time>2010-11-06T14:47:11Z</time>
      </trkpt>
      <trkpt lat="43.89872" lon="7.22395">
        <ele>1046</ele>
        <time>2010-11-06T14:47:18Z</time>
      </trkpt>
      <trkpt lat="43.8987" lon="7.22379">
        <ele>1046</ele>
        <time>2010-11-06T14:47:25Z</time>
      </trkpt>
      <trkpt lat="43.89863" lon="7.22365">
        <ele>1046</ele>
        <time>2010-11-06T14:47:31Z</time>
      </trkpt>
      <trkpt lat="43.89856" lon="7.22352">
        <ele>1046</ele>
        <time>2010-11-06T14:47:36Z</time>
      </trkpt>
      <trkpt lat="43.89846" lon="7.2233">
        <ele>1045</ele>
        <time>2010-11-06T14:47:42Z</time>
      </trkpt>
      <trkpt lat="43.8984" lon="7.22312">
        <ele>1045</ele>
        <time>2010-11-06T14:47:46Z</time>
      </trkpt>
      <trkpt lat="43.89832" lon="7.22285">
        <ele>1038</ele>
        <time>2010-11-06T14:47:51Z</time>
      </trkpt>
      <trkpt lat="43.8983" lon="7.22279">
        <ele>1038</ele>
        <time>2010-11-06T14:47:52Z</time>
      </trkpt>
      <trkpt lat="43.89825" lon="7.22258">
        <ele>1041</ele>
        <time>2010-11-06T14:47:56Z</time>
      </trkpt>
      <trkpt lat="43.89821" lon="7.22236">
        <ele>1041</ele>
        <time>2010-11-06T14:48:00Z</time>
      </trkpt>
      <trkpt lat="43.89816" lon="7.22208">
        <ele>1040</ele>
        <time>2010-11-06T14:48:06Z</time>
      </trkpt>
      <trkpt lat="43.89805" lon="7.22176">
        <ele>1041</ele>
        <time>2010-11-06T14:48:13Z</time>
      </trkpt>
      <trkpt lat="43.89796" lon="7.22156">
        <ele>1044</ele>
        <time>2010-11-06T14:48:19Z</time>
      </trkpt>
      <trkpt lat="43.89786" lon="7.22132">
        <ele>1044</ele>
        <time>2010-11-06T14:48:25Z</time>
      </trkpt>
      <trkpt lat="43.89779" lon="7.22098">
        <ele>1045</ele>
        <time>2010-11-06T14:48:32Z</time>
      </trkpt>
      <trkpt lat="43.89772" lon="7.2207">
        <ele>1048</ele>
        <time>2010-11-06T14:48:38Z</time>
      </trkpt>
      <trkpt lat="43.89768" lon="7.22039">
        <ele>1048</ele>
        <time>2010-11-06T14:48:45Z</time>
      </trkpt>
      <trkpt lat="43.89761" lon="7.22015">
        <ele>1050</ele>
        <time>2010-11-06T14:48:51Z</time>
      </trkpt>
      <trkpt lat="43.8975" lon="7.21994">
        <ele>1049</ele>
        <time>2010-11-06T14:48:57Z</time>
      </trkpt>
      <trkpt lat="43.89739" lon="7.21971">
        <ele>1041</ele>
        <time>2010-11-06T14:49:04Z</time>
      </trkpt>
      <trkpt lat="43.89735" lon="7.21956">
        <ele>1040</ele>
        <time>2010-11-06T14:49:10Z</time>
      </trkpt>
      <trkpt lat="43.89729" lon="7.21945">
        <ele>1040</ele>
        <time>2010-11-06T14:49:15Z</time>
      </trkpt>
      <trkpt lat="43.89722" lon="7.21928">
        <ele>1040</ele>
        <time>2010-11-06T14:49:20Z</time>
      </trkpt>
      <trkpt lat="43.89714" lon="7.21905">
        <ele>1041</ele>
        <time>2010-11-06T14:49:27Z</time>
      </trkpt>
      <trkpt lat="43.89706" lon="7.21882">
        <ele>1039</ele>
        <time>2010-11-06T14:49:34Z</time>
      </trkpt>
      <trkpt lat="43.89703" lon="7.21871">
        <ele>1039</ele>
        <time>2010-11-06T14:49:37Z</time>
      </trkpt>
      <trkpt lat="43.89702" lon="7.21854">
        <ele>1040</ele>
        <time>2010-11-06T14:49:42Z</time>
      </trkpt>
      <trkpt lat="43.89697" lon="7.21838">
        <ele>1039</ele>
        <time>2010-11-06T14:49:46Z</time>
      </trkpt>
      <trkpt lat="43.89696" lon="7.21836">
        <ele>1039</ele>
        <time>2010-11-06T14:49:50Z</time>
      </trkpt>
      <trkpt lat="43.89696" lon="7.21836">
        <ele>1038</ele>
        <time>2010-11-06T14:49:54Z</time>
      </trkpt>
      <trkpt lat="43.89695" lon="7.21836">
        <ele>1038</ele>
        <time>2010-11-06T14:50:04Z</time>
      </trkpt>
      <trkpt lat="43.89695" lon="7.21835">
        <ele>1038</ele>
        <time>2010-11-06T14:50:12Z</time>
      </trkpt>
      <trkpt lat="43.89695" lon="7.21834">
        <ele>1038</ele>
        <time>2010-11-06T14:50:28Z</time>
      </trkpt>
      <trkpt lat="43.89695" lon="7.21834">
        <ele>1038</ele>
        <time>2010-11-06T14:50:35Z</time>
      </trkpt>
      <trkpt lat="43.89695" lon="7.21835">
        <ele>1038</ele>
        <time>2010-11-06T14:50:40Z</time>
      </trkpt>
      <trkpt lat="43.89696" lon="7.21835">
        <ele>1038</ele>
        <time>2010-11-06T14:50:49Z</time>
      </trkpt>
      <trkpt lat="43.89696" lon="7.21835">
        <ele>1038</ele>
        <time>2010-11-06T14:51:01Z</time>
      </trkpt>
      <trkpt lat="43.89696" lon="7.21835">
        <ele>1038</ele>
        <time>2010-11-06T14:51:15Z</time>
      </trkpt>
      <trkpt lat="43.89695" lon="7.21835">
        <ele>1038</ele>
        <time>2010-11-06T14:51:29Z</time>
      </trkpt>
      <trkpt lat="43.89694" lon="7.21835">
        <ele>1038</ele>
        <time>2010-11-06T14:51:39Z</time>
      </trkpt>
      <trkpt lat="43.89694" lon="7.21836">
        <ele>1038</ele>
        <time>2010-11-06T14:51:55Z</time>
      </trkpt>
      <trkpt lat="43.89694" lon="7.21836">
        <ele>1038</ele>
        <time>2010-11-06T14:52:05Z</time>
      </trkpt>
      <trkpt lat="43.89696" lon="7.21835">
        <ele>1038</ele>
        <time>2010-11-06T14:52:25Z</time>
      </trkpt>
      <trkpt lat="43.89696" lon="7.21834">
        <ele>1038</ele>
        <time>2010-11-06T14:52:46Z</time>
      </trkpt>
      <trkpt lat="43.89696" lon="7.21834">
        <ele>1039</ele>
        <time>2010-11-06T14:52:52Z</time>
      </trkpt>
      <trkpt lat="43.89696" lon="7.21834">
        <ele>1038</ele>
        <time>2010-11-06T14:53:17Z</time>
      </trkpt>
      <trkpt lat="43.89695" lon="7.21835">
        <ele>1038</ele>
        <time>2010-11-06T14:53:20Z</time>
      </trkpt>
      <trkpt lat="43.89696" lon="7.21835">
        <ele>1038</ele>
        <time>2010-11-06T14:53:28Z</time>
      </trkpt>
      <trkpt lat="43.89696" lon="7.21836">
        <ele>1038</ele>
        <time>2010-11-06T14:53:40Z</time>
      </trkpt>
      <trkpt lat="43.89696" lon="7.21835">
        <ele>1038</ele>
        <time>2010-11-06T14:53:53Z</time>
      </trkpt>
      <trkpt lat="43.89695" lon="7.21835">
        <ele>1038</ele>
        <time>2010-11-06T14:54:04Z</time>
      </trkpt>
      <trkpt lat="43.89695" lon="7.21836">
        <ele>1038</ele>
        <time>2010-11-06T14:54:12Z</time>
      </trkpt>
      <trkpt lat="43.89694" lon="7.21836">
        <ele>1038</ele>
        <time>2010-11-06T14:54:27Z</time>
      </trkpt>
      <trkpt lat="43.89694" lon="7.21837">
        <ele>1038</ele>
        <time>2010-11-06T14:54:37Z</time>
      </trkpt>
      <trkpt lat="43.89693" lon="7.21838">
        <ele>1038</ele>
        <time>2010-11-06T14:54:45Z</time>
      </trkpt>
      <trkpt lat="43.89692" lon="7.21838">
        <ele>1038</ele>
        <time>2010-11-06T14:54:51Z</time>
      </trkpt>
      <trkpt lat="43.89692" lon="7.21838">
        <ele>1037</ele>
        <time>2010-11-06T14:54:52Z</time>
      </trkpt>
      <trkpt lat="43.89682" lon="7.21823">
        <ele>1041</ele>
        <time>2010-11-06T14:54:58Z</time>
      </trkpt>
      <trkpt lat="43.89679" lon="7.21816">
        <ele>1041</ele>
        <time>2010-11-06T14:55:00Z</time>
      </trkpt>
      <trkpt lat="43.89676" lon="7.21794">
        <ele>1045</ele>
        <time>2010-11-06T14:55:05Z</time>
      </trkpt>
      <trkpt lat="43.89676" lon="7.21789">
        <ele>1046</ele>
        <time>2010-11-06T14:55:06Z</time>
      </trkpt>
      <trkpt lat="43.89679" lon="7.21779">
        <ele>1047</ele>
        <time>2010-11-06T14:55:11Z</time>
      </trkpt>
      <trkpt lat="43.89679" lon="7.21778">
        <ele>1047</ele>
        <time>2010-11-06T14:55:17Z</time>
      </trkpt>
      <trkpt lat="43.89677" lon="7.21775">
        <ele>1047</ele>
        <time>2010-11-06T14:55:21Z</time>
      </trkpt>
      <trkpt lat="43.89675" lon="7.21778">
        <ele>1047</ele>
        <time>2010-11-06T14:55:26Z</time>
      </trkpt>
      <trkpt lat="43.89672" lon="7.21778">
        <ele>1047</ele>
        <time>2010-11-06T14:55:32Z</time>
      </trkpt>
      <trkpt lat="43.89672" lon="7.21776">
        <ele>1047</ele>
        <time>2010-11-06T14:55:38Z</time>
      </trkpt>
      <trkpt lat="43.89664" lon="7.21768">
        <ele>1038</ele>
        <time>2010-11-06T14:55:43Z</time>
      </trkpt>
      <trkpt lat="43.89651" lon="7.21764">
        <ele>1037</ele>
        <time>2010-11-06T14:55:51Z</time>
      </trkpt>
      <trkpt lat="43.89642" lon="7.21761">
        <ele>1035</ele>
        <time>2010-11-06T14:55:56Z</time>
      </trkpt>
      <trkpt lat="43.8964" lon="7.21759">
        <ele>1035</ele>
        <time>2010-11-06T14:56:04Z</time>
      </trkpt>
      <trkpt lat="43.89635" lon="7.21758">
        <ele>1034</ele>
        <time>2010-11-06T14:56:10Z</time>
      </trkpt>
      <trkpt lat="43.89629" lon="7.21754">
        <ele>1033</ele>
        <time>2010-11-06T14:56:18Z</time>
      </trkpt>
      <trkpt lat="43.89629" lon="7.21754">
        <ele>1033</ele>
        <time>2010-11-06T14:56:27Z</time>
      </trkpt>
      <trkpt lat="43.89628" lon="7.21755">
        <ele>1033</ele>
        <time>2010-11-06T14:56:35Z</time>
      </trkpt>
      <trkpt lat="43.89625" lon="7.21753">
        <ele>1032</ele>
        <time>2010-11-06T14:56:53Z</time>
      </trkpt>
      <trkpt lat="43.89615" lon="7.21747">
        <ele>1039</ele>
        <time>2010-11-06T14:56:58Z</time>
      </trkpt>
      <trkpt lat="43.89604" lon="7.21734">
        <ele>1038</ele>
        <time>2010-11-06T14:57:03Z</time>
      </trkpt>
      <trkpt lat="43.89593" lon="7.21718">
        <ele>1038</ele>
        <time>2010-11-06T14:57:07Z</time>
      </trkpt>
      <trkpt lat="43.89582" lon="7.21703">
        <ele>1034</ele>
        <time>2010-11-06T14:57:11Z</time>
      </trkpt>
      <trkpt lat="43.8957" lon="7.21682">
        <ele>1035</ele>
        <time>2010-11-06T14:57:15Z</time>
      </trkpt>
      <trkpt lat="43.89568" lon="7.21678">
        <ele>1035</ele>
        <time>2010-11-06T14:57:16Z</time>
      </trkpt>
      <trkpt lat="43.89559" lon="7.21649">
        <ele>1033</ele>
        <time>2010-11-06T14:57:22Z</time>
      </trkpt>
      <trkpt lat="43.89559" lon="7.21644">
        <ele>1033</ele>
        <time>2010-11-06T14:57:23Z</time>
      </trkpt>
      <trkpt lat="43.89558" lon="7.21636">
        <ele>1032</ele>
        <time>2010-11-06T14:57:25Z</time>
      </trkpt>
      <trkpt lat="43.89556" lon="7.21621">
        <ele>1031</ele>
        <time>2010-11-06T14:57:30Z</time>
      </trkpt>
      <trkpt lat="43.8955" lon="7.21602">
        <ele>1029</ele>
        <time>2010-11-06T14:57:35Z</time>
      </trkpt>
      <trkpt lat="43.89548" lon="7.21599">
        <ele>1029</ele>
        <time>2010-11-06T14:57:36Z</time>
      </trkpt>
      <trkpt lat="43.89538" lon="7.21588">
        <ele>1030</ele>
        <time>2010-11-06T14:57:40Z</time>
      </trkpt>
      <trkpt lat="43.89536" lon="7.21584">
        <ele>1029</ele>
        <time>2010-11-06T14:57:42Z</time>
      </trkpt>
      <trkpt lat="43.89534" lon="7.21568">
        <ele>1020</ele>
        <time>2010-11-06T14:57:46Z</time>
      </trkpt>
      <trkpt lat="43.8953" lon="7.2156">
        <ele>1020</ele>
        <time>2010-11-06T14:57:53Z</time>
      </trkpt>
      <trkpt lat="43.89521" lon="7.2155">
        <ele>1019</ele>
        <time>2010-11-06T14:58:03Z</time>
      </trkpt>
      <trkpt lat="43.89521" lon="7.21543">
        <ele>1019</ele>
        <time>2010-11-06T14:58:11Z</time>
      </trkpt>
      <trkpt lat="43.89522" lon="7.21538">
        <ele>1018</ele>
        <time>2010-11-06T14:58:13Z</time>
      </trkpt>
      <trkpt lat="43.89523" lon="7.21527">
        <ele>1017</ele>
        <time>2010-11-06T14:58:18Z</time>
      </trkpt>
      <trkpt lat="43.89522" lon="7.21508">
        <ele>1016</ele>
        <time>2010-11-06T14:58:22Z</time>
      </trkpt>
      <trkpt lat="43.89522" lon="7.21503">
        <ele>1015</ele>
        <time>2010-11-06T14:58:23Z</time>
      </trkpt>
      <trkpt lat="43.89522" lon="7.21479">
        <ele>1004</ele>
        <time>2010-11-06T14:58:28Z</time>
      </trkpt>
      <trkpt lat="43.89522" lon="7.21463">
        <ele>1002</ele>
        <time>2010-11-06T14:58:32Z</time>
      </trkpt>
      <trkpt lat="43.89515" lon="7.21439">
        <ele>1000</ele>
        <time>2010-11-06T14:58:37Z</time>
      </trkpt>
      <trkpt lat="43.8951" lon="7.21418">
        <ele>999</ele>
        <time>2010-11-06T14:58:41Z</time>
      </trkpt>
      <trkpt lat="43.89508" lon="7.2141">
        <ele>993</ele>
        <time>2010-11-06T14:58:43Z</time>
      </trkpt>
      <trkpt lat="43.89504" lon="7.21392">
        <ele>989</ele>
        <time>2010-11-06T14:58:49Z</time>
      </trkpt>
      <trkpt lat="43.89504" lon="7.2139">
        <ele>988</ele>
        <time>2010-11-06T14:58:51Z</time>
      </trkpt>
      <trkpt lat="43.89506" lon="7.21384">
        <ele>987</ele>
        <time>2010-11-06T14:58:55Z</time>
      </trkpt>
      <trkpt lat="43.89506" lon="7.21381">
        <ele>987</ele>
        <time>2010-11-06T14:58:57Z</time>
      </trkpt>
      <trkpt lat="43.89507" lon="7.21364">
        <ele>986</ele>
        <time>2010-11-06T14:59:03Z</time>
      </trkpt>
      <trkpt lat="43.89507" lon="7.21339">
        <ele>987</ele>
        <time>2010-11-06T14:59:09Z</time>
      </trkpt>
      <trkpt lat="43.89506" lon="7.2133">
        <ele>983</ele>
        <time>2010-11-06T14:59:11Z</time>
      </trkpt>
      <trkpt lat="43.89507" lon="7.21317">
        <ele>975</ele>
        <time>2010-11-06T14:59:15Z</time>
      </trkpt>
      <trkpt lat="43.89507" lon="7.21297">
        <ele>968</ele>
        <time>2010-11-06T14:59:20Z</time>
      </trkpt>
      <trkpt lat="43.89507" lon="7.21286">
        <ele>966</ele>
        <time>2010-11-06T14:59:24Z</time>
      </trkpt>
      <trkpt lat="43.89508" lon="7.21283">
        <ele>965</ele>
        <time>2010-11-06T14:59:29Z</time>
      </trkpt>
      <trkpt lat="43.89508" lon="7.21278">
        <ele>965</ele>
        <time>2010-11-06T14:59:35Z</time>
      </trkpt>
      <trkpt lat="43.89506" lon="7.21275">
        <ele>965</ele>
        <time>2010-11-06T14:59:41Z</time>
      </trkpt>
      <trkpt lat="43.89506" lon="7.2127">
        <ele>965</ele>
        <time>2010-11-06T14:59:44Z</time>
      </trkpt>
      <trkpt lat="43.89503" lon="7.21265">
        <ele>966</ele>
        <time>2010-11-06T14:59:48Z</time>
      </trkpt>
      <trkpt lat="43.89505" lon="7.21255">
        <ele>967</ele>
        <time>2010-11-06T14:59:54Z</time>
      </trkpt>
      <trkpt lat="43.89504" lon="7.21254">
        <ele>967</ele>
        <time>2010-11-06T14:59:55Z</time>
      </trkpt>
      <trkpt lat="43.89504" lon="7.21249">
        <ele>964</ele>
        <time>2010-11-06T14:59:58Z</time>
      </trkpt>
      <trkpt lat="43.89499" lon="7.21238">
        <ele>970</ele>
        <time>2010-11-06T15:00:03Z</time>
      </trkpt>
      <trkpt lat="43.89496" lon="7.21228">
        <ele>970</ele>
        <time>2010-11-06T15:00:08Z</time>
      </trkpt>
      <trkpt lat="43.89491" lon="7.21222">
        <ele>970</ele>
        <time>2010-11-06T15:00:12Z</time>
      </trkpt>
      <trkpt lat="43.89488" lon="7.21217">
        <ele>970</ele>
        <time>2010-11-06T15:00:16Z</time>
      </trkpt>
      <trkpt lat="43.89488" lon="7.21213">
        <ele>969</ele>
        <time>2010-11-06T15:00:21Z</time>
      </trkpt>
      <trkpt lat="43.89486" lon="7.2121">
        <ele>968</ele>
        <time>2010-11-06T15:00:26Z</time>
      </trkpt>
      <trkpt lat="43.89486" lon="7.2121">
        <ele>968</ele>
        <time>2010-11-06T15:00:31Z</time>
      </trkpt>
      <trkpt lat="43.89485" lon="7.21209">
        <ele>968</ele>
        <time>2010-11-06T15:00:37Z</time>
      </trkpt>
      <trkpt lat="43.89484" lon="7.21207">
        <ele>968</ele>
        <time>2010-11-06T15:00:38Z</time>
      </trkpt>
      <trkpt lat="43.89477" lon="7.21198">
        <ele>967</ele>
        <time>2010-11-06T15:00:43Z</time>
      </trkpt>
      <trkpt lat="43.89474" lon="7.21192">
        <ele>966</ele>
        <time>2010-11-06T15:00:46Z</time>
      </trkpt>
      <trkpt lat="43.89464" lon="7.21184">
        <ele>967</ele>
        <time>2010-11-06T15:00:51Z</time>
      </trkpt>
      <trkpt lat="43.89462" lon="7.2118">
        <ele>967</ele>
        <time>2010-11-06T15:00:53Z</time>
      </trkpt>
      <trkpt lat="43.8945" lon="7.21173">
        <ele>969</ele>
        <time>2010-11-06T15:00:59Z</time>
      </trkpt>
      <trkpt lat="43.89445" lon="7.21169">
        <ele>969</ele>
        <time>2010-11-06T15:01:02Z</time>
      </trkpt>
      <trkpt lat="43.89444" lon="7.21168">
        <ele>969</ele>
        <time>2010-11-06T15:01:12Z</time>
      </trkpt>
      <trkpt lat="43.89443" lon="7.21168">
        <ele>969</ele>
        <time>2010-11-06T15:01:13Z</time>
      </trkpt>
      <trkpt lat="43.8944" lon="7.21167">
        <ele>969</ele>
        <time>2010-11-06T15:01:19Z</time>
      </trkpt>
      <trkpt lat="43.8944" lon="7.21166">
        <ele>951</ele>
        <time>2010-11-06T15:01:40Z</time>
      </trkpt>
      <trkpt lat="43.8944" lon="7.21164">
        <ele>951</ele>
        <time>2010-11-06T15:01:48Z</time>
      </trkpt>
      <trkpt lat="43.89434" lon="7.21159">
        <ele>953</ele>
        <time>2010-11-06T15:01:54Z</time>
      </trkpt>
      <trkpt lat="43.89422" lon="7.21147">
        <ele>952</ele>
        <time>2010-11-06T15:01:59Z</time>
      </trkpt>
      <trkpt lat="43.89408" lon="7.21129">
        <ele>961</ele>
        <time>2010-11-06T15:02:05Z</time>
      </trkpt>
      <trkpt lat="43.89399" lon="7.21121">
        <ele>960</ele>
        <time>2010-11-06T15:02:09Z</time>
      </trkpt>
      <trkpt lat="43.89391" lon="7.21112">
        <ele>958</ele>
        <time>2010-11-06T15:02:13Z</time>
      </trkpt>
      <trkpt lat="43.89369" lon="7.21092">
        <ele>958</ele>
        <time>2010-11-06T15:02:20Z</time>
      </trkpt>
      <trkpt lat="43.89344" lon="7.21078">
        <ele>947</ele>
        <time>2010-11-06T15:02:26Z</time>
      </trkpt>
      <trkpt lat="43.89341" lon="7.21076">
        <ele>948</ele>
        <time>2010-11-06T15:02:27Z</time>
      </trkpt>
      <trkpt lat="43.89337" lon="7.21071">
        <ele>947</ele>
        <time>2010-11-06T15:02:32Z</time>
      </trkpt>
      <trkpt lat="43.89333" lon="7.21068">
        <ele>950</ele>
        <time>2010-11-06T15:02:39Z</time>
      </trkpt>
      <trkpt lat="43.8933" lon="7.21067">
        <ele>950</ele>
        <time>2010-11-06T15:02:45Z</time>
      </trkpt>
      <trkpt lat="43.89329" lon="7.21067">
        <ele>950</ele>
        <time>2010-11-06T15:02:50Z</time>
      </trkpt>
      <trkpt lat="43.8932" lon="7.21059">
        <ele>948</ele>
        <time>2010-11-06T15:02:54Z</time>
      </trkpt>
      <trkpt lat="43.89305" lon="7.21046">
        <ele>945</ele>
        <time>2010-11-06T15:02:59Z</time>
      </trkpt>
      <trkpt lat="43.89284" lon="7.21033">
        <ele>944</ele>
        <time>2010-11-06T15:03:03Z</time>
      </trkpt>
      <trkpt lat="43.89263" lon="7.21025">
        <ele>942</ele>
        <time>2010-11-06T15:03:08Z</time>
      </trkpt>
      <trkpt lat="43.89247" lon="7.21016">
        <ele>941</ele>
        <time>2010-11-06T15:03:11Z</time>
      </trkpt>
      <trkpt lat="43.89238" lon="7.21012">
        <ele>942</ele>
        <time>2010-11-06T15:03:13Z</time>
      </trkpt>
      <trkpt lat="43.89229" lon="7.21">
        <ele>942</ele>
        <time>2010-11-06T15:03:18Z</time>
      </trkpt>
      <trkpt lat="43.89217" lon="7.20992">
        <ele>927</ele>
        <time>2010-11-06T15:03:22Z</time>
      </trkpt>
      <trkpt lat="43.89208" lon="7.2098">
        <ele>926</ele>
        <time>2010-11-06T15:03:26Z</time>
      </trkpt>
      <trkpt lat="43.89201" lon="7.20973">
        <ele>926</ele>
        <time>2010-11-06T15:03:28Z</time>
      </trkpt>
      <trkpt lat="43.89181" lon="7.20958">
        <ele>924</ele>
        <time>2010-11-06T15:03:32Z</time>
      </trkpt>
      <trkpt lat="43.89146" lon="7.2095">
        <ele>925</ele>
        <time>2010-11-06T15:03:37Z</time>
      </trkpt>
      <trkpt lat="43.89133" lon="7.20946">
        <ele>925</ele>
        <time>2010-11-06T15:03:39Z</time>
      </trkpt>
      <trkpt lat="43.89108" lon="7.20942">
        <ele>925</ele>
        <time>2010-11-06T15:03:45Z</time>
      </trkpt>
      <trkpt lat="43.89103" lon="7.20938">
        <ele>924</ele>
        <time>2010-11-06T15:03:47Z</time>
      </trkpt>
      <trkpt lat="43.89085" lon="7.20924">
        <ele>920</ele>
        <time>2010-11-06T15:03:52Z</time>
      </trkpt>
      <trkpt lat="43.89076" lon="7.20915">
        <ele>917</ele>
        <time>2010-11-06T15:03:54Z</time>
      </trkpt>
      <trkpt lat="43.89063" lon="7.20897">
        <ele>914</ele>
        <time>2010-11-06T15:03:58Z</time>
      </trkpt>
      <trkpt lat="43.8905" lon="7.20879">
        <ele>913</ele>
        <time>2010-11-06T15:04:02Z</time>
      </trkpt>
      <trkpt lat="43.89047" lon="7.20864">
        <ele>913</ele>
        <time>2010-11-06T15:04:06Z</time>
      </trkpt>
      <trkpt lat="43.89044" lon="7.20849">
        <ele>912</ele>
        <time>2010-11-06T15:04:11Z</time>
      </trkpt>
      <trkpt lat="43.89036" lon="7.2083">
        <ele>906</ele>
        <time>2010-11-06T15:04:16Z</time>
      </trkpt>
      <trkpt lat="43.89035" lon="7.20828">
        <ele>906</ele>
        <time>2010-11-06T15:04:17Z</time>
      </trkpt>
      <trkpt lat="43.89034" lon="7.20823">
        <ele>906</ele>
        <time>2010-11-06T15:04:19Z</time>
      </trkpt>
      <trkpt lat="43.89025" lon="7.20806">
        <ele>905</ele>
        <time>2010-11-06T15:04:25Z</time>
      </trkpt>
      <trkpt lat="43.89013" lon="7.20797">
        <ele>904</ele>
        <time>2010-11-06T15:04:30Z</time>
      </trkpt>
      <trkpt lat="43.89003" lon="7.20792">
        <ele>903</ele>
        <time>2010-11-06T15:04:33Z</time>
      </trkpt>
      <trkpt lat="43.88985" lon="7.20784">
        <ele>902</ele>
        <time>2010-11-06T15:04:38Z</time>
      </trkpt>
      <trkpt lat="43.88973" lon="7.20779">
        <ele>902</ele>
        <time>2010-11-06T15:04:43Z</time>
      </trkpt>
      <trkpt lat="43.88965" lon="7.20771">
        <ele>901</ele>
        <time>2010-11-06T15:04:47Z</time>
      </trkpt>
      <trkpt lat="43.8895" lon="7.2076">
        <ele>900</ele>
        <time>2010-11-06T15:04:52Z</time>
      </trkpt>
      <trkpt lat="43.88939" lon="7.2075">
        <ele>899</ele>
        <time>2010-11-06T15:04:56Z</time>
      </trkpt>
      <trkpt lat="43.88938" lon="7.2075">
        <ele>899</ele>
        <time>2010-11-06T15:05:04Z</time>
      </trkpt>
      <trkpt lat="43.88933" lon="7.20744">
        <ele>888</ele>
        <time>2010-11-06T15:05:09Z</time>
      </trkpt>
      <trkpt lat="43.88929" lon="7.20742">
        <ele>888</ele>
        <time>2010-11-06T15:05:15Z</time>
      </trkpt>
      <trkpt lat="43.88927" lon="7.20742">
        <ele>889</ele>
        <time>2010-11-06T15:05:18Z</time>
      </trkpt>
      <trkpt lat="43.88923" lon="7.20738">
        <ele>888</ele>
        <time>2010-11-06T15:05:24Z</time>
      </trkpt>
      <trkpt lat="43.88917" lon="7.20732">
        <ele>887</ele>
        <time>2010-11-06T15:05:29Z</time>
      </trkpt>
      <trkpt lat="43.88917" lon="7.20732">
        <ele>886</ele>
        <time>2010-11-06T15:05:30Z</time>
      </trkpt>
      <trkpt lat="43.88911" lon="7.20719">
        <ele>878</ele>
        <time>2010-11-06T15:05:34Z</time>
      </trkpt>
      <trkpt lat="43.88897" lon="7.20708">
        <ele>875</ele>
        <time>2010-11-06T15:05:37Z</time>
      </trkpt>
      <trkpt lat="43.88885" lon="7.207">
        <ele>873</ele>
        <time>2010-11-06T15:05:41Z</time>
      </trkpt>
      <trkpt lat="43.88873" lon="7.20692">
        <ele>872</ele>
        <time>2010-11-06T15:05:44Z</time>
      </trkpt>
      <trkpt lat="43.88861" lon="7.20688">
        <ele>871</ele>
        <time>2010-11-06T15:05:47Z</time>
      </trkpt>
      <trkpt lat="43.88846" lon="7.2068">
        <ele>871</ele>
        <time>2010-11-06T15:05:52Z</time>
      </trkpt>
      <trkpt lat="43.88844" lon="7.20679">
        <ele>871</ele>
        <time>2010-11-06T15:05:55Z</time>
      </trkpt>
      <trkpt lat="43.88845" lon="7.20679">
        <ele>870</ele>
        <time>2010-11-06T15:06:02Z</time>
      </trkpt>
      <trkpt lat="43.88844" lon="7.20678">
        <ele>870</ele>
        <time>2010-11-06T15:06:22Z</time>
      </trkpt>
      <trkpt lat="43.88844" lon="7.20679">
        <ele>870</ele>
        <time>2010-11-06T15:06:32Z</time>
      </trkpt>
      <trkpt lat="43.88844" lon="7.20678">
        <ele>870</ele>
        <time>2010-11-06T15:06:49Z</time>
      </trkpt>
      <trkpt lat="43.88843" lon="7.20678">
        <ele>870</ele>
        <time>2010-11-06T15:07:13Z</time>
      </trkpt>
      <trkpt lat="43.88841" lon="7.20676">
        <ele>870</ele>
        <time>2010-11-06T15:08:11Z</time>
      </trkpt>
      <trkpt lat="43.88841" lon="7.20677">
        <ele>870</ele>
        <time>2010-11-06T15:08:18Z</time>
      </trkpt>
      <trkpt lat="43.88842" lon="7.20677">
        <ele>870</ele>
        <time>2010-11-06T15:08:38Z</time>
      </trkpt>
      <trkpt lat="43.88842" lon="7.20677">
        <ele>870</ele>
        <time>2010-11-06T15:08:41Z</time>
      </trkpt>
      <trkpt lat="43.88845" lon="7.20658">
        <ele>866</ele>
        <time>2010-11-06T15:08:46Z</time>
      </trkpt>
      <trkpt lat="43.88843" lon="7.20627">
        <ele>864</ele>
        <time>2010-11-06T15:08:51Z</time>
      </trkpt>
      <trkpt lat="43.88846" lon="7.20595">
        <ele>866</ele>
        <time>2010-11-06T15:08:55Z</time>
      </trkpt>
      <trkpt lat="43.88848" lon="7.20578">
        <ele>861</ele>
        <time>2010-11-06T15:08:57Z</time>
      </trkpt>
      <trkpt lat="43.88852" lon="7.20565">
        <ele>857</ele>
        <time>2010-11-06T15:08:59Z</time>
      </trkpt>
      <trkpt lat="43.88856" lon="7.20537">
        <ele>852</ele>
        <time>2010-11-06T15:09:04Z</time>
      </trkpt>
      <trkpt lat="43.8885" lon="7.20518">
        <ele>851</ele>
        <time>2010-11-06T15:09:08Z</time>
      </trkpt>
      <trkpt lat="43.88846" lon="7.20514">
        <ele>851</ele>
        <time>2010-11-06T15:09:09Z</time>
      </trkpt>
      <trkpt lat="43.88825" lon="7.20494">
        <ele>851</ele>
        <time>2010-11-06T15:09:14Z</time>
      </trkpt>
      <trkpt lat="43.88804" lon="7.20476">
        <ele>848</ele>
        <time>2010-11-06T15:09:19Z</time>
      </trkpt>
      <trkpt lat="43.88786" lon="7.20466">
        <ele>847</ele>
        <time>2010-11-06T15:09:23Z</time>
      </trkpt>
      <trkpt lat="43.88767" lon="7.20459">
        <ele>847</ele>
        <time>2010-11-06T15:09:26Z</time>
      </trkpt>
      <trkpt lat="43.8874" lon="7.2045">
        <ele>845</ele>
        <time>2010-11-06T15:09:30Z</time>
      </trkpt>
      <trkpt lat="43.8873" lon="7.20448">
        <ele>844</ele>
        <time>2010-11-06T15:09:32Z</time>
      </trkpt>
      <trkpt lat="43.88703" lon="7.20451">
        <ele>843</ele>
        <time>2010-11-06T15:09:36Z</time>
      </trkpt>
      <trkpt lat="43.88682" lon="7.20454">
        <ele>841</ele>
        <time>2010-11-06T15:09:40Z</time>
      </trkpt>
      <trkpt lat="43.88661" lon="7.2046">
        <ele>831</ele>
        <time>2010-11-06T15:09:45Z</time>
      </trkpt>
      <trkpt lat="43.88657" lon="7.20461">
        <ele>831</ele>
        <time>2010-11-06T15:09:46Z</time>
      </trkpt>
      <trkpt lat="43.88639" lon="7.20467">
        <ele>829</ele>
        <time>2010-11-06T15:09:51Z</time>
      </trkpt>
      <trkpt lat="43.88632" lon="7.20468">
        <ele>829</ele>
        <time>2010-11-06T15:09:53Z</time>
      </trkpt>
      <trkpt lat="43.88608" lon="7.20468">
        <ele>826</ele>
        <time>2010-11-06T15:09:59Z</time>
      </trkpt>
      <trkpt lat="43.88598" lon="7.20467">
        <ele>825</ele>
        <time>2010-11-06T15:10:04Z</time>
      </trkpt>
      <trkpt lat="43.88598" lon="7.20466">
        <ele>825</ele>
        <time>2010-11-06T15:10:13Z</time>
      </trkpt>
      <trkpt lat="43.88596" lon="7.20467">
        <ele>825</ele>
        <time>2010-11-06T15:10:21Z</time>
      </trkpt>
      <trkpt lat="43.88587" lon="7.20467">
        <ele>824</ele>
        <time>2010-11-06T15:10:29Z</time>
      </trkpt>
      <trkpt lat="43.88581" lon="7.20466">
        <ele>820</ele>
        <time>2010-11-06T15:10:34Z</time>
      </trkpt>
      <trkpt lat="43.8857" lon="7.20464">
        <ele>821</ele>
        <time>2010-11-06T15:10:39Z</time>
      </trkpt>
      <trkpt lat="43.88569" lon="7.20464">
        <ele>822</ele>
        <time>2010-11-06T15:10:44Z</time>
      </trkpt>
      <trkpt lat="43.88556" lon="7.20466">
        <ele>821</ele>
        <time>2010-11-06T15:10:49Z</time>
      </trkpt>
      <trkpt lat="43.88536" lon="7.20471">
        <ele>820</ele>
        <time>2010-11-06T15:10:54Z</time>
      </trkpt>
      <trkpt lat="43.88531" lon="7.20472">
        <ele>820</ele>
        <time>2010-11-06T15:10:57Z</time>
      </trkpt>
      <trkpt lat="43.8853" lon="7.20472">
        <ele>820</ele>
        <time>2010-11-06T15:11:04Z</time>
      </trkpt>
      <trkpt lat="43.88526" lon="7.20475">
        <ele>819</ele>
        <time>2010-11-06T15:11:47Z</time>
      </trkpt>
      <trkpt lat="43.88514" lon="7.20479">
        <ele>817</ele>
        <time>2010-11-06T15:11:51Z</time>
      </trkpt>
      <trkpt lat="43.88497" lon="7.20475">
        <ele>824</ele>
        <time>2010-11-06T15:11:55Z</time>
      </trkpt>
      <trkpt lat="43.88492" lon="7.20471">
        <ele>826</ele>
        <time>2010-11-06T15:11:58Z</time>
      </trkpt>
      <trkpt lat="43.88481" lon="7.20473">
        <ele>828</ele>
        <time>2010-11-06T15:12:03Z</time>
      </trkpt>
      <trkpt lat="43.88464" lon="7.2048">
        <ele>829</ele>
        <time>2010-11-06T15:12:08Z</time>
      </trkpt>
      <trkpt lat="43.88451" lon="7.20497">
        <ele>830</ele>
        <time>2010-11-06T15:12:12Z</time>
      </trkpt>
      <trkpt lat="43.88438" lon="7.20511">
        <ele>814</ele>
        <time>2010-11-06T15:12:16Z</time>
      </trkpt>
      <trkpt lat="43.88422" lon="7.20524">
        <ele>814</ele>
        <time>2010-11-06T15:12:22Z</time>
      </trkpt>
      <trkpt lat="43.88408" lon="7.20538">
        <ele>824</ele>
        <time>2010-11-06T15:12:28Z</time>
      </trkpt>
      <trkpt lat="43.88393" lon="7.20552">
        <ele>822</ele>
        <time>2010-11-06T15:12:34Z</time>
      </trkpt>
      <trkpt lat="43.88382" lon="7.20559">
        <ele>823</ele>
        <time>2010-11-06T15:12:39Z</time>
      </trkpt>
      <trkpt lat="43.8837" lon="7.2057">
        <ele>823</ele>
        <time>2010-11-06T15:12:45Z</time>
      </trkpt>
      <trkpt lat="43.88356" lon="7.20581">
        <ele>824</ele>
        <time>2010-11-06T15:12:51Z</time>
      </trkpt>
      <trkpt lat="43.88338" lon="7.2059">
        <ele>816</ele>
        <time>2010-11-06T15:12:57Z</time>
      </trkpt>
      <trkpt lat="43.88323" lon="7.20593">
        <ele>818</ele>
        <time>2010-11-06T15:13:02Z</time>
      </trkpt>
      <trkpt lat="43.88308" lon="7.20598">
        <ele>816</ele>
        <time>2010-11-06T15:13:08Z</time>
      </trkpt>
      <trkpt lat="43.88292" lon="7.20602">
        <ele>815</ele>
        <time>2010-11-06T15:13:14Z</time>
      </trkpt>
      <trkpt lat="43.88269" lon="7.20612">
        <ele>815</ele>
        <time>2010-11-06T15:13:20Z</time>
      </trkpt>
      <trkpt lat="43.88242" lon="7.20623">
        <ele>815</ele>
        <time>2010-11-06T15:13:25Z</time>
      </trkpt>
      <trkpt lat="43.88219" lon="7.20632">
        <ele>814</ele>
        <time>2010-11-06T15:13:29Z</time>
      </trkpt>
      <trkpt lat="43.88207" lon="7.20649">
        <ele>813</ele>
        <time>2010-11-06T15:13:33Z</time>
      </trkpt>
      <trkpt lat="43.88198" lon="7.2065">
        <ele>813</ele>
        <time>2010-11-06T15:13:36Z</time>
      </trkpt>
      <trkpt lat="43.88182" lon="7.20648">
        <ele>813</ele>
        <time>2010-11-06T15:13:40Z</time>
      </trkpt>
      <trkpt lat="43.8816" lon="7.20649">
        <ele>813</ele>
        <time>2010-11-06T15:13:45Z</time>
      </trkpt>
      <trkpt lat="43.88154" lon="7.20649">
        <ele>813</ele>
        <time>2010-11-06T15:13:46Z</time>
      </trkpt>
      <trkpt lat="43.88138" lon="7.2065">
        <ele>813</ele>
        <time>2010-11-06T15:13:49Z</time>
      </trkpt>
      <trkpt lat="43.88126" lon="7.20648">
        <ele>813</ele>
        <time>2010-11-06T15:13:51Z</time>
      </trkpt>
      <trkpt lat="43.88101" lon="7.20641">
        <ele>813</ele>
        <time>2010-11-06T15:13:56Z</time>
      </trkpt>
      <trkpt lat="43.88091" lon="7.20637">
        <ele>813</ele>
        <time>2010-11-06T15:13:58Z</time>
      </trkpt>
      <trkpt lat="43.88068" lon="7.20635">
        <ele>814</ele>
        <time>2010-11-06T15:14:03Z</time>
      </trkpt>
      <trkpt lat="43.88064" lon="7.20635">
        <ele>814</ele>
        <time>2010-11-06T15:14:04Z</time>
      </trkpt>
      <trkpt lat="43.88053" lon="7.20634">
        <ele>814</ele>
        <time>2010-11-06T15:14:07Z</time>
      </trkpt>
      <trkpt lat="43.88041" lon="7.20635">
        <ele>814</ele>
        <time>2010-11-06T15:14:10Z</time>
      </trkpt>
      <trkpt lat="43.88029" lon="7.20636">
        <ele>815</ele>
        <time>2010-11-06T15:14:13Z</time>
      </trkpt>
      <trkpt lat="43.88" lon="7.2063">
        <ele>815</ele>
        <time>2010-11-06T15:14:19Z</time>
      </trkpt>
      <trkpt lat="43.87982" lon="7.20621">
        <ele>812</ele>
        <time>2010-11-06T15:14:23Z</time>
      </trkpt>
      <trkpt lat="43.87966" lon="7.20621">
        <ele>812</ele>
        <time>2010-11-06T15:14:26Z</time>
      </trkpt>
      <trkpt lat="43.87938" lon="7.20623">
        <ele>811</ele>
        <time>2010-11-06T15:14:31Z</time>
      </trkpt>
      <trkpt lat="43.87908" lon="7.2063">
        <ele>802</ele>
        <time>2010-11-06T15:14:37Z</time>
      </trkpt>
      <trkpt lat="43.87893" lon="7.20639">
        <ele>801</ele>
        <time>2010-11-06T15:14:41Z</time>
      </trkpt>
      <trkpt lat="43.87883" lon="7.20647">
        <ele>801</ele>
        <time>2010-11-06T15:14:43Z</time>
      </trkpt>
      <trkpt lat="43.87865" lon="7.20677">
        <ele>806</ele>
        <time>2010-11-06T15:14:48Z</time>
      </trkpt>
      <trkpt lat="43.87862" lon="7.20689">
        <ele>807</ele>
        <time>2010-11-06T15:14:50Z</time>
      </trkpt>
      <trkpt lat="43.87858" lon="7.20699">
        <ele>807</ele>
        <time>2010-11-06T15:14:52Z</time>
      </trkpt>
      <trkpt lat="43.87844" lon="7.20716">
        <ele>807</ele>
        <time>2010-11-06T15:14:57Z</time>
      </trkpt>
      <trkpt lat="43.87835" lon="7.20726">
        <ele>807</ele>
        <time>2010-11-06T15:15:00Z</time>
      </trkpt>
      <trkpt lat="43.87826" lon="7.20737">
        <ele>799</ele>
        <time>2010-11-06T15:15:02Z</time>
      </trkpt>
      <trkpt lat="43.87802" lon="7.20752">
        <ele>803</ele>
        <time>2010-11-06T15:15:06Z</time>
      </trkpt>
      <trkpt lat="43.8779" lon="7.20758">
        <ele>802</ele>
        <time>2010-11-06T15:15:08Z</time>
      </trkpt>
      <trkpt lat="43.87775" lon="7.20759">
        <ele>800</ele>
        <time>2010-11-06T15:15:11Z</time>
      </trkpt>
      <trkpt lat="43.87759" lon="7.20768">
        <ele>798</ele>
        <time>2010-11-06T15:15:14Z</time>
      </trkpt>
      <trkpt lat="43.87745" lon="7.20776">
        <ele>788</ele>
        <time>2010-11-06T15:15:17Z</time>
      </trkpt>
      <trkpt lat="43.87718" lon="7.20783">
        <ele>785</ele>
        <time>2010-11-06T15:15:22Z</time>
      </trkpt>
      <trkpt lat="43.87695" lon="7.20794">
        <ele>782</ele>
        <time>2010-11-06T15:15:26Z</time>
      </trkpt>
      <trkpt lat="43.87682" lon="7.20796">
        <ele>780</ele>
        <time>2010-11-06T15:15:29Z</time>
      </trkpt>
      <trkpt lat="43.87668" lon="7.20802">
        <ele>779</ele>
        <time>2010-11-06T15:15:32Z</time>
      </trkpt>
      <trkpt lat="43.8765" lon="7.20803">
        <ele>765</ele>
        <time>2010-11-06T15:15:36Z</time>
      </trkpt>
      <trkpt lat="43.87629" lon="7.20801">
        <ele>762</ele>
        <time>2010-11-06T15:15:40Z</time>
      </trkpt>
      <trkpt lat="43.87621" lon="7.20801">
        <ele>761</ele>
        <time>2010-11-06T15:15:42Z</time>
      </trkpt>
      <trkpt lat="43.87611" lon="7.20803">
        <ele>760</ele>
        <time>2010-11-06T15:15:44Z</time>
      </trkpt>
      <trkpt lat="43.87596" lon="7.20808">
        <ele>758</ele>
        <time>2010-11-06T15:15:48Z</time>
      </trkpt>
      <trkpt lat="43.87582" lon="7.2081">
        <ele>747</ele>
        <time>2010-11-06T15:15:52Z</time>
      </trkpt>
      <trkpt lat="43.87567" lon="7.20813">
        <ele>747</ele>
        <time>2010-11-06T15:15:56Z</time>
      </trkpt>
      <trkpt lat="43.87564" lon="7.20811">
        <ele>746</ele>
        <time>2010-11-06T15:15:57Z</time>
      </trkpt>
      <trkpt lat="43.87552" lon="7.20811">
        <ele>744</ele>
        <time>2010-11-06T15:16:01Z</time>
      </trkpt>
      <trkpt lat="43.87545" lon="7.2081">
        <ele>743</ele>
        <time>2010-11-06T15:16:06Z</time>
      </trkpt>
      <trkpt lat="43.87533" lon="7.20809">
        <ele>742</ele>
        <time>2010-11-06T15:16:11Z</time>
      </trkpt>
      <trkpt lat="43.87521" lon="7.20808">
        <ele>741</ele>
        <time>2010-11-06T15:16:14Z</time>
      </trkpt>
      <trkpt lat="43.87505" lon="7.20806">
        <ele>739</ele>
        <time>2010-11-06T15:16:18Z</time>
      </trkpt>
      <trkpt lat="43.8749" lon="7.2081">
        <ele>729</ele>
        <time>2010-11-06T15:16:22Z</time>
      </trkpt>
      <trkpt lat="43.87487" lon="7.2081">
        <ele>729</ele>
        <time>2010-11-06T15:16:23Z</time>
      </trkpt>
      <trkpt lat="43.87469" lon="7.20805">
        <ele>726</ele>
        <time>2010-11-06T15:16:28Z</time>
      </trkpt>
      <trkpt lat="43.87447" lon="7.20805">
        <ele>724</ele>
        <time>2010-11-06T15:16:33Z</time>
      </trkpt>
      <trkpt lat="43.87426" lon="7.20803">
        <ele>722</ele>
        <time>2010-11-06T15:16:36Z</time>
      </trkpt>
      <trkpt lat="43.87403" lon="7.20799">
        <ele>710</ele>
        <time>2010-11-06T15:16:40Z</time>
      </trkpt>
      <trkpt lat="43.87379" lon="7.20799">
        <ele>708</ele>
        <time>2010-11-06T15:16:45Z</time>
      </trkpt>
      <trkpt lat="43.87362" lon="7.20803">
        <ele>706</ele>
        <time>2010-11-06T15:16:50Z</time>
      </trkpt>
      <trkpt lat="43.8735" lon="7.20813">
        <ele>706</ele>
        <time>2010-11-06T15:16:54Z</time>
      </trkpt>
      <trkpt lat="43.87346" lon="7.20815">
        <ele>706</ele>
        <time>2010-11-06T15:16:55Z</time>
      </trkpt>
      <trkpt lat="43.87336" lon="7.2082">
        <ele>706</ele>
        <time>2010-11-06T15:16:58Z</time>
      </trkpt>
      <trkpt lat="43.87319" lon="7.20821">
        <ele>697</ele>
        <time>2010-11-06T15:17:02Z</time>
      </trkpt>
      <trkpt lat="43.87302" lon="7.20826">
        <ele>693</ele>
        <time>2010-11-06T15:17:05Z</time>
      </trkpt>
      <trkpt lat="43.87278" lon="7.2084">
        <ele>692</ele>
        <time>2010-11-06T15:17:10Z</time>
      </trkpt>
      <trkpt lat="43.8727" lon="7.20838">
        <ele>692</ele>
        <time>2010-11-06T15:17:13Z</time>
      </trkpt>
      <trkpt lat="43.87256" lon="7.20836">
        <ele>692</ele>
        <time>2010-11-06T15:17:16Z</time>
      </trkpt>
      <trkpt lat="43.87248" lon="7.20838">
        <ele>690</ele>
        <time>2010-11-06T15:17:22Z</time>
      </trkpt>
      <trkpt lat="43.87248" lon="7.20838">
        <ele>690</ele>
        <time>2010-11-06T15:17:29Z</time>
      </trkpt>
      <trkpt lat="43.87248" lon="7.20838">
        <ele>690</ele>
        <time>2010-11-06T15:17:34Z</time>
      </trkpt>
      <trkpt lat="43.87247" lon="7.20838">
        <ele>690</ele>
        <time>2010-11-06T15:17:41Z</time>
      </trkpt>
      <trkpt lat="43.87248" lon="7.20837">
        <ele>691</ele>
        <time>2010-11-06T15:17:51Z</time>
      </trkpt>
      <trkpt lat="43.87248" lon="7.20837">
        <ele>691</ele>
        <time>2010-11-06T15:17:56Z</time>
      </trkpt>
      <trkpt lat="43.87248" lon="7.20837">
        <ele>691</ele>
        <time>2010-11-06T15:18:01Z</time>
      </trkpt>
      <trkpt lat="43.87248" lon="7.20837">
        <ele>691</ele>
        <time>2010-11-06T15:18:07Z</time>
      </trkpt>
      <trkpt lat="43.87247" lon="7.20837">
        <ele>691</ele>
        <time>2010-11-06T15:18:27Z</time>
      </trkpt>
      <trkpt lat="43.87245" lon="7.20838">
        <ele>690</ele>
        <time>2010-11-06T15:18:46Z</time>
      </trkpt>
      <trkpt lat="43.87246" lon="7.20837">
        <ele>690</ele>
        <time>2010-11-06T15:18:58Z</time>
      </trkpt>
      <trkpt lat="43.87246" lon="7.20837">
        <ele>690</ele>
        <time>2010-11-06T15:19:05Z</time>
      </trkpt>
      <trkpt lat="43.87246" lon="7.20836">
        <ele>691</ele>
        <time>2010-11-06T15:19:19Z</time>
      </trkpt>
      <trkpt lat="43.87245" lon="7.20838">
        <ele>690</ele>
        <time>2010-11-06T15:19:33Z</time>
      </trkpt>
      <trkpt lat="43.87246" lon="7.20837">
        <ele>690</ele>
        <time>2010-11-06T15:19:47Z</time>
      </trkpt>
      <trkpt lat="43.87246" lon="7.20838">
        <ele>690</ele>
        <time>2010-11-06T15:19:55Z</time>
      </trkpt>
      <trkpt lat="43.87243" lon="7.20838">
        <ele>689</ele>
        <time>2010-11-06T15:20:01Z</time>
      </trkpt>
      <trkpt lat="43.87227" lon="7.20835">
        <ele>685</ele>
        <time>2010-11-06T15:20:06Z</time>
      </trkpt>
      <trkpt lat="43.87213" lon="7.20837">
        <ele>682</ele>
        <time>2010-11-06T15:20:10Z</time>
      </trkpt>
      <trkpt lat="43.87205" lon="7.20832">
        <ele>678</ele>
        <time>2010-11-06T15:20:14Z</time>
      </trkpt>
      <trkpt lat="43.87195" lon="7.20825">
        <ele>678</ele>
        <time>2010-11-06T15:20:17Z</time>
      </trkpt>
      <trkpt lat="43.87178" lon="7.20817">
        <ele>677</ele>
        <time>2010-11-06T15:20:21Z</time>
      </trkpt>
      <trkpt lat="43.87173" lon="7.20816">
        <ele>677</ele>
        <time>2010-11-06T15:20:22Z</time>
      </trkpt>
      <trkpt lat="43.87166" lon="7.20824">
        <ele>676</ele>
        <time>2010-11-06T15:20:26Z</time>
      </trkpt>
      <trkpt lat="43.87165" lon="7.20836">
        <ele>678</ele>
        <time>2010-11-06T15:20:29Z</time>
      </trkpt>
      <trkpt lat="43.87171" lon="7.20851">
        <ele>679</ele>
        <time>2010-11-06T15:20:34Z</time>
      </trkpt>
      <trkpt lat="43.87173" lon="7.20858">
        <ele>679</ele>
        <time>2010-11-06T15:20:38Z</time>
      </trkpt>
      <trkpt lat="43.87174" lon="7.2086">
        <ele>679</ele>
        <time>2010-11-06T15:20:42Z</time>
      </trkpt>
      <trkpt lat="43.87178" lon="7.20873">
        <ele>677</ele>
        <time>2010-11-06T15:20:45Z</time>
      </trkpt>
      <trkpt lat="43.87191" lon="7.20883">
        <ele>677</ele>
        <time>2010-11-06T15:20:49Z</time>
      </trkpt>
      <trkpt lat="43.87204" lon="7.20885">
        <ele>677</ele>
        <time>2010-11-06T15:20:55Z</time>
      </trkpt>
      <trkpt lat="43.87219" lon="7.20886">
        <ele>678</ele>
        <time>2010-11-06T15:20:59Z</time>
      </trkpt>
      <trkpt lat="43.87234" lon="7.20891">
        <ele>679</ele>
        <time>2010-11-06T15:21:03Z</time>
      </trkpt>
      <trkpt lat="43.87251" lon="7.20893">
        <ele>684</ele>
        <time>2010-11-06T15:21:07Z</time>
      </trkpt>
      <trkpt lat="43.87266" lon="7.20896">
        <ele>684</ele>
        <time>2010-11-06T15:21:10Z</time>
      </trkpt>
      <trkpt lat="43.8729" lon="7.20899">
        <ele>686</ele>
        <time>2010-11-06T15:21:15Z</time>
      </trkpt>
      <trkpt lat="43.87298" lon="7.20899">
        <ele>686</ele>
        <time>2010-11-06T15:21:17Z</time>
      </trkpt>
      <trkpt lat="43.87327" lon="7.20904">
        <ele>684</ele>
        <time>2010-11-06T15:21:24Z</time>
      </trkpt>
      <trkpt lat="43.8735" lon="7.2091">
        <ele>691</ele>
        <time>2010-11-06T15:21:29Z</time>
      </trkpt>
      <trkpt lat="43.87378" lon="7.20912">
        <ele>696</ele>
        <time>2010-11-06T15:21:34Z</time>
      </trkpt>
      <trkpt lat="43.87397" lon="7.20925">
        <ele>680</ele>
        <time>2010-11-06T15:21:39Z</time>
      </trkpt>
      <trkpt lat="43.87404" lon="7.20936">
        <ele>679</ele>
        <time>2010-11-06T15:21:41Z</time>
      </trkpt>
      <trkpt lat="43.87426" lon="7.20963">
        <ele>686</ele>
        <time>2010-11-06T15:21:47Z</time>
      </trkpt>
      <trkpt lat="43.87438" lon="7.20971">
        <ele>685</ele>
        <time>2010-11-06T15:21:50Z</time>
      </trkpt>
      <trkpt lat="43.87466" lon="7.20986">
        <ele>690</ele>
        <time>2010-11-06T15:21:57Z</time>
      </trkpt>
      <trkpt lat="43.87486" lon="7.21001">
        <ele>681</ele>
        <time>2010-11-06T15:22:02Z</time>
      </trkpt>
      <trkpt lat="43.87492" lon="7.21005">
        <ele>685</ele>
        <time>2010-11-06T15:22:04Z</time>
      </trkpt>
      <trkpt lat="43.87516" lon="7.21024">
        <ele>693</ele>
        <time>2010-11-06T15:22:11Z</time>
      </trkpt>
      <trkpt lat="43.87521" lon="7.21036">
        <ele>692</ele>
        <time>2010-11-06T15:22:14Z</time>
      </trkpt>
      <trkpt lat="43.87523" lon="7.21047">
        <ele>690</ele>
        <time>2010-11-06T15:22:18Z</time>
      </trkpt>
      <trkpt lat="43.87529" lon="7.21058">
        <ele>688</ele>
        <time>2010-11-06T15:22:23Z</time>
      </trkpt>
      <trkpt lat="43.87535" lon="7.21065">
        <ele>688</ele>
        <time>2010-11-06T15:22:29Z</time>
      </trkpt>
      <trkpt lat="43.87535" lon="7.21065">
        <ele>688</ele>
        <time>2010-11-06T15:22:36Z</time>
      </trkpt>
      <trkpt lat="43.8754" lon="7.21064">
        <ele>689</ele>
        <time>2010-11-06T15:22:42Z</time>
      </trkpt>
      <trkpt lat="43.87544" lon="7.21067">
        <ele>690</ele>
        <time>2010-11-06T15:22:48Z</time>
      </trkpt>
      <trkpt lat="43.87547" lon="7.21068">
        <ele>690</ele>
        <time>2010-11-06T15:22:54Z</time>
      </trkpt>
      <trkpt lat="43.87549" lon="7.21069">
        <ele>690</ele>
        <time>2010-11-06T15:22:58Z</time>
      </trkpt>
      <trkpt lat="43.87551" lon="7.2107">
        <ele>691</ele>
        <time>2010-11-06T15:23:00Z</time>
      </trkpt>
      <trkpt lat="43.87559" lon="7.21071">
        <ele>691</ele>
        <time>2010-11-06T15:23:04Z</time>
      </trkpt>
      <trkpt lat="43.87581" lon="7.21082">
        <ele>691</ele>
        <time>2010-11-06T15:23:12Z</time>
      </trkpt>
      <trkpt lat="43.87602" lon="7.21092">
        <ele>689</ele>
        <time>2010-11-06T15:23:20Z</time>
      </trkpt>
      <trkpt lat="43.8762" lon="7.21099">
        <ele>691</ele>
        <time>2010-11-06T15:23:27Z</time>
      </trkpt>
      <trkpt lat="43.87639" lon="7.21109">
        <ele>693</ele>
        <time>2010-11-06T15:23:33Z</time>
      </trkpt>
      <trkpt lat="43.87657" lon="7.21122">
        <ele>692</ele>
        <time>2010-11-06T15:23:39Z</time>
      </trkpt>
      <trkpt lat="43.87669" lon="7.21137">
        <ele>707</ele>
        <time>2010-11-06T15:23:45Z</time>
      </trkpt>
      <trkpt lat="43.87673" lon="7.21148">
        <ele>703</ele>
        <time>2010-11-06T15:23:50Z</time>
      </trkpt>
      <trkpt lat="43.87681" lon="7.21164">
        <ele>700</ele>
        <time>2010-11-06T15:23:56Z</time>
      </trkpt>
      <trkpt lat="43.87694" lon="7.21176">
        <ele>688</ele>
        <time>2010-11-06T15:24:01Z</time>
      </trkpt>
      <trkpt lat="43.87698" lon="7.21178">
        <ele>688</ele>
        <time>2010-11-06T15:24:02Z</time>
      </trkpt>
      <trkpt lat="43.87713" lon="7.21181">
        <ele>691</ele>
        <time>2010-11-06T15:24:06Z</time>
      </trkpt>
      <trkpt lat="43.87723" lon="7.21191">
        <ele>692</ele>
        <time>2010-11-06T15:24:10Z</time>
      </trkpt>
      <trkpt lat="43.87735" lon="7.21208">
        <ele>689</ele>
        <time>2010-11-06T15:24:15Z</time>
      </trkpt>
      <trkpt lat="43.87742" lon="7.21222">
        <ele>687</ele>
        <time>2010-11-06T15:24:20Z</time>
      </trkpt>
      <trkpt lat="43.87746" lon="7.21233">
        <ele>686</ele>
        <time>2010-11-06T15:24:25Z</time>
      </trkpt>
      <trkpt lat="43.87751" lon="7.21242">
        <ele>691</ele>
        <time>2010-11-06T15:24:31Z</time>
      </trkpt>
      <trkpt lat="43.87754" lon="7.21246">
        <ele>689</ele>
        <time>2010-11-06T15:24:39Z</time>
      </trkpt>
      <trkpt lat="43.87756" lon="7.21249">
        <ele>689</ele>
        <time>2010-11-06T15:24:46Z</time>
      </trkpt>
      <trkpt lat="43.87761" lon="7.21253">
        <ele>682</ele>
        <time>2010-11-06T15:24:52Z</time>
      </trkpt>
      <trkpt lat="43.87768" lon="7.21255">
        <ele>681</ele>
        <time>2010-11-06T15:24:59Z</time>
      </trkpt>
      <trkpt lat="43.87775" lon="7.21259">
        <ele>680</ele>
        <time>2010-11-06T15:25:07Z</time>
      </trkpt>
      <trkpt lat="43.87777" lon="7.21259">
        <ele>680</ele>
        <time>2010-11-06T15:25:13Z</time>
      </trkpt>
      <trkpt lat="43.87787" lon="7.21257">
        <ele>680</ele>
        <time>2010-11-06T15:25:19Z</time>
      </trkpt>
      <trkpt lat="43.87801" lon="7.21249">
        <ele>699</ele>
        <time>2010-11-06T15:25:26Z</time>
      </trkpt>
      <trkpt lat="43.87814" lon="7.21236">
        <ele>700</ele>
        <time>2010-11-06T15:25:34Z</time>
      </trkpt>
      <trkpt lat="43.87824" lon="7.21224">
        <ele>702</ele>
        <time>2010-11-06T15:25:41Z</time>
      </trkpt>
      <trkpt lat="43.87833" lon="7.21213">
        <ele>700</ele>
        <time>2010-11-06T15:25:48Z</time>
      </trkpt>
      <trkpt lat="43.87838" lon="7.21208">
        <ele>701</ele>
        <time>2010-11-06T15:25:51Z</time>
      </trkpt>
      <trkpt lat="43.87844" lon="7.21196">
        <ele>703</ele>
        <time>2010-11-06T15:25:58Z</time>
      </trkpt>
      <trkpt lat="43.8785" lon="7.21188">
        <ele>705</ele>
        <time>2010-11-06T15:26:02Z</time>
      </trkpt>
      <trkpt lat="43.8786" lon="7.21176">
        <ele>704</ele>
        <time>2010-11-06T15:26:07Z</time>
      </trkpt>
      <trkpt lat="43.87869" lon="7.21167">
        <ele>703</ele>
        <time>2010-11-06T15:26:11Z</time>
      </trkpt>
      <trkpt lat="43.87879" lon="7.2116">
        <ele>722</ele>
        <time>2010-11-06T15:26:16Z</time>
      </trkpt>
      <trkpt lat="43.87894" lon="7.21151">
        <ele>719</ele>
        <time>2010-11-06T15:26:20Z</time>
      </trkpt>
      <trkpt lat="43.87908" lon="7.21145">
        <ele>718</ele>
        <time>2010-11-06T15:26:24Z</time>
      </trkpt>
      <trkpt lat="43.87928" lon="7.21137">
        <ele>712</ele>
        <time>2010-11-06T15:26:29Z</time>
      </trkpt>
      <trkpt lat="43.87943" lon="7.21131">
        <ele>713</ele>
        <time>2010-11-06T15:26:33Z</time>
      </trkpt>
      <trkpt lat="43.87962" lon="7.21136">
        <ele>711</ele>
        <time>2010-11-06T15:26:38Z</time>
      </trkpt>
      <trkpt lat="43.87981" lon="7.21142">
        <ele>708</ele>
        <time>2010-11-06T15:26:42Z</time>
      </trkpt>
      <trkpt lat="43.88002" lon="7.21139">
        <ele>699</ele>
        <time>2010-11-06T15:26:46Z</time>
      </trkpt>
      <trkpt lat="43.88016" lon="7.21135">
        <ele>699</ele>
        <time>2010-11-06T15:26:49Z</time>
      </trkpt>
      <trkpt lat="43.88039" lon="7.21118">
        <ele>700</ele>
        <time>2010-11-06T15:26:54Z</time>
      </trkpt>
      <trkpt lat="43.88055" lon="7.21104">
        <ele>701</ele>
        <time>2010-11-06T15:26:59Z</time>
      </trkpt>
      <trkpt lat="43.88069" lon="7.21096">
        <ele>702</ele>
        <time>2010-11-06T15:27:03Z</time>
      </trkpt>
      <trkpt lat="43.88094" lon="7.2109">
        <ele>695</ele>
        <time>2010-11-06T15:27:10Z</time>
      </trkpt>
      <trkpt lat="43.88104" lon="7.21085">
        <ele>691</ele>
        <time>2010-11-06T15:27:15Z</time>
      </trkpt>
      <trkpt lat="43.88118" lon="7.21086">
        <ele>687</ele>
        <time>2010-11-06T15:27:19Z</time>
      </trkpt>
      <trkpt lat="43.88129" lon="7.21081">
        <ele>708</ele>
        <time>2010-11-06T15:27:22Z</time>
      </trkpt>
      <trkpt lat="43.88141" lon="7.21075">
        <ele>706</ele>
        <time>2010-11-06T15:27:26Z</time>
      </trkpt>
      <trkpt lat="43.88158" lon="7.21068">
        <ele>702</ele>
        <time>2010-11-06T15:27:30Z</time>
      </trkpt>
      <trkpt lat="43.88167" lon="7.21067">
        <ele>694</ele>
        <time>2010-11-06T15:27:32Z</time>
      </trkpt>
      <trkpt lat="43.88188" lon="7.2106">
        <ele>697</ele>
        <time>2010-11-06T15:27:36Z</time>
      </trkpt>
      <trkpt lat="43.88194" lon="7.21054">
        <ele>697</ele>
        <time>2010-11-06T15:27:40Z</time>
      </trkpt>
      <trkpt lat="43.88199" lon="7.2105">
        <ele>698</ele>
        <time>2010-11-06T15:27:44Z</time>
      </trkpt>
      <trkpt lat="43.88203" lon="7.21048">
        <ele>698</ele>
        <time>2010-11-06T15:27:47Z</time>
      </trkpt>
      <trkpt lat="43.88218" lon="7.2104">
        <ele>699</ele>
        <time>2010-11-06T15:27:53Z</time>
      </trkpt>
      <trkpt lat="43.88239" lon="7.21034">
        <ele>699</ele>
        <time>2010-11-06T15:27:59Z</time>
      </trkpt>
      <trkpt lat="43.88242" lon="7.21034">
        <ele>699</ele>
        <time>2010-11-06T15:28:00Z</time>
      </trkpt>
      <trkpt lat="43.88257" lon="7.21037">
        <ele>690</ele>
        <time>2010-11-06T15:28:05Z</time>
      </trkpt>
      <trkpt lat="43.88261" lon="7.21036">
        <ele>690</ele>
        <time>2010-11-06T15:28:09Z</time>
      </trkpt>
      <trkpt lat="43.88275" lon="7.21038">
        <ele>689</ele>
        <time>2010-11-06T15:28:14Z</time>
      </trkpt>
      <trkpt lat="43.88292" lon="7.21037">
        <ele>688</ele>
        <time>2010-11-06T15:28:18Z</time>
      </trkpt>
      <trkpt lat="43.88307" lon="7.21028">
        <ele>689</ele>
        <time>2010-11-06T15:28:21Z</time>
      </trkpt>
      <trkpt lat="43.88322" lon="7.21013">
        <ele>691</ele>
        <time>2010-11-06T15:28:25Z</time>
      </trkpt>
      <trkpt lat="43.88329" lon="7.21007">
        <ele>692</ele>
        <time>2010-11-06T15:28:27Z</time>
      </trkpt>
      <trkpt lat="43.88342" lon="7.20996">
        <ele>698</ele>
        <time>2010-11-06T15:28:30Z</time>
      </trkpt>
      <trkpt lat="43.88359" lon="7.20977">
        <ele>703</ele>
        <time>2010-11-06T15:28:34Z</time>
      </trkpt>
      <trkpt lat="43.88373" lon="7.20968">
        <ele>705</ele>
        <time>2010-11-06T15:28:39Z</time>
      </trkpt>
      <trkpt lat="43.88378" lon="7.20967">
        <ele>705</ele>
        <time>2010-11-06T15:28:42Z</time>
      </trkpt>
      <trkpt lat="43.88381" lon="7.20966">
        <ele>705</ele>
        <time>2010-11-06T15:28:46Z</time>
      </trkpt>
      <trkpt lat="43.88389" lon="7.20967">
        <ele>705</ele>
        <time>2010-11-06T15:28:52Z</time>
      </trkpt>
      <trkpt lat="43.8839" lon="7.20967">
        <ele>705</ele>
        <time>2010-11-06T15:28:53Z</time>
      </trkpt>
      <trkpt lat="43.88395" lon="7.20971">
        <ele>704</ele>
        <time>2010-11-06T15:28:58Z</time>
      </trkpt>
      <trkpt lat="43.88402" lon="7.20975">
        <ele>704</ele>
        <time>2010-11-06T15:29:04Z</time>
      </trkpt>
      <trkpt lat="43.88403" lon="7.20978">
        <ele>704</ele>
        <time>2010-11-06T15:29:11Z</time>
      </trkpt>
      <trkpt lat="43.88402" lon="7.2098">
        <ele>703</ele>
        <time>2010-11-06T15:29:15Z</time>
      </trkpt>
      <trkpt lat="43.88394" lon="7.20986">
        <ele>703</ele>
        <time>2010-11-06T15:29:21Z</time>
      </trkpt>
      <trkpt lat="43.8839" lon="7.20989">
        <ele>703</ele>
        <time>2010-11-06T15:29:24Z</time>
      </trkpt>
      <trkpt lat="43.8838" lon="7.21004">
        <ele>694</ele>
        <time>2010-11-06T15:29:29Z</time>
      </trkpt>
      <trkpt lat="43.8838" lon="7.21028">
        <ele>693</ele>
        <time>2010-11-06T15:29:34Z</time>
      </trkpt>
      <trkpt lat="43.8838" lon="7.21028">
        <ele>693</ele>
        <time>2010-11-06T15:29:38Z</time>
      </trkpt>
      <trkpt lat="43.88382" lon="7.21028">
        <ele>693</ele>
        <time>2010-11-06T15:29:49Z</time>
      </trkpt>
      <trkpt lat="43.88382" lon="7.21028">
        <ele>693</ele>
        <time>2010-11-06T15:30:01Z</time>
      </trkpt>
      <trkpt lat="43.88382" lon="7.21029">
        <ele>693</ele>
        <time>2010-11-06T15:30:24Z</time>
      </trkpt>
      <trkpt lat="43.88382" lon="7.21029">
        <ele>693</ele>
        <time>2010-11-06T15:30:32Z</time>
      </trkpt>
      <trkpt lat="43.88382" lon="7.2103">
        <ele>693</ele>
        <time>2010-11-06T15:30:42Z</time>
      </trkpt>
      <trkpt lat="43.8838" lon="7.21031">
        <ele>693</ele>
        <time>2010-11-06T15:31:00Z</time>
      </trkpt>
      <trkpt lat="43.8838" lon="7.21031">
        <ele>693</ele>
        <time>2010-11-06T15:31:13Z</time>
      </trkpt>
      <trkpt lat="43.8838" lon="7.21032">
        <ele>693</ele>
        <time>2010-11-06T15:31:30Z</time>
      </trkpt>
      <trkpt lat="43.8838" lon="7.21033">
        <ele>692</ele>
        <time>2010-11-06T15:31:39Z</time>
      </trkpt>
      <trkpt lat="43.88381" lon="7.21052">
        <ele>692</ele>
        <time>2010-11-06T15:31:44Z</time>
      </trkpt>
      <trkpt lat="43.88381" lon="7.21056">
        <ele>691</ele>
        <time>2010-11-06T15:31:45Z</time>
      </trkpt>
      <trkpt lat="43.88389" lon="7.21073">
        <ele>693</ele>
        <time>2010-11-06T15:31:50Z</time>
      </trkpt>
      <trkpt lat="43.88397" lon="7.21078">
        <ele>694</ele>
        <time>2010-11-06T15:31:53Z</time>
      </trkpt>
      <trkpt lat="43.88397" lon="7.21083">
        <ele>694</ele>
        <time>2010-11-06T15:31:54Z</time>
      </trkpt>
      <trkpt lat="43.88394" lon="7.21102">
        <ele>689</ele>
        <time>2010-11-06T15:31:58Z</time>
      </trkpt>
      <trkpt lat="43.8839" lon="7.21127">
        <ele>687</ele>
        <time>2010-11-06T15:32:02Z</time>
      </trkpt>
      <trkpt lat="43.88393" lon="7.2114">
        <ele>688</ele>
        <time>2010-11-06T15:32:04Z</time>
      </trkpt>
      <trkpt lat="43.88401" lon="7.21159">
        <ele>692</ele>
        <time>2010-11-06T15:32:08Z</time>
      </trkpt>
      <trkpt lat="43.88398" lon="7.21167">
        <ele>694</ele>
        <time>2010-11-06T15:32:11Z</time>
      </trkpt>
      <trkpt lat="43.88385" lon="7.21176">
        <ele>691</ele>
        <time>2010-11-06T15:32:17Z</time>
      </trkpt>
      <trkpt lat="43.88372" lon="7.21187">
        <ele>687</ele>
        <time>2010-11-06T15:32:22Z</time>
      </trkpt>
      <trkpt lat="43.88359" lon="7.21203">
        <ele>686</ele>
        <time>2010-11-06T15:32:27Z</time>
      </trkpt>
      <trkpt lat="43.88351" lon="7.21229">
        <ele>684</ele>
        <time>2010-11-06T15:32:32Z</time>
      </trkpt>
      <trkpt lat="43.8835" lon="7.21251">
        <ele>686</ele>
        <time>2010-11-06T15:32:37Z</time>
      </trkpt>
      <trkpt lat="43.88348" lon="7.21264">
        <ele>688</ele>
        <time>2010-11-06T15:32:41Z</time>
      </trkpt>
      <trkpt lat="43.88339" lon="7.21279">
        <ele>689</ele>
        <time>2010-11-06T15:32:46Z</time>
      </trkpt>
      <trkpt lat="43.88336" lon="7.21299">
        <ele>690</ele>
        <time>2010-11-06T15:32:50Z</time>
      </trkpt>
      <trkpt lat="43.88339" lon="7.21334">
        <ele>680</ele>
        <time>2010-11-06T15:32:55Z</time>
      </trkpt>
      <trkpt lat="43.88335" lon="7.21356">
        <ele>684</ele>
        <time>2010-11-06T15:33:00Z</time>
      </trkpt>
      <trkpt lat="43.88336" lon="7.21365">
        <ele>685</ele>
        <time>2010-11-06T15:33:03Z</time>
      </trkpt>
      <trkpt lat="43.88334" lon="7.21376">
        <ele>684</ele>
        <time>2010-11-06T15:33:07Z</time>
      </trkpt>
      <trkpt lat="43.88335" lon="7.21383">
        <ele>683</ele>
        <time>2010-11-06T15:33:10Z</time>
      </trkpt>
      <trkpt lat="43.88339" lon="7.21389">
        <ele>682</ele>
        <time>2010-11-06T15:33:17Z</time>
      </trkpt>
      <trkpt lat="43.8834" lon="7.2139">
        <ele>682</ele>
        <time>2010-11-06T15:33:22Z</time>
      </trkpt>
      <trkpt lat="43.88342" lon="7.21392">
        <ele>681</ele>
        <time>2010-11-06T15:33:27Z</time>
      </trkpt>
      <trkpt lat="43.88346" lon="7.21397">
        <ele>681</ele>
        <time>2010-11-06T15:33:29Z</time>
      </trkpt>
      <trkpt lat="43.88349" lon="7.21406">
        <ele>679</ele>
        <time>2010-11-06T15:33:33Z</time>
      </trkpt>
      <trkpt lat="43.88351" lon="7.21408">
        <ele>680</ele>
        <time>2010-11-06T15:33:38Z</time>
      </trkpt>
      <trkpt lat="43.88351" lon="7.2141">
        <ele>679</ele>
        <time>2010-11-06T15:33:44Z</time>
      </trkpt>
      <trkpt lat="43.8835" lon="7.21414">
        <ele>678</ele>
        <time>2010-11-06T15:33:48Z</time>
      </trkpt>
      <trkpt lat="43.88341" lon="7.21423">
        <ele>665</ele>
        <time>2010-11-06T15:33:53Z</time>
      </trkpt>
      <trkpt lat="43.88353" lon="7.21442">
        <ele>667</ele>
        <time>2010-11-06T15:33:57Z</time>
      </trkpt>
      <trkpt lat="43.88362" lon="7.21456">
        <ele>666</ele>
        <time>2010-11-06T15:34:00Z</time>
      </trkpt>
      <trkpt lat="43.88364" lon="7.21465">
        <ele>665</ele>
        <time>2010-11-06T15:34:03Z</time>
      </trkpt>
      <trkpt lat="43.88367" lon="7.21475">
        <ele>664</ele>
        <time>2010-11-06T15:34:09Z</time>
      </trkpt>
      <trkpt lat="43.88367" lon="7.21476">
        <ele>663</ele>
        <time>2010-11-06T15:34:11Z</time>
      </trkpt>
      <trkpt lat="43.88365" lon="7.21485">
        <ele>661</ele>
        <time>2010-11-06T15:34:16Z</time>
      </trkpt>
      <trkpt lat="43.88365" lon="7.2149">
        <ele>660</ele>
        <time>2010-11-06T15:34:23Z</time>
      </trkpt>
      <trkpt lat="43.88368" lon="7.21504">
        <ele>639</ele>
        <time>2010-11-06T15:34:29Z</time>
      </trkpt>
      <trkpt lat="43.88371" lon="7.21512">
        <ele>639</ele>
        <time>2010-11-06T15:34:32Z</time>
      </trkpt>
      <trkpt lat="43.88373" lon="7.21517">
        <ele>638</ele>
        <time>2010-11-06T15:34:38Z</time>
      </trkpt>
      <trkpt lat="43.88375" lon="7.21525">
        <ele>638</ele>
        <time>2010-11-06T15:34:43Z</time>
      </trkpt>
      <trkpt lat="43.88377" lon="7.21529">
        <ele>638</ele>
        <time>2010-11-06T15:34:48Z</time>
      </trkpt>
      <trkpt lat="43.88385" lon="7.21539">
        <ele>637</ele>
        <time>2010-11-06T15:34:51Z</time>
      </trkpt>
      <trkpt lat="43.88401" lon="7.21562">
        <ele>636</ele>
        <time>2010-11-06T15:34:55Z</time>
      </trkpt>
      <trkpt lat="43.88405" lon="7.21567">
        <ele>635</ele>
        <time>2010-11-06T15:34:56Z</time>
      </trkpt>
      <trkpt lat="43.88422" lon="7.21589">
        <ele>636</ele>
        <time>2010-11-06T15:35:01Z</time>
      </trkpt>
      <trkpt lat="43.88437" lon="7.21606">
        <ele>636</ele>
        <time>2010-11-06T15:35:04Z</time>
      </trkpt>
      <trkpt lat="43.88448" lon="7.21619">
        <ele>636</ele>
        <time>2010-11-06T15:35:08Z</time>
      </trkpt>
      <trkpt lat="43.88451" lon="7.21628">
        <ele>635</ele>
        <time>2010-11-06T15:35:10Z</time>
      </trkpt>
      <trkpt lat="43.88469" lon="7.21653">
        <ele>635</ele>
        <time>2010-11-06T15:35:15Z</time>
      </trkpt>
      <trkpt lat="43.88472" lon="7.21659">
        <ele>635</ele>
        <time>2010-11-06T15:35:16Z</time>
      </trkpt>
      <trkpt lat="43.88482" lon="7.21688">
        <ele>626</ele>
        <time>2010-11-06T15:35:21Z</time>
      </trkpt>
      <trkpt lat="43.88494" lon="7.21714">
        <ele>625</ele>
        <time>2010-11-06T15:35:25Z</time>
      </trkpt>
      <trkpt lat="43.88493" lon="7.21739">
        <ele>627</ele>
        <time>2010-11-06T15:35:28Z</time>
      </trkpt>
      <trkpt lat="43.88492" lon="7.21748">
        <ele>628</ele>
        <time>2010-11-06T15:35:29Z</time>
      </trkpt>
      <trkpt lat="43.88486" lon="7.21774">
        <ele>625</ele>
        <time>2010-11-06T15:35:33Z</time>
      </trkpt>
      <trkpt lat="43.88478" lon="7.21789">
        <ele>624</ele>
        <time>2010-11-06T15:35:37Z</time>
      </trkpt>
      <trkpt lat="43.88479" lon="7.21788">
        <ele>625</ele>
        <time>2010-11-06T15:35:43Z</time>
      </trkpt>
      <trkpt lat="43.88479" lon="7.21788">
        <ele>625</ele>
        <time>2010-11-06T15:35:53Z</time>
      </trkpt>
      <trkpt lat="43.88479" lon="7.21788">
        <ele>625</ele>
        <time>2010-11-06T15:36:05Z</time>
      </trkpt>
      <trkpt lat="43.88479" lon="7.21789">
        <ele>625</ele>
        <time>2010-11-06T15:36:18Z</time>
      </trkpt>
      <trkpt lat="43.8848" lon="7.21789">
        <ele>625</ele>
        <time>2010-11-06T15:36:26Z</time>
      </trkpt>
      <trkpt lat="43.8848" lon="7.21789">
        <ele>625</ele>
        <time>2010-11-06T15:36:36Z</time>
      </trkpt>
      <trkpt lat="43.88478" lon="7.2179">
        <ele>625</ele>
        <time>2010-11-06T15:36:43Z</time>
      </trkpt>
      <trkpt lat="43.88479" lon="7.21791">
        <ele>625</ele>
        <time>2010-11-06T15:36:48Z</time>
      </trkpt>
      <trkpt lat="43.88479" lon="7.2179">
        <ele>625</ele>
        <time>2010-11-06T15:37:01Z</time>
      </trkpt>
      <trkpt lat="43.88478" lon="7.21791">
        <ele>625</ele>
        <time>2010-11-06T15:37:46Z</time>
      </trkpt>
      <trkpt lat="43.88477" lon="7.2179">
        <ele>624</ele>
        <time>2010-11-06T15:39:16Z</time>
      </trkpt>
      <trkpt lat="43.88473" lon="7.21796">
        <ele>624</ele>
        <time>2010-11-06T15:39:23Z</time>
      </trkpt>
      <trkpt lat="43.8847" lon="7.21805">
        <ele>625</ele>
        <time>2010-11-06T15:39:30Z</time>
      </trkpt>
      <trkpt lat="43.8847" lon="7.21809">
        <ele>625</ele>
        <time>2010-11-06T15:39:35Z</time>
      </trkpt>
      <trkpt lat="43.88469" lon="7.21814">
        <ele>625</ele>
        <time>2010-11-06T15:39:39Z</time>
      </trkpt>
      <trkpt lat="43.88466" lon="7.21835">
        <ele>631</ele>
        <time>2010-11-06T15:39:46Z</time>
      </trkpt>
      <trkpt lat="43.88462" lon="7.21868">
        <ele>631</ele>
        <time>2010-11-06T15:39:53Z</time>
      </trkpt>
      <trkpt lat="43.8846" lon="7.21896">
        <ele>632</ele>
        <time>2010-11-06T15:39:59Z</time>
      </trkpt>
      <trkpt lat="43.88457" lon="7.21928">
        <ele>633</ele>
        <time>2010-11-06T15:40:06Z</time>
      </trkpt>
      <trkpt lat="43.88456" lon="7.21942">
        <ele>633</ele>
        <time>2010-11-06T15:40:09Z</time>
      </trkpt>
      <trkpt lat="43.88458" lon="7.21955">
        <ele>632</ele>
        <time>2010-11-06T15:40:14Z</time>
      </trkpt>
      <trkpt lat="43.88461" lon="7.21969">
        <ele>633</ele>
        <time>2010-11-06T15:40:20Z</time>
      </trkpt>
      <trkpt lat="43.88466" lon="7.21982">
        <ele>634</ele>
        <time>2010-11-06T15:40:26Z</time>
      </trkpt>
      <trkpt lat="43.88468" lon="7.21993">
        <ele>634</ele>
        <time>2010-11-06T15:40:32Z</time>
      </trkpt>
      <trkpt lat="43.8847" lon="7.21998">
        <ele>635</ele>
        <time>2010-11-06T15:40:35Z</time>
      </trkpt>
      <trkpt lat="43.88476" lon="7.22006">
        <ele>631</ele>
        <time>2010-11-06T15:40:41Z</time>
      </trkpt>
      <trkpt lat="43.88481" lon="7.22012">
        <ele>632</ele>
        <time>2010-11-06T15:40:46Z</time>
      </trkpt>
      <trkpt lat="43.88485" lon="7.22015">
        <ele>633</ele>
        <time>2010-11-06T15:40:49Z</time>
      </trkpt>
      <trkpt lat="43.88487" lon="7.22015">
        <ele>634</ele>
        <time>2010-11-06T15:40:54Z</time>
      </trkpt>
      <trkpt lat="43.88489" lon="7.22018">
        <ele>633</ele>
        <time>2010-11-06T15:41:00Z</time>
      </trkpt>
      <trkpt lat="43.88491" lon="7.22021">
        <ele>633</ele>
        <time>2010-11-06T15:41:06Z</time>
      </trkpt>
      <trkpt lat="43.88496" lon="7.2203">
        <ele>631</ele>
        <time>2010-11-06T15:41:15Z</time>
      </trkpt>
      <trkpt lat="43.885" lon="7.22036">
        <ele>630</ele>
        <time>2010-11-06T15:41:22Z</time>
      </trkpt>
      <trkpt lat="43.88503" lon="7.22043">
        <ele>654</ele>
        <time>2010-11-06T15:41:28Z</time>
      </trkpt>
      <trkpt lat="43.88507" lon="7.22049">
        <ele>653</ele>
        <time>2010-11-06T15:41:34Z</time>
      </trkpt>
      <trkpt lat="43.88511" lon="7.22058">
        <ele>652</ele>
        <time>2010-11-06T15:41:42Z</time>
      </trkpt>
      <trkpt lat="43.88514" lon="7.22062">
        <ele>652</ele>
        <time>2010-11-06T15:41:47Z</time>
      </trkpt>
      <trkpt lat="43.8852" lon="7.22073">
        <ele>651</ele>
        <time>2010-11-06T15:41:57Z</time>
      </trkpt>
      <trkpt lat="43.88526" lon="7.22081">
        <ele>653</ele>
        <time>2010-11-06T15:42:06Z</time>
      </trkpt>
      <trkpt lat="43.88531" lon="7.22084">
        <ele>646</ele>
        <time>2010-11-06T15:42:13Z</time>
      </trkpt>
      <trkpt lat="43.88534" lon="7.22092">
        <ele>647</ele>
        <time>2010-11-06T15:42:21Z</time>
      </trkpt>
      <trkpt lat="43.88539" lon="7.22102">
        <ele>648</ele>
        <time>2010-11-06T15:42:29Z</time>
      </trkpt>
      <trkpt lat="43.8854" lon="7.22103">
        <ele>648</ele>
        <time>2010-11-06T15:42:30Z</time>
      </trkpt>
      <trkpt lat="43.88543" lon="7.22108">
        <ele>649</ele>
        <time>2010-11-06T15:42:37Z</time>
      </trkpt>
      <trkpt lat="43.88543" lon="7.2211">
        <ele>649</ele>
        <time>2010-11-06T15:42:40Z</time>
      </trkpt>
      <trkpt lat="43.88551" lon="7.22122">
        <ele>649</ele>
        <time>2010-11-06T15:42:47Z</time>
      </trkpt>
      <trkpt lat="43.8856" lon="7.22134">
        <ele>650</ele>
        <time>2010-11-06T15:42:54Z</time>
      </trkpt>
      <trkpt lat="43.88563" lon="7.22138">
        <ele>650</ele>
        <time>2010-11-06T15:42:59Z</time>
      </trkpt>
      <trkpt lat="43.88566" lon="7.22142">
        <ele>651</ele>
        <time>2010-11-06T15:43:04Z</time>
      </trkpt>
      <trkpt lat="43.88568" lon="7.22144">
        <ele>651</ele>
        <time>2010-11-06T15:43:09Z</time>
      </trkpt>
      <trkpt lat="43.88572" lon="7.22147">
        <ele>652</ele>
        <time>2010-11-06T15:43:13Z</time>
      </trkpt>
      <trkpt lat="43.8858" lon="7.22153">
        <ele>653</ele>
        <time>2010-11-06T15:43:18Z</time>
      </trkpt>
      <trkpt lat="43.8859" lon="7.22166">
        <ele>664</ele>
        <time>2010-11-06T15:43:24Z</time>
      </trkpt>
      <trkpt lat="43.88599" lon="7.22179">
        <ele>661</ele>
        <time>2010-11-06T15:43:30Z</time>
      </trkpt>
      <trkpt lat="43.88608" lon="7.22192">
        <ele>662</ele>
        <time>2010-11-06T15:43:36Z</time>
      </trkpt>
      <trkpt lat="43.88614" lon="7.222">
        <ele>662</ele>
        <time>2010-11-06T15:43:41Z</time>
      </trkpt>
      <trkpt lat="43.88619" lon="7.22203">
        <ele>662</ele>
        <time>2010-11-06T15:43:44Z</time>
      </trkpt>
      <trkpt lat="43.88622" lon="7.22206">
        <ele>663</ele>
        <time>2010-11-06T15:43:48Z</time>
      </trkpt>
      <trkpt lat="43.88624" lon="7.22208">
        <ele>663</ele>
        <time>2010-11-06T15:43:54Z</time>
      </trkpt>
      <trkpt lat="43.88626" lon="7.22211">
        <ele>663</ele>
        <time>2010-11-06T15:43:59Z</time>
      </trkpt>
      <trkpt lat="43.88629" lon="7.22215">
        <ele>663</ele>
        <time>2010-11-06T15:44:04Z</time>
      </trkpt>
      <trkpt lat="43.88645" lon="7.22219">
        <ele>665</ele>
        <time>2010-11-06T15:44:11Z</time>
      </trkpt>
      <trkpt lat="43.88654" lon="7.22227">
        <ele>665</ele>
        <time>2010-11-06T15:44:16Z</time>
      </trkpt>
      <trkpt lat="43.88655" lon="7.22228">
        <ele>666</ele>
        <time>2010-11-06T15:44:17Z</time>
      </trkpt>
      <trkpt lat="43.88658" lon="7.2223">
        <ele>666</ele>
        <time>2010-11-06T15:44:24Z</time>
      </trkpt>
      <trkpt lat="43.88662" lon="7.22233">
        <ele>666</ele>
        <time>2010-11-06T15:44:29Z</time>
      </trkpt>
      <trkpt lat="43.88671" lon="7.22236">
        <ele>679</ele>
        <time>2010-11-06T15:44:35Z</time>
      </trkpt>
      <trkpt lat="43.88675" lon="7.22239">
        <ele>679</ele>
        <time>2010-11-06T15:44:38Z</time>
      </trkpt>
      <trkpt lat="43.88682" lon="7.22245">
        <ele>681</ele>
        <time>2010-11-06T15:44:43Z</time>
      </trkpt>
      <trkpt lat="43.88689" lon="7.2225">
        <ele>684</ele>
        <time>2010-11-06T15:44:49Z</time>
      </trkpt>
      <trkpt lat="43.88689" lon="7.22251">
        <ele>673</ele>
        <time>2010-11-06T15:44:53Z</time>
      </trkpt>
      <trkpt lat="43.88687" lon="7.22252">
        <ele>673</ele>
        <time>2010-11-06T15:45:11Z</time>
      </trkpt>
      <trkpt lat="43.88688" lon="7.22251">
        <ele>673</ele>
        <time>2010-11-06T15:45:22Z</time>
      </trkpt>
      <trkpt lat="43.88688" lon="7.22252">
        <ele>673</ele>
        <time>2010-11-06T15:45:28Z</time>
      </trkpt>
      <trkpt lat="43.88688" lon="7.22252">
        <ele>673</ele>
        <time>2010-11-06T15:45:33Z</time>
      </trkpt>
      <trkpt lat="43.88689" lon="7.22251">
        <ele>673</ele>
        <time>2010-11-06T15:45:40Z</time>
      </trkpt>
      <trkpt lat="43.88695" lon="7.22249">
        <ele>686</ele>
        <time>2010-11-06T15:45:46Z</time>
      </trkpt>
      <trkpt lat="43.88701" lon="7.2225">
        <ele>676</ele>
        <time>2010-11-06T15:45:52Z</time>
      </trkpt>
      <trkpt lat="43.8871" lon="7.22251">
        <ele>679</ele>
        <time>2010-11-06T15:46:01Z</time>
      </trkpt>
      <trkpt lat="43.88719" lon="7.22256">
        <ele>682</ele>
        <time>2010-11-06T15:46:10Z</time>
      </trkpt>
      <trkpt lat="43.88724" lon="7.22263">
        <ele>683</ele>
        <time>2010-11-06T15:46:18Z</time>
      </trkpt>
      <trkpt lat="43.88724" lon="7.22265">
        <ele>683</ele>
        <time>2010-11-06T15:46:32Z</time>
      </trkpt>
      <trkpt lat="43.88728" lon="7.2227">
        <ele>683</ele>
        <time>2010-11-06T15:46:39Z</time>
      </trkpt>
      <trkpt lat="43.88728" lon="7.22278">
        <ele>681</ele>
        <time>2010-11-06T15:46:46Z</time>
      </trkpt>
      <trkpt lat="43.88729" lon="7.22281">
        <ele>681</ele>
        <time>2010-11-06T15:46:52Z</time>
      </trkpt>
      <trkpt lat="43.88729" lon="7.22284">
        <ele>680</ele>
        <time>2010-11-06T15:46:55Z</time>
      </trkpt>
      <trkpt lat="43.8873" lon="7.22297">
        <ele>679</ele>
        <time>2010-11-06T15:47:01Z</time>
      </trkpt>
      <trkpt lat="43.88731" lon="7.22299">
        <ele>679</ele>
        <time>2010-11-06T15:47:07Z</time>
      </trkpt>
      <trkpt lat="43.8873" lon="7.22303">
        <ele>679</ele>
        <time>2010-11-06T15:47:13Z</time>
      </trkpt>
      <trkpt lat="43.88729" lon="7.2231">
        <ele>678</ele>
        <time>2010-11-06T15:47:20Z</time>
      </trkpt>
      <trkpt lat="43.88729" lon="7.2231">
        <ele>678</ele>
        <time>2010-11-06T15:47:31Z</time>
      </trkpt>
      <trkpt lat="43.88727" lon="7.2231">
        <ele>678</ele>
        <time>2010-11-06T15:47:38Z</time>
      </trkpt>
      <trkpt lat="43.88724" lon="7.22313">
        <ele>677</ele>
        <time>2010-11-06T15:47:44Z</time>
      </trkpt>
      <trkpt lat="43.88724" lon="7.22317">
        <ele>677</ele>
        <time>2010-11-06T15:47:49Z</time>
      </trkpt>
      <trkpt lat="43.88723" lon="7.22319">
        <ele>677</ele>
        <time>2010-11-06T15:47:53Z</time>
      </trkpt>
      <trkpt lat="43.88716" lon="7.22335">
        <ele>664</ele>
        <time>2010-11-06T15:47:58Z</time>
      </trkpt>
      <trkpt lat="43.88709" lon="7.22347">
        <ele>661</ele>
        <time>2010-11-06T15:48:02Z</time>
      </trkpt>
      <trkpt lat="43.88704" lon="7.22363">
        <ele>658</ele>
        <time>2010-11-06T15:48:06Z</time>
      </trkpt>
      <trkpt lat="43.88702" lon="7.22367">
        <ele>657</ele>
        <time>2010-11-06T15:48:08Z</time>
      </trkpt>
      <trkpt lat="43.887" lon="7.2237">
        <ele>656</ele>
        <time>2010-11-06T15:48:13Z</time>
      </trkpt>
      <trkpt lat="43.887" lon="7.22367">
        <ele>657</ele>
        <time>2010-11-06T15:48:19Z</time>
      </trkpt>
      <trkpt lat="43.88699" lon="7.22361">
        <ele>657</ele>
        <time>2010-11-06T15:48:24Z</time>
      </trkpt>
      <trkpt lat="43.88698" lon="7.22363">
        <ele>656</ele>
        <time>2010-11-06T15:48:34Z</time>
      </trkpt>
      <trkpt lat="43.88694" lon="7.22367">
        <ele>655</ele>
        <time>2010-11-06T15:48:38Z</time>
      </trkpt>
      <trkpt lat="43.88691" lon="7.2238">
        <ele>653</ele>
        <time>2010-11-06T15:48:42Z</time>
      </trkpt>
      <trkpt lat="43.88692" lon="7.22383">
        <ele>653</ele>
        <time>2010-11-06T15:48:43Z</time>
      </trkpt>
      <trkpt lat="43.88696" lon="7.224">
        <ele>651</ele>
        <time>2010-11-06T15:48:48Z</time>
      </trkpt>
      <trkpt lat="43.88697" lon="7.22405">
        <ele>651</ele>
        <time>2010-11-06T15:48:49Z</time>
      </trkpt>
      <trkpt lat="43.88703" lon="7.22427">
        <ele>642</ele>
        <time>2010-11-06T15:48:55Z</time>
      </trkpt>
      <trkpt lat="43.88705" lon="7.22446">
        <ele>642</ele>
        <time>2010-11-06T15:48:59Z</time>
      </trkpt>
      <trkpt lat="43.88706" lon="7.22462">
        <ele>641</ele>
        <time>2010-11-06T15:49:02Z</time>
      </trkpt>
      <trkpt lat="43.88706" lon="7.22466">
        <ele>640</ele>
        <time>2010-11-06T15:49:03Z</time>
      </trkpt>
      <trkpt lat="43.88713" lon="7.22488">
        <ele>641</ele>
        <time>2010-11-06T15:49:08Z</time>
      </trkpt>
      <trkpt lat="43.88712" lon="7.22495">
        <ele>640</ele>
        <time>2010-11-06T15:49:10Z</time>
      </trkpt>
      <trkpt lat="43.88708" lon="7.2252">
        <ele>625</ele>
        <time>2010-11-06T15:49:16Z</time>
      </trkpt>
      <trkpt lat="43.8871" lon="7.22538">
        <ele>624</ele>
        <time>2010-11-06T15:49:21Z</time>
      </trkpt>
      <trkpt lat="43.88709" lon="7.22552">
        <ele>622</ele>
        <time>2010-11-06T15:49:25Z</time>
      </trkpt>
      <trkpt lat="43.88707" lon="7.22564">
        <ele>620</ele>
        <time>2010-11-06T15:49:28Z</time>
      </trkpt>
      <trkpt lat="43.8871" lon="7.22573">
        <ele>620</ele>
        <time>2010-11-06T15:49:30Z</time>
      </trkpt>
      <trkpt lat="43.88723" lon="7.22585">
        <ele>610</ele>
        <time>2010-11-06T15:49:35Z</time>
      </trkpt>
      <trkpt lat="43.88728" lon="7.22591">
        <ele>611</ele>
        <time>2010-11-06T15:49:37Z</time>
      </trkpt>
      <trkpt lat="43.88728" lon="7.22594">
        <ele>610</ele>
        <time>2010-11-06T15:49:53Z</time>
      </trkpt>
      <trkpt lat="43.88727" lon="7.22595">
        <ele>610</ele>
        <time>2010-11-06T15:50:03Z</time>
      </trkpt>
      <trkpt lat="43.88727" lon="7.22595">
        <ele>610</ele>
        <time>2010-11-06T15:50:11Z</time>
      </trkpt>
      <trkpt lat="43.88727" lon="7.22595">
        <ele>610</ele>
        <time>2010-11-06T15:50:27Z</time>
      </trkpt>
      <trkpt lat="43.88725" lon="7.22596">
        <ele>609</ele>
        <time>2010-11-06T15:50:34Z</time>
      </trkpt>
      <trkpt lat="43.88724" lon="7.22597">
        <ele>609</ele>
        <time>2010-11-06T15:50:38Z</time>
      </trkpt>
      <trkpt lat="43.88724" lon="7.22596">
        <ele>609</ele>
        <time>2010-11-06T15:50:44Z</time>
      </trkpt>
      <trkpt lat="43.88724" lon="7.22596">
        <ele>609</ele>
        <time>2010-11-06T15:50:55Z</time>
      </trkpt>
      <trkpt lat="43.88725" lon="7.22597">
        <ele>609</ele>
        <time>2010-11-06T15:51:04Z</time>
      </trkpt>
      <trkpt lat="43.88725" lon="7.22597">
        <ele>609</ele>
        <time>2010-11-06T15:51:13Z</time>
      </trkpt>
      <trkpt lat="43.88726" lon="7.22596">
        <ele>609</ele>
        <time>2010-11-06T15:51:27Z</time>
      </trkpt>
      <trkpt lat="43.88727" lon="7.22596">
        <ele>610</ele>
        <time>2010-11-06T15:51:58Z</time>
      </trkpt>
      <trkpt lat="43.88727" lon="7.22596">
        <ele>610</ele>
        <time>2010-11-06T15:52:05Z</time>
      </trkpt>
      <trkpt lat="43.88727" lon="7.22598">
        <ele>609</ele>
        <time>2010-11-06T15:52:13Z</time>
      </trkpt>
      <trkpt lat="43.88727" lon="7.22599">
        <ele>609</ele>
        <time>2010-11-06T15:52:18Z</time>
      </trkpt>
      <trkpt lat="43.88726" lon="7.22599">
        <ele>609</ele>
        <time>2010-11-06T15:52:32Z</time>
      </trkpt>
      <trkpt lat="43.88726" lon="7.22599">
        <ele>609</ele>
        <time>2010-11-06T15:52:36Z</time>
      </trkpt>
      <trkpt lat="43.88727" lon="7.22599">
        <ele>609</ele>
        <time>2010-11-06T15:52:46Z</time>
      </trkpt>
      <trkpt lat="43.88727" lon="7.22599">
        <ele>609</ele>
        <time>2010-11-06T15:53:26Z</time>
      </trkpt>
      <trkpt lat="43.88727" lon="7.22598">
        <ele>609</ele>
        <time>2010-11-06T15:53:42Z</time>
      </trkpt>
      <trkpt lat="43.88727" lon="7.226">
        <ele>609</ele>
        <time>2010-11-06T15:53:55Z</time>
      </trkpt>
      <trkpt lat="43.88726" lon="7.22601">
        <ele>608</ele>
        <time>2010-11-06T15:54:02Z</time>
      </trkpt>
      <trkpt lat="43.88725" lon="7.22599">
        <ele>608</ele>
        <time>2010-11-06T15:54:25Z</time>
      </trkpt>
      <trkpt lat="43.88725" lon="7.22598">
        <ele>609</ele>
        <time>2010-11-06T15:54:37Z</time>
      </trkpt>
      <trkpt lat="43.88724" lon="7.22597">
        <ele>608</ele>
        <time>2010-11-06T15:55:16Z</time>
      </trkpt>
      <trkpt lat="43.88724" lon="7.22598">
        <ele>608</ele>
        <time>2010-11-06T15:55:23Z</time>
      </trkpt>
      <trkpt lat="43.88724" lon="7.22598">
        <ele>608</ele>
        <time>2010-11-06T15:55:29Z</time>
      </trkpt>
      <trkpt lat="43.88725" lon="7.22598">
        <ele>608</ele>
        <time>2010-11-06T15:55:51Z</time>
      </trkpt>
      <trkpt lat="43.88725" lon="7.22598">
        <ele>608</ele>
        <time>2010-11-06T15:55:59Z</time>
      </trkpt>
      <trkpt lat="43.88725" lon="7.22598">
        <ele>608</ele>
        <time>2010-11-06T15:56:05Z</time>
      </trkpt>
      <trkpt lat="43.88725" lon="7.22598">
        <ele>608</ele>
        <time>2010-11-06T15:56:09Z</time>
      </trkpt>
      <trkpt lat="43.88724" lon="7.22599">
        <ele>608</ele>
        <time>2010-11-06T15:56:30Z</time>
      </trkpt>
      <trkpt lat="43.88724" lon="7.22598">
        <ele>608</ele>
        <time>2010-11-06T15:56:41Z</time>
      </trkpt>
      <trkpt lat="43.88724" lon="7.22599">
        <ele>608</ele>
        <time>2010-11-06T15:57:07Z</time>
      </trkpt>
      <trkpt lat="43.88724" lon="7.22598">
        <ele>608</ele>
        <time>2010-11-06T15:57:14Z</time>
      </trkpt>
      <trkpt lat="43.88724" lon="7.22598">
        <ele>608</ele>
        <time>2010-11-06T15:57:22Z</time>
      </trkpt>
      <trkpt lat="43.88724" lon="7.22597">
        <ele>608</ele>
        <time>2010-11-06T15:57:32Z</time>
      </trkpt>
      <trkpt lat="43.88725" lon="7.22598">
        <ele>609</ele>
        <time>2010-11-06T15:57:45Z</time>
      </trkpt>
      <trkpt lat="43.88725" lon="7.22601">
        <ele>608</ele>
        <time>2010-11-06T15:58:00Z</time>
      </trkpt>
      <trkpt lat="43.88725" lon="7.22603">
        <ele>608</ele>
        <time>2010-11-06T15:58:20Z</time>
      </trkpt>
      <trkpt lat="43.88726" lon="7.22604">
        <ele>608</ele>
        <time>2010-11-06T15:58:26Z</time>
      </trkpt>
      <trkpt lat="43.88726" lon="7.22602">
        <ele>608</ele>
        <time>2010-11-06T15:58:35Z</time>
      </trkpt>
      <trkpt lat="43.88726" lon="7.226">
        <ele>608</ele>
        <time>2010-11-06T15:58:44Z</time>
      </trkpt>
      <trkpt lat="43.88725" lon="7.22596">
        <ele>609</ele>
        <time>2010-11-06T15:58:58Z</time>
      </trkpt>
      <trkpt lat="43.88725" lon="7.22598">
        <ele>609</ele>
        <time>2010-11-06T15:59:08Z</time>
      </trkpt>
      <trkpt lat="43.88726" lon="7.22598">
        <ele>609</ele>
        <time>2010-11-06T15:59:18Z</time>
      </trkpt>
      <trkpt lat="43.88725" lon="7.22598">
        <ele>609</ele>
        <time>2010-11-06T15:59:23Z</time>
      </trkpt>
      <trkpt lat="43.88726" lon="7.22598">
        <ele>609</ele>
        <time>2010-11-06T15:59:28Z</time>
      </trkpt>
      <trkpt lat="43.8873" lon="7.22603">
        <ele>609</ele>
        <time>2010-11-06T15:59:33Z</time>
      </trkpt>
      <trkpt lat="43.8873" lon="7.22615">
        <ele>606</ele>
        <time>2010-11-06T15:59:38Z</time>
      </trkpt>
      <trkpt lat="43.88727" lon="7.22614">
        <ele>606</ele>
        <time>2010-11-06T15:59:43Z</time>
      </trkpt>
      <trkpt lat="43.88727" lon="7.22617">
        <ele>605</ele>
        <time>2010-11-06T15:59:46Z</time>
      </trkpt>
      <trkpt lat="43.88729" lon="7.22628">
        <ele>604</ele>
        <time>2010-11-06T15:59:50Z</time>
      </trkpt>
      <trkpt lat="43.88727" lon="7.22632">
        <ele>603</ele>
        <time>2010-11-06T15:59:52Z</time>
      </trkpt>
      <trkpt lat="43.88722" lon="7.22633">
        <ele>602</ele>
        <time>2010-11-06T15:59:57Z</time>
      </trkpt>
      <trkpt lat="43.8872" lon="7.22632">
        <ele>602</ele>
        <time>2010-11-06T15:59:58Z</time>
      </trkpt>
      <trkpt lat="43.88719" lon="7.22638">
        <ele>601</ele>
        <time>2010-11-06T16:00:02Z</time>
      </trkpt>
      <trkpt lat="43.88719" lon="7.22653">
        <ele>599</ele>
        <time>2010-11-06T16:00:07Z</time>
      </trkpt>
      <trkpt lat="43.88719" lon="7.22655">
        <ele>599</ele>
        <time>2010-11-06T16:00:08Z</time>
      </trkpt>
      <trkpt lat="43.88714" lon="7.22668">
        <ele>585</ele>
        <time>2010-11-06T16:00:14Z</time>
      </trkpt>
      <trkpt lat="43.8871" lon="7.22688">
        <ele>582</ele>
        <time>2010-11-06T16:00:20Z</time>
      </trkpt>
      <trkpt lat="43.88713" lon="7.22711">
        <ele>580</ele>
        <time>2010-11-06T16:00:26Z</time>
      </trkpt>
      <trkpt lat="43.88712" lon="7.22727">
        <ele>579</ele>
        <time>2010-11-06T16:00:30Z</time>
      </trkpt>
      <trkpt lat="43.88713" lon="7.22742">
        <ele>578</ele>
        <time>2010-11-06T16:00:34Z</time>
      </trkpt>
      <trkpt lat="43.88712" lon="7.22749">
        <ele>577</ele>
        <time>2010-11-06T16:00:36Z</time>
      </trkpt>
      <trkpt lat="43.88706" lon="7.22763">
        <ele>567</ele>
        <time>2010-11-06T16:00:41Z</time>
      </trkpt>
      <trkpt lat="43.887" lon="7.22768">
        <ele>566</ele>
        <time>2010-11-06T16:00:45Z</time>
      </trkpt>
      <trkpt lat="43.88699" lon="7.22772">
        <ele>566</ele>
        <time>2010-11-06T16:00:47Z</time>
      </trkpt>
      <trkpt lat="43.88699" lon="7.22775">
        <ele>566</ele>
        <time>2010-11-06T16:00:55Z</time>
      </trkpt>
      <trkpt lat="43.88698" lon="7.22776">
        <ele>566</ele>
        <time>2010-11-06T16:01:00Z</time>
      </trkpt>
      <trkpt lat="43.88696" lon="7.2278">
        <ele>565</ele>
        <time>2010-11-06T16:01:05Z</time>
      </trkpt>
      <trkpt lat="43.88696" lon="7.22782">
        <ele>565</ele>
        <time>2010-11-06T16:01:11Z</time>
      </trkpt>
      <trkpt lat="43.88693" lon="7.22785">
        <ele>565</ele>
        <time>2010-11-06T16:01:15Z</time>
      </trkpt>
      <trkpt lat="43.88693" lon="7.22785">
        <ele>565</ele>
        <time>2010-11-06T16:01:19Z</time>
      </trkpt>
      <trkpt lat="43.88693" lon="7.22786">
        <ele>565</ele>
        <time>2010-11-06T16:01:28Z</time>
      </trkpt>
      <trkpt lat="43.88694" lon="7.22784">
        <ele>565</ele>
        <time>2010-11-06T16:01:31Z</time>
      </trkpt>
      <trkpt lat="43.88693" lon="7.22773">
        <ele>565</ele>
        <time>2010-11-06T16:01:36Z</time>
      </trkpt>
      <trkpt lat="43.88689" lon="7.22779">
        <ele>564</ele>
        <time>2010-11-06T16:01:39Z</time>
      </trkpt>
      <trkpt lat="43.88685" lon="7.22788">
        <ele>564</ele>
        <time>2010-11-06T16:01:43Z</time>
      </trkpt>
      <trkpt lat="43.8868" lon="7.22785">
        <ele>563</ele>
        <time>2010-11-06T16:01:46Z</time>
      </trkpt>
      <trkpt lat="43.88675" lon="7.22772">
        <ele>563</ele>
        <time>2010-11-06T16:01:50Z</time>
      </trkpt>
      <trkpt lat="43.88674" lon="7.22764">
        <ele>562</ele>
        <time>2010-11-06T16:01:53Z</time>
      </trkpt>
      <trkpt lat="43.88673" lon="7.22758">
        <ele>561</ele>
        <time>2010-11-06T16:01:56Z</time>
      </trkpt>
      <trkpt lat="43.88674" lon="7.22757">
        <ele>561</ele>
        <time>2010-11-06T16:02:02Z</time>
      </trkpt>
      <trkpt lat="43.88672" lon="7.22754">
        <ele>560</ele>
        <time>2010-11-06T16:02:18Z</time>
      </trkpt>
      <trkpt lat="43.88668" lon="7.22744">
        <ele>563</ele>
        <time>2010-11-06T16:02:23Z</time>
      </trkpt>
      <trkpt lat="43.88667" lon="7.22739">
        <ele>555</ele>
        <time>2010-11-06T16:02:25Z</time>
      </trkpt>
      <trkpt lat="43.88654" lon="7.22743">
        <ele>553</ele>
        <time>2010-11-06T16:02:28Z</time>
      </trkpt>
      <trkpt lat="43.88635" lon="7.22752">
        <ele>545</ele>
        <time>2010-11-06T16:02:31Z</time>
      </trkpt>
      <trkpt lat="43.88629" lon="7.22755">
        <ele>544</ele>
        <time>2010-11-06T16:02:32Z</time>
      </trkpt>
      <trkpt lat="43.88616" lon="7.22758">
        <ele>540</ele>
        <time>2010-11-06T16:02:36Z</time>
      </trkpt>
      <trkpt lat="43.88613" lon="7.22761">
        <ele>539</ele>
        <time>2010-11-06T16:02:39Z</time>
      </trkpt>
      <trkpt lat="43.88612" lon="7.22764">
        <ele>539</ele>
        <time>2010-11-06T16:02:40Z</time>
      </trkpt>
      <trkpt lat="43.886" lon="7.22782">
        <ele>539</ele>
        <time>2010-11-06T16:02:44Z</time>
      </trkpt>
      <trkpt lat="43.8859" lon="7.22801">
        <ele>538</ele>
        <time>2010-11-06T16:02:48Z</time>
      </trkpt>
      <trkpt lat="43.88583" lon="7.22813">
        <ele>520</ele>
        <time>2010-11-06T16:02:54Z</time>
      </trkpt>
      <trkpt lat="43.88587" lon="7.22823">
        <ele>536</ele>
        <time>2010-11-06T16:02:59Z</time>
      </trkpt>
      <trkpt lat="43.88595" lon="7.22827">
        <ele>537</ele>
        <time>2010-11-06T16:03:04Z</time>
      </trkpt>
      <trkpt lat="43.88601" lon="7.22826">
        <ele>538</ele>
        <time>2010-11-06T16:03:07Z</time>
      </trkpt>
      <trkpt lat="43.88602" lon="7.22833">
        <ele>538</ele>
        <time>2010-11-06T16:03:10Z</time>
      </trkpt>
      <trkpt lat="43.88601" lon="7.22841">
        <ele>536</ele>
        <time>2010-11-06T16:03:14Z</time>
      </trkpt>
      <trkpt lat="43.88603" lon="7.22841">
        <ele>537</ele>
        <time>2010-11-06T16:03:15Z</time>
      </trkpt>
      <trkpt lat="43.8861" lon="7.22847">
        <ele>537</ele>
        <time>2010-11-06T16:03:20Z</time>
      </trkpt>
      <trkpt lat="43.88613" lon="7.22858">
        <ele>538</ele>
        <time>2010-11-06T16:03:24Z</time>
      </trkpt>
      <trkpt lat="43.88614" lon="7.22861">
        <ele>538</ele>
        <time>2010-11-06T16:03:25Z</time>
      </trkpt>
      <trkpt lat="43.88621" lon="7.22877">
        <ele>538</ele>
        <time>2010-11-06T16:03:30Z</time>
      </trkpt>
      <trkpt lat="43.8862" lon="7.22887">
        <ele>537</ele>
        <time>2010-11-06T16:03:34Z</time>
      </trkpt>
      <trkpt lat="43.88624" lon="7.22893">
        <ele>537</ele>
        <time>2010-11-06T16:03:37Z</time>
      </trkpt>
      <trkpt lat="43.88629" lon="7.22897">
        <ele>538</ele>
        <time>2010-11-06T16:03:40Z</time>
      </trkpt>
      <trkpt lat="43.88631" lon="7.22908">
        <ele>537</ele>
        <time>2010-11-06T16:03:44Z</time>
      </trkpt>
      <trkpt lat="43.88631" lon="7.22911">
        <ele>537</ele>
        <time>2010-11-06T16:03:45Z</time>
      </trkpt>
      <trkpt lat="43.88629" lon="7.22919">
        <ele>528</ele>
        <time>2010-11-06T16:03:47Z</time>
      </trkpt>
      <trkpt lat="43.88623" lon="7.22931">
        <ele>527</ele>
        <time>2010-11-06T16:03:51Z</time>
      </trkpt>
      <trkpt lat="43.88618" lon="7.22952">
        <ele>525</ele>
        <time>2010-11-06T16:03:56Z</time>
      </trkpt>
      <trkpt lat="43.88618" lon="7.22971">
        <ele>523</ele>
        <time>2010-11-06T16:04:00Z</time>
      </trkpt>
      <trkpt lat="43.88618" lon="7.22995">
        <ele>521</ele>
        <time>2010-11-06T16:04:05Z</time>
      </trkpt>
      <trkpt lat="43.88617" lon="7.23006">
        <ele>503</ele>
        <time>2010-11-06T16:04:08Z</time>
      </trkpt>
      <trkpt lat="43.88623" lon="7.23018">
        <ele>502</ele>
        <time>2010-11-06T16:04:13Z</time>
      </trkpt>
      <trkpt lat="43.88627" lon="7.23024">
        <ele>501</ele>
        <time>2010-11-06T16:04:15Z</time>
      </trkpt>
      <trkpt lat="43.88628" lon="7.23026">
        <ele>501</ele>
        <time>2010-11-06T16:04:25Z</time>
      </trkpt>
      <trkpt lat="43.88628" lon="7.23026">
        <ele>500</ele>
        <time>2010-11-06T16:04:35Z</time>
      </trkpt>
      <trkpt lat="43.88628" lon="7.23027">
        <ele>500</ele>
        <time>2010-11-06T16:04:42Z</time>
      </trkpt>
      <trkpt lat="43.88628" lon="7.23027">
        <ele>500</ele>
        <time>2010-11-06T16:04:48Z</time>
      </trkpt>
      <trkpt lat="43.88627" lon="7.23028">
        <ele>500</ele>
        <time>2010-11-06T16:04:58Z</time>
      </trkpt>
      <trkpt lat="43.88628" lon="7.23033">
        <ele>499</ele>
        <time>2010-11-06T16:05:04Z</time>
      </trkpt>
      <trkpt lat="43.88627" lon="7.23038">
        <ele>498</ele>
        <time>2010-11-06T16:05:08Z</time>
      </trkpt>
      <trkpt lat="43.88627" lon="7.23038">
        <ele>498</ele>
        <time>2010-11-06T16:05:13Z</time>
      </trkpt>
      <trkpt lat="43.88625" lon="7.23044">
        <ele>497</ele>
        <time>2010-11-06T16:05:20Z</time>
      </trkpt>
      <trkpt lat="43.88624" lon="7.23046">
        <ele>496</ele>
        <time>2010-11-06T16:05:22Z</time>
      </trkpt>
      <trkpt lat="43.88616" lon="7.23058">
        <ele>494</ele>
        <time>2010-11-06T16:05:28Z</time>
      </trkpt>
      <trkpt lat="43.88615" lon="7.2307">
        <ele>491</ele>
        <time>2010-11-06T16:05:32Z</time>
      </trkpt>
      <trkpt lat="43.8862" lon="7.23077">
        <ele>491</ele>
        <time>2010-11-06T16:05:36Z</time>
      </trkpt>
      <trkpt lat="43.8863" lon="7.23077">
        <ele>491</ele>
        <time>2010-11-06T16:05:41Z</time>
      </trkpt>
      <trkpt lat="43.88641" lon="7.23081">
        <ele>490</ele>
        <time>2010-11-06T16:05:46Z</time>
      </trkpt>
      <trkpt lat="43.88644" lon="7.23082">
        <ele>490</ele>
        <time>2010-11-06T16:05:47Z</time>
      </trkpt>
      <trkpt lat="43.88659" lon="7.23078">
        <ele>487</ele>
        <time>2010-11-06T16:05:52Z</time>
      </trkpt>
      <trkpt lat="43.88664" lon="7.23084">
        <ele>481</ele>
        <time>2010-11-06T16:05:55Z</time>
      </trkpt>
      <trkpt lat="43.88669" lon="7.23093">
        <ele>481</ele>
        <time>2010-11-06T16:05:58Z</time>
      </trkpt>
      <trkpt lat="43.88675" lon="7.23104">
        <ele>479</ele>
        <time>2010-11-06T16:06:04Z</time>
      </trkpt>
      <trkpt lat="43.88676" lon="7.23105">
        <ele>479</ele>
        <time>2010-11-06T16:06:05Z</time>
      </trkpt>
      <trkpt lat="43.88675" lon="7.23112">
        <ele>477</ele>
        <time>2010-11-06T16:06:10Z</time>
      </trkpt>
      <trkpt lat="43.88676" lon="7.23114">
        <ele>477</ele>
        <time>2010-11-06T16:06:12Z</time>
      </trkpt>
      <trkpt lat="43.88677" lon="7.23116">
        <ele>476</ele>
        <time>2010-11-06T16:06:19Z</time>
      </trkpt>
      <trkpt lat="43.88677" lon="7.23118">
        <ele>476</ele>
        <time>2010-11-06T16:06:25Z</time>
      </trkpt>
      <trkpt lat="43.88677" lon="7.2312">
        <ele>476</ele>
        <time>2010-11-06T16:06:33Z</time>
      </trkpt>
      <trkpt lat="43.88682" lon="7.23129">
        <ele>474</ele>
        <time>2010-11-06T16:06:37Z</time>
      </trkpt>
      <trkpt lat="43.8869" lon="7.23133">
        <ele>474</ele>
        <time>2010-11-06T16:06:40Z</time>
      </trkpt>
      <trkpt lat="43.88693" lon="7.23135">
        <ele>474</ele>
        <time>2010-11-06T16:06:45Z</time>
      </trkpt>
      <trkpt lat="43.88697" lon="7.23137">
        <ele>474</ele>
        <time>2010-11-06T16:06:55Z</time>
      </trkpt>
      <trkpt lat="43.887" lon="7.23142">
        <ele>473</ele>
        <time>2010-11-06T16:07:00Z</time>
      </trkpt>
      <trkpt lat="43.88711" lon="7.23155">
        <ele>473</ele>
        <time>2010-11-06T16:07:04Z</time>
      </trkpt>
      <trkpt lat="43.88719" lon="7.23173">
        <ele>451</ele>
        <time>2010-11-06T16:07:08Z</time>
      </trkpt>
      <trkpt lat="43.88725" lon="7.23182">
        <ele>451</ele>
        <time>2010-11-06T16:07:11Z</time>
      </trkpt>
      <trkpt lat="43.88744" lon="7.23199">
        <ele>449</ele>
        <time>2010-11-06T16:07:16Z</time>
      </trkpt>
      <trkpt lat="43.88756" lon="7.23215">
        <ele>459</ele>
        <time>2010-11-06T16:07:20Z</time>
      </trkpt>
      <trkpt lat="43.88757" lon="7.23219">
        <ele>458</ele>
        <time>2010-11-06T16:07:21Z</time>
      </trkpt>
      <trkpt lat="43.88758" lon="7.23224">
        <ele>456</ele>
        <time>2010-11-06T16:07:27Z</time>
      </trkpt>
      <trkpt lat="43.88758" lon="7.23226">
        <ele>455</ele>
        <time>2010-11-06T16:07:36Z</time>
      </trkpt>
      <trkpt lat="43.88758" lon="7.23231">
        <ele>453</ele>
        <time>2010-11-06T16:07:41Z</time>
      </trkpt>
      <trkpt lat="43.88758" lon="7.23233">
        <ele>452</ele>
        <time>2010-11-06T16:07:45Z</time>
      </trkpt>
      <trkpt lat="43.88757" lon="7.23234">
        <ele>451</ele>
        <time>2010-11-06T16:07:50Z</time>
      </trkpt>
      <trkpt lat="43.88757" lon="7.23233">
        <ele>451</ele>
        <time>2010-11-06T16:07:55Z</time>
      </trkpt>
      <trkpt lat="43.88758" lon="7.23233">
        <ele>452</ele>
        <time>2010-11-06T16:08:09Z</time>
      </trkpt>
      <trkpt lat="43.88758" lon="7.23232">
        <ele>452</ele>
        <time>2010-11-06T16:08:21Z</time>
      </trkpt>
      <trkpt lat="43.88759" lon="7.23232">
        <ele>452</ele>
        <time>2010-11-06T16:08:29Z</time>
      </trkpt>
      <trkpt lat="43.88758" lon="7.23235">
        <ele>451</ele>
        <time>2010-11-06T16:08:35Z</time>
      </trkpt>
      <trkpt lat="43.88757" lon="7.23239">
        <ele>448</ele>
        <time>2010-11-06T16:08:40Z</time>
      </trkpt>
      <trkpt lat="43.88758" lon="7.23244">
        <ele>446</ele>
        <time>2010-11-06T16:08:46Z</time>
      </trkpt>
      <trkpt lat="43.88759" lon="7.23246">
        <ele>445</ele>
        <time>2010-11-06T16:08:47Z</time>
      </trkpt>
      <trkpt lat="43.88762" lon="7.2325">
        <ele>441</ele>
        <time>2010-11-06T16:08:50Z</time>
      </trkpt>
      <trkpt lat="43.88767" lon="7.23257">
        <ele>443</ele>
        <time>2010-11-06T16:08:55Z</time>
      </trkpt>
      <trkpt lat="43.88769" lon="7.23263">
        <ele>444</ele>
        <time>2010-11-06T16:08:59Z</time>
      </trkpt>
      <trkpt lat="43.88761" lon="7.23263">
        <ele>442</ele>
        <time>2010-11-06T16:09:05Z</time>
      </trkpt>
      <trkpt lat="43.88765" lon="7.23268">
        <ele>443</ele>
        <time>2010-11-06T16:09:09Z</time>
      </trkpt>
      <trkpt lat="43.88768" lon="7.23271">
        <ele>444</ele>
        <time>2010-11-06T16:09:11Z</time>
      </trkpt>
      <trkpt lat="43.88774" lon="7.23276">
        <ele>446</ele>
        <time>2010-11-06T16:09:16Z</time>
      </trkpt>
      <trkpt lat="43.88778" lon="7.2328">
        <ele>446</ele>
        <time>2010-11-06T16:09:22Z</time>
      </trkpt>
      <trkpt lat="43.88776" lon="7.23281">
        <ele>446</ele>
        <time>2010-11-06T16:09:26Z</time>
      </trkpt>
      <trkpt lat="43.8877" lon="7.23282">
        <ele>445</ele>
        <time>2010-11-06T16:09:33Z</time>
      </trkpt>
      <trkpt lat="43.88773" lon="7.23284">
        <ele>445</ele>
        <time>2010-11-06T16:09:38Z</time>
      </trkpt>
      <trkpt lat="43.8877" lon="7.23285">
        <ele>445</ele>
        <time>2010-11-06T16:09:43Z</time>
      </trkpt>
      <trkpt lat="43.88766" lon="7.23287">
        <ele>444</ele>
        <time>2010-11-06T16:09:49Z</time>
      </trkpt>
      <trkpt lat="43.88766" lon="7.23287">
        <ele>444</ele>
        <time>2010-11-06T16:09:53Z</time>
      </trkpt>
      <trkpt lat="43.88756" lon="7.23288">
        <ele>443</ele>
        <time>2010-11-06T16:09:59Z</time>
      </trkpt>
      <trkpt lat="43.88749" lon="7.23293">
        <ele>423</ele>
        <time>2010-11-06T16:10:05Z</time>
      </trkpt>
      <trkpt lat="43.88747" lon="7.23296">
        <ele>422</ele>
        <time>2010-11-06T16:10:06Z</time>
      </trkpt>
      <trkpt lat="43.88742" lon="7.23309">
        <ele>422</ele>
        <time>2010-11-06T16:10:11Z</time>
      </trkpt>
      <trkpt lat="43.88737" lon="7.23308">
        <ele>421</ele>
        <time>2010-11-06T16:10:13Z</time>
      </trkpt>
      <trkpt lat="43.88732" lon="7.23306">
        <ele>421</ele>
        <time>2010-11-06T16:10:15Z</time>
      </trkpt>
      <trkpt lat="43.88728" lon="7.23309">
        <ele>420</ele>
        <time>2010-11-06T16:10:20Z</time>
      </trkpt>
      <trkpt lat="43.88728" lon="7.23309">
        <ele>420</ele>
        <time>2010-11-06T16:10:39Z</time>
      </trkpt>
      <trkpt lat="43.88724" lon="7.23307">
        <ele>419</ele>
        <time>2010-11-06T16:11:07Z</time>
      </trkpt>
      <trkpt lat="43.88719" lon="7.23306">
        <ele>418</ele>
        <time>2010-11-06T16:11:14Z</time>
      </trkpt>
      <trkpt lat="43.88717" lon="7.23303">
        <ele>418</ele>
        <time>2010-11-06T16:11:18Z</time>
      </trkpt>
      <trkpt lat="43.88713" lon="7.23295">
        <ele>418</ele>
        <time>2010-11-06T16:11:26Z</time>
      </trkpt>
      <trkpt lat="43.88711" lon="7.23292">
        <ele>418</ele>
        <time>2010-11-06T16:11:29Z</time>
      </trkpt>
      <trkpt lat="43.88703" lon="7.2329">
        <ele>416</ele>
        <time>2010-11-06T16:11:33Z</time>
      </trkpt>
      <trkpt lat="43.88692" lon="7.23292">
        <ele>414</ele>
        <time>2010-11-06T16:11:37Z</time>
      </trkpt>
      <trkpt lat="43.88682" lon="7.23306">
        <ele>411</ele>
        <time>2010-11-06T16:11:42Z</time>
      </trkpt>
      <trkpt lat="43.88672" lon="7.23314">
        <ele>407</ele>
        <time>2010-11-06T16:11:47Z</time>
      </trkpt>
      <trkpt lat="43.88662" lon="7.23321">
        <ele>394</ele>
        <time>2010-11-06T16:11:50Z</time>
      </trkpt>
      <trkpt lat="43.88645" lon="7.23335">
        <ele>391</ele>
        <time>2010-11-06T16:11:55Z</time>
      </trkpt>
      <trkpt lat="43.88636" lon="7.23342">
        <ele>389</ele>
        <time>2010-11-06T16:11:59Z</time>
      </trkpt>
      <trkpt lat="43.88625" lon="7.23351">
        <ele>387</ele>
        <time>2010-11-06T16:12:04Z</time>
      </trkpt>
      <trkpt lat="43.88619" lon="7.23357">
        <ele>387</ele>
        <time>2010-11-06T16:12:08Z</time>
      </trkpt>
      <trkpt lat="43.88616" lon="7.2336">
        <ele>386</ele>
        <time>2010-11-06T16:12:10Z</time>
      </trkpt>
      <trkpt lat="43.88613" lon="7.23364">
        <ele>386</ele>
        <time>2010-11-06T16:12:13Z</time>
      </trkpt>
      <trkpt lat="43.88613" lon="7.23367">
        <ele>386</ele>
        <time>2010-11-06T16:12:18Z</time>
      </trkpt>
      <trkpt lat="43.88614" lon="7.23384">
        <ele>388</ele>
        <time>2010-11-06T16:12:24Z</time>
      </trkpt>
      <trkpt lat="43.88614" lon="7.23391">
        <ele>388</ele>
        <time>2010-11-06T16:12:29Z</time>
      </trkpt>
      <trkpt lat="43.88615" lon="7.23396">
        <ele>388</ele>
        <time>2010-11-06T16:12:34Z</time>
      </trkpt>
      <trkpt lat="43.88615" lon="7.23401">
        <ele>388</ele>
        <time>2010-11-06T16:12:40Z</time>
      </trkpt>
      <trkpt lat="43.88614" lon="7.23403">
        <ele>388</ele>
        <time>2010-11-06T16:13:11Z</time>
      </trkpt>
      <trkpt lat="43.88613" lon="7.23403">
        <ele>388</ele>
        <time>2010-11-06T16:13:28Z</time>
      </trkpt>
      <trkpt lat="43.88604" lon="7.23417">
        <ele>386</ele>
        <time>2010-11-06T16:13:33Z</time>
      </trkpt>
      <trkpt lat="43.88591" lon="7.23438">
        <ele>396</ele>
        <time>2010-11-06T16:13:38Z</time>
      </trkpt>
      <trkpt lat="43.88569" lon="7.23472">
        <ele>382</ele>
        <time>2010-11-06T16:13:46Z</time>
      </trkpt>
      <trkpt lat="43.88555" lon="7.23487">
        <ele>382</ele>
        <time>2010-11-06T16:13:51Z</time>
      </trkpt>
      <trkpt lat="43.88548" lon="7.23492">
        <ele>381</ele>
        <time>2010-11-06T16:13:55Z</time>
      </trkpt>
      <trkpt lat="43.88538" lon="7.23499">
        <ele>378</ele>
        <time>2010-11-06T16:13:59Z</time>
      </trkpt>
      <trkpt lat="43.88527" lon="7.23506">
        <ele>391</ele>
        <time>2010-11-06T16:14:03Z</time>
      </trkpt>
      <trkpt lat="43.88508" lon="7.23514">
        <ele>386</ele>
        <time>2010-11-06T16:14:07Z</time>
      </trkpt>
      <trkpt lat="43.88477" lon="7.23521">
        <ele>375</ele>
        <time>2010-11-06T16:14:13Z</time>
      </trkpt>
      <trkpt lat="43.8845" lon="7.23525">
        <ele>373</ele>
        <time>2010-11-06T16:14:17Z</time>
      </trkpt>
      <trkpt lat="43.88417" lon="7.23532">
        <ele>359</ele>
        <time>2010-11-06T16:14:22Z</time>
      </trkpt>
      <trkpt lat="43.88407" lon="7.23532">
        <ele>359</ele>
        <time>2010-11-06T16:14:25Z</time>
      </trkpt>
      <trkpt lat="43.88398" lon="7.23535">
        <ele>359</ele>
        <time>2010-11-06T16:14:30Z</time>
      </trkpt>
      <trkpt lat="43.8838" lon="7.23547">
        <ele>359</ele>
        <time>2010-11-06T16:14:36Z</time>
      </trkpt>
      <trkpt lat="43.88353" lon="7.23573">
        <ele>357</ele>
        <time>2010-11-06T16:14:44Z</time>
      </trkpt>
      <trkpt lat="43.88346" lon="7.23599">
        <ele>362</ele>
        <time>2010-11-06T16:14:48Z</time>
      </trkpt>
      <trkpt lat="43.88341" lon="7.23643">
        <ele>361</ele>
        <time>2010-11-06T16:14:53Z</time>
      </trkpt>
      <trkpt lat="43.88341" lon="7.23683">
        <ele>356</ele>
        <time>2010-11-06T16:14:58Z</time>
      </trkpt>
      <trkpt lat="43.88347" lon="7.23706">
        <ele>357</ele>
        <time>2010-11-06T16:15:01Z</time>
      </trkpt>
      <trkpt lat="43.88358" lon="7.23724">
        <ele>357</ele>
        <time>2010-11-06T16:15:05Z</time>
      </trkpt>
      <trkpt lat="43.88353" lon="7.23729">
        <ele>355</ele>
        <time>2010-11-06T16:15:07Z</time>
      </trkpt>
      <trkpt lat="43.88348" lon="7.23718">
        <ele>356</ele>
        <time>2010-11-06T16:15:09Z</time>
      </trkpt>
      <trkpt lat="43.88333" lon="7.23691">
        <ele>335</ele>
        <time>2010-11-06T16:15:14Z</time>
      </trkpt>
      <trkpt lat="43.88318" lon="7.23657">
        <ele>343</ele>
        <time>2010-11-06T16:15:19Z</time>
      </trkpt>
      <trkpt lat="43.88309" lon="7.23625">
        <ele>340</ele>
        <time>2010-11-06T16:15:25Z</time>
      </trkpt>
      <trkpt lat="43.88301" lon="7.23616">
        <ele>339</ele>
        <time>2010-11-06T16:15:32Z</time>
      </trkpt>
      <trkpt lat="43.88298" lon="7.23606">
        <ele>339</ele>
        <time>2010-11-06T16:15:37Z</time>
      </trkpt>
      <trkpt lat="43.88294" lon="7.23597">
        <ele>338</ele>
        <time>2010-11-06T16:15:41Z</time>
      </trkpt>
      <trkpt lat="43.8828" lon="7.23585">
        <ele>335</ele>
        <time>2010-11-06T16:15:46Z</time>
      </trkpt>
      <trkpt lat="43.88267" lon="7.23573">
        <ele>333</ele>
        <time>2010-11-06T16:15:50Z</time>
      </trkpt>
      <trkpt lat="43.88248" lon="7.23557">
        <ele>319</ele>
        <time>2010-11-06T16:15:55Z</time>
      </trkpt>
      <trkpt lat="43.88243" lon="7.23553">
        <ele>318</ele>
        <time>2010-11-06T16:15:56Z</time>
      </trkpt>
      <trkpt lat="43.8823" lon="7.23529">
        <ele>316</ele>
        <time>2010-11-06T16:16:00Z</time>
      </trkpt>
      <trkpt lat="43.88225" lon="7.23523">
        <ele>315</ele>
        <time>2010-11-06T16:16:03Z</time>
      </trkpt>
      <trkpt lat="43.88218" lon="7.23517">
        <ele>315</ele>
        <time>2010-11-06T16:16:07Z</time>
      </trkpt>
      <trkpt lat="43.8821" lon="7.23517">
        <ele>313</ele>
        <time>2010-11-06T16:16:10Z</time>
      </trkpt>
      <trkpt lat="43.88202" lon="7.23502">
        <ele>311</ele>
        <time>2010-11-06T16:16:15Z</time>
      </trkpt>
      <trkpt lat="43.88195" lon="7.23481">
        <ele>303</ele>
        <time>2010-11-06T16:16:20Z</time>
      </trkpt>
      <trkpt lat="43.88193" lon="7.23464">
        <ele>301</ele>
        <time>2010-11-06T16:16:24Z</time>
      </trkpt>
      <trkpt lat="43.88196" lon="7.23455">
        <ele>300</ele>
        <time>2010-11-06T16:16:28Z</time>
      </trkpt>
      <trkpt lat="43.88191" lon="7.23455">
        <ele>300</ele>
        <time>2010-11-06T16:16:30Z</time>
      </trkpt>
      <trkpt lat="43.88184" lon="7.23459">
        <ele>300</ele>
        <time>2010-11-06T16:16:33Z</time>
      </trkpt>
      <trkpt lat="43.8818" lon="7.23455">
        <ele>299</ele>
        <time>2010-11-06T16:16:37Z</time>
      </trkpt>
      <trkpt lat="43.8818" lon="7.23456">
        <ele>299</ele>
        <time>2010-11-06T16:16:42Z</time>
      </trkpt>
      <trkpt lat="43.8818" lon="7.23455">
        <ele>299</ele>
        <time>2010-11-06T16:16:49Z</time>
      </trkpt>
      <trkpt lat="43.88179" lon="7.23455">
        <ele>299</ele>
        <time>2010-11-06T16:17:03Z</time>
      </trkpt>
      <trkpt lat="43.88181" lon="7.23451">
        <ele>298</ele>
        <time>2010-11-06T16:17:07Z</time>
      </trkpt>
      <trkpt lat="43.88182" lon="7.23451">
        <ele>298</ele>
        <time>2010-11-06T16:17:12Z</time>
      </trkpt>
      <trkpt lat="43.88182" lon="7.23449">
        <ele>298</ele>
        <time>2010-11-06T16:17:13Z</time>
      </trkpt>
      <trkpt lat="43.88185" lon="7.23443">
        <ele>297</ele>
        <time>2010-11-06T16:17:18Z</time>
      </trkpt>
      <trkpt lat="43.88186" lon="7.23439">
        <ele>297</ele>
        <time>2010-11-06T16:17:22Z</time>
      </trkpt>
      <trkpt lat="43.88185" lon="7.23438">
        <ele>296</ele>
        <time>2010-11-06T16:17:25Z</time>
      </trkpt>
      <trkpt lat="43.88172" lon="7.23435">
        <ele>294</ele>
        <time>2010-11-06T16:17:29Z</time>
      </trkpt>
      <trkpt lat="43.88171" lon="7.23434">
        <ele>294</ele>
        <time>2010-11-06T16:17:34Z</time>
      </trkpt>
      <trkpt lat="43.88172" lon="7.23434">
        <ele>294</ele>
        <time>2010-11-06T16:17:37Z</time>
      </trkpt>
      <trkpt lat="43.88153" lon="7.23423">
        <ele>284</ele>
        <time>2010-11-06T16:17:43Z</time>
      </trkpt>
      <trkpt lat="43.88141" lon="7.23419">
        <ele>283</ele>
        <time>2010-11-06T16:17:47Z</time>
      </trkpt>
      <trkpt lat="43.88127" lon="7.23416">
        <ele>271</ele>
        <time>2010-11-06T16:17:51Z</time>
      </trkpt>
      <trkpt lat="43.88119" lon="7.23414">
        <ele>269</ele>
        <time>2010-11-06T16:17:53Z</time>
      </trkpt>
      <trkpt lat="43.88109" lon="7.2342">
        <ele>277</ele>
        <time>2010-11-06T16:17:56Z</time>
      </trkpt>
      <trkpt lat="43.88102" lon="7.23438">
        <ele>278</ele>
        <time>2010-11-06T16:18:01Z</time>
      </trkpt>
      <trkpt lat="43.88101" lon="7.23439">
        <ele>278</ele>
        <time>2010-11-06T16:18:02Z</time>
      </trkpt>
      <trkpt lat="43.88099" lon="7.23433">
        <ele>277</ele>
        <time>2010-11-06T16:18:07Z</time>
      </trkpt>
      <trkpt lat="43.88102" lon="7.23419">
        <ele>276</ele>
        <time>2010-11-06T16:18:10Z</time>
      </trkpt>
      <trkpt lat="43.88112" lon="7.23406">
        <ele>268</ele>
        <time>2010-11-06T16:18:13Z</time>
      </trkpt>
      <trkpt lat="43.8811" lon="7.23402">
        <ele>268</ele>
        <time>2010-11-06T16:18:16Z</time>
      </trkpt>
      <trkpt lat="43.88109" lon="7.23403">
        <ele>268</ele>
        <time>2010-11-06T16:18:17Z</time>
      </trkpt>
      <trkpt lat="43.88099" lon="7.23406">
        <ele>267</ele>
        <time>2010-11-06T16:18:23Z</time>
      </trkpt>
      <trkpt lat="43.88097" lon="7.23405">
        <ele>267</ele>
        <time>2010-11-06T16:18:25Z</time>
      </trkpt>
      <trkpt lat="43.88099" lon="7.23396">
        <ele>267</ele>
        <time>2010-11-06T16:18:29Z</time>
      </trkpt>
      <trkpt lat="43.88104" lon="7.23393">
        <ele>267</ele>
        <time>2010-11-06T16:18:33Z</time>
      </trkpt>
      <trkpt lat="43.88106" lon="7.23395">
        <ele>267</ele>
        <time>2010-11-06T16:18:37Z</time>
      </trkpt>
      <trkpt lat="43.88105" lon="7.23394">
        <ele>267</ele>
        <time>2010-11-06T16:18:39Z</time>
      </trkpt>
      <trkpt lat="43.881" lon="7.23385">
        <ele>266</ele>
        <time>2010-11-06T16:18:44Z</time>
      </trkpt>
      <trkpt lat="43.881" lon="7.23384">
        <ele>266</ele>
        <time>2010-11-06T16:18:50Z</time>
      </trkpt>
      <trkpt lat="43.88103" lon="7.23383">
        <ele>266</ele>
        <time>2010-11-06T16:18:55Z</time>
      </trkpt>
      <trkpt lat="43.88103" lon="7.2338">
        <ele>265</ele>
        <time>2010-11-06T16:18:58Z</time>
      </trkpt>
      <trkpt lat="43.88101" lon="7.23378">
        <ele>265</ele>
        <time>2010-11-06T16:19:00Z</time>
      </trkpt>
      <trkpt lat="43.88094" lon="7.23375">
        <ele>264</ele>
        <time>2010-11-06T16:19:05Z</time>
      </trkpt>
      <trkpt lat="43.88088" lon="7.23376">
        <ele>264</ele>
        <time>2010-11-06T16:19:10Z</time>
      </trkpt>
      <trkpt lat="43.88085" lon="7.23363">
        <ele>261</ele>
        <time>2010-11-06T16:19:13Z</time>
      </trkpt>
      <trkpt lat="43.88094" lon="7.23358">
        <ele>261</ele>
        <time>2010-11-06T16:19:15Z</time>
      </trkpt>
      <trkpt lat="43.88103" lon="7.23359">
        <ele>262</ele>
        <time>2010-11-06T16:19:18Z</time>
      </trkpt>
      <trkpt lat="43.88107" lon="7.2336">
        <ele>263</ele>
        <time>2010-11-06T16:19:19Z</time>
      </trkpt>
      <trkpt lat="43.88129" lon="7.23365">
        <ele>266</ele>
        <time>2010-11-06T16:19:23Z</time>
      </trkpt>
      <trkpt lat="43.8816" lon="7.23353">
        <ele>268</ele>
        <time>2010-11-06T16:19:28Z</time>
      </trkpt>
      <trkpt lat="43.8818" lon="7.23323">
        <ele>277</ele>
        <time>2010-11-06T16:19:32Z</time>
      </trkpt>
      <trkpt lat="43.88174" lon="7.23308">
        <ele>281</ele>
        <time>2010-11-06T16:19:34Z</time>
      </trkpt>
      <trkpt lat="43.88162" lon="7.23303">
        <ele>268</ele>
        <time>2010-11-06T16:19:36Z</time>
      </trkpt>
      <trkpt lat="43.88119" lon="7.23291">
        <ele>264</ele>
        <time>2010-11-06T16:19:43Z</time>
      </trkpt>
      <trkpt lat="43.881" lon="7.23268">
        <ele>261</ele>
        <time>2010-11-06T16:19:48Z</time>
      </trkpt>
      <trkpt lat="43.88074" lon="7.23221">
        <ele>246</ele>
        <time>2010-11-06T16:19:56Z</time>
      </trkpt>
      <trkpt lat="43.88069" lon="7.23207">
        <ele>246</ele>
        <time>2010-11-06T16:19:58Z</time>
      </trkpt>
      <trkpt lat="43.88062" lon="7.2317">
        <ele>249</ele>
        <time>2010-11-06T16:20:02Z</time>
      </trkpt>
      <trkpt lat="43.88062" lon="7.23148">
        <ele>245</ele>
        <time>2010-11-06T16:20:04Z</time>
      </trkpt>
      <trkpt lat="43.88072" lon="7.23109">
        <ele>243</ele>
        <time>2010-11-06T16:20:08Z</time>
      </trkpt>
      <trkpt lat="43.8808" lon="7.23091">
        <ele>246</ele>
        <time>2010-11-06T16:20:10Z</time>
      </trkpt>
      <trkpt lat="43.88099" lon="7.23045">
        <ele>265</ele>
        <time>2010-11-06T16:20:15Z</time>
      </trkpt>
      <trkpt lat="43.88094" lon="7.23029">
        <ele>266</ele>
        <time>2010-11-06T16:20:17Z</time>
      </trkpt>
      <trkpt lat="43.8808" lon="7.23023">
        <ele>250</ele>
        <time>2010-11-06T16:20:19Z</time>
      </trkpt>
      <trkpt lat="43.88072" lon="7.23024">
        <ele>249</ele>
        <time>2010-11-06T16:20:20Z</time>
      </trkpt>
      <trkpt lat="43.88033" lon="7.23013">
        <ele>243</ele>
        <time>2010-11-06T16:20:25Z</time>
      </trkpt>
      <trkpt lat="43.88025" lon="7.23012">
        <ele>241</ele>
        <time>2010-11-06T16:20:27Z</time>
      </trkpt>
      <trkpt lat="43.88027" lon="7.23027">
        <ele>241</ele>
        <time>2010-11-06T16:20:29Z</time>
      </trkpt>
      <trkpt lat="43.88042" lon="7.23046">
        <ele>242</ele>
        <time>2010-11-06T16:20:32Z</time>
      </trkpt>
      <trkpt lat="43.88056" lon="7.23045">
        <ele>244</ele>
        <time>2010-11-06T16:20:34Z</time>
      </trkpt>
      <trkpt lat="43.8807" lon="7.23054">
        <ele>245</ele>
        <time>2010-11-06T16:20:36Z</time>
      </trkpt>
      <trkpt lat="43.88071" lon="7.23076">
        <ele>245</ele>
        <time>2010-11-06T16:20:38Z</time>
      </trkpt>
      <trkpt lat="43.88058" lon="7.23104">
        <ele>241</ele>
        <time>2010-11-06T16:20:41Z</time>
      </trkpt>
      <trkpt lat="43.88036" lon="7.23119">
        <ele>238</ele>
        <time>2010-11-06T16:20:44Z</time>
      </trkpt>
      <trkpt lat="43.88027" lon="7.23119">
        <ele>236</ele>
        <time>2010-11-06T16:20:45Z</time>
      </trkpt>
      <trkpt lat="43.88006" lon="7.23134">
        <ele>234</ele>
        <time>2010-11-06T16:20:49Z</time>
      </trkpt>
      <trkpt lat="43.88004" lon="7.23143">
        <ele>233</ele>
        <time>2010-11-06T16:20:50Z</time>
      </trkpt>
      <trkpt lat="43.87985" lon="7.23211">
        <ele>214</ele>
        <time>2010-11-06T16:20:57Z</time>
      </trkpt>
      <trkpt lat="43.87973" lon="7.23216">
        <ele>212</ele>
        <time>2010-11-06T16:21:00Z</time>
      </trkpt>
      <trkpt lat="43.87969" lon="7.23203">
        <ele>211</ele>
        <time>2010-11-06T16:21:02Z</time>
      </trkpt>
      <trkpt lat="43.87964" lon="7.23134">
        <ele>211</ele>
        <time>2010-11-06T16:21:08Z</time>
      </trkpt>
      <trkpt lat="43.87971" lon="7.2311">
        <ele>212</ele>
        <time>2010-11-06T16:21:11Z</time>
      </trkpt>
      <trkpt lat="43.87987" lon="7.23103">
        <ele>215</ele>
        <time>2010-11-06T16:21:13Z</time>
      </trkpt>
      <trkpt lat="43.88003" lon="7.23099">
        <ele>229</ele>
        <time>2010-11-06T16:21:15Z</time>
      </trkpt>
      <trkpt lat="43.88017" lon="7.23089">
        <ele>231</ele>
        <time>2010-11-06T16:21:17Z</time>
      </trkpt>
      <trkpt lat="43.88005" lon="7.23083">
        <ele>226</ele>
        <time>2010-11-06T16:21:20Z</time>
      </trkpt>
      <trkpt lat="43.87998" lon="7.23083">
        <ele>221</ele>
        <time>2010-11-06T16:21:21Z</time>
      </trkpt>
      <trkpt lat="43.87963" lon="7.23092">
        <ele>211</ele>
        <time>2010-11-06T16:21:25Z</time>
      </trkpt>
      <trkpt lat="43.87942" lon="7.23109">
        <ele>207</ele>
        <time>2010-11-06T16:21:28Z</time>
      </trkpt>
      <trkpt lat="43.87941" lon="7.23132">
        <ele>206</ele>
        <time>2010-11-06T16:21:30Z</time>
      </trkpt>
      <trkpt lat="43.87945" lon="7.23221">
        <ele>207</ele>
        <time>2010-11-06T16:21:37Z</time>
      </trkpt>
      <trkpt lat="43.8795" lon="7.23269">
        <ele>205</ele>
        <time>2010-11-06T16:21:41Z</time>
      </trkpt>
      <trkpt lat="43.87955" lon="7.233">
        <ele>205</ele>
        <time>2010-11-06T16:21:44Z</time>
      </trkpt>
      <trkpt lat="43.87967" lon="7.23327">
        <ele>208</ele>
        <time>2010-11-06T16:21:48Z</time>
      </trkpt>
      <trkpt lat="43.87971" lon="7.23332">
        <ele>209</ele>
        <time>2010-11-06T16:21:49Z</time>
      </trkpt>
      <trkpt lat="43.87979" lon="7.23347">
        <ele>212</ele>
        <time>2010-11-06T16:21:53Z</time>
      </trkpt>
      <trkpt lat="43.87979" lon="7.23347">
        <ele>211</ele>
        <time>2010-11-06T16:21:58Z</time>
      </trkpt>
      <trkpt lat="43.87979" lon="7.23346">
        <ele>212</ele>
        <time>2010-11-06T16:22:03Z</time>
      </trkpt>
      <trkpt lat="43.8798" lon="7.23347">
        <ele>212</ele>
        <time>2010-11-06T16:22:17Z</time>
      </trkpt>
      <trkpt lat="43.87979" lon="7.23345">
        <ele>212</ele>
        <time>2010-11-06T16:22:21Z</time>
      </trkpt>
      <trkpt lat="43.87979" lon="7.23343">
        <ele>212</ele>
        <time>2010-11-06T16:22:27Z</time>
      </trkpt>
    </trkseg>
  </trk>
</gpx>